<?xml version="1.0" encoding="UTF-8" standalone="no" ?>
<gpx xmlns="http://www.topografix.com/GPX/1/1" xmlns:xsi="http://www.w3.org/2001/XMLSchema-instance" xsi:schemaLocation="http://www.topografix.com/GPX/1/1 http://www.topografix.com/GPX/1/1/gpx.xsd" version="1.1" creator="VisuGPX - https://www.visugpx.com">
  <metadata>
    <name>Parcour 62km extrème loue 2015</name>
    <desc><![CDATA[Extrème sur loue - Rando VTT - vallée d\'Ornans - doubs 25]]></desc>
  </metadata>
  <trk>
    <name><![CDATA[Tracé 4 oct. 2015 09:17:53]]></name>
    <trkseg>
      <trkpt lat="47.10185" lon="6.16088">
        <ele>337</ele>
        <time>2015-10-04T07:17:53Z</time>
      </trkpt>
      <trkpt lat="47.10184" lon="6.16092">
        <ele>371</ele>
        <time>2015-10-04T07:18:02Z</time>
      </trkpt>
      <trkpt lat="47.1019" lon="6.16084">
        <ele>349</ele>
        <time>2015-10-04T07:18:07Z</time>
      </trkpt>
      <trkpt lat="47.10181" lon="6.1608">
        <ele>340</ele>
        <time>2015-10-04T07:20:05Z</time>
      </trkpt>
      <trkpt lat="47.10165" lon="6.16076">
        <ele>341</ele>
        <time>2015-10-04T07:20:09Z</time>
      </trkpt>
      <trkpt lat="47.10152" lon="6.16075">
        <ele>343</ele>
        <time>2015-10-04T07:20:13Z</time>
      </trkpt>
      <trkpt lat="47.10143" lon="6.16075">
        <ele>341</ele>
        <time>2015-10-04T07:20:17Z</time>
      </trkpt>
      <trkpt lat="47.10128" lon="6.16078">
        <ele>338</ele>
        <time>2015-10-04T07:20:21Z</time>
      </trkpt>
      <trkpt lat="47.1012" lon="6.16082">
        <ele>338</ele>
        <time>2015-10-04T07:20:25Z</time>
      </trkpt>
      <trkpt lat="47.10113" lon="6.16086">
        <ele>338</ele>
        <time>2015-10-04T07:20:29Z</time>
      </trkpt>
      <trkpt lat="47.10109" lon="6.16096">
        <ele>337</ele>
        <time>2015-10-04T07:20:33Z</time>
      </trkpt>
      <trkpt lat="47.10115" lon="6.16111">
        <ele>337</ele>
        <time>2015-10-04T07:20:38Z</time>
      </trkpt>
      <trkpt lat="47.10121" lon="6.16122">
        <ele>336</ele>
        <time>2015-10-04T07:20:43Z</time>
      </trkpt>
      <trkpt lat="47.10129" lon="6.16138">
        <ele>336</ele>
        <time>2015-10-04T07:20:48Z</time>
      </trkpt>
      <trkpt lat="47.10136" lon="6.1615">
        <ele>334</ele>
        <time>2015-10-04T07:20:51Z</time>
      </trkpt>
      <trkpt lat="47.10146" lon="6.16155">
        <ele>334</ele>
        <time>2015-10-04T07:20:55Z</time>
      </trkpt>
      <trkpt lat="47.10157" lon="6.16153">
        <ele>337</ele>
        <time>2015-10-04T07:20:59Z</time>
      </trkpt>
      <trkpt lat="47.10169" lon="6.16158">
        <ele>338</ele>
        <time>2015-10-04T07:21:04Z</time>
      </trkpt>
      <trkpt lat="47.10178" lon="6.16166">
        <ele>339</ele>
        <time>2015-10-04T07:21:09Z</time>
      </trkpt>
      <trkpt lat="47.10183" lon="6.16177">
        <ele>339</ele>
        <time>2015-10-04T07:21:14Z</time>
      </trkpt>
      <trkpt lat="47.10186" lon="6.16206">
        <ele>339</ele>
        <time>2015-10-04T07:21:18Z</time>
      </trkpt>
      <trkpt lat="47.10175" lon="6.16238">
        <ele>338</ele>
        <time>2015-10-04T07:21:23Z</time>
      </trkpt>
      <trkpt lat="47.1016" lon="6.16252">
        <ele>339</ele>
        <time>2015-10-04T07:21:28Z</time>
      </trkpt>
      <trkpt lat="47.10143" lon="6.16254">
        <ele>337</ele>
        <time>2015-10-04T07:21:33Z</time>
      </trkpt>
      <trkpt lat="47.10128" lon="6.16249">
        <ele>338</ele>
        <time>2015-10-04T07:21:36Z</time>
      </trkpt>
      <trkpt lat="47.10116" lon="6.16255">
        <ele>340</ele>
        <time>2015-10-04T07:21:40Z</time>
      </trkpt>
      <trkpt lat="47.10104" lon="6.16267">
        <ele>339</ele>
        <time>2015-10-04T07:21:44Z</time>
      </trkpt>
      <trkpt lat="47.10089" lon="6.16277">
        <ele>340</ele>
        <time>2015-10-04T07:21:49Z</time>
      </trkpt>
      <trkpt lat="47.10072" lon="6.16288">
        <ele>339</ele>
        <time>2015-10-04T07:21:52Z</time>
      </trkpt>
      <trkpt lat="47.10058" lon="6.16299">
        <ele>338</ele>
        <time>2015-10-04T07:21:57Z</time>
      </trkpt>
      <trkpt lat="47.1004" lon="6.16316">
        <ele>340</ele>
        <time>2015-10-04T07:22:01Z</time>
      </trkpt>
      <trkpt lat="47.10023" lon="6.16333">
        <ele>339</ele>
        <time>2015-10-04T07:22:06Z</time>
      </trkpt>
      <trkpt lat="47.1001" lon="6.16346">
        <ele>338</ele>
        <time>2015-10-04T07:22:11Z</time>
      </trkpt>
      <trkpt lat="47.09996" lon="6.1636">
        <ele>337</ele>
        <time>2015-10-04T07:22:14Z</time>
      </trkpt>
      <trkpt lat="47.09976" lon="6.16378">
        <ele>336</ele>
        <time>2015-10-04T07:22:19Z</time>
      </trkpt>
      <trkpt lat="47.09963" lon="6.16395">
        <ele>338</ele>
        <time>2015-10-04T07:22:24Z</time>
      </trkpt>
      <trkpt lat="47.09946" lon="6.16415">
        <ele>341</ele>
        <time>2015-10-04T07:22:29Z</time>
      </trkpt>
      <trkpt lat="47.09925" lon="6.16435">
        <ele>341</ele>
        <time>2015-10-04T07:22:33Z</time>
      </trkpt>
      <trkpt lat="47.09908" lon="6.16449">
        <ele>340</ele>
        <time>2015-10-04T07:22:37Z</time>
      </trkpt>
      <trkpt lat="47.0989" lon="6.16468">
        <ele>340</ele>
        <time>2015-10-04T07:22:42Z</time>
      </trkpt>
      <trkpt lat="47.09875" lon="6.16484">
        <ele>340</ele>
        <time>2015-10-04T07:22:46Z</time>
      </trkpt>
      <trkpt lat="47.09855" lon="6.16504">
        <ele>340</ele>
        <time>2015-10-04T07:22:51Z</time>
      </trkpt>
      <trkpt lat="47.09838" lon="6.16523">
        <ele>338</ele>
        <time>2015-10-04T07:22:55Z</time>
      </trkpt>
      <trkpt lat="47.0982" lon="6.16539">
        <ele>338</ele>
        <time>2015-10-04T07:22:59Z</time>
      </trkpt>
      <trkpt lat="47.09808" lon="6.16555">
        <ele>337</ele>
        <time>2015-10-04T07:23:04Z</time>
      </trkpt>
      <trkpt lat="47.09792" lon="6.1657">
        <ele>337</ele>
        <time>2015-10-04T07:23:07Z</time>
      </trkpt>
      <trkpt lat="47.09779" lon="6.16584">
        <ele>338</ele>
        <time>2015-10-04T07:23:11Z</time>
      </trkpt>
      <trkpt lat="47.09764" lon="6.16599">
        <ele>338</ele>
        <time>2015-10-04T07:23:15Z</time>
      </trkpt>
      <trkpt lat="47.0975" lon="6.16613">
        <ele>337</ele>
        <time>2015-10-04T07:23:20Z</time>
      </trkpt>
      <trkpt lat="47.09731" lon="6.1663">
        <ele>338</ele>
        <time>2015-10-04T07:23:24Z</time>
      </trkpt>
      <trkpt lat="47.09716" lon="6.16644">
        <ele>337</ele>
        <time>2015-10-04T07:23:28Z</time>
      </trkpt>
      <trkpt lat="47.09701" lon="6.16659">
        <ele>337</ele>
        <time>2015-10-04T07:23:33Z</time>
      </trkpt>
      <trkpt lat="47.09688" lon="6.16674">
        <ele>337</ele>
        <time>2015-10-04T07:23:37Z</time>
      </trkpt>
      <trkpt lat="47.09674" lon="6.16688">
        <ele>337</ele>
        <time>2015-10-04T07:23:41Z</time>
      </trkpt>
      <trkpt lat="47.09658" lon="6.16703">
        <ele>336</ele>
        <time>2015-10-04T07:23:46Z</time>
      </trkpt>
      <trkpt lat="47.09644" lon="6.16716">
        <ele>337</ele>
        <time>2015-10-04T07:23:49Z</time>
      </trkpt>
      <trkpt lat="47.09631" lon="6.1673">
        <ele>338</ele>
        <time>2015-10-04T07:23:53Z</time>
      </trkpt>
      <trkpt lat="47.09618" lon="6.16744">
        <ele>337</ele>
        <time>2015-10-04T07:23:57Z</time>
      </trkpt>
      <trkpt lat="47.09601" lon="6.1676">
        <ele>337</ele>
        <time>2015-10-04T07:24:02Z</time>
      </trkpt>
      <trkpt lat="47.09584" lon="6.16777">
        <ele>337</ele>
        <time>2015-10-04T07:24:07Z</time>
      </trkpt>
      <trkpt lat="47.09571" lon="6.1679">
        <ele>337</ele>
        <time>2015-10-04T07:24:11Z</time>
      </trkpt>
      <trkpt lat="47.09558" lon="6.16804">
        <ele>337</ele>
        <time>2015-10-04T07:24:15Z</time>
      </trkpt>
      <trkpt lat="47.09541" lon="6.16821">
        <ele>338</ele>
        <time>2015-10-04T07:24:20Z</time>
      </trkpt>
      <trkpt lat="47.09528" lon="6.16836">
        <ele>338</ele>
        <time>2015-10-04T07:24:24Z</time>
      </trkpt>
      <trkpt lat="47.09508" lon="6.16857">
        <ele>339</ele>
        <time>2015-10-04T07:24:29Z</time>
      </trkpt>
      <trkpt lat="47.09493" lon="6.16871">
        <ele>339</ele>
        <time>2015-10-04T07:24:34Z</time>
      </trkpt>
      <trkpt lat="47.09476" lon="6.1689">
        <ele>338</ele>
        <time>2015-10-04T07:24:38Z</time>
      </trkpt>
      <trkpt lat="47.09461" lon="6.16904">
        <ele>339</ele>
        <time>2015-10-04T07:24:43Z</time>
      </trkpt>
      <trkpt lat="47.09447" lon="6.16896">
        <ele>340</ele>
        <time>2015-10-04T07:24:47Z</time>
      </trkpt>
      <trkpt lat="47.09437" lon="6.16889">
        <ele>340</ele>
        <time>2015-10-04T07:24:52Z</time>
      </trkpt>
      <trkpt lat="47.09423" lon="6.16875">
        <ele>340</ele>
        <time>2015-10-04T07:24:56Z</time>
      </trkpt>
      <trkpt lat="47.0941" lon="6.16862">
        <ele>342</ele>
        <time>2015-10-04T07:25:00Z</time>
      </trkpt>
      <trkpt lat="47.09394" lon="6.16846">
        <ele>343</ele>
        <time>2015-10-04T07:25:05Z</time>
      </trkpt>
      <trkpt lat="47.09383" lon="6.16833">
        <ele>343</ele>
        <time>2015-10-04T07:25:10Z</time>
      </trkpt>
      <trkpt lat="47.09369" lon="6.16817">
        <ele>346</ele>
        <time>2015-10-04T07:25:15Z</time>
      </trkpt>
      <trkpt lat="47.09364" lon="6.16794">
        <ele>348</ele>
        <time>2015-10-04T07:25:19Z</time>
      </trkpt>
      <trkpt lat="47.09368" lon="6.16784">
        <ele>345</ele>
        <time>2015-10-04T07:25:33Z</time>
      </trkpt>
      <trkpt lat="47.09378" lon="6.16771">
        <ele>342</ele>
        <time>2015-10-04T07:25:37Z</time>
      </trkpt>
      <trkpt lat="47.0939" lon="6.16753">
        <ele>341</ele>
        <time>2015-10-04T07:25:41Z</time>
      </trkpt>
      <trkpt lat="47.09406" lon="6.16728">
        <ele>342</ele>
        <time>2015-10-04T07:25:46Z</time>
      </trkpt>
      <trkpt lat="47.09419" lon="6.16706">
        <ele>342</ele>
        <time>2015-10-04T07:25:51Z</time>
      </trkpt>
      <trkpt lat="47.09437" lon="6.1668">
        <ele>342</ele>
        <time>2015-10-04T07:25:55Z</time>
      </trkpt>
      <trkpt lat="47.09451" lon="6.16658">
        <ele>343</ele>
        <time>2015-10-04T07:25:59Z</time>
      </trkpt>
      <trkpt lat="47.09466" lon="6.16632">
        <ele>342</ele>
        <time>2015-10-04T07:26:04Z</time>
      </trkpt>
      <trkpt lat="47.09478" lon="6.16611">
        <ele>344</ele>
        <time>2015-10-04T07:26:08Z</time>
      </trkpt>
      <trkpt lat="47.0949" lon="6.16586">
        <ele>343</ele>
        <time>2015-10-04T07:26:13Z</time>
      </trkpt>
      <trkpt lat="47.09503" lon="6.16557">
        <ele>344</ele>
        <time>2015-10-04T07:26:17Z</time>
      </trkpt>
      <trkpt lat="47.09514" lon="6.16533">
        <ele>345</ele>
        <time>2015-10-04T07:26:22Z</time>
      </trkpt>
      <trkpt lat="47.09528" lon="6.16499">
        <ele>345</ele>
        <time>2015-10-04T07:26:26Z</time>
      </trkpt>
      <trkpt lat="47.09541" lon="6.16474">
        <ele>344</ele>
        <time>2015-10-04T07:26:31Z</time>
      </trkpt>
      <trkpt lat="47.09561" lon="6.16442">
        <ele>343</ele>
        <time>2015-10-04T07:26:35Z</time>
      </trkpt>
      <trkpt lat="47.09576" lon="6.16419">
        <ele>344</ele>
        <time>2015-10-04T07:26:40Z</time>
      </trkpt>
      <trkpt lat="47.09595" lon="6.16387">
        <ele>342</ele>
        <time>2015-10-04T07:26:44Z</time>
      </trkpt>
      <trkpt lat="47.0961" lon="6.16363">
        <ele>342</ele>
        <time>2015-10-04T07:26:48Z</time>
      </trkpt>
      <trkpt lat="47.09624" lon="6.16338">
        <ele>343</ele>
        <time>2015-10-04T07:26:53Z</time>
      </trkpt>
      <trkpt lat="47.09641" lon="6.16308">
        <ele>342</ele>
        <time>2015-10-04T07:26:57Z</time>
      </trkpt>
      <trkpt lat="47.09654" lon="6.16283">
        <ele>341</ele>
        <time>2015-10-04T07:27:01Z</time>
      </trkpt>
      <trkpt lat="47.09668" lon="6.16259">
        <ele>341</ele>
        <time>2015-10-04T07:27:05Z</time>
      </trkpt>
      <trkpt lat="47.09682" lon="6.16237">
        <ele>342</ele>
        <time>2015-10-04T07:27:09Z</time>
      </trkpt>
      <trkpt lat="47.09689" lon="6.1622">
        <ele>339</ele>
        <time>2015-10-04T07:27:13Z</time>
      </trkpt>
      <trkpt lat="47.09681" lon="6.16211">
        <ele>340</ele>
        <time>2015-10-04T07:27:17Z</time>
      </trkpt>
      <trkpt lat="47.09658" lon="6.16215">
        <ele>341</ele>
        <time>2015-10-04T07:27:22Z</time>
      </trkpt>
      <trkpt lat="47.09639" lon="6.16218">
        <ele>342</ele>
        <time>2015-10-04T07:27:27Z</time>
      </trkpt>
      <trkpt lat="47.09615" lon="6.16223">
        <ele>341</ele>
        <time>2015-10-04T07:27:31Z</time>
      </trkpt>
      <trkpt lat="47.09596" lon="6.1623">
        <ele>342</ele>
        <time>2015-10-04T07:27:35Z</time>
      </trkpt>
      <trkpt lat="47.09573" lon="6.16238">
        <ele>341</ele>
        <time>2015-10-04T07:27:40Z</time>
      </trkpt>
      <trkpt lat="47.09555" lon="6.16245">
        <ele>342</ele>
        <time>2015-10-04T07:27:44Z</time>
      </trkpt>
      <trkpt lat="47.09531" lon="6.16254">
        <ele>342</ele>
        <time>2015-10-04T07:27:49Z</time>
      </trkpt>
      <trkpt lat="47.09512" lon="6.16261">
        <ele>341</ele>
        <time>2015-10-04T07:27:53Z</time>
      </trkpt>
      <trkpt lat="47.09493" lon="6.16268">
        <ele>341</ele>
        <time>2015-10-04T07:27:58Z</time>
      </trkpt>
      <trkpt lat="47.09469" lon="6.16279">
        <ele>343</ele>
        <time>2015-10-04T07:28:02Z</time>
      </trkpt>
      <trkpt lat="47.09452" lon="6.16288">
        <ele>342</ele>
        <time>2015-10-04T07:28:07Z</time>
      </trkpt>
      <trkpt lat="47.0943" lon="6.16304">
        <ele>342</ele>
        <time>2015-10-04T07:28:11Z</time>
      </trkpt>
      <trkpt lat="47.09415" lon="6.16318">
        <ele>341</ele>
        <time>2015-10-04T07:28:15Z</time>
      </trkpt>
      <trkpt lat="47.09399" lon="6.16331">
        <ele>343</ele>
        <time>2015-10-04T07:28:19Z</time>
      </trkpt>
      <trkpt lat="47.09385" lon="6.1635">
        <ele>343</ele>
        <time>2015-10-04T07:28:24Z</time>
      </trkpt>
      <trkpt lat="47.09365" lon="6.16371">
        <ele>343</ele>
        <time>2015-10-04T07:28:28Z</time>
      </trkpt>
      <trkpt lat="47.09349" lon="6.16381">
        <ele>343</ele>
        <time>2015-10-04T07:28:32Z</time>
      </trkpt>
      <trkpt lat="47.0933" lon="6.16379">
        <ele>345</ele>
        <time>2015-10-04T07:28:36Z</time>
      </trkpt>
      <trkpt lat="47.09309" lon="6.16372">
        <ele>348</ele>
        <time>2015-10-04T07:28:41Z</time>
      </trkpt>
      <trkpt lat="47.09291" lon="6.16369">
        <ele>348</ele>
        <time>2015-10-04T07:28:45Z</time>
      </trkpt>
      <trkpt lat="47.09268" lon="6.16372">
        <ele>349</ele>
        <time>2015-10-04T07:28:49Z</time>
      </trkpt>
      <trkpt lat="47.09241" lon="6.16371">
        <ele>348</ele>
        <time>2015-10-04T07:28:54Z</time>
      </trkpt>
      <trkpt lat="47.09209" lon="6.16376">
        <ele>346</ele>
        <time>2015-10-04T07:28:58Z</time>
      </trkpt>
      <trkpt lat="47.0918" lon="6.16393">
        <ele>347</ele>
        <time>2015-10-04T07:29:03Z</time>
      </trkpt>
      <trkpt lat="47.09156" lon="6.16398">
        <ele>346</ele>
        <time>2015-10-04T07:29:07Z</time>
      </trkpt>
      <trkpt lat="47.09129" lon="6.16401">
        <ele>347</ele>
        <time>2015-10-04T07:29:12Z</time>
      </trkpt>
      <trkpt lat="47.09097" lon="6.16403">
        <ele>349</ele>
        <time>2015-10-04T07:29:16Z</time>
      </trkpt>
      <trkpt lat="47.09065" lon="6.16394">
        <ele>348</ele>
        <time>2015-10-04T07:29:21Z</time>
      </trkpt>
      <trkpt lat="47.09043" lon="6.16384">
        <ele>349</ele>
        <time>2015-10-04T07:29:25Z</time>
      </trkpt>
      <trkpt lat="47.09019" lon="6.1637">
        <ele>346</ele>
        <time>2015-10-04T07:29:29Z</time>
      </trkpt>
      <trkpt lat="47.08995" lon="6.16363">
        <ele>347</ele>
        <time>2015-10-04T07:29:34Z</time>
      </trkpt>
      <trkpt lat="47.0897" lon="6.16359">
        <ele>348</ele>
        <time>2015-10-04T07:29:39Z</time>
      </trkpt>
      <trkpt lat="47.08948" lon="6.16357">
        <ele>351</ele>
        <time>2015-10-04T07:29:43Z</time>
      </trkpt>
      <trkpt lat="47.08927" lon="6.16351">
        <ele>353</ele>
        <time>2015-10-04T07:29:47Z</time>
      </trkpt>
      <trkpt lat="47.08911" lon="6.16349">
        <ele>352</ele>
        <time>2015-10-04T07:29:51Z</time>
      </trkpt>
      <trkpt lat="47.08903" lon="6.16346">
        <ele>355</ele>
        <time>2015-10-04T07:29:56Z</time>
      </trkpt>
      <trkpt lat="47.089" lon="6.16335">
        <ele>355</ele>
        <time>2015-10-04T07:30:00Z</time>
      </trkpt>
      <trkpt lat="47.089" lon="6.16323">
        <ele>358</ele>
        <time>2015-10-04T07:30:06Z</time>
      </trkpt>
      <trkpt lat="47.08899" lon="6.16309">
        <ele>356</ele>
        <time>2015-10-04T07:30:10Z</time>
      </trkpt>
      <trkpt lat="47.08897" lon="6.16297">
        <ele>355</ele>
        <time>2015-10-04T07:30:16Z</time>
      </trkpt>
      <trkpt lat="47.08895" lon="6.16286">
        <ele>355</ele>
        <time>2015-10-04T07:30:23Z</time>
      </trkpt>
      <trkpt lat="47.08895" lon="6.16274">
        <ele>356</ele>
        <time>2015-10-04T07:30:29Z</time>
      </trkpt>
      <trkpt lat="47.08894" lon="6.16262">
        <ele>357</ele>
        <time>2015-10-04T07:30:36Z</time>
      </trkpt>
      <trkpt lat="47.08894" lon="6.1625">
        <ele>359</ele>
        <time>2015-10-04T07:30:46Z</time>
      </trkpt>
      <trkpt lat="47.08894" lon="6.16237">
        <ele>361</ele>
        <time>2015-10-04T07:30:57Z</time>
      </trkpt>
      <trkpt lat="47.08894" lon="6.16224">
        <ele>364</ele>
        <time>2015-10-04T07:31:09Z</time>
      </trkpt>
      <trkpt lat="47.08894" lon="6.16212">
        <ele>365</ele>
        <time>2015-10-04T07:31:19Z</time>
      </trkpt>
      <trkpt lat="47.08897" lon="6.162">
        <ele>369</ele>
        <time>2015-10-04T07:31:30Z</time>
      </trkpt>
      <trkpt lat="47.08899" lon="6.16188">
        <ele>374</ele>
        <time>2015-10-04T07:31:40Z</time>
      </trkpt>
      <trkpt lat="47.08895" lon="6.16177">
        <ele>381</ele>
        <time>2015-10-04T07:31:47Z</time>
      </trkpt>
      <trkpt lat="47.08893" lon="6.16165">
        <ele>386</ele>
        <time>2015-10-04T07:32:25Z</time>
      </trkpt>
      <trkpt lat="47.08895" lon="6.16153">
        <ele>390</ele>
        <time>2015-10-04T07:32:33Z</time>
      </trkpt>
      <trkpt lat="47.08901" lon="6.16144">
        <ele>390</ele>
        <time>2015-10-04T07:32:40Z</time>
      </trkpt>
      <trkpt lat="47.08904" lon="6.16132">
        <ele>387</ele>
        <time>2015-10-04T07:32:57Z</time>
      </trkpt>
      <trkpt lat="47.08907" lon="6.16121">
        <ele>384</ele>
        <time>2015-10-04T07:33:02Z</time>
      </trkpt>
      <trkpt lat="47.08913" lon="6.16114">
        <ele>385</ele>
        <time>2015-10-04T07:33:07Z</time>
      </trkpt>
      <trkpt lat="47.08921" lon="6.16112">
        <ele>387</ele>
        <time>2015-10-04T07:33:11Z</time>
      </trkpt>
      <trkpt lat="47.08933" lon="6.16116">
        <ele>392</ele>
        <time>2015-10-04T07:33:16Z</time>
      </trkpt>
      <trkpt lat="47.08942" lon="6.1612">
        <ele>393</ele>
        <time>2015-10-04T07:33:20Z</time>
      </trkpt>
      <trkpt lat="47.08952" lon="6.16126">
        <ele>401</ele>
        <time>2015-10-04T07:33:25Z</time>
      </trkpt>
      <trkpt lat="47.08963" lon="6.16131">
        <ele>406</ele>
        <time>2015-10-04T07:33:30Z</time>
      </trkpt>
      <trkpt lat="47.08973" lon="6.16145">
        <ele>399</ele>
        <time>2015-10-04T07:33:35Z</time>
      </trkpt>
      <trkpt lat="47.08989" lon="6.16157">
        <ele>398</ele>
        <time>2015-10-04T07:33:40Z</time>
      </trkpt>
      <trkpt lat="47.09003" lon="6.16167">
        <ele>404</ele>
        <time>2015-10-04T07:33:44Z</time>
      </trkpt>
      <trkpt lat="47.09029" lon="6.16174">
        <ele>407</ele>
        <time>2015-10-04T07:33:48Z</time>
      </trkpt>
      <trkpt lat="47.09046" lon="6.16185">
        <ele>406</ele>
        <time>2015-10-04T07:33:52Z</time>
      </trkpt>
      <trkpt lat="47.09063" lon="6.16196">
        <ele>406</ele>
        <time>2015-10-04T07:33:56Z</time>
      </trkpt>
      <trkpt lat="47.09081" lon="6.16201">
        <ele>405</ele>
        <time>2015-10-04T07:34:00Z</time>
      </trkpt>
      <trkpt lat="47.09099" lon="6.16209">
        <ele>403</ele>
        <time>2015-10-04T07:34:04Z</time>
      </trkpt>
      <trkpt lat="47.09116" lon="6.16213">
        <ele>402</ele>
        <time>2015-10-04T07:34:08Z</time>
      </trkpt>
      <trkpt lat="47.09131" lon="6.16217">
        <ele>396</ele>
        <time>2015-10-04T07:34:12Z</time>
      </trkpt>
      <trkpt lat="47.0915" lon="6.16222">
        <ele>397</ele>
        <time>2015-10-04T07:34:17Z</time>
      </trkpt>
      <trkpt lat="47.09164" lon="6.16224">
        <ele>403</ele>
        <time>2015-10-04T07:34:21Z</time>
      </trkpt>
      <trkpt lat="47.09177" lon="6.16227">
        <ele>403</ele>
        <time>2015-10-04T07:34:26Z</time>
      </trkpt>
      <trkpt lat="47.09193" lon="6.16231">
        <ele>404</ele>
        <time>2015-10-04T07:34:30Z</time>
      </trkpt>
      <trkpt lat="47.09208" lon="6.16228">
        <ele>397</ele>
        <time>2015-10-04T07:34:34Z</time>
      </trkpt>
      <trkpt lat="47.09233" lon="6.16224">
        <ele>396</ele>
        <time>2015-10-04T07:34:38Z</time>
      </trkpt>
      <trkpt lat="47.09262" lon="6.1622">
        <ele>400</ele>
        <time>2015-10-04T07:34:43Z</time>
      </trkpt>
      <trkpt lat="47.09285" lon="6.16216">
        <ele>401</ele>
        <time>2015-10-04T07:34:48Z</time>
      </trkpt>
      <trkpt lat="47.09311" lon="6.16205">
        <ele>400</ele>
        <time>2015-10-04T07:34:52Z</time>
      </trkpt>
      <trkpt lat="47.09334" lon="6.16194">
        <ele>397</ele>
        <time>2015-10-04T07:34:57Z</time>
      </trkpt>
      <trkpt lat="47.09351" lon="6.16185">
        <ele>403</ele>
        <time>2015-10-04T07:35:02Z</time>
      </trkpt>
      <trkpt lat="47.09371" lon="6.16172">
        <ele>400</ele>
        <time>2015-10-04T07:35:06Z</time>
      </trkpt>
      <trkpt lat="47.09383" lon="6.16164">
        <ele>402</ele>
        <time>2015-10-04T07:35:10Z</time>
      </trkpt>
      <trkpt lat="47.09398" lon="6.16154">
        <ele>404</ele>
        <time>2015-10-04T07:35:15Z</time>
      </trkpt>
      <trkpt lat="47.09424" lon="6.1613">
        <ele>401</ele>
        <time>2015-10-04T07:35:19Z</time>
      </trkpt>
      <trkpt lat="47.0944" lon="6.1611">
        <ele>401</ele>
        <time>2015-10-04T07:35:23Z</time>
      </trkpt>
      <trkpt lat="47.09454" lon="6.16094">
        <ele>401</ele>
        <time>2015-10-04T07:35:28Z</time>
      </trkpt>
      <trkpt lat="47.09468" lon="6.16071">
        <ele>401</ele>
        <time>2015-10-04T07:35:32Z</time>
      </trkpt>
      <trkpt lat="47.09476" lon="6.16048">
        <ele>393</ele>
        <time>2015-10-04T07:35:36Z</time>
      </trkpt>
      <trkpt lat="47.09493" lon="6.16014">
        <ele>395</ele>
        <time>2015-10-04T07:35:41Z</time>
      </trkpt>
      <trkpt lat="47.09505" lon="6.15984">
        <ele>394</ele>
        <time>2015-10-04T07:35:46Z</time>
      </trkpt>
      <trkpt lat="47.0952" lon="6.15957">
        <ele>393</ele>
        <time>2015-10-04T07:35:51Z</time>
      </trkpt>
      <trkpt lat="47.09533" lon="6.15943">
        <ele>403</ele>
        <time>2015-10-04T07:35:55Z</time>
      </trkpt>
      <trkpt lat="47.09549" lon="6.15916">
        <ele>406</ele>
        <time>2015-10-04T07:35:59Z</time>
      </trkpt>
      <trkpt lat="47.09563" lon="6.15878">
        <ele>401</ele>
        <time>2015-10-04T07:36:03Z</time>
      </trkpt>
      <trkpt lat="47.09584" lon="6.15848">
        <ele>394</ele>
        <time>2015-10-04T07:36:07Z</time>
      </trkpt>
      <trkpt lat="47.096" lon="6.15821">
        <ele>392</ele>
        <time>2015-10-04T07:36:12Z</time>
      </trkpt>
      <trkpt lat="47.09624" lon="6.15797">
        <ele>386</ele>
        <time>2015-10-04T07:36:16Z</time>
      </trkpt>
      <trkpt lat="47.09641" lon="6.15776">
        <ele>385</ele>
        <time>2015-10-04T07:36:20Z</time>
      </trkpt>
      <trkpt lat="47.09662" lon="6.15754">
        <ele>385</ele>
        <time>2015-10-04T07:36:25Z</time>
      </trkpt>
      <trkpt lat="47.09682" lon="6.15736">
        <ele>383</ele>
        <time>2015-10-04T07:36:29Z</time>
      </trkpt>
      <trkpt lat="47.09705" lon="6.15714">
        <ele>384</ele>
        <time>2015-10-04T07:36:34Z</time>
      </trkpt>
      <trkpt lat="47.09723" lon="6.15702">
        <ele>383</ele>
        <time>2015-10-04T07:36:38Z</time>
      </trkpt>
      <trkpt lat="47.09739" lon="6.1569">
        <ele>384</ele>
        <time>2015-10-04T07:36:42Z</time>
      </trkpt>
      <trkpt lat="47.09754" lon="6.15674">
        <ele>389</ele>
        <time>2015-10-04T07:36:46Z</time>
      </trkpt>
      <trkpt lat="47.09774" lon="6.15654">
        <ele>386</ele>
        <time>2015-10-04T07:36:50Z</time>
      </trkpt>
      <trkpt lat="47.09796" lon="6.15636">
        <ele>385</ele>
        <time>2015-10-04T07:36:55Z</time>
      </trkpt>
      <trkpt lat="47.09817" lon="6.15615">
        <ele>386</ele>
        <time>2015-10-04T07:36:59Z</time>
      </trkpt>
      <trkpt lat="47.09849" lon="6.15583">
        <ele>381</ele>
        <time>2015-10-04T07:37:03Z</time>
      </trkpt>
      <trkpt lat="47.09876" lon="6.15562">
        <ele>376</ele>
        <time>2015-10-04T07:37:07Z</time>
      </trkpt>
      <trkpt lat="47.0989" lon="6.15538">
        <ele>376</ele>
        <time>2015-10-04T07:37:12Z</time>
      </trkpt>
      <trkpt lat="47.09892" lon="6.15507">
        <ele>378</ele>
        <time>2015-10-04T07:37:16Z</time>
      </trkpt>
      <trkpt lat="47.09899" lon="6.1549">
        <ele>378</ele>
        <time>2015-10-04T07:37:20Z</time>
      </trkpt>
      <trkpt lat="47.09915" lon="6.15463">
        <ele>379</ele>
        <time>2015-10-04T07:37:24Z</time>
      </trkpt>
      <trkpt lat="47.09932" lon="6.15431">
        <ele>378</ele>
        <time>2015-10-04T07:37:29Z</time>
      </trkpt>
      <trkpt lat="47.09951" lon="6.15407">
        <ele>377</ele>
        <time>2015-10-04T07:37:33Z</time>
      </trkpt>
      <trkpt lat="47.09972" lon="6.15383">
        <ele>375</ele>
        <time>2015-10-04T07:37:37Z</time>
      </trkpt>
      <trkpt lat="47.10003" lon="6.15358">
        <ele>375</ele>
        <time>2015-10-04T07:37:42Z</time>
      </trkpt>
      <trkpt lat="47.1003" lon="6.1533">
        <ele>376</ele>
        <time>2015-10-04T07:37:46Z</time>
      </trkpt>
      <trkpt lat="47.10061" lon="6.15292">
        <ele>374</ele>
        <time>2015-10-04T07:37:51Z</time>
      </trkpt>
      <trkpt lat="47.1008" lon="6.15258">
        <ele>372</ele>
        <time>2015-10-04T07:37:55Z</time>
      </trkpt>
      <trkpt lat="47.10098" lon="6.15215">
        <ele>371</ele>
        <time>2015-10-04T07:38:00Z</time>
      </trkpt>
      <trkpt lat="47.10111" lon="6.15189">
        <ele>372</ele>
        <time>2015-10-04T07:38:05Z</time>
      </trkpt>
      <trkpt lat="47.10136" lon="6.15151">
        <ele>370</ele>
        <time>2015-10-04T07:38:09Z</time>
      </trkpt>
      <trkpt lat="47.10158" lon="6.1512">
        <ele>370</ele>
        <time>2015-10-04T07:38:13Z</time>
      </trkpt>
      <trkpt lat="47.10186" lon="6.15075">
        <ele>371</ele>
        <time>2015-10-04T07:38:18Z</time>
      </trkpt>
      <trkpt lat="47.10199" lon="6.15032">
        <ele>371</ele>
        <time>2015-10-04T07:38:22Z</time>
      </trkpt>
      <trkpt lat="47.1021" lon="6.14996">
        <ele>373</ele>
        <time>2015-10-04T07:38:26Z</time>
      </trkpt>
      <trkpt lat="47.10224" lon="6.14941">
        <ele>370</ele>
        <time>2015-10-04T07:38:30Z</time>
      </trkpt>
      <trkpt lat="47.10218" lon="6.14911">
        <ele>369</ele>
        <time>2015-10-04T07:38:34Z</time>
      </trkpt>
      <trkpt lat="47.10206" lon="6.14901">
        <ele>368</ele>
        <time>2015-10-04T07:38:38Z</time>
      </trkpt>
      <trkpt lat="47.10196" lon="6.1489">
        <ele>369</ele>
        <time>2015-10-04T07:38:42Z</time>
      </trkpt>
      <trkpt lat="47.10186" lon="6.14874">
        <ele>370</ele>
        <time>2015-10-04T07:38:46Z</time>
      </trkpt>
      <trkpt lat="47.10175" lon="6.14866">
        <ele>373</ele>
        <time>2015-10-04T07:38:50Z</time>
      </trkpt>
      <trkpt lat="47.10165" lon="6.14856">
        <ele>373</ele>
        <time>2015-10-04T07:38:54Z</time>
      </trkpt>
      <trkpt lat="47.10153" lon="6.1485">
        <ele>370</ele>
        <time>2015-10-04T07:38:58Z</time>
      </trkpt>
      <trkpt lat="47.10141" lon="6.14841">
        <ele>371</ele>
        <time>2015-10-04T07:39:02Z</time>
      </trkpt>
      <trkpt lat="47.10133" lon="6.14827">
        <ele>373</ele>
        <time>2015-10-04T07:39:06Z</time>
      </trkpt>
      <trkpt lat="47.10123" lon="6.14811">
        <ele>374</ele>
        <time>2015-10-04T07:39:11Z</time>
      </trkpt>
      <trkpt lat="47.1011" lon="6.14789">
        <ele>374</ele>
        <time>2015-10-04T07:39:15Z</time>
      </trkpt>
      <trkpt lat="47.10097" lon="6.14767">
        <ele>374</ele>
        <time>2015-10-04T07:39:19Z</time>
      </trkpt>
      <trkpt lat="47.10083" lon="6.1474">
        <ele>373</ele>
        <time>2015-10-04T07:39:24Z</time>
      </trkpt>
      <trkpt lat="47.10071" lon="6.14722">
        <ele>373</ele>
        <time>2015-10-04T07:39:29Z</time>
      </trkpt>
      <trkpt lat="47.10056" lon="6.14702">
        <ele>374</ele>
        <time>2015-10-04T07:39:34Z</time>
      </trkpt>
      <trkpt lat="47.10041" lon="6.14685">
        <ele>375</ele>
        <time>2015-10-04T07:39:38Z</time>
      </trkpt>
      <trkpt lat="47.10027" lon="6.14674">
        <ele>376</ele>
        <time>2015-10-04T07:39:42Z</time>
      </trkpt>
      <trkpt lat="47.10012" lon="6.14662">
        <ele>377</ele>
        <time>2015-10-04T07:39:46Z</time>
      </trkpt>
      <trkpt lat="47.09999" lon="6.14652">
        <ele>378</ele>
        <time>2015-10-04T07:39:50Z</time>
      </trkpt>
      <trkpt lat="47.09981" lon="6.14641">
        <ele>379</ele>
        <time>2015-10-04T07:39:55Z</time>
      </trkpt>
      <trkpt lat="47.09964" lon="6.14629">
        <ele>380</ele>
        <time>2015-10-04T07:40:00Z</time>
      </trkpt>
      <trkpt lat="47.0995" lon="6.14618">
        <ele>381</ele>
        <time>2015-10-04T07:40:04Z</time>
      </trkpt>
      <trkpt lat="47.09937" lon="6.14607">
        <ele>380</ele>
        <time>2015-10-04T07:40:08Z</time>
      </trkpt>
      <trkpt lat="47.09923" lon="6.14599">
        <ele>381</ele>
        <time>2015-10-04T07:40:12Z</time>
      </trkpt>
      <trkpt lat="47.09909" lon="6.1459">
        <ele>380</ele>
        <time>2015-10-04T07:40:16Z</time>
      </trkpt>
      <trkpt lat="47.09895" lon="6.1458">
        <ele>380</ele>
        <time>2015-10-04T07:40:21Z</time>
      </trkpt>
      <trkpt lat="47.09882" lon="6.14567">
        <ele>380</ele>
        <time>2015-10-04T07:40:25Z</time>
      </trkpt>
      <trkpt lat="47.09874" lon="6.14559">
        <ele>381</ele>
        <time>2015-10-04T07:40:29Z</time>
      </trkpt>
      <trkpt lat="47.09861" lon="6.14548">
        <ele>384</ele>
        <time>2015-10-04T07:40:33Z</time>
      </trkpt>
      <trkpt lat="47.09851" lon="6.14539">
        <ele>385</ele>
        <time>2015-10-04T07:40:37Z</time>
      </trkpt>
      <trkpt lat="47.0984" lon="6.14531">
        <ele>385</ele>
        <time>2015-10-04T07:40:41Z</time>
      </trkpt>
      <trkpt lat="47.09827" lon="6.14523">
        <ele>389</ele>
        <time>2015-10-04T07:40:46Z</time>
      </trkpt>
      <trkpt lat="47.09818" lon="6.14515">
        <ele>390</ele>
        <time>2015-10-04T07:40:50Z</time>
      </trkpt>
      <trkpt lat="47.09807" lon="6.14507">
        <ele>391</ele>
        <time>2015-10-04T07:40:54Z</time>
      </trkpt>
      <trkpt lat="47.09797" lon="6.14502">
        <ele>394</ele>
        <time>2015-10-04T07:40:58Z</time>
      </trkpt>
      <trkpt lat="47.09782" lon="6.14491">
        <ele>392</ele>
        <time>2015-10-04T07:41:03Z</time>
      </trkpt>
      <trkpt lat="47.09767" lon="6.14476">
        <ele>389</ele>
        <time>2015-10-04T07:41:08Z</time>
      </trkpt>
      <trkpt lat="47.09753" lon="6.14465">
        <ele>391</ele>
        <time>2015-10-04T07:41:12Z</time>
      </trkpt>
      <trkpt lat="47.09739" lon="6.14455">
        <ele>390</ele>
        <time>2015-10-04T07:41:16Z</time>
      </trkpt>
      <trkpt lat="47.09726" lon="6.14444">
        <ele>392</ele>
        <time>2015-10-04T07:41:20Z</time>
      </trkpt>
      <trkpt lat="47.09711" lon="6.14431">
        <ele>393</ele>
        <time>2015-10-04T07:41:24Z</time>
      </trkpt>
      <trkpt lat="47.09697" lon="6.14426">
        <ele>394</ele>
        <time>2015-10-04T07:41:28Z</time>
      </trkpt>
      <trkpt lat="47.09684" lon="6.14425">
        <ele>395</ele>
        <time>2015-10-04T07:41:33Z</time>
      </trkpt>
      <trkpt lat="47.09674" lon="6.14423">
        <ele>397</ele>
        <time>2015-10-04T07:41:38Z</time>
      </trkpt>
      <trkpt lat="47.09664" lon="6.14422">
        <ele>396</ele>
        <time>2015-10-04T07:41:41Z</time>
      </trkpt>
      <trkpt lat="47.09655" lon="6.14423">
        <ele>397</ele>
        <time>2015-10-04T07:41:46Z</time>
      </trkpt>
      <trkpt lat="47.09647" lon="6.14422">
        <ele>398</ele>
        <time>2015-10-04T07:41:50Z</time>
      </trkpt>
      <trkpt lat="47.09636" lon="6.14417">
        <ele>398</ele>
        <time>2015-10-04T07:41:54Z</time>
      </trkpt>
      <trkpt lat="47.09627" lon="6.14415">
        <ele>400</ele>
        <time>2015-10-04T07:41:58Z</time>
      </trkpt>
      <trkpt lat="47.09616" lon="6.14415">
        <ele>398</ele>
        <time>2015-10-04T07:42:03Z</time>
      </trkpt>
      <trkpt lat="47.09603" lon="6.14416">
        <ele>398</ele>
        <time>2015-10-04T07:42:08Z</time>
      </trkpt>
      <trkpt lat="47.09594" lon="6.14416">
        <ele>402</ele>
        <time>2015-10-04T07:42:12Z</time>
      </trkpt>
      <trkpt lat="47.09585" lon="6.14417">
        <ele>401</ele>
        <time>2015-10-04T07:42:17Z</time>
      </trkpt>
      <trkpt lat="47.09576" lon="6.14419">
        <ele>409</ele>
        <time>2015-10-04T07:42:23Z</time>
      </trkpt>
      <trkpt lat="47.09568" lon="6.1442">
        <ele>409</ele>
        <time>2015-10-04T07:42:28Z</time>
      </trkpt>
      <trkpt lat="47.09558" lon="6.14422">
        <ele>410</ele>
        <time>2015-10-04T07:42:32Z</time>
      </trkpt>
      <trkpt lat="47.0955" lon="6.14423">
        <ele>409</ele>
        <time>2015-10-04T07:42:37Z</time>
      </trkpt>
      <trkpt lat="47.09539" lon="6.14423">
        <ele>412</ele>
        <time>2015-10-04T07:42:41Z</time>
      </trkpt>
      <trkpt lat="47.09529" lon="6.14426">
        <ele>403</ele>
        <time>2015-10-04T07:42:46Z</time>
      </trkpt>
      <trkpt lat="47.09522" lon="6.14431">
        <ele>412</ele>
        <time>2015-10-04T07:42:52Z</time>
      </trkpt>
      <trkpt lat="47.09513" lon="6.14435">
        <ele>413</ele>
        <time>2015-10-04T07:42:56Z</time>
      </trkpt>
      <trkpt lat="47.09504" lon="6.14439">
        <ele>414</ele>
        <time>2015-10-04T07:43:00Z</time>
      </trkpt>
      <trkpt lat="47.09492" lon="6.14445">
        <ele>420</ele>
        <time>2015-10-04T07:43:05Z</time>
      </trkpt>
      <trkpt lat="47.09485" lon="6.14451">
        <ele>422</ele>
        <time>2015-10-04T07:43:09Z</time>
      </trkpt>
      <trkpt lat="47.09476" lon="6.14456">
        <ele>419</ele>
        <time>2015-10-04T07:43:14Z</time>
      </trkpt>
      <trkpt lat="47.09468" lon="6.14459">
        <ele>416</ele>
        <time>2015-10-04T07:43:19Z</time>
      </trkpt>
      <trkpt lat="47.09459" lon="6.14465">
        <ele>412</ele>
        <time>2015-10-04T07:43:24Z</time>
      </trkpt>
      <trkpt lat="47.09453" lon="6.14469">
        <ele>410</ele>
        <time>2015-10-04T07:43:28Z</time>
      </trkpt>
      <trkpt lat="47.09445" lon="6.14476">
        <ele>414</ele>
        <time>2015-10-04T07:43:33Z</time>
      </trkpt>
      <trkpt lat="47.09439" lon="6.14481">
        <ele>414</ele>
        <time>2015-10-04T07:43:37Z</time>
      </trkpt>
      <trkpt lat="47.0943" lon="6.14485">
        <ele>414</ele>
        <time>2015-10-04T07:43:42Z</time>
      </trkpt>
      <trkpt lat="47.09423" lon="6.14489">
        <ele>413</ele>
        <time>2015-10-04T07:43:48Z</time>
      </trkpt>
      <trkpt lat="47.09416" lon="6.14493">
        <ele>411</ele>
        <time>2015-10-04T07:43:52Z</time>
      </trkpt>
      <trkpt lat="47.09407" lon="6.14496">
        <ele>413</ele>
        <time>2015-10-04T07:43:58Z</time>
      </trkpt>
      <trkpt lat="47.09399" lon="6.14499">
        <ele>413</ele>
        <time>2015-10-04T07:44:04Z</time>
      </trkpt>
      <trkpt lat="47.09389" lon="6.14503">
        <ele>414</ele>
        <time>2015-10-04T07:44:08Z</time>
      </trkpt>
      <trkpt lat="47.0938" lon="6.14506">
        <ele>418</ele>
        <time>2015-10-04T07:44:13Z</time>
      </trkpt>
      <trkpt lat="47.09373" lon="6.1451">
        <ele>423</ele>
        <time>2015-10-04T07:44:18Z</time>
      </trkpt>
      <trkpt lat="47.09366" lon="6.14514">
        <ele>427</ele>
        <time>2015-10-04T07:44:23Z</time>
      </trkpt>
      <trkpt lat="47.09357" lon="6.14516">
        <ele>432</ele>
        <time>2015-10-04T07:44:29Z</time>
      </trkpt>
      <trkpt lat="47.09349" lon="6.1452">
        <ele>426</ele>
        <time>2015-10-04T07:44:35Z</time>
      </trkpt>
      <trkpt lat="47.0934" lon="6.14523">
        <ele>419</ele>
        <time>2015-10-04T07:44:40Z</time>
      </trkpt>
      <trkpt lat="47.09333" lon="6.14528">
        <ele>421</ele>
        <time>2015-10-04T07:44:45Z</time>
      </trkpt>
      <trkpt lat="47.09324" lon="6.14531">
        <ele>418</ele>
        <time>2015-10-04T07:44:49Z</time>
      </trkpt>
      <trkpt lat="47.09315" lon="6.14535">
        <ele>415</ele>
        <time>2015-10-04T07:44:54Z</time>
      </trkpt>
      <trkpt lat="47.09307" lon="6.14539">
        <ele>416</ele>
        <time>2015-10-04T07:44:59Z</time>
      </trkpt>
      <trkpt lat="47.09299" lon="6.1454">
        <ele>422</ele>
        <time>2015-10-04T07:45:04Z</time>
      </trkpt>
      <trkpt lat="47.0929" lon="6.1454">
        <ele>420</ele>
        <time>2015-10-04T07:45:09Z</time>
      </trkpt>
      <trkpt lat="47.09283" lon="6.14543">
        <ele>423</ele>
        <time>2015-10-04T07:45:14Z</time>
      </trkpt>
      <trkpt lat="47.09274" lon="6.14545">
        <ele>426</ele>
        <time>2015-10-04T07:45:19Z</time>
      </trkpt>
      <trkpt lat="47.09267" lon="6.14548">
        <ele>429</ele>
        <time>2015-10-04T07:45:24Z</time>
      </trkpt>
      <trkpt lat="47.09259" lon="6.14553">
        <ele>427</ele>
        <time>2015-10-04T07:45:30Z</time>
      </trkpt>
      <trkpt lat="47.09253" lon="6.14559">
        <ele>427</ele>
        <time>2015-10-04T07:45:35Z</time>
      </trkpt>
      <trkpt lat="47.09245" lon="6.14564">
        <ele>430</ele>
        <time>2015-10-04T07:45:41Z</time>
      </trkpt>
      <trkpt lat="47.09237" lon="6.14568">
        <ele>433</ele>
        <time>2015-10-04T07:45:47Z</time>
      </trkpt>
      <trkpt lat="47.09228" lon="6.14572">
        <ele>438</ele>
        <time>2015-10-04T07:45:54Z</time>
      </trkpt>
      <trkpt lat="47.09221" lon="6.14576">
        <ele>445</ele>
        <time>2015-10-04T07:46:00Z</time>
      </trkpt>
      <trkpt lat="47.09214" lon="6.14581">
        <ele>448</ele>
        <time>2015-10-04T07:46:06Z</time>
      </trkpt>
      <trkpt lat="47.09206" lon="6.14587">
        <ele>452</ele>
        <time>2015-10-04T07:46:11Z</time>
      </trkpt>
      <trkpt lat="47.09199" lon="6.14592">
        <ele>459</ele>
        <time>2015-10-04T07:46:19Z</time>
      </trkpt>
      <trkpt lat="47.09192" lon="6.14598">
        <ele>464</ele>
        <time>2015-10-04T07:46:23Z</time>
      </trkpt>
      <trkpt lat="47.09186" lon="6.14606">
        <ele>466</ele>
        <time>2015-10-04T07:46:29Z</time>
      </trkpt>
      <trkpt lat="47.09179" lon="6.14614">
        <ele>466</ele>
        <time>2015-10-04T07:46:35Z</time>
      </trkpt>
      <trkpt lat="47.09173" lon="6.14621">
        <ele>463</ele>
        <time>2015-10-04T07:46:41Z</time>
      </trkpt>
      <trkpt lat="47.09166" lon="6.14629">
        <ele>467</ele>
        <time>2015-10-04T07:46:47Z</time>
      </trkpt>
      <trkpt lat="47.09159" lon="6.14637">
        <ele>466</ele>
        <time>2015-10-04T07:46:54Z</time>
      </trkpt>
      <trkpt lat="47.09155" lon="6.14648">
        <ele>469</ele>
        <time>2015-10-04T07:46:59Z</time>
      </trkpt>
      <trkpt lat="47.09148" lon="6.14656">
        <ele>469</ele>
        <time>2015-10-04T07:47:05Z</time>
      </trkpt>
      <trkpt lat="47.09142" lon="6.14664">
        <ele>463</ele>
        <time>2015-10-04T07:47:12Z</time>
      </trkpt>
      <trkpt lat="47.09136" lon="6.14674">
        <ele>466</ele>
        <time>2015-10-04T07:47:19Z</time>
      </trkpt>
      <trkpt lat="47.09132" lon="6.14684">
        <ele>463</ele>
        <time>2015-10-04T07:47:26Z</time>
      </trkpt>
      <trkpt lat="47.09127" lon="6.14694">
        <ele>465</ele>
        <time>2015-10-04T07:47:32Z</time>
      </trkpt>
      <trkpt lat="47.09121" lon="6.14702">
        <ele>465</ele>
        <time>2015-10-04T07:47:38Z</time>
      </trkpt>
      <trkpt lat="47.09115" lon="6.1471">
        <ele>468</ele>
        <time>2015-10-04T07:47:44Z</time>
      </trkpt>
      <trkpt lat="47.09109" lon="6.1472">
        <ele>470</ele>
        <time>2015-10-04T07:47:50Z</time>
      </trkpt>
      <trkpt lat="47.09104" lon="6.14729">
        <ele>471</ele>
        <time>2015-10-04T07:47:56Z</time>
      </trkpt>
      <trkpt lat="47.09099" lon="6.14739">
        <ele>472</ele>
        <time>2015-10-04T07:48:02Z</time>
      </trkpt>
      <trkpt lat="47.09094" lon="6.14748">
        <ele>472</ele>
        <time>2015-10-04T07:48:08Z</time>
      </trkpt>
      <trkpt lat="47.09089" lon="6.14756">
        <ele>472</ele>
        <time>2015-10-04T07:48:14Z</time>
      </trkpt>
      <trkpt lat="47.09084" lon="6.14765">
        <ele>474</ele>
        <time>2015-10-04T07:48:20Z</time>
      </trkpt>
      <trkpt lat="47.09078" lon="6.14775">
        <ele>475</ele>
        <time>2015-10-04T07:48:26Z</time>
      </trkpt>
      <trkpt lat="47.09074" lon="6.14784">
        <ele>476</ele>
        <time>2015-10-04T07:48:33Z</time>
      </trkpt>
      <trkpt lat="47.09069" lon="6.14793">
        <ele>476</ele>
        <time>2015-10-04T07:48:39Z</time>
      </trkpt>
      <trkpt lat="47.09063" lon="6.14802">
        <ele>477</ele>
        <time>2015-10-04T07:48:45Z</time>
      </trkpt>
      <trkpt lat="47.09058" lon="6.14812">
        <ele>479</ele>
        <time>2015-10-04T07:48:51Z</time>
      </trkpt>
      <trkpt lat="47.09053" lon="6.14821">
        <ele>480</ele>
        <time>2015-10-04T07:48:56Z</time>
      </trkpt>
      <trkpt lat="47.09047" lon="6.1483">
        <ele>482</ele>
        <time>2015-10-04T07:49:02Z</time>
      </trkpt>
      <trkpt lat="47.09042" lon="6.1484">
        <ele>483</ele>
        <time>2015-10-04T07:49:08Z</time>
      </trkpt>
      <trkpt lat="47.09036" lon="6.14851">
        <ele>484</ele>
        <time>2015-10-04T07:49:13Z</time>
      </trkpt>
      <trkpt lat="47.09031" lon="6.14859">
        <ele>485</ele>
        <time>2015-10-04T07:49:18Z</time>
      </trkpt>
      <trkpt lat="47.09024" lon="6.14869">
        <ele>486</ele>
        <time>2015-10-04T07:49:24Z</time>
      </trkpt>
      <trkpt lat="47.09018" lon="6.14878">
        <ele>487</ele>
        <time>2015-10-04T07:49:30Z</time>
      </trkpt>
      <trkpt lat="47.09011" lon="6.14886">
        <ele>488</ele>
        <time>2015-10-04T07:49:36Z</time>
      </trkpt>
      <trkpt lat="47.09006" lon="6.14894">
        <ele>490</ele>
        <time>2015-10-04T07:49:43Z</time>
      </trkpt>
      <trkpt lat="47.08999" lon="6.14901">
        <ele>490</ele>
        <time>2015-10-04T07:49:49Z</time>
      </trkpt>
      <trkpt lat="47.08992" lon="6.14907">
        <ele>492</ele>
        <time>2015-10-04T07:49:57Z</time>
      </trkpt>
      <trkpt lat="47.08984" lon="6.14911">
        <ele>492</ele>
        <time>2015-10-04T07:50:04Z</time>
      </trkpt>
      <trkpt lat="47.08977" lon="6.14916">
        <ele>493</ele>
        <time>2015-10-04T07:50:11Z</time>
      </trkpt>
      <trkpt lat="47.0897" lon="6.14922">
        <ele>492</ele>
        <time>2015-10-04T07:50:18Z</time>
      </trkpt>
      <trkpt lat="47.08963" lon="6.14927">
        <ele>497</ele>
        <time>2015-10-04T07:50:22Z</time>
      </trkpt>
      <trkpt lat="47.08957" lon="6.14935">
        <ele>499</ele>
        <time>2015-10-04T07:50:27Z</time>
      </trkpt>
      <trkpt lat="47.0895" lon="6.14942">
        <ele>497</ele>
        <time>2015-10-04T07:50:32Z</time>
      </trkpt>
      <trkpt lat="47.08944" lon="6.1495">
        <ele>498</ele>
        <time>2015-10-04T07:50:37Z</time>
      </trkpt>
      <trkpt lat="47.08939" lon="6.14959">
        <ele>499</ele>
        <time>2015-10-04T07:50:42Z</time>
      </trkpt>
      <trkpt lat="47.08933" lon="6.14966">
        <ele>499</ele>
        <time>2015-10-04T07:50:47Z</time>
      </trkpt>
      <trkpt lat="47.08926" lon="6.14971">
        <ele>500</ele>
        <time>2015-10-04T07:50:53Z</time>
      </trkpt>
      <trkpt lat="47.08918" lon="6.14974">
        <ele>499</ele>
        <time>2015-10-04T07:50:57Z</time>
      </trkpt>
      <trkpt lat="47.0891" lon="6.14976">
        <ele>500</ele>
        <time>2015-10-04T07:51:02Z</time>
      </trkpt>
      <trkpt lat="47.08902" lon="6.14979">
        <ele>498</ele>
        <time>2015-10-04T07:51:07Z</time>
      </trkpt>
      <trkpt lat="47.08893" lon="6.14979">
        <ele>501</ele>
        <time>2015-10-04T07:51:12Z</time>
      </trkpt>
      <trkpt lat="47.08884" lon="6.14981">
        <ele>502</ele>
        <time>2015-10-04T07:51:17Z</time>
      </trkpt>
      <trkpt lat="47.08876" lon="6.14982">
        <ele>504</ele>
        <time>2015-10-04T07:51:21Z</time>
      </trkpt>
      <trkpt lat="47.08869" lon="6.14984">
        <ele>507</ele>
        <time>2015-10-04T07:51:25Z</time>
      </trkpt>
      <trkpt lat="47.0886" lon="6.14984">
        <ele>508</ele>
        <time>2015-10-04T07:51:30Z</time>
      </trkpt>
      <trkpt lat="47.08852" lon="6.14986">
        <ele>511</ele>
        <time>2015-10-04T07:51:35Z</time>
      </trkpt>
      <trkpt lat="47.08844" lon="6.14986">
        <ele>515</ele>
        <time>2015-10-04T07:51:40Z</time>
      </trkpt>
      <trkpt lat="47.08836" lon="6.14988">
        <ele>516</ele>
        <time>2015-10-04T07:51:45Z</time>
      </trkpt>
      <trkpt lat="47.08829" lon="6.14988">
        <ele>512</ele>
        <time>2015-10-04T07:51:50Z</time>
      </trkpt>
      <trkpt lat="47.08821" lon="6.14987">
        <ele>512</ele>
        <time>2015-10-04T07:51:55Z</time>
      </trkpt>
      <trkpt lat="47.08812" lon="6.14987">
        <ele>514</ele>
        <time>2015-10-04T07:52:00Z</time>
      </trkpt>
      <trkpt lat="47.08804" lon="6.14987">
        <ele>514</ele>
        <time>2015-10-04T07:52:05Z</time>
      </trkpt>
      <trkpt lat="47.08796" lon="6.14988">
        <ele>516</ele>
        <time>2015-10-04T07:52:10Z</time>
      </trkpt>
      <trkpt lat="47.08788" lon="6.14988">
        <ele>516</ele>
        <time>2015-10-04T07:52:15Z</time>
      </trkpt>
      <trkpt lat="47.0878" lon="6.14988">
        <ele>519</ele>
        <time>2015-10-04T07:52:20Z</time>
      </trkpt>
      <trkpt lat="47.08771" lon="6.14987">
        <ele>519</ele>
        <time>2015-10-04T07:52:25Z</time>
      </trkpt>
      <trkpt lat="47.08762" lon="6.14985">
        <ele>519</ele>
        <time>2015-10-04T07:52:30Z</time>
      </trkpt>
      <trkpt lat="47.08754" lon="6.14985">
        <ele>520</ele>
        <time>2015-10-04T07:52:35Z</time>
      </trkpt>
      <trkpt lat="47.08745" lon="6.14984">
        <ele>520</ele>
        <time>2015-10-04T07:52:40Z</time>
      </trkpt>
      <trkpt lat="47.08738" lon="6.14989">
        <ele>522</ele>
        <time>2015-10-04T07:52:47Z</time>
      </trkpt>
      <trkpt lat="47.08738" lon="6.15">
        <ele>527</ele>
        <time>2015-10-04T07:54:02Z</time>
      </trkpt>
      <trkpt lat="47.08744" lon="6.15004">
        <ele>524</ele>
        <time>2015-10-04T07:54:06Z</time>
      </trkpt>
      <trkpt lat="47.08756" lon="6.15005">
        <ele>527</ele>
        <time>2015-10-04T07:54:10Z</time>
      </trkpt>
      <trkpt lat="47.08768" lon="6.15012">
        <ele>524</ele>
        <time>2015-10-04T07:54:14Z</time>
      </trkpt>
      <trkpt lat="47.08781" lon="6.15028">
        <ele>523</ele>
        <time>2015-10-04T07:54:18Z</time>
      </trkpt>
      <trkpt lat="47.08792" lon="6.15041">
        <ele>526</ele>
        <time>2015-10-04T07:54:23Z</time>
      </trkpt>
      <trkpt lat="47.08805" lon="6.15055">
        <ele>526</ele>
        <time>2015-10-04T07:54:27Z</time>
      </trkpt>
      <trkpt lat="47.08819" lon="6.1507">
        <ele>522</ele>
        <time>2015-10-04T07:54:32Z</time>
      </trkpt>
      <trkpt lat="47.0883" lon="6.15082">
        <ele>523</ele>
        <time>2015-10-04T07:54:37Z</time>
      </trkpt>
      <trkpt lat="47.08844" lon="6.15095">
        <ele>527</ele>
        <time>2015-10-04T07:54:41Z</time>
      </trkpt>
      <trkpt lat="47.08853" lon="6.15107">
        <ele>529</ele>
        <time>2015-10-04T07:54:45Z</time>
      </trkpt>
      <trkpt lat="47.0886" lon="6.15125">
        <ele>531</ele>
        <time>2015-10-04T07:54:50Z</time>
      </trkpt>
      <trkpt lat="47.08857" lon="6.15141">
        <ele>534</ele>
        <time>2015-10-04T07:54:55Z</time>
      </trkpt>
      <trkpt lat="47.08843" lon="6.15151">
        <ele>536</ele>
        <time>2015-10-04T07:54:59Z</time>
      </trkpt>
      <trkpt lat="47.08828" lon="6.15145">
        <ele>540</ele>
        <time>2015-10-04T07:55:04Z</time>
      </trkpt>
      <trkpt lat="47.08817" lon="6.15138">
        <ele>543</ele>
        <time>2015-10-04T07:55:08Z</time>
      </trkpt>
      <trkpt lat="47.08805" lon="6.15134">
        <ele>544</ele>
        <time>2015-10-04T07:55:13Z</time>
      </trkpt>
      <trkpt lat="47.08791" lon="6.15133">
        <ele>544</ele>
        <time>2015-10-04T07:55:17Z</time>
      </trkpt>
      <trkpt lat="47.08778" lon="6.1513">
        <ele>543</ele>
        <time>2015-10-04T07:55:22Z</time>
      </trkpt>
      <trkpt lat="47.08767" lon="6.15126">
        <ele>544</ele>
        <time>2015-10-04T07:55:26Z</time>
      </trkpt>
      <trkpt lat="47.08757" lon="6.15121">
        <ele>545</ele>
        <time>2015-10-04T07:55:30Z</time>
      </trkpt>
      <trkpt lat="47.08746" lon="6.15115">
        <ele>545</ele>
        <time>2015-10-04T07:55:34Z</time>
      </trkpt>
      <trkpt lat="47.08731" lon="6.15109">
        <ele>546</ele>
        <time>2015-10-04T07:55:39Z</time>
      </trkpt>
      <trkpt lat="47.08719" lon="6.15105">
        <ele>547</ele>
        <time>2015-10-04T07:55:43Z</time>
      </trkpt>
      <trkpt lat="47.08706" lon="6.151">
        <ele>547</ele>
        <time>2015-10-04T07:55:48Z</time>
      </trkpt>
      <trkpt lat="47.08693" lon="6.15093">
        <ele>548</ele>
        <time>2015-10-04T07:55:51Z</time>
      </trkpt>
      <trkpt lat="47.0868" lon="6.15087">
        <ele>548</ele>
        <time>2015-10-04T07:55:55Z</time>
      </trkpt>
      <trkpt lat="47.08667" lon="6.15079">
        <ele>548</ele>
        <time>2015-10-04T07:55:59Z</time>
      </trkpt>
      <trkpt lat="47.08651" lon="6.15068">
        <ele>547</ele>
        <time>2015-10-04T07:56:04Z</time>
      </trkpt>
      <trkpt lat="47.08636" lon="6.15059">
        <ele>548</ele>
        <time>2015-10-04T07:56:08Z</time>
      </trkpt>
      <trkpt lat="47.08623" lon="6.1505">
        <ele>549</ele>
        <time>2015-10-04T07:56:13Z</time>
      </trkpt>
      <trkpt lat="47.08604" lon="6.15037">
        <ele>551</ele>
        <time>2015-10-04T07:56:17Z</time>
      </trkpt>
      <trkpt lat="47.08588" lon="6.15025">
        <ele>552</ele>
        <time>2015-10-04T07:56:22Z</time>
      </trkpt>
      <trkpt lat="47.08575" lon="6.15015">
        <ele>553</ele>
        <time>2015-10-04T07:56:25Z</time>
      </trkpt>
      <trkpt lat="47.08561" lon="6.15005">
        <ele>554</ele>
        <time>2015-10-04T07:56:29Z</time>
      </trkpt>
      <trkpt lat="47.08548" lon="6.14996">
        <ele>555</ele>
        <time>2015-10-04T07:56:33Z</time>
      </trkpt>
      <trkpt lat="47.08534" lon="6.14989">
        <ele>556</ele>
        <time>2015-10-04T07:56:38Z</time>
      </trkpt>
      <trkpt lat="47.08518" lon="6.14975">
        <ele>557</ele>
        <time>2015-10-04T07:56:42Z</time>
      </trkpt>
      <trkpt lat="47.08505" lon="6.14966">
        <ele>558</ele>
        <time>2015-10-04T07:56:46Z</time>
      </trkpt>
      <trkpt lat="47.08493" lon="6.14958">
        <ele>559</ele>
        <time>2015-10-04T07:56:50Z</time>
      </trkpt>
      <trkpt lat="47.08479" lon="6.14949">
        <ele>560</ele>
        <time>2015-10-04T07:56:55Z</time>
      </trkpt>
      <trkpt lat="47.08466" lon="6.1494">
        <ele>560</ele>
        <time>2015-10-04T07:57:00Z</time>
      </trkpt>
      <trkpt lat="47.08456" lon="6.14933">
        <ele>561</ele>
        <time>2015-10-04T07:57:04Z</time>
      </trkpt>
      <trkpt lat="47.08445" lon="6.14926">
        <ele>562</ele>
        <time>2015-10-04T07:57:08Z</time>
      </trkpt>
      <trkpt lat="47.08432" lon="6.14917">
        <ele>563</ele>
        <time>2015-10-04T07:57:13Z</time>
      </trkpt>
      <trkpt lat="47.08421" lon="6.14909">
        <ele>563</ele>
        <time>2015-10-04T07:57:17Z</time>
      </trkpt>
      <trkpt lat="47.0841" lon="6.14901">
        <ele>564</ele>
        <time>2015-10-04T07:57:22Z</time>
      </trkpt>
      <trkpt lat="47.08397" lon="6.14892">
        <ele>564</ele>
        <time>2015-10-04T07:57:26Z</time>
      </trkpt>
      <trkpt lat="47.08386" lon="6.14885">
        <ele>565</ele>
        <time>2015-10-04T07:57:31Z</time>
      </trkpt>
      <trkpt lat="47.08372" lon="6.14875">
        <ele>566</ele>
        <time>2015-10-04T07:57:35Z</time>
      </trkpt>
      <trkpt lat="47.08361" lon="6.14867">
        <ele>567</ele>
        <time>2015-10-04T07:57:40Z</time>
      </trkpt>
      <trkpt lat="47.08347" lon="6.14857">
        <ele>568</ele>
        <time>2015-10-04T07:57:45Z</time>
      </trkpt>
      <trkpt lat="47.08334" lon="6.14847">
        <ele>569</ele>
        <time>2015-10-04T07:57:50Z</time>
      </trkpt>
      <trkpt lat="47.08319" lon="6.14839">
        <ele>569</ele>
        <time>2015-10-04T07:57:54Z</time>
      </trkpt>
      <trkpt lat="47.08309" lon="6.14832">
        <ele>571</ele>
        <time>2015-10-04T07:57:59Z</time>
      </trkpt>
      <trkpt lat="47.08298" lon="6.14825">
        <ele>572</ele>
        <time>2015-10-04T07:58:02Z</time>
      </trkpt>
      <trkpt lat="47.08288" lon="6.14818">
        <ele>573</ele>
        <time>2015-10-04T07:58:07Z</time>
      </trkpt>
      <trkpt lat="47.08274" lon="6.14809">
        <ele>573</ele>
        <time>2015-10-04T07:58:12Z</time>
      </trkpt>
      <trkpt lat="47.08258" lon="6.148">
        <ele>574</ele>
        <time>2015-10-04T07:58:16Z</time>
      </trkpt>
      <trkpt lat="47.08245" lon="6.14792">
        <ele>573</ele>
        <time>2015-10-04T07:58:20Z</time>
      </trkpt>
      <trkpt lat="47.08235" lon="6.14785">
        <ele>573</ele>
        <time>2015-10-04T07:58:24Z</time>
      </trkpt>
      <trkpt lat="47.08218" lon="6.14772">
        <ele>573</ele>
        <time>2015-10-04T07:58:28Z</time>
      </trkpt>
      <trkpt lat="47.082" lon="6.1476">
        <ele>573</ele>
        <time>2015-10-04T07:58:33Z</time>
      </trkpt>
      <trkpt lat="47.08183" lon="6.14748">
        <ele>571</ele>
        <time>2015-10-04T07:58:38Z</time>
      </trkpt>
      <trkpt lat="47.08168" lon="6.14738">
        <ele>571</ele>
        <time>2015-10-04T07:58:42Z</time>
      </trkpt>
      <trkpt lat="47.0815" lon="6.14726">
        <ele>572</ele>
        <time>2015-10-04T07:58:47Z</time>
      </trkpt>
      <trkpt lat="47.08132" lon="6.14713">
        <ele>571</ele>
        <time>2015-10-04T07:58:52Z</time>
      </trkpt>
      <trkpt lat="47.08127" lon="6.14696">
        <ele>571</ele>
        <time>2015-10-04T07:58:56Z</time>
      </trkpt>
      <trkpt lat="47.08142" lon="6.14673">
        <ele>569</ele>
        <time>2015-10-04T07:59:01Z</time>
      </trkpt>
      <trkpt lat="47.08144" lon="6.14643">
        <ele>568</ele>
        <time>2015-10-04T07:59:06Z</time>
      </trkpt>
      <trkpt lat="47.08147" lon="6.14617">
        <ele>568</ele>
        <time>2015-10-04T07:59:11Z</time>
      </trkpt>
      <trkpt lat="47.08146" lon="6.14585">
        <ele>569</ele>
        <time>2015-10-04T07:59:15Z</time>
      </trkpt>
      <trkpt lat="47.08146" lon="6.14553">
        <ele>569</ele>
        <time>2015-10-04T07:59:20Z</time>
      </trkpt>
      <trkpt lat="47.08139" lon="6.14523">
        <ele>569</ele>
        <time>2015-10-04T07:59:25Z</time>
      </trkpt>
      <trkpt lat="47.08131" lon="6.145">
        <ele>568</ele>
        <time>2015-10-04T07:59:29Z</time>
      </trkpt>
      <trkpt lat="47.08121" lon="6.14478">
        <ele>571</ele>
        <time>2015-10-04T07:59:33Z</time>
      </trkpt>
      <trkpt lat="47.08114" lon="6.14451">
        <ele>566</ele>
        <time>2015-10-04T07:59:38Z</time>
      </trkpt>
      <trkpt lat="47.08099" lon="6.14421">
        <ele>566</ele>
        <time>2015-10-04T07:59:43Z</time>
      </trkpt>
      <trkpt lat="47.08081" lon="6.144">
        <ele>566</ele>
        <time>2015-10-04T07:59:47Z</time>
      </trkpt>
      <trkpt lat="47.08049" lon="6.14374">
        <ele>565</ele>
        <time>2015-10-04T07:59:52Z</time>
      </trkpt>
      <trkpt lat="47.08021" lon="6.14358">
        <ele>565</ele>
        <time>2015-10-04T07:59:56Z</time>
      </trkpt>
      <trkpt lat="47.07991" lon="6.14335">
        <ele>564</ele>
        <time>2015-10-04T08:00:00Z</time>
      </trkpt>
      <trkpt lat="47.07976" lon="6.14319">
        <ele>565</ele>
        <time>2015-10-04T08:00:04Z</time>
      </trkpt>
      <trkpt lat="47.07967" lon="6.14301">
        <ele>563</ele>
        <time>2015-10-04T08:00:08Z</time>
      </trkpt>
      <trkpt lat="47.07958" lon="6.14256">
        <ele>556</ele>
        <time>2015-10-04T08:00:12Z</time>
      </trkpt>
      <trkpt lat="47.07943" lon="6.14213">
        <ele>555</ele>
        <time>2015-10-04T08:00:17Z</time>
      </trkpt>
      <trkpt lat="47.07934" lon="6.14182">
        <ele>548</ele>
        <time>2015-10-04T08:00:21Z</time>
      </trkpt>
      <trkpt lat="47.07925" lon="6.14151">
        <ele>551</ele>
        <time>2015-10-04T08:00:26Z</time>
      </trkpt>
      <trkpt lat="47.07922" lon="6.14132">
        <ele>554</ele>
        <time>2015-10-04T08:00:30Z</time>
      </trkpt>
      <trkpt lat="47.07912" lon="6.1412">
        <ele>553</ele>
        <time>2015-10-04T08:00:34Z</time>
      </trkpt>
      <trkpt lat="47.07911" lon="6.141">
        <ele>555</ele>
        <time>2015-10-04T08:00:38Z</time>
      </trkpt>
      <trkpt lat="47.079" lon="6.14081">
        <ele>553</ele>
        <time>2015-10-04T08:00:42Z</time>
      </trkpt>
      <trkpt lat="47.07899" lon="6.14062">
        <ele>557</ele>
        <time>2015-10-04T08:00:46Z</time>
      </trkpt>
      <trkpt lat="47.0789" lon="6.14047">
        <ele>557</ele>
        <time>2015-10-04T08:00:50Z</time>
      </trkpt>
      <trkpt lat="47.07869" lon="6.14035">
        <ele>554</ele>
        <time>2015-10-04T08:00:55Z</time>
      </trkpt>
      <trkpt lat="47.07832" lon="6.14017">
        <ele>550</ele>
        <time>2015-10-04T08:00:59Z</time>
      </trkpt>
      <trkpt lat="47.07809" lon="6.1399">
        <ele>549</ele>
        <time>2015-10-04T08:01:04Z</time>
      </trkpt>
      <trkpt lat="47.07799" lon="6.13976">
        <ele>550</ele>
        <time>2015-10-04T08:01:08Z</time>
      </trkpt>
      <trkpt lat="47.07793" lon="6.13955">
        <ele>553</ele>
        <time>2015-10-04T08:01:13Z</time>
      </trkpt>
      <trkpt lat="47.07786" lon="6.13937">
        <ele>551</ele>
        <time>2015-10-04T08:01:17Z</time>
      </trkpt>
      <trkpt lat="47.07781" lon="6.13922">
        <ele>550</ele>
        <time>2015-10-04T08:01:22Z</time>
      </trkpt>
      <trkpt lat="47.07772" lon="6.13899">
        <ele>545</ele>
        <time>2015-10-04T08:01:26Z</time>
      </trkpt>
      <trkpt lat="47.0777" lon="6.1388">
        <ele>548</ele>
        <time>2015-10-04T08:01:30Z</time>
      </trkpt>
      <trkpt lat="47.07767" lon="6.13863">
        <ele>548</ele>
        <time>2015-10-04T08:01:35Z</time>
      </trkpt>
      <trkpt lat="47.07765" lon="6.13837">
        <ele>550</ele>
        <time>2015-10-04T08:01:39Z</time>
      </trkpt>
      <trkpt lat="47.07766" lon="6.13814">
        <ele>551</ele>
        <time>2015-10-04T08:01:44Z</time>
      </trkpt>
      <trkpt lat="47.07764" lon="6.1379">
        <ele>552</ele>
        <time>2015-10-04T08:01:49Z</time>
      </trkpt>
      <trkpt lat="47.07761" lon="6.13768">
        <ele>553</ele>
        <time>2015-10-04T08:01:54Z</time>
      </trkpt>
      <trkpt lat="47.07753" lon="6.13755">
        <ele>555</ele>
        <time>2015-10-04T08:01:58Z</time>
      </trkpt>
      <trkpt lat="47.07747" lon="6.13746">
        <ele>560</ele>
        <time>2015-10-04T08:02:02Z</time>
      </trkpt>
      <trkpt lat="47.07742" lon="6.13729">
        <ele>558</ele>
        <time>2015-10-04T08:02:07Z</time>
      </trkpt>
      <trkpt lat="47.07738" lon="6.13718">
        <ele>561</ele>
        <time>2015-10-04T08:02:11Z</time>
      </trkpt>
      <trkpt lat="47.07731" lon="6.13702">
        <ele>555</ele>
        <time>2015-10-04T08:02:16Z</time>
      </trkpt>
      <trkpt lat="47.07722" lon="6.1369">
        <ele>557</ele>
        <time>2015-10-04T08:02:20Z</time>
      </trkpt>
      <trkpt lat="47.07714" lon="6.13678">
        <ele>560</ele>
        <time>2015-10-04T08:02:24Z</time>
      </trkpt>
      <trkpt lat="47.07704" lon="6.13669">
        <ele>564</ele>
        <time>2015-10-04T08:02:28Z</time>
      </trkpt>
      <trkpt lat="47.07694" lon="6.13659">
        <ele>561</ele>
        <time>2015-10-04T08:02:32Z</time>
      </trkpt>
      <trkpt lat="47.07685" lon="6.13649">
        <ele>559</ele>
        <time>2015-10-04T08:02:37Z</time>
      </trkpt>
      <trkpt lat="47.07672" lon="6.13635">
        <ele>559</ele>
        <time>2015-10-04T08:02:42Z</time>
      </trkpt>
      <trkpt lat="47.07657" lon="6.13625">
        <ele>560</ele>
        <time>2015-10-04T08:02:46Z</time>
      </trkpt>
      <trkpt lat="47.07642" lon="6.1362">
        <ele>561</ele>
        <time>2015-10-04T08:02:50Z</time>
      </trkpt>
      <trkpt lat="47.07618" lon="6.13624">
        <ele>558</ele>
        <time>2015-10-04T08:02:54Z</time>
      </trkpt>
      <trkpt lat="47.07598" lon="6.13636">
        <ele>557</ele>
        <time>2015-10-04T08:02:59Z</time>
      </trkpt>
      <trkpt lat="47.07576" lon="6.13643">
        <ele>560</ele>
        <time>2015-10-04T08:03:03Z</time>
      </trkpt>
      <trkpt lat="47.07555" lon="6.13665">
        <ele>559</ele>
        <time>2015-10-04T08:03:07Z</time>
      </trkpt>
      <trkpt lat="47.07528" lon="6.13693">
        <ele>556</ele>
        <time>2015-10-04T08:03:12Z</time>
      </trkpt>
      <trkpt lat="47.07512" lon="6.13719">
        <ele>554</ele>
        <time>2015-10-04T08:03:16Z</time>
      </trkpt>
      <trkpt lat="47.075" lon="6.13738">
        <ele>553</ele>
        <time>2015-10-04T08:03:20Z</time>
      </trkpt>
      <trkpt lat="47.07491" lon="6.13751">
        <ele>556</ele>
        <time>2015-10-04T08:03:24Z</time>
      </trkpt>
      <trkpt lat="47.07484" lon="6.13755">
        <ele>558</ele>
        <time>2015-10-04T08:03:28Z</time>
      </trkpt>
      <trkpt lat="47.07473" lon="6.13757">
        <ele>553</ele>
        <time>2015-10-04T08:03:32Z</time>
      </trkpt>
      <trkpt lat="47.07461" lon="6.13752">
        <ele>555</ele>
        <time>2015-10-04T08:03:36Z</time>
      </trkpt>
      <trkpt lat="47.07454" lon="6.13747">
        <ele>552</ele>
        <time>2015-10-04T08:03:40Z</time>
      </trkpt>
      <trkpt lat="47.07449" lon="6.13736">
        <ele>554</ele>
        <time>2015-10-04T08:03:45Z</time>
      </trkpt>
      <trkpt lat="47.0744" lon="6.13716">
        <ele>556</ele>
        <time>2015-10-04T08:03:50Z</time>
      </trkpt>
      <trkpt lat="47.07425" lon="6.1369">
        <ele>558</ele>
        <time>2015-10-04T08:03:55Z</time>
      </trkpt>
      <trkpt lat="47.07415" lon="6.13668">
        <ele>561</ele>
        <time>2015-10-04T08:03:59Z</time>
      </trkpt>
      <trkpt lat="47.07402" lon="6.13647">
        <ele>556</ele>
        <time>2015-10-04T08:04:04Z</time>
      </trkpt>
      <trkpt lat="47.07391" lon="6.13627">
        <ele>556</ele>
        <time>2015-10-04T08:04:08Z</time>
      </trkpt>
      <trkpt lat="47.07386" lon="6.13614">
        <ele>557</ele>
        <time>2015-10-04T08:04:12Z</time>
      </trkpt>
      <trkpt lat="47.07375" lon="6.13593">
        <ele>560</ele>
        <time>2015-10-04T08:04:17Z</time>
      </trkpt>
      <trkpt lat="47.07365" lon="6.13578">
        <ele>560</ele>
        <time>2015-10-04T08:04:22Z</time>
      </trkpt>
      <trkpt lat="47.0735" lon="6.13557">
        <ele>556</ele>
        <time>2015-10-04T08:04:26Z</time>
      </trkpt>
      <trkpt lat="47.07335" lon="6.1354">
        <ele>559</ele>
        <time>2015-10-04T08:04:30Z</time>
      </trkpt>
      <trkpt lat="47.07325" lon="6.13521">
        <ele>562</ele>
        <time>2015-10-04T08:04:34Z</time>
      </trkpt>
      <trkpt lat="47.07317" lon="6.13501">
        <ele>560</ele>
        <time>2015-10-04T08:04:38Z</time>
      </trkpt>
      <trkpt lat="47.07306" lon="6.13485">
        <ele>558</ele>
        <time>2015-10-04T08:04:42Z</time>
      </trkpt>
      <trkpt lat="47.07298" lon="6.13468">
        <ele>560</ele>
        <time>2015-10-04T08:04:46Z</time>
      </trkpt>
      <trkpt lat="47.07291" lon="6.13448">
        <ele>557</ele>
        <time>2015-10-04T08:04:50Z</time>
      </trkpt>
      <trkpt lat="47.07286" lon="6.13432">
        <ele>552</ele>
        <time>2015-10-04T08:04:55Z</time>
      </trkpt>
      <trkpt lat="47.07281" lon="6.13413">
        <ele>550</ele>
        <time>2015-10-04T08:04:59Z</time>
      </trkpt>
      <trkpt lat="47.07276" lon="6.13397">
        <ele>549</ele>
        <time>2015-10-04T08:05:03Z</time>
      </trkpt>
      <trkpt lat="47.07264" lon="6.13383">
        <ele>545</ele>
        <time>2015-10-04T08:05:08Z</time>
      </trkpt>
      <trkpt lat="47.07253" lon="6.13379">
        <ele>549</ele>
        <time>2015-10-04T08:05:12Z</time>
      </trkpt>
      <trkpt lat="47.07239" lon="6.13375">
        <ele>547</ele>
        <time>2015-10-04T08:05:16Z</time>
      </trkpt>
      <trkpt lat="47.07225" lon="6.13379">
        <ele>552</ele>
        <time>2015-10-04T08:05:20Z</time>
      </trkpt>
      <trkpt lat="47.07218" lon="6.13383">
        <ele>561</ele>
        <time>2015-10-04T08:05:25Z</time>
      </trkpt>
      <trkpt lat="47.07214" lon="6.13394">
        <ele>562</ele>
        <time>2015-10-04T08:05:30Z</time>
      </trkpt>
      <trkpt lat="47.07208" lon="6.13407">
        <ele>562</ele>
        <time>2015-10-04T08:05:35Z</time>
      </trkpt>
      <trkpt lat="47.07205" lon="6.13418">
        <ele>567</ele>
        <time>2015-10-04T08:05:39Z</time>
      </trkpt>
      <trkpt lat="47.07199" lon="6.1343">
        <ele>572</ele>
        <time>2015-10-04T08:05:44Z</time>
      </trkpt>
      <trkpt lat="47.0719" lon="6.13438">
        <ele>572</ele>
        <time>2015-10-04T08:05:48Z</time>
      </trkpt>
      <trkpt lat="47.07183" lon="6.1345">
        <ele>574</ele>
        <time>2015-10-04T08:05:52Z</time>
      </trkpt>
      <trkpt lat="47.07175" lon="6.13462">
        <ele>574</ele>
        <time>2015-10-04T08:05:57Z</time>
      </trkpt>
      <trkpt lat="47.07169" lon="6.13473">
        <ele>572</ele>
        <time>2015-10-04T08:06:01Z</time>
      </trkpt>
      <trkpt lat="47.07163" lon="6.13488">
        <ele>574</ele>
        <time>2015-10-04T08:06:06Z</time>
      </trkpt>
      <trkpt lat="47.07157" lon="6.13499">
        <ele>574</ele>
        <time>2015-10-04T08:06:10Z</time>
      </trkpt>
      <trkpt lat="47.07151" lon="6.13508">
        <ele>574</ele>
        <time>2015-10-04T08:06:14Z</time>
      </trkpt>
      <trkpt lat="47.07146" lon="6.13518">
        <ele>573</ele>
        <time>2015-10-04T08:06:18Z</time>
      </trkpt>
      <trkpt lat="47.0714" lon="6.1353">
        <ele>580</ele>
        <time>2015-10-04T08:06:23Z</time>
      </trkpt>
      <trkpt lat="47.07135" lon="6.13541">
        <ele>581</ele>
        <time>2015-10-04T08:06:27Z</time>
      </trkpt>
      <trkpt lat="47.07128" lon="6.13553">
        <ele>581</ele>
        <time>2015-10-04T08:06:32Z</time>
      </trkpt>
      <trkpt lat="47.07122" lon="6.13563">
        <ele>582</ele>
        <time>2015-10-04T08:06:36Z</time>
      </trkpt>
      <trkpt lat="47.07115" lon="6.13572">
        <ele>584</ele>
        <time>2015-10-04T08:06:40Z</time>
      </trkpt>
      <trkpt lat="47.07109" lon="6.13583">
        <ele>582</ele>
        <time>2015-10-04T08:06:44Z</time>
      </trkpt>
      <trkpt lat="47.07103" lon="6.13592">
        <ele>582</ele>
        <time>2015-10-04T08:06:49Z</time>
      </trkpt>
      <trkpt lat="47.07096" lon="6.13603">
        <ele>581</ele>
        <time>2015-10-04T08:06:53Z</time>
      </trkpt>
      <trkpt lat="47.07088" lon="6.13612">
        <ele>579</ele>
        <time>2015-10-04T08:06:58Z</time>
      </trkpt>
      <trkpt lat="47.07082" lon="6.13621">
        <ele>580</ele>
        <time>2015-10-04T08:07:02Z</time>
      </trkpt>
      <trkpt lat="47.07073" lon="6.13632">
        <ele>583</ele>
        <time>2015-10-04T08:07:07Z</time>
      </trkpt>
      <trkpt lat="47.07065" lon="6.13638">
        <ele>581</ele>
        <time>2015-10-04T08:07:11Z</time>
      </trkpt>
      <trkpt lat="47.07058" lon="6.13645">
        <ele>583</ele>
        <time>2015-10-04T08:07:15Z</time>
      </trkpt>
      <trkpt lat="47.07051" lon="6.13652">
        <ele>583</ele>
        <time>2015-10-04T08:07:19Z</time>
      </trkpt>
      <trkpt lat="47.07043" lon="6.13659">
        <ele>584</ele>
        <time>2015-10-04T08:07:23Z</time>
      </trkpt>
      <trkpt lat="47.07032" lon="6.13667">
        <ele>584</ele>
        <time>2015-10-04T08:07:28Z</time>
      </trkpt>
      <trkpt lat="47.07024" lon="6.13675">
        <ele>588</ele>
        <time>2015-10-04T08:07:32Z</time>
      </trkpt>
      <trkpt lat="47.07015" lon="6.13686">
        <ele>591</ele>
        <time>2015-10-04T08:07:37Z</time>
      </trkpt>
      <trkpt lat="47.07009" lon="6.13696">
        <ele>591</ele>
        <time>2015-10-04T08:07:41Z</time>
      </trkpt>
      <trkpt lat="47.07003" lon="6.13711">
        <ele>590</ele>
        <time>2015-10-04T08:07:46Z</time>
      </trkpt>
      <trkpt lat="47.06999" lon="6.13725">
        <ele>592</ele>
        <time>2015-10-04T08:07:51Z</time>
      </trkpt>
      <trkpt lat="47.07" lon="6.13737">
        <ele>592</ele>
        <time>2015-10-04T08:07:57Z</time>
      </trkpt>
      <trkpt lat="47.07001" lon="6.13748">
        <ele>592</ele>
        <time>2015-10-04T08:08:02Z</time>
      </trkpt>
      <trkpt lat="47.07001" lon="6.13762">
        <ele>591</ele>
        <time>2015-10-04T08:08:07Z</time>
      </trkpt>
      <trkpt lat="47.07" lon="6.13776">
        <ele>593</ele>
        <time>2015-10-04T08:08:12Z</time>
      </trkpt>
      <trkpt lat="47.06997" lon="6.13792">
        <ele>591</ele>
        <time>2015-10-04T08:08:16Z</time>
      </trkpt>
      <trkpt lat="47.06991" lon="6.13798">
        <ele>588</ele>
        <time>2015-10-04T08:08:20Z</time>
      </trkpt>
      <trkpt lat="47.06984" lon="6.13796">
        <ele>587</ele>
        <time>2015-10-04T08:08:24Z</time>
      </trkpt>
      <trkpt lat="47.06975" lon="6.13792">
        <ele>584</ele>
        <time>2015-10-04T08:08:29Z</time>
      </trkpt>
      <trkpt lat="47.06966" lon="6.13789">
        <ele>581</ele>
        <time>2015-10-04T08:08:33Z</time>
      </trkpt>
      <trkpt lat="47.06956" lon="6.13787">
        <ele>582</ele>
        <time>2015-10-04T08:08:37Z</time>
      </trkpt>
      <trkpt lat="47.06943" lon="6.13786">
        <ele>586</ele>
        <time>2015-10-04T08:08:41Z</time>
      </trkpt>
      <trkpt lat="47.06929" lon="6.13776">
        <ele>585</ele>
        <time>2015-10-04T08:08:45Z</time>
      </trkpt>
      <trkpt lat="47.06908" lon="6.13767">
        <ele>581</ele>
        <time>2015-10-04T08:08:50Z</time>
      </trkpt>
      <trkpt lat="47.06894" lon="6.13761">
        <ele>580</ele>
        <time>2015-10-04T08:08:54Z</time>
      </trkpt>
      <trkpt lat="47.0687" lon="6.13749">
        <ele>579</ele>
        <time>2015-10-04T08:08:59Z</time>
      </trkpt>
      <trkpt lat="47.0685" lon="6.13739">
        <ele>579</ele>
        <time>2015-10-04T08:09:04Z</time>
      </trkpt>
      <trkpt lat="47.06833" lon="6.13732">
        <ele>578</ele>
        <time>2015-10-04T08:09:08Z</time>
      </trkpt>
      <trkpt lat="47.06813" lon="6.13719">
        <ele>581</ele>
        <time>2015-10-04T08:09:12Z</time>
      </trkpt>
      <trkpt lat="47.068" lon="6.13711">
        <ele>583</ele>
        <time>2015-10-04T08:09:17Z</time>
      </trkpt>
      <trkpt lat="47.06785" lon="6.13708">
        <ele>584</ele>
        <time>2015-10-04T08:09:22Z</time>
      </trkpt>
      <trkpt lat="47.06775" lon="6.13708">
        <ele>584</ele>
        <time>2015-10-04T08:09:27Z</time>
      </trkpt>
      <trkpt lat="47.06763" lon="6.13704">
        <ele>587</ele>
        <time>2015-10-04T08:09:31Z</time>
      </trkpt>
      <trkpt lat="47.06753" lon="6.13699">
        <ele>588</ele>
        <time>2015-10-04T08:09:36Z</time>
      </trkpt>
      <trkpt lat="47.06736" lon="6.13701">
        <ele>592</ele>
        <time>2015-10-04T08:09:41Z</time>
      </trkpt>
      <trkpt lat="47.06725" lon="6.13704">
        <ele>589</ele>
        <time>2015-10-04T08:09:46Z</time>
      </trkpt>
      <trkpt lat="47.06711" lon="6.13707">
        <ele>590</ele>
        <time>2015-10-04T08:09:50Z</time>
      </trkpt>
      <trkpt lat="47.067" lon="6.13717">
        <ele>589</ele>
        <time>2015-10-04T08:09:54Z</time>
      </trkpt>
      <trkpt lat="47.06703" lon="6.1374">
        <ele>588</ele>
        <time>2015-10-04T08:09:59Z</time>
      </trkpt>
      <trkpt lat="47.06712" lon="6.13755">
        <ele>590</ele>
        <time>2015-10-04T08:10:03Z</time>
      </trkpt>
      <trkpt lat="47.06716" lon="6.13775">
        <ele>587</ele>
        <time>2015-10-04T08:10:07Z</time>
      </trkpt>
      <trkpt lat="47.06715" lon="6.13797">
        <ele>588</ele>
        <time>2015-10-04T08:10:11Z</time>
      </trkpt>
      <trkpt lat="47.067" lon="6.13806">
        <ele>589</ele>
        <time>2015-10-04T08:10:16Z</time>
      </trkpt>
      <trkpt lat="47.06683" lon="6.13813">
        <ele>590</ele>
        <time>2015-10-04T08:10:20Z</time>
      </trkpt>
      <trkpt lat="47.0667" lon="6.13819">
        <ele>590</ele>
        <time>2015-10-04T08:10:24Z</time>
      </trkpt>
      <trkpt lat="47.06658" lon="6.13825">
        <ele>590</ele>
        <time>2015-10-04T08:10:28Z</time>
      </trkpt>
      <trkpt lat="47.06646" lon="6.13832">
        <ele>590</ele>
        <time>2015-10-04T08:10:33Z</time>
      </trkpt>
      <trkpt lat="47.06634" lon="6.13838">
        <ele>592</ele>
        <time>2015-10-04T08:10:36Z</time>
      </trkpt>
      <trkpt lat="47.06622" lon="6.13844">
        <ele>591</ele>
        <time>2015-10-04T08:10:40Z</time>
      </trkpt>
      <trkpt lat="47.06611" lon="6.1385">
        <ele>592</ele>
        <time>2015-10-04T08:10:45Z</time>
      </trkpt>
      <trkpt lat="47.06596" lon="6.13857">
        <ele>593</ele>
        <time>2015-10-04T08:10:49Z</time>
      </trkpt>
      <trkpt lat="47.06585" lon="6.13863">
        <ele>593</ele>
        <time>2015-10-04T08:10:53Z</time>
      </trkpt>
      <trkpt lat="47.06573" lon="6.13869">
        <ele>594</ele>
        <time>2015-10-04T08:10:57Z</time>
      </trkpt>
      <trkpt lat="47.06558" lon="6.13876">
        <ele>595</ele>
        <time>2015-10-04T08:11:02Z</time>
      </trkpt>
      <trkpt lat="47.06546" lon="6.13882">
        <ele>595</ele>
        <time>2015-10-04T08:11:06Z</time>
      </trkpt>
      <trkpt lat="47.06533" lon="6.13887">
        <ele>595</ele>
        <time>2015-10-04T08:11:10Z</time>
      </trkpt>
      <trkpt lat="47.06516" lon="6.13894">
        <ele>596</ele>
        <time>2015-10-04T08:11:15Z</time>
      </trkpt>
      <trkpt lat="47.06498" lon="6.13902">
        <ele>596</ele>
        <time>2015-10-04T08:11:20Z</time>
      </trkpt>
      <trkpt lat="47.06484" lon="6.13909">
        <ele>596</ele>
        <time>2015-10-04T08:11:25Z</time>
      </trkpt>
      <trkpt lat="47.06467" lon="6.13916">
        <ele>597</ele>
        <time>2015-10-04T08:11:29Z</time>
      </trkpt>
      <trkpt lat="47.06454" lon="6.13921">
        <ele>598</ele>
        <time>2015-10-04T08:11:33Z</time>
      </trkpt>
      <trkpt lat="47.06437" lon="6.13927">
        <ele>598</ele>
        <time>2015-10-04T08:11:38Z</time>
      </trkpt>
      <trkpt lat="47.06425" lon="6.13933">
        <ele>598</ele>
        <time>2015-10-04T08:11:42Z</time>
      </trkpt>
      <trkpt lat="47.06413" lon="6.13938">
        <ele>599</ele>
        <time>2015-10-04T08:11:47Z</time>
      </trkpt>
      <trkpt lat="47.06398" lon="6.13946">
        <ele>599</ele>
        <time>2015-10-04T08:11:51Z</time>
      </trkpt>
      <trkpt lat="47.06384" lon="6.13951">
        <ele>599</ele>
        <time>2015-10-04T08:11:55Z</time>
      </trkpt>
      <trkpt lat="47.0637" lon="6.13957">
        <ele>600</ele>
        <time>2015-10-04T08:11:59Z</time>
      </trkpt>
      <trkpt lat="47.06356" lon="6.13964">
        <ele>601</ele>
        <time>2015-10-04T08:12:03Z</time>
      </trkpt>
      <trkpt lat="47.06343" lon="6.1397">
        <ele>602</ele>
        <time>2015-10-04T08:12:07Z</time>
      </trkpt>
      <trkpt lat="47.06329" lon="6.13976">
        <ele>601</ele>
        <time>2015-10-04T08:12:11Z</time>
      </trkpt>
      <trkpt lat="47.06315" lon="6.13983">
        <ele>601</ele>
        <time>2015-10-04T08:12:15Z</time>
      </trkpt>
      <trkpt lat="47.06299" lon="6.13989">
        <ele>602</ele>
        <time>2015-10-04T08:12:20Z</time>
      </trkpt>
      <trkpt lat="47.0628" lon="6.13996">
        <ele>601</ele>
        <time>2015-10-04T08:12:24Z</time>
      </trkpt>
      <trkpt lat="47.06264" lon="6.14002">
        <ele>601</ele>
        <time>2015-10-04T08:12:28Z</time>
      </trkpt>
      <trkpt lat="47.06249" lon="6.14008">
        <ele>602</ele>
        <time>2015-10-04T08:12:33Z</time>
      </trkpt>
      <trkpt lat="47.06229" lon="6.14016">
        <ele>602</ele>
        <time>2015-10-04T08:12:37Z</time>
      </trkpt>
      <trkpt lat="47.06213" lon="6.14023">
        <ele>603</ele>
        <time>2015-10-04T08:12:42Z</time>
      </trkpt>
      <trkpt lat="47.06192" lon="6.14032">
        <ele>604</ele>
        <time>2015-10-04T08:12:46Z</time>
      </trkpt>
      <trkpt lat="47.06176" lon="6.14039">
        <ele>604</ele>
        <time>2015-10-04T08:12:51Z</time>
      </trkpt>
      <trkpt lat="47.06155" lon="6.14048">
        <ele>604</ele>
        <time>2015-10-04T08:12:56Z</time>
      </trkpt>
      <trkpt lat="47.0614" lon="6.14055">
        <ele>604</ele>
        <time>2015-10-04T08:12:59Z</time>
      </trkpt>
      <trkpt lat="47.0613" lon="6.14051">
        <ele>604</ele>
        <time>2015-10-04T08:13:04Z</time>
      </trkpt>
      <trkpt lat="47.06126" lon="6.1403">
        <ele>604</ele>
        <time>2015-10-04T08:13:08Z</time>
      </trkpt>
      <trkpt lat="47.06123" lon="6.14009">
        <ele>605</ele>
        <time>2015-10-04T08:13:13Z</time>
      </trkpt>
      <trkpt lat="47.06116" lon="6.13972">
        <ele>605</ele>
        <time>2015-10-04T08:13:18Z</time>
      </trkpt>
      <trkpt lat="47.06108" lon="6.13938">
        <ele>603</ele>
        <time>2015-10-04T08:13:22Z</time>
      </trkpt>
      <trkpt lat="47.06099" lon="6.13904">
        <ele>603</ele>
        <time>2015-10-04T08:13:27Z</time>
      </trkpt>
      <trkpt lat="47.06088" lon="6.1387">
        <ele>600</ele>
        <time>2015-10-04T08:13:32Z</time>
      </trkpt>
      <trkpt lat="47.06083" lon="6.13844">
        <ele>601</ele>
        <time>2015-10-04T08:13:36Z</time>
      </trkpt>
      <trkpt lat="47.0607" lon="6.13806">
        <ele>604</ele>
        <time>2015-10-04T08:13:41Z</time>
      </trkpt>
      <trkpt lat="47.06063" lon="6.13782">
        <ele>608</ele>
        <time>2015-10-04T08:13:45Z</time>
      </trkpt>
      <trkpt lat="47.06053" lon="6.13748">
        <ele>612</ele>
        <time>2015-10-04T08:13:50Z</time>
      </trkpt>
      <trkpt lat="47.06047" lon="6.13719">
        <ele>613</ele>
        <time>2015-10-04T08:13:54Z</time>
      </trkpt>
      <trkpt lat="47.06038" lon="6.13695">
        <ele>609</ele>
        <time>2015-10-04T08:13:58Z</time>
      </trkpt>
      <trkpt lat="47.06034" lon="6.13659">
        <ele>611</ele>
        <time>2015-10-04T08:14:02Z</time>
      </trkpt>
      <trkpt lat="47.06018" lon="6.13636">
        <ele>609</ele>
        <time>2015-10-04T08:14:06Z</time>
      </trkpt>
      <trkpt lat="47.05997" lon="6.13629">
        <ele>603</ele>
        <time>2015-10-04T08:14:10Z</time>
      </trkpt>
      <trkpt lat="47.05979" lon="6.13618">
        <ele>598</ele>
        <time>2015-10-04T08:14:15Z</time>
      </trkpt>
      <trkpt lat="47.05957" lon="6.13609">
        <ele>594</ele>
        <time>2015-10-04T08:14:19Z</time>
      </trkpt>
      <trkpt lat="47.0594" lon="6.13603">
        <ele>592</ele>
        <time>2015-10-04T08:14:23Z</time>
      </trkpt>
      <trkpt lat="47.05915" lon="6.13589">
        <ele>589</ele>
        <time>2015-10-04T08:14:28Z</time>
      </trkpt>
      <trkpt lat="47.05899" lon="6.13581">
        <ele>589</ele>
        <time>2015-10-04T08:14:32Z</time>
      </trkpt>
      <trkpt lat="47.05885" lon="6.13573">
        <ele>588</ele>
        <time>2015-10-04T08:14:37Z</time>
      </trkpt>
      <trkpt lat="47.05875" lon="6.13565">
        <ele>589</ele>
        <time>2015-10-04T08:14:41Z</time>
      </trkpt>
      <trkpt lat="47.05865" lon="6.13557">
        <ele>590</ele>
        <time>2015-10-04T08:14:45Z</time>
      </trkpt>
      <trkpt lat="47.05844" lon="6.13538">
        <ele>588</ele>
        <time>2015-10-04T08:14:49Z</time>
      </trkpt>
      <trkpt lat="47.05828" lon="6.13538">
        <ele>589</ele>
        <time>2015-10-04T08:14:53Z</time>
      </trkpt>
      <trkpt lat="47.05812" lon="6.13552">
        <ele>586</ele>
        <time>2015-10-04T08:14:58Z</time>
      </trkpt>
      <trkpt lat="47.05803" lon="6.13564">
        <ele>585</ele>
        <time>2015-10-04T08:15:02Z</time>
      </trkpt>
      <trkpt lat="47.05793" lon="6.13575">
        <ele>587</ele>
        <time>2015-10-04T08:15:06Z</time>
      </trkpt>
      <trkpt lat="47.05783" lon="6.13583">
        <ele>587</ele>
        <time>2015-10-04T08:15:10Z</time>
      </trkpt>
      <trkpt lat="47.05771" lon="6.13589">
        <ele>586</ele>
        <time>2015-10-04T08:15:14Z</time>
      </trkpt>
      <trkpt lat="47.05761" lon="6.13595">
        <ele>584</ele>
        <time>2015-10-04T08:15:18Z</time>
      </trkpt>
      <trkpt lat="47.05752" lon="6.136">
        <ele>585</ele>
        <time>2015-10-04T08:15:22Z</time>
      </trkpt>
      <trkpt lat="47.05743" lon="6.13606">
        <ele>586</ele>
        <time>2015-10-04T08:15:26Z</time>
      </trkpt>
      <trkpt lat="47.05732" lon="6.13613">
        <ele>585</ele>
        <time>2015-10-04T08:15:30Z</time>
      </trkpt>
      <trkpt lat="47.05719" lon="6.13621">
        <ele>585</ele>
        <time>2015-10-04T08:15:35Z</time>
      </trkpt>
      <trkpt lat="47.05709" lon="6.13626">
        <ele>581</ele>
        <time>2015-10-04T08:15:40Z</time>
      </trkpt>
      <trkpt lat="47.05695" lon="6.13635">
        <ele>578</ele>
        <time>2015-10-04T08:15:44Z</time>
      </trkpt>
      <trkpt lat="47.05681" lon="6.13647">
        <ele>580</ele>
        <time>2015-10-04T08:15:49Z</time>
      </trkpt>
      <trkpt lat="47.0567" lon="6.13657">
        <ele>583</ele>
        <time>2015-10-04T08:15:53Z</time>
      </trkpt>
      <trkpt lat="47.05661" lon="6.13668">
        <ele>590</ele>
        <time>2015-10-04T08:15:57Z</time>
      </trkpt>
      <trkpt lat="47.0565" lon="6.13678">
        <ele>591</ele>
        <time>2015-10-04T08:16:02Z</time>
      </trkpt>
      <trkpt lat="47.05642" lon="6.13688">
        <ele>592</ele>
        <time>2015-10-04T08:16:06Z</time>
      </trkpt>
      <trkpt lat="47.05634" lon="6.13698">
        <ele>593</ele>
        <time>2015-10-04T08:16:10Z</time>
      </trkpt>
      <trkpt lat="47.05626" lon="6.13707">
        <ele>596</ele>
        <time>2015-10-04T08:16:14Z</time>
      </trkpt>
      <trkpt lat="47.05619" lon="6.13714">
        <ele>598</ele>
        <time>2015-10-04T08:16:18Z</time>
      </trkpt>
      <trkpt lat="47.05611" lon="6.13724">
        <ele>602</ele>
        <time>2015-10-04T08:16:22Z</time>
      </trkpt>
      <trkpt lat="47.05602" lon="6.13737">
        <ele>601</ele>
        <time>2015-10-04T08:16:27Z</time>
      </trkpt>
      <trkpt lat="47.05595" lon="6.13747">
        <ele>597</ele>
        <time>2015-10-04T08:16:31Z</time>
      </trkpt>
      <trkpt lat="47.05586" lon="6.13754">
        <ele>596</ele>
        <time>2015-10-04T08:16:36Z</time>
      </trkpt>
      <trkpt lat="47.05578" lon="6.13756">
        <ele>598</ele>
        <time>2015-10-04T08:16:40Z</time>
      </trkpt>
      <trkpt lat="47.05569" lon="6.13756">
        <ele>602</ele>
        <time>2015-10-04T08:16:44Z</time>
      </trkpt>
      <trkpt lat="47.05556" lon="6.13754">
        <ele>603</ele>
        <time>2015-10-04T08:16:49Z</time>
      </trkpt>
      <trkpt lat="47.05545" lon="6.13754">
        <ele>603</ele>
        <time>2015-10-04T08:16:53Z</time>
      </trkpt>
      <trkpt lat="47.05532" lon="6.13756">
        <ele>603</ele>
        <time>2015-10-04T08:16:57Z</time>
      </trkpt>
      <trkpt lat="47.0552" lon="6.13761">
        <ele>603</ele>
        <time>2015-10-04T08:17:01Z</time>
      </trkpt>
      <trkpt lat="47.05507" lon="6.13768">
        <ele>607</ele>
        <time>2015-10-04T08:17:06Z</time>
      </trkpt>
      <trkpt lat="47.05495" lon="6.13777">
        <ele>605</ele>
        <time>2015-10-04T08:17:11Z</time>
      </trkpt>
      <trkpt lat="47.05486" lon="6.13782">
        <ele>603</ele>
        <time>2015-10-04T08:17:15Z</time>
      </trkpt>
      <trkpt lat="47.05476" lon="6.13787">
        <ele>606</ele>
        <time>2015-10-04T08:17:20Z</time>
      </trkpt>
      <trkpt lat="47.05463" lon="6.13791">
        <ele>607</ele>
        <time>2015-10-04T08:17:24Z</time>
      </trkpt>
      <trkpt lat="47.05452" lon="6.13794">
        <ele>608</ele>
        <time>2015-10-04T08:17:28Z</time>
      </trkpt>
      <trkpt lat="47.05442" lon="6.138">
        <ele>609</ele>
        <time>2015-10-04T08:17:32Z</time>
      </trkpt>
      <trkpt lat="47.05432" lon="6.13808">
        <ele>610</ele>
        <time>2015-10-04T08:17:36Z</time>
      </trkpt>
      <trkpt lat="47.05421" lon="6.13816">
        <ele>611</ele>
        <time>2015-10-04T08:17:40Z</time>
      </trkpt>
      <trkpt lat="47.05412" lon="6.13825">
        <ele>610</ele>
        <time>2015-10-04T08:17:45Z</time>
      </trkpt>
      <trkpt lat="47.05399" lon="6.13837">
        <ele>611</ele>
        <time>2015-10-04T08:17:50Z</time>
      </trkpt>
      <trkpt lat="47.05386" lon="6.13851">
        <ele>611</ele>
        <time>2015-10-04T08:17:54Z</time>
      </trkpt>
      <trkpt lat="47.05373" lon="6.13866">
        <ele>612</ele>
        <time>2015-10-04T08:17:59Z</time>
      </trkpt>
      <trkpt lat="47.05363" lon="6.13876">
        <ele>613</ele>
        <time>2015-10-04T08:18:03Z</time>
      </trkpt>
      <trkpt lat="47.05352" lon="6.13886">
        <ele>614</ele>
        <time>2015-10-04T08:18:08Z</time>
      </trkpt>
      <trkpt lat="47.05338" lon="6.13898">
        <ele>615</ele>
        <time>2015-10-04T08:18:12Z</time>
      </trkpt>
      <trkpt lat="47.05325" lon="6.13909">
        <ele>615</ele>
        <time>2015-10-04T08:18:17Z</time>
      </trkpt>
      <trkpt lat="47.05315" lon="6.13912">
        <ele>615</ele>
        <time>2015-10-04T08:18:21Z</time>
      </trkpt>
      <trkpt lat="47.05307" lon="6.13895">
        <ele>614</ele>
        <time>2015-10-04T08:18:26Z</time>
      </trkpt>
      <trkpt lat="47.05301" lon="6.13881">
        <ele>612</ele>
        <time>2015-10-04T08:18:30Z</time>
      </trkpt>
      <trkpt lat="47.05286" lon="6.1389">
        <ele>611</ele>
        <time>2015-10-04T08:18:35Z</time>
      </trkpt>
      <trkpt lat="47.05265" lon="6.13903">
        <ele>611</ele>
        <time>2015-10-04T08:18:40Z</time>
      </trkpt>
      <trkpt lat="47.05247" lon="6.13912">
        <ele>607</ele>
        <time>2015-10-04T08:18:45Z</time>
      </trkpt>
      <trkpt lat="47.05226" lon="6.13929">
        <ele>608</ele>
        <time>2015-10-04T08:18:49Z</time>
      </trkpt>
      <trkpt lat="47.05202" lon="6.13947">
        <ele>604</ele>
        <time>2015-10-04T08:18:54Z</time>
      </trkpt>
      <trkpt lat="47.0518" lon="6.13959">
        <ele>603</ele>
        <time>2015-10-04T08:18:58Z</time>
      </trkpt>
      <trkpt lat="47.05155" lon="6.13978">
        <ele>605</ele>
        <time>2015-10-04T08:19:03Z</time>
      </trkpt>
      <trkpt lat="47.05139" lon="6.13989">
        <ele>606</ele>
        <time>2015-10-04T08:19:07Z</time>
      </trkpt>
      <trkpt lat="47.05116" lon="6.14008">
        <ele>604</ele>
        <time>2015-10-04T08:19:12Z</time>
      </trkpt>
      <trkpt lat="47.05098" lon="6.14024">
        <ele>609</ele>
        <time>2015-10-04T08:19:17Z</time>
      </trkpt>
      <trkpt lat="47.05083" lon="6.1404">
        <ele>606</ele>
        <time>2015-10-04T08:19:21Z</time>
      </trkpt>
      <trkpt lat="47.05069" lon="6.14053">
        <ele>605</ele>
        <time>2015-10-04T08:19:25Z</time>
      </trkpt>
      <trkpt lat="47.05055" lon="6.14067">
        <ele>606</ele>
        <time>2015-10-04T08:19:29Z</time>
      </trkpt>
      <trkpt lat="47.0504" lon="6.14078">
        <ele>605</ele>
        <time>2015-10-04T08:19:33Z</time>
      </trkpt>
      <trkpt lat="47.05026" lon="6.14091">
        <ele>608</ele>
        <time>2015-10-04T08:19:37Z</time>
      </trkpt>
      <trkpt lat="47.05014" lon="6.14104">
        <ele>609</ele>
        <time>2015-10-04T08:19:41Z</time>
      </trkpt>
      <trkpt lat="47.04999" lon="6.14115">
        <ele>613</ele>
        <time>2015-10-04T08:19:45Z</time>
      </trkpt>
      <trkpt lat="47.04981" lon="6.14131">
        <ele>611</ele>
        <time>2015-10-04T08:19:50Z</time>
      </trkpt>
      <trkpt lat="47.0496" lon="6.14157">
        <ele>610</ele>
        <time>2015-10-04T08:19:55Z</time>
      </trkpt>
      <trkpt lat="47.0495" lon="6.1418">
        <ele>612</ele>
        <time>2015-10-04T08:19:59Z</time>
      </trkpt>
      <trkpt lat="47.04943" lon="6.14209">
        <ele>609</ele>
        <time>2015-10-04T08:20:03Z</time>
      </trkpt>
      <trkpt lat="47.04939" lon="6.14245">
        <ele>606</ele>
        <time>2015-10-04T08:20:07Z</time>
      </trkpt>
      <trkpt lat="47.0493" lon="6.14272">
        <ele>605</ele>
        <time>2015-10-04T08:20:11Z</time>
      </trkpt>
      <trkpt lat="47.04913" lon="6.14301">
        <ele>609</ele>
        <time>2015-10-04T08:20:16Z</time>
      </trkpt>
      <trkpt lat="47.04902" lon="6.14297">
        <ele>606</ele>
        <time>2015-10-04T08:20:21Z</time>
      </trkpt>
      <trkpt lat="47.04891" lon="6.14291">
        <ele>607</ele>
        <time>2015-10-04T08:20:25Z</time>
      </trkpt>
      <trkpt lat="47.0488" lon="6.14287">
        <ele>609</ele>
        <time>2015-10-04T08:20:29Z</time>
      </trkpt>
      <trkpt lat="47.04867" lon="6.14291">
        <ele>607</ele>
        <time>2015-10-04T08:20:33Z</time>
      </trkpt>
      <trkpt lat="47.04853" lon="6.14298">
        <ele>609</ele>
        <time>2015-10-04T08:20:38Z</time>
      </trkpt>
      <trkpt lat="47.04845" lon="6.14302">
        <ele>610</ele>
        <time>2015-10-04T08:20:43Z</time>
      </trkpt>
      <trkpt lat="47.04837" lon="6.14307">
        <ele>613</ele>
        <time>2015-10-04T08:20:46Z</time>
      </trkpt>
      <trkpt lat="47.04831" lon="6.14312">
        <ele>612</ele>
        <time>2015-10-04T08:20:50Z</time>
      </trkpt>
      <trkpt lat="47.04822" lon="6.14318">
        <ele>612</ele>
        <time>2015-10-04T08:20:54Z</time>
      </trkpt>
      <trkpt lat="47.04815" lon="6.14326">
        <ele>612</ele>
        <time>2015-10-04T08:20:58Z</time>
      </trkpt>
      <trkpt lat="47.04808" lon="6.14333">
        <ele>615</ele>
        <time>2015-10-04T08:21:02Z</time>
      </trkpt>
      <trkpt lat="47.048" lon="6.1434">
        <ele>618</ele>
        <time>2015-10-04T08:21:06Z</time>
      </trkpt>
      <trkpt lat="47.04792" lon="6.14347">
        <ele>623</ele>
        <time>2015-10-04T08:21:10Z</time>
      </trkpt>
      <trkpt lat="47.04783" lon="6.14353">
        <ele>624</ele>
        <time>2015-10-04T08:21:15Z</time>
      </trkpt>
      <trkpt lat="47.04773" lon="6.1436">
        <ele>624</ele>
        <time>2015-10-04T08:21:20Z</time>
      </trkpt>
      <trkpt lat="47.04763" lon="6.14367">
        <ele>624</ele>
        <time>2015-10-04T08:21:24Z</time>
      </trkpt>
      <trkpt lat="47.0475" lon="6.14376">
        <ele>625</ele>
        <time>2015-10-04T08:21:28Z</time>
      </trkpt>
      <trkpt lat="47.04737" lon="6.14384">
        <ele>624</ele>
        <time>2015-10-04T08:21:33Z</time>
      </trkpt>
      <trkpt lat="47.04725" lon="6.14396">
        <ele>628</ele>
        <time>2015-10-04T08:21:37Z</time>
      </trkpt>
      <trkpt lat="47.04714" lon="6.14402">
        <ele>629</ele>
        <time>2015-10-04T08:21:42Z</time>
      </trkpt>
      <trkpt lat="47.04701" lon="6.14411">
        <ele>631</ele>
        <time>2015-10-04T08:21:46Z</time>
      </trkpt>
      <trkpt lat="47.0469" lon="6.14423">
        <ele>629</ele>
        <time>2015-10-04T08:21:51Z</time>
      </trkpt>
      <trkpt lat="47.04686" lon="6.14439">
        <ele>630</ele>
        <time>2015-10-04T08:21:55Z</time>
      </trkpt>
      <trkpt lat="47.04685" lon="6.14451">
        <ele>628</ele>
        <time>2015-10-04T08:21:59Z</time>
      </trkpt>
      <trkpt lat="47.04683" lon="6.14467">
        <ele>626</ele>
        <time>2015-10-04T08:22:02Z</time>
      </trkpt>
      <trkpt lat="47.04683" lon="6.14483">
        <ele>624</ele>
        <time>2015-10-04T08:22:06Z</time>
      </trkpt>
      <trkpt lat="47.04679" lon="6.14498">
        <ele>629</ele>
        <time>2015-10-04T08:22:11Z</time>
      </trkpt>
      <trkpt lat="47.04675" lon="6.14522">
        <ele>631</ele>
        <time>2015-10-04T08:22:15Z</time>
      </trkpt>
      <trkpt lat="47.04672" lon="6.14542">
        <ele>630</ele>
        <time>2015-10-04T08:22:19Z</time>
      </trkpt>
      <trkpt lat="47.04668" lon="6.14557">
        <ele>631</ele>
        <time>2015-10-04T08:22:24Z</time>
      </trkpt>
      <trkpt lat="47.04664" lon="6.14579">
        <ele>632</ele>
        <time>2015-10-04T08:22:29Z</time>
      </trkpt>
      <trkpt lat="47.04662" lon="6.14603">
        <ele>632</ele>
        <time>2015-10-04T08:22:33Z</time>
      </trkpt>
      <trkpt lat="47.0466" lon="6.14626">
        <ele>631</ele>
        <time>2015-10-04T08:22:37Z</time>
      </trkpt>
      <trkpt lat="47.04654" lon="6.14648">
        <ele>631</ele>
        <time>2015-10-04T08:22:41Z</time>
      </trkpt>
      <trkpt lat="47.04649" lon="6.14665">
        <ele>633</ele>
        <time>2015-10-04T08:22:46Z</time>
      </trkpt>
      <trkpt lat="47.04642" lon="6.14671">
        <ele>631</ele>
        <time>2015-10-04T08:23:12Z</time>
      </trkpt>
      <trkpt lat="47.04629" lon="6.14668">
        <ele>630</ele>
        <time>2015-10-04T08:23:16Z</time>
      </trkpt>
      <trkpt lat="47.0461" lon="6.14663">
        <ele>630</ele>
        <time>2015-10-04T08:23:21Z</time>
      </trkpt>
      <trkpt lat="47.04594" lon="6.14665">
        <ele>631</ele>
        <time>2015-10-04T08:23:25Z</time>
      </trkpt>
      <trkpt lat="47.04572" lon="6.14668">
        <ele>631</ele>
        <time>2015-10-04T08:23:30Z</time>
      </trkpt>
      <trkpt lat="47.04552" lon="6.14671">
        <ele>631</ele>
        <time>2015-10-04T08:23:34Z</time>
      </trkpt>
      <trkpt lat="47.04537" lon="6.14677">
        <ele>633</ele>
        <time>2015-10-04T08:23:38Z</time>
      </trkpt>
      <trkpt lat="47.0452" lon="6.14686">
        <ele>632</ele>
        <time>2015-10-04T08:23:43Z</time>
      </trkpt>
      <trkpt lat="47.04506" lon="6.14693">
        <ele>633</ele>
        <time>2015-10-04T08:23:47Z</time>
      </trkpt>
      <trkpt lat="47.04493" lon="6.14703">
        <ele>633</ele>
        <time>2015-10-04T08:23:51Z</time>
      </trkpt>
      <trkpt lat="47.0448" lon="6.14719">
        <ele>634</ele>
        <time>2015-10-04T08:23:56Z</time>
      </trkpt>
      <trkpt lat="47.04465" lon="6.1474">
        <ele>636</ele>
        <time>2015-10-04T08:24:00Z</time>
      </trkpt>
      <trkpt lat="47.04451" lon="6.14761">
        <ele>637</ele>
        <time>2015-10-04T08:24:05Z</time>
      </trkpt>
      <trkpt lat="47.04439" lon="6.14784">
        <ele>637</ele>
        <time>2015-10-04T08:24:10Z</time>
      </trkpt>
      <trkpt lat="47.04428" lon="6.14805">
        <ele>636</ele>
        <time>2015-10-04T08:24:14Z</time>
      </trkpt>
      <trkpt lat="47.04417" lon="6.14833">
        <ele>635</ele>
        <time>2015-10-04T08:24:19Z</time>
      </trkpt>
      <trkpt lat="47.04404" lon="6.14863">
        <ele>634</ele>
        <time>2015-10-04T08:24:24Z</time>
      </trkpt>
      <trkpt lat="47.04386" lon="6.14868">
        <ele>633</ele>
        <time>2015-10-04T08:24:28Z</time>
      </trkpt>
      <trkpt lat="47.04376" lon="6.14844">
        <ele>632</ele>
        <time>2015-10-04T08:24:33Z</time>
      </trkpt>
      <trkpt lat="47.04367" lon="6.14818">
        <ele>635</ele>
        <time>2015-10-04T08:24:37Z</time>
      </trkpt>
      <trkpt lat="47.04356" lon="6.14811">
        <ele>636</ele>
        <time>2015-10-04T08:24:42Z</time>
      </trkpt>
      <trkpt lat="47.04346" lon="6.14811">
        <ele>635</ele>
        <time>2015-10-04T08:24:46Z</time>
      </trkpt>
      <trkpt lat="47.04339" lon="6.14805">
        <ele>634</ele>
        <time>2015-10-04T08:25:02Z</time>
      </trkpt>
      <trkpt lat="47.0434" lon="6.14793">
        <ele>624</ele>
        <time>2015-10-04T08:27:01Z</time>
      </trkpt>
      <trkpt lat="47.04339" lon="6.14806">
        <ele>638</ele>
        <time>2015-10-04T08:28:47Z</time>
      </trkpt>
      <trkpt lat="47.04332" lon="6.1481">
        <ele>636</ele>
        <time>2015-10-04T08:29:44Z</time>
      </trkpt>
      <trkpt lat="47.04324" lon="6.1482">
        <ele>634</ele>
        <time>2015-10-04T08:29:48Z</time>
      </trkpt>
      <trkpt lat="47.04316" lon="6.14838">
        <ele>635</ele>
        <time>2015-10-04T08:29:53Z</time>
      </trkpt>
      <trkpt lat="47.04314" lon="6.14861">
        <ele>635</ele>
        <time>2015-10-04T08:29:58Z</time>
      </trkpt>
      <trkpt lat="47.04321" lon="6.14877">
        <ele>636</ele>
        <time>2015-10-04T08:30:02Z</time>
      </trkpt>
      <trkpt lat="47.04334" lon="6.14887">
        <ele>635</ele>
        <time>2015-10-04T08:30:06Z</time>
      </trkpt>
      <trkpt lat="47.04346" lon="6.14902">
        <ele>635</ele>
        <time>2015-10-04T08:30:10Z</time>
      </trkpt>
      <trkpt lat="47.04353" lon="6.14925">
        <ele>638</ele>
        <time>2015-10-04T08:30:14Z</time>
      </trkpt>
      <trkpt lat="47.04357" lon="6.14949">
        <ele>638</ele>
        <time>2015-10-04T08:30:18Z</time>
      </trkpt>
      <trkpt lat="47.04371" lon="6.1497">
        <ele>638</ele>
        <time>2015-10-04T08:30:23Z</time>
      </trkpt>
      <trkpt lat="47.04375" lon="6.14995">
        <ele>641</ele>
        <time>2015-10-04T08:30:28Z</time>
      </trkpt>
      <trkpt lat="47.04365" lon="6.15016">
        <ele>641</ele>
        <time>2015-10-04T08:30:32Z</time>
      </trkpt>
      <trkpt lat="47.04361" lon="6.15038">
        <ele>638</ele>
        <time>2015-10-04T08:30:36Z</time>
      </trkpt>
      <trkpt lat="47.04369" lon="6.15058">
        <ele>637</ele>
        <time>2015-10-04T08:30:40Z</time>
      </trkpt>
      <trkpt lat="47.04383" lon="6.15075">
        <ele>638</ele>
        <time>2015-10-04T08:30:45Z</time>
      </trkpt>
      <trkpt lat="47.04393" lon="6.15086">
        <ele>640</ele>
        <time>2015-10-04T08:30:49Z</time>
      </trkpt>
      <trkpt lat="47.04404" lon="6.15096">
        <ele>641</ele>
        <time>2015-10-04T08:30:53Z</time>
      </trkpt>
      <trkpt lat="47.0442" lon="6.15111">
        <ele>643</ele>
        <time>2015-10-04T08:30:58Z</time>
      </trkpt>
      <trkpt lat="47.04432" lon="6.15125">
        <ele>642</ele>
        <time>2015-10-04T08:31:02Z</time>
      </trkpt>
      <trkpt lat="47.04445" lon="6.15137">
        <ele>642</ele>
        <time>2015-10-04T08:31:06Z</time>
      </trkpt>
      <trkpt lat="47.04456" lon="6.15151">
        <ele>641</ele>
        <time>2015-10-04T08:31:10Z</time>
      </trkpt>
      <trkpt lat="47.04472" lon="6.15165">
        <ele>645</ele>
        <time>2015-10-04T08:31:15Z</time>
      </trkpt>
      <trkpt lat="47.04484" lon="6.15174">
        <ele>647</ele>
        <time>2015-10-04T08:31:19Z</time>
      </trkpt>
      <trkpt lat="47.04497" lon="6.15181">
        <ele>649</ele>
        <time>2015-10-04T08:31:23Z</time>
      </trkpt>
      <trkpt lat="47.04509" lon="6.15191">
        <ele>648</ele>
        <time>2015-10-04T08:31:27Z</time>
      </trkpt>
      <trkpt lat="47.0452" lon="6.15205">
        <ele>650</ele>
        <time>2015-10-04T08:31:31Z</time>
      </trkpt>
      <trkpt lat="47.04528" lon="6.15228">
        <ele>650</ele>
        <time>2015-10-04T08:31:36Z</time>
      </trkpt>
      <trkpt lat="47.04535" lon="6.15246">
        <ele>650</ele>
        <time>2015-10-04T08:31:40Z</time>
      </trkpt>
      <trkpt lat="47.04546" lon="6.15267">
        <ele>647</ele>
        <time>2015-10-04T08:31:45Z</time>
      </trkpt>
      <trkpt lat="47.04557" lon="6.15284">
        <ele>649</ele>
        <time>2015-10-04T08:31:50Z</time>
      </trkpt>
      <trkpt lat="47.04568" lon="6.15296">
        <ele>650</ele>
        <time>2015-10-04T08:31:54Z</time>
      </trkpt>
      <trkpt lat="47.0458" lon="6.15302">
        <ele>652</ele>
        <time>2015-10-04T08:31:58Z</time>
      </trkpt>
      <trkpt lat="47.04593" lon="6.15307">
        <ele>653</ele>
        <time>2015-10-04T08:32:02Z</time>
      </trkpt>
      <trkpt lat="47.04603" lon="6.15308">
        <ele>653</ele>
        <time>2015-10-04T08:32:06Z</time>
      </trkpt>
      <trkpt lat="47.04621" lon="6.15309">
        <ele>653</ele>
        <time>2015-10-04T08:32:10Z</time>
      </trkpt>
      <trkpt lat="47.04639" lon="6.15302">
        <ele>654</ele>
        <time>2015-10-04T08:32:14Z</time>
      </trkpt>
      <trkpt lat="47.04658" lon="6.15289">
        <ele>657</ele>
        <time>2015-10-04T08:32:19Z</time>
      </trkpt>
      <trkpt lat="47.04678" lon="6.15269">
        <ele>655</ele>
        <time>2015-10-04T08:32:24Z</time>
      </trkpt>
      <trkpt lat="47.04704" lon="6.15256">
        <ele>654</ele>
        <time>2015-10-04T08:32:29Z</time>
      </trkpt>
      <trkpt lat="47.04727" lon="6.15256">
        <ele>654</ele>
        <time>2015-10-04T08:32:34Z</time>
      </trkpt>
      <trkpt lat="47.0475" lon="6.15256">
        <ele>656</ele>
        <time>2015-10-04T08:32:38Z</time>
      </trkpt>
      <trkpt lat="47.04771" lon="6.15255">
        <ele>655</ele>
        <time>2015-10-04T08:32:43Z</time>
      </trkpt>
      <trkpt lat="47.04789" lon="6.1525">
        <ele>655</ele>
        <time>2015-10-04T08:32:48Z</time>
      </trkpt>
      <trkpt lat="47.04809" lon="6.15241">
        <ele>660</ele>
        <time>2015-10-04T08:32:52Z</time>
      </trkpt>
      <trkpt lat="47.04825" lon="6.1524">
        <ele>658</ele>
        <time>2015-10-04T08:32:56Z</time>
      </trkpt>
      <trkpt lat="47.04846" lon="6.15254">
        <ele>657</ele>
        <time>2015-10-04T08:33:01Z</time>
      </trkpt>
      <trkpt lat="47.04868" lon="6.1527">
        <ele>655</ele>
        <time>2015-10-04T08:33:06Z</time>
      </trkpt>
      <trkpt lat="47.04884" lon="6.1529">
        <ele>655</ele>
        <time>2015-10-04T08:33:10Z</time>
      </trkpt>
      <trkpt lat="47.04898" lon="6.15313">
        <ele>652</ele>
        <time>2015-10-04T08:33:15Z</time>
      </trkpt>
      <trkpt lat="47.04909" lon="6.15339">
        <ele>653</ele>
        <time>2015-10-04T08:33:18Z</time>
      </trkpt>
      <trkpt lat="47.04919" lon="6.15366">
        <ele>656</ele>
        <time>2015-10-04T08:33:22Z</time>
      </trkpt>
      <trkpt lat="47.04934" lon="6.15395">
        <ele>656</ele>
        <time>2015-10-04T08:33:27Z</time>
      </trkpt>
      <trkpt lat="47.0495" lon="6.15424">
        <ele>655</ele>
        <time>2015-10-04T08:33:32Z</time>
      </trkpt>
      <trkpt lat="47.0496" lon="6.15447">
        <ele>657</ele>
        <time>2015-10-04T08:33:36Z</time>
      </trkpt>
      <trkpt lat="47.04969" lon="6.15471">
        <ele>657</ele>
        <time>2015-10-04T08:33:41Z</time>
      </trkpt>
      <trkpt lat="47.04973" lon="6.15505">
        <ele>660</ele>
        <time>2015-10-04T08:33:45Z</time>
      </trkpt>
      <trkpt lat="47.04974" lon="6.15533">
        <ele>661</ele>
        <time>2015-10-04T08:33:49Z</time>
      </trkpt>
      <trkpt lat="47.04984" lon="6.15566">
        <ele>660</ele>
        <time>2015-10-04T08:33:54Z</time>
      </trkpt>
      <trkpt lat="47.04999" lon="6.15591">
        <ele>660</ele>
        <time>2015-10-04T08:33:58Z</time>
      </trkpt>
      <trkpt lat="47.05016" lon="6.15612">
        <ele>659</ele>
        <time>2015-10-04T08:34:02Z</time>
      </trkpt>
      <trkpt lat="47.05033" lon="6.1564">
        <ele>659</ele>
        <time>2015-10-04T08:34:07Z</time>
      </trkpt>
      <trkpt lat="47.05045" lon="6.15666">
        <ele>660</ele>
        <time>2015-10-04T08:34:12Z</time>
      </trkpt>
      <trkpt lat="47.05055" lon="6.15694">
        <ele>660</ele>
        <time>2015-10-04T08:34:15Z</time>
      </trkpt>
      <trkpt lat="47.0507" lon="6.15726">
        <ele>660</ele>
        <time>2015-10-04T08:34:20Z</time>
      </trkpt>
      <trkpt lat="47.05085" lon="6.15753">
        <ele>657</ele>
        <time>2015-10-04T08:34:24Z</time>
      </trkpt>
      <trkpt lat="47.05101" lon="6.15786">
        <ele>656</ele>
        <time>2015-10-04T08:34:29Z</time>
      </trkpt>
      <trkpt lat="47.05117" lon="6.15802">
        <ele>657</ele>
        <time>2015-10-04T08:34:34Z</time>
      </trkpt>
      <trkpt lat="47.05144" lon="6.15824">
        <ele>657</ele>
        <time>2015-10-04T08:34:39Z</time>
      </trkpt>
      <trkpt lat="47.05159" lon="6.15847">
        <ele>653</ele>
        <time>2015-10-04T08:34:42Z</time>
      </trkpt>
      <trkpt lat="47.05177" lon="6.15881">
        <ele>650</ele>
        <time>2015-10-04T08:34:47Z</time>
      </trkpt>
      <trkpt lat="47.05189" lon="6.15902">
        <ele>650</ele>
        <time>2015-10-04T08:34:51Z</time>
      </trkpt>
      <trkpt lat="47.05207" lon="6.15919">
        <ele>650</ele>
        <time>2015-10-04T08:34:55Z</time>
      </trkpt>
      <trkpt lat="47.05228" lon="6.15938">
        <ele>646</ele>
        <time>2015-10-04T08:35:00Z</time>
      </trkpt>
      <trkpt lat="47.05241" lon="6.15959">
        <ele>646</ele>
        <time>2015-10-04T08:35:04Z</time>
      </trkpt>
      <trkpt lat="47.05259" lon="6.15977">
        <ele>647</ele>
        <time>2015-10-04T08:35:09Z</time>
      </trkpt>
      <trkpt lat="47.05273" lon="6.15987">
        <ele>653</ele>
        <time>2015-10-04T08:35:13Z</time>
      </trkpt>
      <trkpt lat="47.05297" lon="6.16002">
        <ele>654</ele>
        <time>2015-10-04T08:35:18Z</time>
      </trkpt>
      <trkpt lat="47.05323" lon="6.16008">
        <ele>648</ele>
        <time>2015-10-04T08:35:23Z</time>
      </trkpt>
      <trkpt lat="47.05347" lon="6.16021">
        <ele>649</ele>
        <time>2015-10-04T08:35:28Z</time>
      </trkpt>
      <trkpt lat="47.05365" lon="6.16035">
        <ele>650</ele>
        <time>2015-10-04T08:35:32Z</time>
      </trkpt>
      <trkpt lat="47.05383" lon="6.16047">
        <ele>648</ele>
        <time>2015-10-04T08:35:36Z</time>
      </trkpt>
      <trkpt lat="47.05402" lon="6.16056">
        <ele>646</ele>
        <time>2015-10-04T08:35:40Z</time>
      </trkpt>
      <trkpt lat="47.05422" lon="6.16074">
        <ele>648</ele>
        <time>2015-10-04T08:35:45Z</time>
      </trkpt>
      <trkpt lat="47.05436" lon="6.16101">
        <ele>652</ele>
        <time>2015-10-04T08:35:50Z</time>
      </trkpt>
      <trkpt lat="47.05442" lon="6.16127">
        <ele>652</ele>
        <time>2015-10-04T08:35:55Z</time>
      </trkpt>
      <trkpt lat="47.0545" lon="6.16155">
        <ele>653</ele>
        <time>2015-10-04T08:35:59Z</time>
      </trkpt>
      <trkpt lat="47.05459" lon="6.16173">
        <ele>652</ele>
        <time>2015-10-04T08:36:03Z</time>
      </trkpt>
      <trkpt lat="47.05466" lon="6.16198">
        <ele>653</ele>
        <time>2015-10-04T08:36:07Z</time>
      </trkpt>
      <trkpt lat="47.05481" lon="6.16229">
        <ele>654</ele>
        <time>2015-10-04T08:36:11Z</time>
      </trkpt>
      <trkpt lat="47.05499" lon="6.16256">
        <ele>650</ele>
        <time>2015-10-04T08:36:16Z</time>
      </trkpt>
      <trkpt lat="47.05513" lon="6.16287">
        <ele>646</ele>
        <time>2015-10-04T08:36:21Z</time>
      </trkpt>
      <trkpt lat="47.05531" lon="6.16307">
        <ele>645</ele>
        <time>2015-10-04T08:36:25Z</time>
      </trkpt>
      <trkpt lat="47.05546" lon="6.16336">
        <ele>644</ele>
        <time>2015-10-04T08:36:30Z</time>
      </trkpt>
      <trkpt lat="47.05557" lon="6.16366">
        <ele>640</ele>
        <time>2015-10-04T08:36:35Z</time>
      </trkpt>
      <trkpt lat="47.05576" lon="6.16387">
        <ele>642</ele>
        <time>2015-10-04T08:36:39Z</time>
      </trkpt>
      <trkpt lat="47.05589" lon="6.16411">
        <ele>637</ele>
        <time>2015-10-04T08:36:43Z</time>
      </trkpt>
      <trkpt lat="47.05605" lon="6.16442">
        <ele>638</ele>
        <time>2015-10-04T08:36:48Z</time>
      </trkpt>
      <trkpt lat="47.05613" lon="6.16468">
        <ele>637</ele>
        <time>2015-10-04T08:36:52Z</time>
      </trkpt>
      <trkpt lat="47.05629" lon="6.16487">
        <ele>637</ele>
        <time>2015-10-04T08:36:56Z</time>
      </trkpt>
      <trkpt lat="47.05636" lon="6.16509">
        <ele>637</ele>
        <time>2015-10-04T08:37:00Z</time>
      </trkpt>
      <trkpt lat="47.0564" lon="6.16533">
        <ele>634</ele>
        <time>2015-10-04T08:37:04Z</time>
      </trkpt>
      <trkpt lat="47.05648" lon="6.16557">
        <ele>637</ele>
        <time>2015-10-04T08:37:08Z</time>
      </trkpt>
      <trkpt lat="47.05654" lon="6.1657">
        <ele>642</ele>
        <time>2015-10-04T08:37:12Z</time>
      </trkpt>
      <trkpt lat="47.05665" lon="6.16582">
        <ele>642</ele>
        <time>2015-10-04T08:37:16Z</time>
      </trkpt>
      <trkpt lat="47.05676" lon="6.16598">
        <ele>640</ele>
        <time>2015-10-04T08:37:20Z</time>
      </trkpt>
      <trkpt lat="47.05687" lon="6.16626">
        <ele>640</ele>
        <time>2015-10-04T08:37:24Z</time>
      </trkpt>
      <trkpt lat="47.05685" lon="6.16655">
        <ele>640</ele>
        <time>2015-10-04T08:37:28Z</time>
      </trkpt>
      <trkpt lat="47.05684" lon="6.16673">
        <ele>643</ele>
        <time>2015-10-04T08:37:32Z</time>
      </trkpt>
      <trkpt lat="47.05681" lon="6.16695">
        <ele>645</ele>
        <time>2015-10-04T08:37:37Z</time>
      </trkpt>
      <trkpt lat="47.05684" lon="6.16721">
        <ele>643</ele>
        <time>2015-10-04T08:37:42Z</time>
      </trkpt>
      <trkpt lat="47.05682" lon="6.16742">
        <ele>642</ele>
        <time>2015-10-04T08:37:46Z</time>
      </trkpt>
      <trkpt lat="47.05681" lon="6.16766">
        <ele>643</ele>
        <time>2015-10-04T08:37:50Z</time>
      </trkpt>
      <trkpt lat="47.0568" lon="6.1678">
        <ele>645</ele>
        <time>2015-10-04T08:37:55Z</time>
      </trkpt>
      <trkpt lat="47.05681" lon="6.16797">
        <ele>641</ele>
        <time>2015-10-04T08:37:59Z</time>
      </trkpt>
      <trkpt lat="47.05681" lon="6.16823">
        <ele>638</ele>
        <time>2015-10-04T08:38:03Z</time>
      </trkpt>
      <trkpt lat="47.05682" lon="6.1685">
        <ele>635</ele>
        <time>2015-10-04T08:38:07Z</time>
      </trkpt>
      <trkpt lat="47.05684" lon="6.16882">
        <ele>632</ele>
        <time>2015-10-04T08:38:12Z</time>
      </trkpt>
      <trkpt lat="47.05681" lon="6.16911">
        <ele>636</ele>
        <time>2015-10-04T08:38:16Z</time>
      </trkpt>
      <trkpt lat="47.05688" lon="6.16945">
        <ele>635</ele>
        <time>2015-10-04T08:38:21Z</time>
      </trkpt>
      <trkpt lat="47.05696" lon="6.16969">
        <ele>641</ele>
        <time>2015-10-04T08:38:26Z</time>
      </trkpt>
      <trkpt lat="47.057" lon="6.16985">
        <ele>639</ele>
        <time>2015-10-04T08:38:30Z</time>
      </trkpt>
      <trkpt lat="47.05706" lon="6.17">
        <ele>638</ele>
        <time>2015-10-04T08:38:34Z</time>
      </trkpt>
      <trkpt lat="47.05718" lon="6.17024">
        <ele>643</ele>
        <time>2015-10-04T08:38:39Z</time>
      </trkpt>
      <trkpt lat="47.05723" lon="6.17044">
        <ele>642</ele>
        <time>2015-10-04T08:38:43Z</time>
      </trkpt>
      <trkpt lat="47.05726" lon="6.17061">
        <ele>641</ele>
        <time>2015-10-04T08:38:48Z</time>
      </trkpt>
      <trkpt lat="47.05732" lon="6.17086">
        <ele>643</ele>
        <time>2015-10-04T08:38:52Z</time>
      </trkpt>
      <trkpt lat="47.05741" lon="6.1711">
        <ele>641</ele>
        <time>2015-10-04T08:38:56Z</time>
      </trkpt>
      <trkpt lat="47.05759" lon="6.17144">
        <ele>641</ele>
        <time>2015-10-04T08:39:01Z</time>
      </trkpt>
      <trkpt lat="47.05773" lon="6.17175">
        <ele>641</ele>
        <time>2015-10-04T08:39:05Z</time>
      </trkpt>
      <trkpt lat="47.05787" lon="6.17194">
        <ele>641</ele>
        <time>2015-10-04T08:39:09Z</time>
      </trkpt>
      <trkpt lat="47.05807" lon="6.17212">
        <ele>637</ele>
        <time>2015-10-04T08:39:13Z</time>
      </trkpt>
      <trkpt lat="47.05825" lon="6.17236">
        <ele>639</ele>
        <time>2015-10-04T08:39:18Z</time>
      </trkpt>
      <trkpt lat="47.05845" lon="6.17251">
        <ele>640</ele>
        <time>2015-10-04T08:39:22Z</time>
      </trkpt>
      <trkpt lat="47.05862" lon="6.17263">
        <ele>638</ele>
        <time>2015-10-04T08:39:27Z</time>
      </trkpt>
      <trkpt lat="47.05881" lon="6.17269">
        <ele>639</ele>
        <time>2015-10-04T08:39:31Z</time>
      </trkpt>
      <trkpt lat="47.05901" lon="6.17277">
        <ele>636</ele>
        <time>2015-10-04T08:39:36Z</time>
      </trkpt>
      <trkpt lat="47.05925" lon="6.17287">
        <ele>636</ele>
        <time>2015-10-04T08:39:41Z</time>
      </trkpt>
      <trkpt lat="47.05938" lon="6.173">
        <ele>636</ele>
        <time>2015-10-04T08:39:45Z</time>
      </trkpt>
      <trkpt lat="47.05952" lon="6.17326">
        <ele>628</ele>
        <time>2015-10-04T08:39:49Z</time>
      </trkpt>
      <trkpt lat="47.05962" lon="6.17349">
        <ele>627</ele>
        <time>2015-10-04T08:39:54Z</time>
      </trkpt>
      <trkpt lat="47.05968" lon="6.17367">
        <ele>630</ele>
        <time>2015-10-04T08:39:58Z</time>
      </trkpt>
      <trkpt lat="47.05971" lon="6.17383">
        <ele>628</ele>
        <time>2015-10-04T08:40:02Z</time>
      </trkpt>
      <trkpt lat="47.05969" lon="6.17404">
        <ele>630</ele>
        <time>2015-10-04T08:40:07Z</time>
      </trkpt>
      <trkpt lat="47.05962" lon="6.17431">
        <ele>628</ele>
        <time>2015-10-04T08:40:11Z</time>
      </trkpt>
      <trkpt lat="47.05947" lon="6.17457">
        <ele>631</ele>
        <time>2015-10-04T08:40:16Z</time>
      </trkpt>
      <trkpt lat="47.05936" lon="6.17478">
        <ele>630</ele>
        <time>2015-10-04T08:40:21Z</time>
      </trkpt>
      <trkpt lat="47.05923" lon="6.17506">
        <ele>626</ele>
        <time>2015-10-04T08:40:25Z</time>
      </trkpt>
      <trkpt lat="47.05912" lon="6.17524">
        <ele>625</ele>
        <time>2015-10-04T08:40:29Z</time>
      </trkpt>
      <trkpt lat="47.05897" lon="6.17539">
        <ele>623</ele>
        <time>2015-10-04T08:40:33Z</time>
      </trkpt>
      <trkpt lat="47.05888" lon="6.17566">
        <ele>627</ele>
        <time>2015-10-04T08:40:38Z</time>
      </trkpt>
      <trkpt lat="47.05886" lon="6.17589">
        <ele>627</ele>
        <time>2015-10-04T08:40:42Z</time>
      </trkpt>
      <trkpt lat="47.0589" lon="6.17615">
        <ele>627</ele>
        <time>2015-10-04T08:40:46Z</time>
      </trkpt>
      <trkpt lat="47.05888" lon="6.1764">
        <ele>627</ele>
        <time>2015-10-04T08:40:50Z</time>
      </trkpt>
      <trkpt lat="47.05882" lon="6.17668">
        <ele>629</ele>
        <time>2015-10-04T08:40:55Z</time>
      </trkpt>
      <trkpt lat="47.05874" lon="6.17687">
        <ele>630</ele>
        <time>2015-10-04T08:40:59Z</time>
      </trkpt>
      <trkpt lat="47.05864" lon="6.17719">
        <ele>629</ele>
        <time>2015-10-04T08:41:04Z</time>
      </trkpt>
      <trkpt lat="47.05858" lon="6.1775">
        <ele>633</ele>
        <time>2015-10-04T08:41:08Z</time>
      </trkpt>
      <trkpt lat="47.05861" lon="6.17772">
        <ele>637</ele>
        <time>2015-10-04T08:41:13Z</time>
      </trkpt>
      <trkpt lat="47.05862" lon="6.17786">
        <ele>639</ele>
        <time>2015-10-04T08:41:18Z</time>
      </trkpt>
      <trkpt lat="47.05865" lon="6.17801">
        <ele>635</ele>
        <time>2015-10-04T08:41:22Z</time>
      </trkpt>
      <trkpt lat="47.05877" lon="6.17836">
        <ele>635</ele>
        <time>2015-10-04T08:41:26Z</time>
      </trkpt>
      <trkpt lat="47.05891" lon="6.17852">
        <ele>637</ele>
        <time>2015-10-04T08:41:30Z</time>
      </trkpt>
      <trkpt lat="47.05897" lon="6.17869">
        <ele>638</ele>
        <time>2015-10-04T08:41:35Z</time>
      </trkpt>
      <trkpt lat="47.05894" lon="6.17883">
        <ele>636</ele>
        <time>2015-10-04T08:41:39Z</time>
      </trkpt>
      <trkpt lat="47.05891" lon="6.17895">
        <ele>635</ele>
        <time>2015-10-04T08:41:45Z</time>
      </trkpt>
      <trkpt lat="47.05889" lon="6.17907">
        <ele>636</ele>
        <time>2015-10-04T08:41:51Z</time>
      </trkpt>
      <trkpt lat="47.05889" lon="6.17919">
        <ele>634</ele>
        <time>2015-10-04T08:41:57Z</time>
      </trkpt>
      <trkpt lat="47.05886" lon="6.17929">
        <ele>637</ele>
        <time>2015-10-04T08:42:00Z</time>
      </trkpt>
      <trkpt lat="47.05882" lon="6.17941">
        <ele>636</ele>
        <time>2015-10-04T08:42:04Z</time>
      </trkpt>
      <trkpt lat="47.05877" lon="6.17953">
        <ele>638</ele>
        <time>2015-10-04T08:42:08Z</time>
      </trkpt>
      <trkpt lat="47.05873" lon="6.17964">
        <ele>637</ele>
        <time>2015-10-04T08:42:13Z</time>
      </trkpt>
      <trkpt lat="47.05867" lon="6.17978">
        <ele>639</ele>
        <time>2015-10-04T08:42:17Z</time>
      </trkpt>
      <trkpt lat="47.05863" lon="6.17989">
        <ele>644</ele>
        <time>2015-10-04T08:42:21Z</time>
      </trkpt>
      <trkpt lat="47.05859" lon="6.17999">
        <ele>642</ele>
        <time>2015-10-04T08:42:25Z</time>
      </trkpt>
      <trkpt lat="47.05854" lon="6.18008">
        <ele>643</ele>
        <time>2015-10-04T08:42:29Z</time>
      </trkpt>
      <trkpt lat="47.05847" lon="6.18018">
        <ele>640</ele>
        <time>2015-10-04T08:42:33Z</time>
      </trkpt>
      <trkpt lat="47.05841" lon="6.18032">
        <ele>639</ele>
        <time>2015-10-04T08:42:38Z</time>
      </trkpt>
      <trkpt lat="47.05836" lon="6.18042">
        <ele>641</ele>
        <time>2015-10-04T08:42:42Z</time>
      </trkpt>
      <trkpt lat="47.05829" lon="6.18057">
        <ele>641</ele>
        <time>2015-10-04T08:42:47Z</time>
      </trkpt>
      <trkpt lat="47.05823" lon="6.18072">
        <ele>637</ele>
        <time>2015-10-04T08:42:52Z</time>
      </trkpt>
      <trkpt lat="47.05818" lon="6.18082">
        <ele>641</ele>
        <time>2015-10-04T08:42:56Z</time>
      </trkpt>
      <trkpt lat="47.05812" lon="6.18094">
        <ele>643</ele>
        <time>2015-10-04T08:43:00Z</time>
      </trkpt>
      <trkpt lat="47.05806" lon="6.18105">
        <ele>644</ele>
        <time>2015-10-04T08:43:04Z</time>
      </trkpt>
      <trkpt lat="47.05801" lon="6.18118">
        <ele>649</ele>
        <time>2015-10-04T08:43:08Z</time>
      </trkpt>
      <trkpt lat="47.05794" lon="6.18129">
        <ele>649</ele>
        <time>2015-10-04T08:43:13Z</time>
      </trkpt>
      <trkpt lat="47.05783" lon="6.1813">
        <ele>646</ele>
        <time>2015-10-04T08:43:17Z</time>
      </trkpt>
      <trkpt lat="47.05771" lon="6.18128">
        <ele>641</ele>
        <time>2015-10-04T08:43:21Z</time>
      </trkpt>
      <trkpt lat="47.05761" lon="6.18126">
        <ele>643</ele>
        <time>2015-10-04T08:43:25Z</time>
      </trkpt>
      <trkpt lat="47.05744" lon="6.18121">
        <ele>641</ele>
        <time>2015-10-04T08:43:29Z</time>
      </trkpt>
      <trkpt lat="47.0573" lon="6.18117">
        <ele>645</ele>
        <time>2015-10-04T08:43:34Z</time>
      </trkpt>
      <trkpt lat="47.05721" lon="6.18118">
        <ele>645</ele>
        <time>2015-10-04T08:43:38Z</time>
      </trkpt>
      <trkpt lat="47.05711" lon="6.18117">
        <ele>645</ele>
        <time>2015-10-04T08:43:43Z</time>
      </trkpt>
      <trkpt lat="47.05698" lon="6.18111">
        <ele>649</ele>
        <time>2015-10-04T08:43:47Z</time>
      </trkpt>
      <trkpt lat="47.05688" lon="6.18107">
        <ele>644</ele>
        <time>2015-10-04T08:43:51Z</time>
      </trkpt>
      <trkpt lat="47.05676" lon="6.18098">
        <ele>648</ele>
        <time>2015-10-04T08:43:56Z</time>
      </trkpt>
      <trkpt lat="47.05667" lon="6.18093">
        <ele>646</ele>
        <time>2015-10-04T08:44:00Z</time>
      </trkpt>
      <trkpt lat="47.05659" lon="6.18087">
        <ele>644</ele>
        <time>2015-10-04T08:44:04Z</time>
      </trkpt>
      <trkpt lat="47.0565" lon="6.18081">
        <ele>645</ele>
        <time>2015-10-04T08:44:08Z</time>
      </trkpt>
      <trkpt lat="47.05639" lon="6.18077">
        <ele>645</ele>
        <time>2015-10-04T08:44:13Z</time>
      </trkpt>
      <trkpt lat="47.05627" lon="6.18074">
        <ele>646</ele>
        <time>2015-10-04T08:44:18Z</time>
      </trkpt>
      <trkpt lat="47.0562" lon="6.18071">
        <ele>645</ele>
        <time>2015-10-04T08:44:23Z</time>
      </trkpt>
      <trkpt lat="47.0561" lon="6.1807">
        <ele>648</ele>
        <time>2015-10-04T08:44:28Z</time>
      </trkpt>
      <trkpt lat="47.05599" lon="6.18065">
        <ele>643</ele>
        <time>2015-10-04T08:44:32Z</time>
      </trkpt>
      <trkpt lat="47.05587" lon="6.18062">
        <ele>647</ele>
        <time>2015-10-04T08:44:37Z</time>
      </trkpt>
      <trkpt lat="47.0558" lon="6.18067">
        <ele>647</ele>
        <time>2015-10-04T08:44:41Z</time>
      </trkpt>
      <trkpt lat="47.05571" lon="6.18069">
        <ele>648</ele>
        <time>2015-10-04T08:44:45Z</time>
      </trkpt>
      <trkpt lat="47.05564" lon="6.18076">
        <ele>650</ele>
        <time>2015-10-04T08:44:49Z</time>
      </trkpt>
      <trkpt lat="47.05559" lon="6.18081">
        <ele>651</ele>
        <time>2015-10-04T08:44:53Z</time>
      </trkpt>
      <trkpt lat="47.05548" lon="6.18084">
        <ele>649</ele>
        <time>2015-10-04T08:44:57Z</time>
      </trkpt>
      <trkpt lat="47.0554" lon="6.18087">
        <ele>650</ele>
        <time>2015-10-04T08:45:02Z</time>
      </trkpt>
      <trkpt lat="47.0553" lon="6.18093">
        <ele>649</ele>
        <time>2015-10-04T08:45:06Z</time>
      </trkpt>
      <trkpt lat="47.0552" lon="6.18103">
        <ele>649</ele>
        <time>2015-10-04T08:45:10Z</time>
      </trkpt>
      <trkpt lat="47.0551" lon="6.18115">
        <ele>650</ele>
        <time>2015-10-04T08:45:14Z</time>
      </trkpt>
      <trkpt lat="47.055" lon="6.18128">
        <ele>648</ele>
        <time>2015-10-04T08:45:18Z</time>
      </trkpt>
      <trkpt lat="47.05488" lon="6.18145">
        <ele>652</ele>
        <time>2015-10-04T08:45:23Z</time>
      </trkpt>
      <trkpt lat="47.05478" lon="6.18155">
        <ele>654</ele>
        <time>2015-10-04T08:45:27Z</time>
      </trkpt>
      <trkpt lat="47.05467" lon="6.18161">
        <ele>657</ele>
        <time>2015-10-04T08:45:31Z</time>
      </trkpt>
      <trkpt lat="47.05453" lon="6.18164">
        <ele>653</ele>
        <time>2015-10-04T08:45:35Z</time>
      </trkpt>
      <trkpt lat="47.05436" lon="6.18171">
        <ele>652</ele>
        <time>2015-10-04T08:45:40Z</time>
      </trkpt>
      <trkpt lat="47.05423" lon="6.18178">
        <ele>651</ele>
        <time>2015-10-04T08:45:45Z</time>
      </trkpt>
      <trkpt lat="47.05407" lon="6.18172">
        <ele>653</ele>
        <time>2015-10-04T08:45:50Z</time>
      </trkpt>
      <trkpt lat="47.05394" lon="6.18181">
        <ele>654</ele>
        <time>2015-10-04T08:45:54Z</time>
      </trkpt>
      <trkpt lat="47.05368" lon="6.18204">
        <ele>658</ele>
        <time>2015-10-04T08:45:59Z</time>
      </trkpt>
      <trkpt lat="47.05347" lon="6.18224">
        <ele>657</ele>
        <time>2015-10-04T08:46:04Z</time>
      </trkpt>
      <trkpt lat="47.05327" lon="6.1824">
        <ele>653</ele>
        <time>2015-10-04T08:46:08Z</time>
      </trkpt>
      <trkpt lat="47.05304" lon="6.18257">
        <ele>650</ele>
        <time>2015-10-04T08:46:13Z</time>
      </trkpt>
      <trkpt lat="47.05287" lon="6.18265">
        <ele>649</ele>
        <time>2015-10-04T08:46:17Z</time>
      </trkpt>
      <trkpt lat="47.05266" lon="6.18267">
        <ele>646</ele>
        <time>2015-10-04T08:46:22Z</time>
      </trkpt>
      <trkpt lat="47.05254" lon="6.18263">
        <ele>649</ele>
        <time>2015-10-04T08:46:26Z</time>
      </trkpt>
      <trkpt lat="47.05235" lon="6.18272">
        <ele>647</ele>
        <time>2015-10-04T08:46:31Z</time>
      </trkpt>
      <trkpt lat="47.05223" lon="6.1829">
        <ele>646</ele>
        <time>2015-10-04T08:46:35Z</time>
      </trkpt>
      <trkpt lat="47.05209" lon="6.18307">
        <ele>647</ele>
        <time>2015-10-04T08:46:40Z</time>
      </trkpt>
      <trkpt lat="47.0519" lon="6.18324">
        <ele>648</ele>
        <time>2015-10-04T08:46:44Z</time>
      </trkpt>
      <trkpt lat="47.05172" lon="6.1834">
        <ele>650</ele>
        <time>2015-10-04T08:46:49Z</time>
      </trkpt>
      <trkpt lat="47.05155" lon="6.18356">
        <ele>651</ele>
        <time>2015-10-04T08:46:54Z</time>
      </trkpt>
      <trkpt lat="47.05136" lon="6.18373">
        <ele>651</ele>
        <time>2015-10-04T08:46:58Z</time>
      </trkpt>
      <trkpt lat="47.05106" lon="6.18376">
        <ele>648</ele>
        <time>2015-10-04T08:47:03Z</time>
      </trkpt>
      <trkpt lat="47.05087" lon="6.18395">
        <ele>647</ele>
        <time>2015-10-04T08:47:08Z</time>
      </trkpt>
      <trkpt lat="47.05074" lon="6.18412">
        <ele>648</ele>
        <time>2015-10-04T08:47:12Z</time>
      </trkpt>
      <trkpt lat="47.05067" lon="6.18429">
        <ele>646</ele>
        <time>2015-10-04T08:47:17Z</time>
      </trkpt>
      <trkpt lat="47.05063" lon="6.18449">
        <ele>645</ele>
        <time>2015-10-04T08:47:21Z</time>
      </trkpt>
      <trkpt lat="47.05058" lon="6.18478">
        <ele>641</ele>
        <time>2015-10-04T08:47:25Z</time>
      </trkpt>
      <trkpt lat="47.05063" lon="6.185">
        <ele>642</ele>
        <time>2015-10-04T08:47:29Z</time>
      </trkpt>
      <trkpt lat="47.05067" lon="6.18537">
        <ele>643</ele>
        <time>2015-10-04T08:47:33Z</time>
      </trkpt>
      <trkpt lat="47.05072" lon="6.18565">
        <ele>642</ele>
        <time>2015-10-04T08:47:38Z</time>
      </trkpt>
      <trkpt lat="47.05081" lon="6.18593">
        <ele>641</ele>
        <time>2015-10-04T08:47:42Z</time>
      </trkpt>
      <trkpt lat="47.05085" lon="6.18612">
        <ele>639</ele>
        <time>2015-10-04T08:47:47Z</time>
      </trkpt>
      <trkpt lat="47.05094" lon="6.18625">
        <ele>640</ele>
        <time>2015-10-04T08:47:51Z</time>
      </trkpt>
      <trkpt lat="47.05094" lon="6.1864">
        <ele>636</ele>
        <time>2015-10-04T08:47:55Z</time>
      </trkpt>
      <trkpt lat="47.05091" lon="6.1865">
        <ele>634</ele>
        <time>2015-10-04T08:48:00Z</time>
      </trkpt>
      <trkpt lat="47.05107" lon="6.18701">
        <ele>635</ele>
        <time>2015-10-04T08:48:05Z</time>
      </trkpt>
      <trkpt lat="47.05112" lon="6.18724">
        <ele>638</ele>
        <time>2015-10-04T08:48:09Z</time>
      </trkpt>
      <trkpt lat="47.05116" lon="6.1875">
        <ele>634</ele>
        <time>2015-10-04T08:48:14Z</time>
      </trkpt>
      <trkpt lat="47.05124" lon="6.18771">
        <ele>631</ele>
        <time>2015-10-04T08:48:19Z</time>
      </trkpt>
      <trkpt lat="47.05127" lon="6.18785">
        <ele>631</ele>
        <time>2015-10-04T08:48:23Z</time>
      </trkpt>
      <trkpt lat="47.05127" lon="6.18797">
        <ele>632</ele>
        <time>2015-10-04T08:48:47Z</time>
      </trkpt>
      <trkpt lat="47.05125" lon="6.1881">
        <ele>633</ele>
        <time>2015-10-04T08:48:52Z</time>
      </trkpt>
      <trkpt lat="47.05126" lon="6.18822">
        <ele>632</ele>
        <time>2015-10-04T08:48:58Z</time>
      </trkpt>
      <trkpt lat="47.05123" lon="6.18833">
        <ele>630</ele>
        <time>2015-10-04T08:49:03Z</time>
      </trkpt>
      <trkpt lat="47.05116" lon="6.1884">
        <ele>627</ele>
        <time>2015-10-04T08:49:08Z</time>
      </trkpt>
      <trkpt lat="47.05108" lon="6.18848">
        <ele>625</ele>
        <time>2015-10-04T08:49:12Z</time>
      </trkpt>
      <trkpt lat="47.05098" lon="6.18856">
        <ele>626</ele>
        <time>2015-10-04T08:49:17Z</time>
      </trkpt>
      <trkpt lat="47.0509" lon="6.18864">
        <ele>623</ele>
        <time>2015-10-04T08:49:21Z</time>
      </trkpt>
      <trkpt lat="47.0508" lon="6.18868">
        <ele>620</ele>
        <time>2015-10-04T08:49:25Z</time>
      </trkpt>
      <trkpt lat="47.05072" lon="6.18876">
        <ele>621</ele>
        <time>2015-10-04T08:49:29Z</time>
      </trkpt>
      <trkpt lat="47.05064" lon="6.18882">
        <ele>624</ele>
        <time>2015-10-04T08:49:35Z</time>
      </trkpt>
      <trkpt lat="47.05056" lon="6.18888">
        <ele>546</ele>
        <time>2015-10-04T08:49:40Z</time>
      </trkpt>
      <trkpt lat="47.05049" lon="6.18892">
        <ele>604</ele>
        <time>2015-10-04T08:49:45Z</time>
      </trkpt>
      <trkpt lat="47.05042" lon="6.18897">
        <ele>615</ele>
        <time>2015-10-04T08:49:49Z</time>
      </trkpt>
      <trkpt lat="47.05033" lon="6.18903">
        <ele>620</ele>
        <time>2015-10-04T08:49:53Z</time>
      </trkpt>
      <trkpt lat="47.05024" lon="6.18912">
        <ele>621</ele>
        <time>2015-10-04T08:49:58Z</time>
      </trkpt>
      <trkpt lat="47.05014" lon="6.18925">
        <ele>623</ele>
        <time>2015-10-04T08:50:02Z</time>
      </trkpt>
      <trkpt lat="47.05008" lon="6.18934">
        <ele>621</ele>
        <time>2015-10-04T08:50:06Z</time>
      </trkpt>
      <trkpt lat="47.05006" lon="6.18946">
        <ele>627</ele>
        <time>2015-10-04T08:50:12Z</time>
      </trkpt>
      <trkpt lat="47.05008" lon="6.18959">
        <ele>628</ele>
        <time>2015-10-04T08:50:17Z</time>
      </trkpt>
      <trkpt lat="47.05008" lon="6.18972">
        <ele>631</ele>
        <time>2015-10-04T08:50:22Z</time>
      </trkpt>
      <trkpt lat="47.05008" lon="6.18985">
        <ele>631</ele>
        <time>2015-10-04T08:50:27Z</time>
      </trkpt>
      <trkpt lat="47.05017" lon="6.18997">
        <ele>631</ele>
        <time>2015-10-04T08:50:32Z</time>
      </trkpt>
      <trkpt lat="47.05022" lon="6.19007">
        <ele>632</ele>
        <time>2015-10-04T08:50:36Z</time>
      </trkpt>
      <trkpt lat="47.05029" lon="6.1902">
        <ele>629</ele>
        <time>2015-10-04T08:50:41Z</time>
      </trkpt>
      <trkpt lat="47.05032" lon="6.19033">
        <ele>628</ele>
        <time>2015-10-04T08:50:45Z</time>
      </trkpt>
      <trkpt lat="47.05036" lon="6.19045">
        <ele>624</ele>
        <time>2015-10-04T08:50:49Z</time>
      </trkpt>
      <trkpt lat="47.05039" lon="6.19057">
        <ele>624</ele>
        <time>2015-10-04T08:50:53Z</time>
      </trkpt>
      <trkpt lat="47.05043" lon="6.1907">
        <ele>623</ele>
        <time>2015-10-04T08:50:57Z</time>
      </trkpt>
      <trkpt lat="47.05047" lon="6.19082">
        <ele>627</ele>
        <time>2015-10-04T08:51:01Z</time>
      </trkpt>
      <trkpt lat="47.0505" lon="6.19093">
        <ele>629</ele>
        <time>2015-10-04T08:51:05Z</time>
      </trkpt>
      <trkpt lat="47.05052" lon="6.19103">
        <ele>628</ele>
        <time>2015-10-04T08:51:11Z</time>
      </trkpt>
      <trkpt lat="47.05056" lon="6.19121">
        <ele>630</ele>
        <time>2015-10-04T08:51:15Z</time>
      </trkpt>
      <trkpt lat="47.05061" lon="6.19132">
        <ele>633</ele>
        <time>2015-10-04T08:51:19Z</time>
      </trkpt>
      <trkpt lat="47.05066" lon="6.19141">
        <ele>636</ele>
        <time>2015-10-04T08:51:23Z</time>
      </trkpt>
      <trkpt lat="47.05072" lon="6.19155">
        <ele>635</ele>
        <time>2015-10-04T08:51:27Z</time>
      </trkpt>
      <trkpt lat="47.05078" lon="6.19172">
        <ele>632</ele>
        <time>2015-10-04T08:51:31Z</time>
      </trkpt>
      <trkpt lat="47.05083" lon="6.19184">
        <ele>631</ele>
        <time>2015-10-04T08:51:36Z</time>
      </trkpt>
      <trkpt lat="47.05084" lon="6.19197">
        <ele>636</ele>
        <time>2015-10-04T08:51:41Z</time>
      </trkpt>
      <trkpt lat="47.05085" lon="6.19212">
        <ele>633</ele>
        <time>2015-10-04T08:51:45Z</time>
      </trkpt>
      <trkpt lat="47.05089" lon="6.19222">
        <ele>634</ele>
        <time>2015-10-04T08:51:49Z</time>
      </trkpt>
      <trkpt lat="47.05092" lon="6.19234">
        <ele>631</ele>
        <time>2015-10-04T08:51:53Z</time>
      </trkpt>
      <trkpt lat="47.05099" lon="6.19257">
        <ele>635</ele>
        <time>2015-10-04T08:51:58Z</time>
      </trkpt>
      <trkpt lat="47.05112" lon="6.19274">
        <ele>638</ele>
        <time>2015-10-04T08:52:03Z</time>
      </trkpt>
      <trkpt lat="47.0512" lon="6.19283">
        <ele>638</ele>
        <time>2015-10-04T08:52:07Z</time>
      </trkpt>
      <trkpt lat="47.05127" lon="6.19291">
        <ele>640</ele>
        <time>2015-10-04T08:52:11Z</time>
      </trkpt>
      <trkpt lat="47.05141" lon="6.19304">
        <ele>643</ele>
        <time>2015-10-04T08:52:16Z</time>
      </trkpt>
      <trkpt lat="47.05154" lon="6.19315">
        <ele>645</ele>
        <time>2015-10-04T08:52:20Z</time>
      </trkpt>
      <trkpt lat="47.05165" lon="6.19327">
        <ele>645</ele>
        <time>2015-10-04T08:52:24Z</time>
      </trkpt>
      <trkpt lat="47.0518" lon="6.19335">
        <ele>644</ele>
        <time>2015-10-04T08:52:28Z</time>
      </trkpt>
      <trkpt lat="47.05194" lon="6.19349">
        <ele>642</ele>
        <time>2015-10-04T08:52:32Z</time>
      </trkpt>
      <trkpt lat="47.05207" lon="6.19363">
        <ele>644</ele>
        <time>2015-10-04T08:52:36Z</time>
      </trkpt>
      <trkpt lat="47.0522" lon="6.19375">
        <ele>644</ele>
        <time>2015-10-04T08:52:40Z</time>
      </trkpt>
      <trkpt lat="47.05234" lon="6.19386">
        <ele>595</ele>
        <time>2015-10-04T08:52:44Z</time>
      </trkpt>
      <trkpt lat="47.05251" lon="6.19399">
        <ele>626</ele>
        <time>2015-10-04T08:52:49Z</time>
      </trkpt>
      <trkpt lat="47.05262" lon="6.19415">
        <ele>634</ele>
        <time>2015-10-04T08:52:53Z</time>
      </trkpt>
      <trkpt lat="47.05268" lon="6.19441">
        <ele>643</ele>
        <time>2015-10-04T08:52:58Z</time>
      </trkpt>
      <trkpt lat="47.05269" lon="6.19459">
        <ele>645</ele>
        <time>2015-10-04T08:53:02Z</time>
      </trkpt>
      <trkpt lat="47.05274" lon="6.1948">
        <ele>644</ele>
        <time>2015-10-04T08:53:07Z</time>
      </trkpt>
      <trkpt lat="47.05275" lon="6.19498">
        <ele>647</ele>
        <time>2015-10-04T08:53:11Z</time>
      </trkpt>
      <trkpt lat="47.05277" lon="6.19514">
        <ele>649</ele>
        <time>2015-10-04T08:53:16Z</time>
      </trkpt>
      <trkpt lat="47.05275" lon="6.1953">
        <ele>648</ele>
        <time>2015-10-04T08:53:20Z</time>
      </trkpt>
      <trkpt lat="47.05271" lon="6.1955">
        <ele>646</ele>
        <time>2015-10-04T08:53:24Z</time>
      </trkpt>
      <trkpt lat="47.05267" lon="6.19583">
        <ele>646</ele>
        <time>2015-10-04T08:53:29Z</time>
      </trkpt>
      <trkpt lat="47.05261" lon="6.19614">
        <ele>643</ele>
        <time>2015-10-04T08:53:34Z</time>
      </trkpt>
      <trkpt lat="47.05263" lon="6.19642">
        <ele>644</ele>
        <time>2015-10-04T08:53:38Z</time>
      </trkpt>
      <trkpt lat="47.05264" lon="6.19672">
        <ele>648</ele>
        <time>2015-10-04T08:53:42Z</time>
      </trkpt>
      <trkpt lat="47.05271" lon="6.19703">
        <ele>606</ele>
        <time>2015-10-04T08:53:47Z</time>
      </trkpt>
      <trkpt lat="47.0528" lon="6.19719">
        <ele>625</ele>
        <time>2015-10-04T08:53:51Z</time>
      </trkpt>
      <trkpt lat="47.05284" lon="6.1974">
        <ele>635</ele>
        <time>2015-10-04T08:53:55Z</time>
      </trkpt>
      <trkpt lat="47.05288" lon="6.19758">
        <ele>632</ele>
        <time>2015-10-04T08:54:00Z</time>
      </trkpt>
      <trkpt lat="47.05295" lon="6.19767">
        <ele>633</ele>
        <time>2015-10-04T08:54:04Z</time>
      </trkpt>
      <trkpt lat="47.05299" lon="6.19778">
        <ele>633</ele>
        <time>2015-10-04T08:54:08Z</time>
      </trkpt>
      <trkpt lat="47.05301" lon="6.1979">
        <ele>632</ele>
        <time>2015-10-04T08:54:15Z</time>
      </trkpt>
      <trkpt lat="47.05306" lon="6.19798">
        <ele>634</ele>
        <time>2015-10-04T08:54:19Z</time>
      </trkpt>
      <trkpt lat="47.05313" lon="6.19803">
        <ele>631</ele>
        <time>2015-10-04T08:54:23Z</time>
      </trkpt>
      <trkpt lat="47.05322" lon="6.19802">
        <ele>630</ele>
        <time>2015-10-04T08:54:28Z</time>
      </trkpt>
      <trkpt lat="47.0533" lon="6.19798">
        <ele>628</ele>
        <time>2015-10-04T08:54:56Z</time>
      </trkpt>
      <trkpt lat="47.05336" lon="6.19789">
        <ele>624</ele>
        <time>2015-10-04T08:55:02Z</time>
      </trkpt>
      <trkpt lat="47.05342" lon="6.1978">
        <ele>628</ele>
        <time>2015-10-04T08:55:06Z</time>
      </trkpt>
      <trkpt lat="47.05349" lon="6.19765">
        <ele>628</ele>
        <time>2015-10-04T08:55:10Z</time>
      </trkpt>
      <trkpt lat="47.05354" lon="6.19751">
        <ele>629</ele>
        <time>2015-10-04T08:55:15Z</time>
      </trkpt>
      <trkpt lat="47.05362" lon="6.1974">
        <ele>630</ele>
        <time>2015-10-04T08:55:20Z</time>
      </trkpt>
      <trkpt lat="47.05372" lon="6.19722">
        <ele>627</ele>
        <time>2015-10-04T08:55:24Z</time>
      </trkpt>
      <trkpt lat="47.05378" lon="6.19712">
        <ele>625</ele>
        <time>2015-10-04T08:55:29Z</time>
      </trkpt>
      <trkpt lat="47.05381" lon="6.19701">
        <ele>625</ele>
        <time>2015-10-04T08:55:34Z</time>
      </trkpt>
      <trkpt lat="47.05394" lon="6.19691">
        <ele>625</ele>
        <time>2015-10-04T08:55:39Z</time>
      </trkpt>
      <trkpt lat="47.05405" lon="6.19681">
        <ele>622</ele>
        <time>2015-10-04T08:55:43Z</time>
      </trkpt>
      <trkpt lat="47.05415" lon="6.19673">
        <ele>617</ele>
        <time>2015-10-04T08:55:48Z</time>
      </trkpt>
      <trkpt lat="47.05423" lon="6.19664">
        <ele>608</ele>
        <time>2015-10-04T08:55:52Z</time>
      </trkpt>
      <trkpt lat="47.05429" lon="6.19656">
        <ele>604</ele>
        <time>2015-10-04T08:55:57Z</time>
      </trkpt>
      <trkpt lat="47.05438" lon="6.1965">
        <ele>602</ele>
        <time>2015-10-04T08:56:02Z</time>
      </trkpt>
      <trkpt lat="47.05452" lon="6.19647">
        <ele>596</ele>
        <time>2015-10-04T08:56:06Z</time>
      </trkpt>
      <trkpt lat="47.05466" lon="6.19645">
        <ele>594</ele>
        <time>2015-10-04T08:56:11Z</time>
      </trkpt>
      <trkpt lat="47.05479" lon="6.19647">
        <ele>593</ele>
        <time>2015-10-04T08:56:16Z</time>
      </trkpt>
      <trkpt lat="47.05497" lon="6.19647">
        <ele>589</ele>
        <time>2015-10-04T08:56:21Z</time>
      </trkpt>
      <trkpt lat="47.0551" lon="6.19648">
        <ele>583</ele>
        <time>2015-10-04T08:56:26Z</time>
      </trkpt>
      <trkpt lat="47.05519" lon="6.19648">
        <ele>576</ele>
        <time>2015-10-04T08:56:35Z</time>
      </trkpt>
      <trkpt lat="47.05527" lon="6.19651">
        <ele>568</ele>
        <time>2015-10-04T08:56:41Z</time>
      </trkpt>
      <trkpt lat="47.05535" lon="6.19655">
        <ele>569</ele>
        <time>2015-10-04T08:56:51Z</time>
      </trkpt>
      <trkpt lat="47.05543" lon="6.19673">
        <ele>565</ele>
        <time>2015-10-04T08:56:55Z</time>
      </trkpt>
      <trkpt lat="47.05536" lon="6.19677">
        <ele>556</ele>
        <time>2015-10-04T08:57:19Z</time>
      </trkpt>
      <trkpt lat="47.05525" lon="6.19687">
        <ele>550</ele>
        <time>2015-10-04T08:57:23Z</time>
      </trkpt>
      <trkpt lat="47.05518" lon="6.19707">
        <ele>552</ele>
        <time>2015-10-04T08:57:28Z</time>
      </trkpt>
      <trkpt lat="47.05516" lon="6.19723">
        <ele>548</ele>
        <time>2015-10-04T08:57:32Z</time>
      </trkpt>
      <trkpt lat="47.05511" lon="6.19742">
        <ele>545</ele>
        <time>2015-10-04T08:57:36Z</time>
      </trkpt>
      <trkpt lat="47.0551" lon="6.19766">
        <ele>542</ele>
        <time>2015-10-04T08:57:41Z</time>
      </trkpt>
      <trkpt lat="47.0551" lon="6.19778">
        <ele>542</ele>
        <time>2015-10-04T08:57:47Z</time>
      </trkpt>
      <trkpt lat="47.05516" lon="6.19785">
        <ele>543</ele>
        <time>2015-10-04T08:57:52Z</time>
      </trkpt>
      <trkpt lat="47.0552" lon="6.19792">
        <ele>533</ele>
        <time>2015-10-04T08:58:17Z</time>
      </trkpt>
      <trkpt lat="47.05536" lon="6.19799">
        <ele>534</ele>
        <time>2015-10-04T08:58:21Z</time>
      </trkpt>
      <trkpt lat="47.05552" lon="6.19802">
        <ele>524</ele>
        <time>2015-10-04T08:58:25Z</time>
      </trkpt>
      <trkpt lat="47.05568" lon="6.19807">
        <ele>520</ele>
        <time>2015-10-04T08:58:30Z</time>
      </trkpt>
      <trkpt lat="47.05585" lon="6.19822">
        <ele>519</ele>
        <time>2015-10-04T08:58:35Z</time>
      </trkpt>
      <trkpt lat="47.05591" lon="6.1984">
        <ele>513</ele>
        <time>2015-10-04T08:58:39Z</time>
      </trkpt>
      <trkpt lat="47.05598" lon="6.19855">
        <ele>505</ele>
        <time>2015-10-04T08:58:43Z</time>
      </trkpt>
      <trkpt lat="47.05607" lon="6.19868">
        <ele>494</ele>
        <time>2015-10-04T08:58:47Z</time>
      </trkpt>
      <trkpt lat="47.05615" lon="6.19874">
        <ele>486</ele>
        <time>2015-10-04T08:58:51Z</time>
      </trkpt>
      <trkpt lat="47.05623" lon="6.19876">
        <ele>483</ele>
        <time>2015-10-04T08:58:57Z</time>
      </trkpt>
      <trkpt lat="47.05638" lon="6.19894">
        <ele>476</ele>
        <time>2015-10-04T08:59:02Z</time>
      </trkpt>
      <trkpt lat="47.0566" lon="6.19908">
        <ele>470</ele>
        <time>2015-10-04T08:59:07Z</time>
      </trkpt>
      <trkpt lat="47.05673" lon="6.19923">
        <ele>472</ele>
        <time>2015-10-04T08:59:11Z</time>
      </trkpt>
      <trkpt lat="47.05685" lon="6.19937">
        <ele>461</ele>
        <time>2015-10-04T08:59:16Z</time>
      </trkpt>
      <trkpt lat="47.05698" lon="6.19943">
        <ele>455</ele>
        <time>2015-10-04T08:59:20Z</time>
      </trkpt>
      <trkpt lat="47.05705" lon="6.19945">
        <ele>452</ele>
        <time>2015-10-04T08:59:28Z</time>
      </trkpt>
      <trkpt lat="47.05719" lon="6.19958">
        <ele>448</ele>
        <time>2015-10-04T08:59:32Z</time>
      </trkpt>
      <trkpt lat="47.05734" lon="6.19964">
        <ele>442</ele>
        <time>2015-10-04T08:59:36Z</time>
      </trkpt>
      <trkpt lat="47.05751" lon="6.19964">
        <ele>434</ele>
        <time>2015-10-04T08:59:40Z</time>
      </trkpt>
      <trkpt lat="47.05766" lon="6.19962">
        <ele>455</ele>
        <time>2015-10-04T08:59:45Z</time>
      </trkpt>
      <trkpt lat="47.05776" lon="6.19961">
        <ele>439</ele>
        <time>2015-10-04T08:59:49Z</time>
      </trkpt>
      <trkpt lat="47.05784" lon="6.19963">
        <ele>433</ele>
        <time>2015-10-04T08:59:54Z</time>
      </trkpt>
      <trkpt lat="47.05793" lon="6.19965">
        <ele>426</ele>
        <time>2015-10-04T09:00:00Z</time>
      </trkpt>
      <trkpt lat="47.05793" lon="6.19975">
        <ele>421</ele>
        <time>2015-10-04T09:00:08Z</time>
      </trkpt>
      <trkpt lat="47.05785" lon="6.19988">
        <ele>416</ele>
        <time>2015-10-04T09:00:12Z</time>
      </trkpt>
      <trkpt lat="47.05774" lon="6.20004">
        <ele>414</ele>
        <time>2015-10-04T09:00:16Z</time>
      </trkpt>
      <trkpt lat="47.0576" lon="6.20017">
        <ele>407</ele>
        <time>2015-10-04T09:00:21Z</time>
      </trkpt>
      <trkpt lat="47.05747" lon="6.20023">
        <ele>401</ele>
        <time>2015-10-04T09:00:25Z</time>
      </trkpt>
      <trkpt lat="47.05751" lon="6.20033">
        <ele>400</ele>
        <time>2015-10-04T09:00:46Z</time>
      </trkpt>
      <trkpt lat="47.05759" lon="6.20042">
        <ele>391</ele>
        <time>2015-10-04T09:00:50Z</time>
      </trkpt>
      <trkpt lat="47.05776" lon="6.20041">
        <ele>390</ele>
        <time>2015-10-04T09:00:55Z</time>
      </trkpt>
      <trkpt lat="47.05788" lon="6.20043">
        <ele>390</ele>
        <time>2015-10-04T09:01:00Z</time>
      </trkpt>
      <trkpt lat="47.05799" lon="6.20044">
        <ele>387</ele>
        <time>2015-10-04T09:01:04Z</time>
      </trkpt>
      <trkpt lat="47.05816" lon="6.20048">
        <ele>389</ele>
        <time>2015-10-04T09:01:09Z</time>
      </trkpt>
      <trkpt lat="47.05832" lon="6.20057">
        <ele>379</ele>
        <time>2015-10-04T09:01:13Z</time>
      </trkpt>
      <trkpt lat="47.05848" lon="6.2007">
        <ele>380</ele>
        <time>2015-10-04T09:01:17Z</time>
      </trkpt>
      <trkpt lat="47.05843" lon="6.20094">
        <ele>371</ele>
        <time>2015-10-04T09:01:22Z</time>
      </trkpt>
      <trkpt lat="47.05846" lon="6.20106">
        <ele>371</ele>
        <time>2015-10-04T09:01:26Z</time>
      </trkpt>
      <trkpt lat="47.05847" lon="6.20118">
        <ele>375</ele>
        <time>2015-10-04T09:01:31Z</time>
      </trkpt>
      <trkpt lat="47.05855" lon="6.20115">
        <ele>390</ele>
        <time>2015-10-04T09:03:04Z</time>
      </trkpt>
      <trkpt lat="47.05868" lon="6.20112">
        <ele>388</ele>
        <time>2015-10-04T09:03:09Z</time>
      </trkpt>
      <trkpt lat="47.05878" lon="6.20111">
        <ele>395</ele>
        <time>2015-10-04T09:03:14Z</time>
      </trkpt>
      <trkpt lat="47.05889" lon="6.20108">
        <ele>399</ele>
        <time>2015-10-04T09:03:18Z</time>
      </trkpt>
      <trkpt lat="47.05901" lon="6.20108">
        <ele>400</ele>
        <time>2015-10-04T09:03:23Z</time>
      </trkpt>
      <trkpt lat="47.05909" lon="6.20107">
        <ele>398</ele>
        <time>2015-10-04T09:03:27Z</time>
      </trkpt>
      <trkpt lat="47.05921" lon="6.20107">
        <ele>400</ele>
        <time>2015-10-04T09:03:32Z</time>
      </trkpt>
      <trkpt lat="47.0593" lon="6.20107">
        <ele>398</ele>
        <time>2015-10-04T09:03:36Z</time>
      </trkpt>
      <trkpt lat="47.05938" lon="6.20107">
        <ele>399</ele>
        <time>2015-10-04T09:03:40Z</time>
      </trkpt>
      <trkpt lat="47.05944" lon="6.20104">
        <ele>400</ele>
        <time>2015-10-04T09:03:44Z</time>
      </trkpt>
      <trkpt lat="47.05952" lon="6.20105">
        <ele>398</ele>
        <time>2015-10-04T09:03:49Z</time>
      </trkpt>
      <trkpt lat="47.05959" lon="6.2011">
        <ele>396</ele>
        <time>2015-10-04T09:03:54Z</time>
      </trkpt>
      <trkpt lat="47.05968" lon="6.20112">
        <ele>396</ele>
        <time>2015-10-04T09:03:59Z</time>
      </trkpt>
      <trkpt lat="47.05976" lon="6.20115">
        <ele>395</ele>
        <time>2015-10-04T09:04:03Z</time>
      </trkpt>
      <trkpt lat="47.05985" lon="6.20118">
        <ele>397</ele>
        <time>2015-10-04T09:04:08Z</time>
      </trkpt>
      <trkpt lat="47.05994" lon="6.20118">
        <ele>402</ele>
        <time>2015-10-04T09:04:16Z</time>
      </trkpt>
      <trkpt lat="47.06001" lon="6.20118">
        <ele>403</ele>
        <time>2015-10-04T09:04:21Z</time>
      </trkpt>
      <trkpt lat="47.0601" lon="6.20118">
        <ele>400</ele>
        <time>2015-10-04T09:04:25Z</time>
      </trkpt>
      <trkpt lat="47.0602" lon="6.20124">
        <ele>391</ele>
        <time>2015-10-04T09:04:29Z</time>
      </trkpt>
      <trkpt lat="47.06028" lon="6.20127">
        <ele>390</ele>
        <time>2015-10-04T09:04:33Z</time>
      </trkpt>
      <trkpt lat="47.06037" lon="6.20124">
        <ele>389</ele>
        <time>2015-10-04T09:04:37Z</time>
      </trkpt>
      <trkpt lat="47.06045" lon="6.20123">
        <ele>384</ele>
        <time>2015-10-04T09:04:42Z</time>
      </trkpt>
      <trkpt lat="47.06053" lon="6.20124">
        <ele>388</ele>
        <time>2015-10-04T09:04:49Z</time>
      </trkpt>
      <trkpt lat="47.06061" lon="6.20127">
        <ele>387</ele>
        <time>2015-10-04T09:04:56Z</time>
      </trkpt>
      <trkpt lat="47.06069" lon="6.2013">
        <ele>393</ele>
        <time>2015-10-04T09:05:03Z</time>
      </trkpt>
      <trkpt lat="47.06077" lon="6.2013">
        <ele>400</ele>
        <time>2015-10-04T09:05:11Z</time>
      </trkpt>
      <trkpt lat="47.06084" lon="6.20132">
        <ele>401</ele>
        <time>2015-10-04T09:05:16Z</time>
      </trkpt>
      <trkpt lat="47.06093" lon="6.20133">
        <ele>402</ele>
        <time>2015-10-04T09:05:21Z</time>
      </trkpt>
      <trkpt lat="47.06102" lon="6.20133">
        <ele>403</ele>
        <time>2015-10-04T09:05:26Z</time>
      </trkpt>
      <trkpt lat="47.06112" lon="6.20136">
        <ele>401</ele>
        <time>2015-10-04T09:05:31Z</time>
      </trkpt>
      <trkpt lat="47.0612" lon="6.20138">
        <ele>400</ele>
        <time>2015-10-04T09:05:35Z</time>
      </trkpt>
      <trkpt lat="47.06128" lon="6.2014">
        <ele>398</ele>
        <time>2015-10-04T09:05:39Z</time>
      </trkpt>
      <trkpt lat="47.06137" lon="6.20145">
        <ele>394</ele>
        <time>2015-10-04T09:05:43Z</time>
      </trkpt>
      <trkpt lat="47.06147" lon="6.20152">
        <ele>393</ele>
        <time>2015-10-04T09:05:48Z</time>
      </trkpt>
      <trkpt lat="47.06155" lon="6.20151">
        <ele>393</ele>
        <time>2015-10-04T09:05:52Z</time>
      </trkpt>
      <trkpt lat="47.06166" lon="6.20154">
        <ele>389</ele>
        <time>2015-10-04T09:05:56Z</time>
      </trkpt>
      <trkpt lat="47.06177" lon="6.20158">
        <ele>393</ele>
        <time>2015-10-04T09:06:00Z</time>
      </trkpt>
      <trkpt lat="47.06186" lon="6.20157">
        <ele>397</ele>
        <time>2015-10-04T09:06:05Z</time>
      </trkpt>
      <trkpt lat="47.06198" lon="6.20159">
        <ele>394</ele>
        <time>2015-10-04T09:06:10Z</time>
      </trkpt>
      <trkpt lat="47.06208" lon="6.20163">
        <ele>393</ele>
        <time>2015-10-04T09:06:14Z</time>
      </trkpt>
      <trkpt lat="47.06217" lon="6.20164">
        <ele>400</ele>
        <time>2015-10-04T09:06:18Z</time>
      </trkpt>
      <trkpt lat="47.06225" lon="6.20161">
        <ele>409</ele>
        <time>2015-10-04T09:06:25Z</time>
      </trkpt>
      <trkpt lat="47.06234" lon="6.20159">
        <ele>409</ele>
        <time>2015-10-04T09:06:31Z</time>
      </trkpt>
      <trkpt lat="47.06242" lon="6.20155">
        <ele>409</ele>
        <time>2015-10-04T09:06:36Z</time>
      </trkpt>
      <trkpt lat="47.06248" lon="6.20149">
        <ele>413</ele>
        <time>2015-10-04T09:06:42Z</time>
      </trkpt>
      <trkpt lat="47.06254" lon="6.20159">
        <ele>420</ele>
        <time>2015-10-04T09:06:50Z</time>
      </trkpt>
      <trkpt lat="47.06247" lon="6.20167">
        <ele>422</ele>
        <time>2015-10-04T09:06:54Z</time>
      </trkpt>
      <trkpt lat="47.06237" lon="6.20173">
        <ele>426</ele>
        <time>2015-10-04T09:06:59Z</time>
      </trkpt>
      <trkpt lat="47.06227" lon="6.20178">
        <ele>431</ele>
        <time>2015-10-04T09:07:04Z</time>
      </trkpt>
      <trkpt lat="47.06218" lon="6.20181">
        <ele>432</ele>
        <time>2015-10-04T09:07:09Z</time>
      </trkpt>
      <trkpt lat="47.06211" lon="6.20189">
        <ele>435</ele>
        <time>2015-10-04T09:07:18Z</time>
      </trkpt>
      <trkpt lat="47.06202" lon="6.2019">
        <ele>434</ele>
        <time>2015-10-04T09:07:23Z</time>
      </trkpt>
      <trkpt lat="47.06194" lon="6.20185">
        <ele>440</ele>
        <time>2015-10-04T09:07:28Z</time>
      </trkpt>
      <trkpt lat="47.06186" lon="6.20187">
        <ele>445</ele>
        <time>2015-10-04T09:07:35Z</time>
      </trkpt>
      <trkpt lat="47.06192" lon="6.20197">
        <ele>434</ele>
        <time>2015-10-04T09:07:44Z</time>
      </trkpt>
      <trkpt lat="47.06201" lon="6.20196">
        <ele>438</ele>
        <time>2015-10-04T09:07:52Z</time>
      </trkpt>
      <trkpt lat="47.0621" lon="6.20194">
        <ele>439</ele>
        <time>2015-10-04T09:07:57Z</time>
      </trkpt>
      <trkpt lat="47.06219" lon="6.20195">
        <ele>436</ele>
        <time>2015-10-04T09:08:02Z</time>
      </trkpt>
      <trkpt lat="47.06232" lon="6.20195">
        <ele>437</ele>
        <time>2015-10-04T09:08:06Z</time>
      </trkpt>
      <trkpt lat="47.06244" lon="6.20193">
        <ele>436</ele>
        <time>2015-10-04T09:08:10Z</time>
      </trkpt>
      <trkpt lat="47.06256" lon="6.2019">
        <ele>434</ele>
        <time>2015-10-04T09:08:15Z</time>
      </trkpt>
      <trkpt lat="47.06267" lon="6.20186">
        <ele>433</ele>
        <time>2015-10-04T09:08:19Z</time>
      </trkpt>
      <trkpt lat="47.0628" lon="6.20182">
        <ele>433</ele>
        <time>2015-10-04T09:08:23Z</time>
      </trkpt>
      <trkpt lat="47.06293" lon="6.20187">
        <ele>434</ele>
        <time>2015-10-04T09:08:27Z</time>
      </trkpt>
      <trkpt lat="47.06306" lon="6.20195">
        <ele>436</ele>
        <time>2015-10-04T09:08:32Z</time>
      </trkpt>
      <trkpt lat="47.06313" lon="6.20201">
        <ele>439</ele>
        <time>2015-10-04T09:08:36Z</time>
      </trkpt>
      <trkpt lat="47.06322" lon="6.20206">
        <ele>437</ele>
        <time>2015-10-04T09:08:41Z</time>
      </trkpt>
      <trkpt lat="47.06333" lon="6.20212">
        <ele>439</ele>
        <time>2015-10-04T09:08:46Z</time>
      </trkpt>
      <trkpt lat="47.06341" lon="6.20217">
        <ele>442</ele>
        <time>2015-10-04T09:08:51Z</time>
      </trkpt>
      <trkpt lat="47.06348" lon="6.20222">
        <ele>440</ele>
        <time>2015-10-04T09:08:55Z</time>
      </trkpt>
      <trkpt lat="47.06358" lon="6.20228">
        <ele>439</ele>
        <time>2015-10-04T09:08:59Z</time>
      </trkpt>
      <trkpt lat="47.06361" lon="6.20244">
        <ele>437</ele>
        <time>2015-10-04T09:09:04Z</time>
      </trkpt>
      <trkpt lat="47.06354" lon="6.20257">
        <ele>436</ele>
        <time>2015-10-04T09:09:08Z</time>
      </trkpt>
      <trkpt lat="47.06345" lon="6.20265">
        <ele>438</ele>
        <time>2015-10-04T09:09:12Z</time>
      </trkpt>
      <trkpt lat="47.06336" lon="6.20269">
        <ele>443</ele>
        <time>2015-10-04T09:09:18Z</time>
      </trkpt>
      <trkpt lat="47.0633" lon="6.20274">
        <ele>444</ele>
        <time>2015-10-04T09:09:23Z</time>
      </trkpt>
      <trkpt lat="47.06323" lon="6.20283">
        <ele>446</ele>
        <time>2015-10-04T09:09:28Z</time>
      </trkpt>
      <trkpt lat="47.06318" lon="6.20294">
        <ele>447</ele>
        <time>2015-10-04T09:09:33Z</time>
      </trkpt>
      <trkpt lat="47.06313" lon="6.20304">
        <ele>447</ele>
        <time>2015-10-04T09:09:38Z</time>
      </trkpt>
      <trkpt lat="47.06305" lon="6.2031">
        <ele>450</ele>
        <time>2015-10-04T09:09:44Z</time>
      </trkpt>
      <trkpt lat="47.06297" lon="6.20306">
        <ele>462</ele>
        <time>2015-10-04T09:10:07Z</time>
      </trkpt>
      <trkpt lat="47.06288" lon="6.20304">
        <ele>467</ele>
        <time>2015-10-04T09:10:16Z</time>
      </trkpt>
      <trkpt lat="47.0628" lon="6.20301">
        <ele>471</ele>
        <time>2015-10-04T09:10:35Z</time>
      </trkpt>
      <trkpt lat="47.06273" lon="6.20295">
        <ele>469</ele>
        <time>2015-10-04T09:10:44Z</time>
      </trkpt>
      <trkpt lat="47.06264" lon="6.20293">
        <ele>473</ele>
        <time>2015-10-04T09:10:51Z</time>
      </trkpt>
      <trkpt lat="47.06256" lon="6.20289">
        <ele>473</ele>
        <time>2015-10-04T09:10:58Z</time>
      </trkpt>
      <trkpt lat="47.06247" lon="6.20288">
        <ele>475</ele>
        <time>2015-10-04T09:11:02Z</time>
      </trkpt>
      <trkpt lat="47.06239" lon="6.20285">
        <ele>474</ele>
        <time>2015-10-04T09:11:07Z</time>
      </trkpt>
      <trkpt lat="47.06232" lon="6.20284">
        <ele>472</ele>
        <time>2015-10-04T09:11:11Z</time>
      </trkpt>
      <trkpt lat="47.06221" lon="6.20284">
        <ele>474</ele>
        <time>2015-10-04T09:11:15Z</time>
      </trkpt>
      <trkpt lat="47.06212" lon="6.20283">
        <ele>476</ele>
        <time>2015-10-04T09:11:20Z</time>
      </trkpt>
      <trkpt lat="47.06205" lon="6.20282">
        <ele>473</ele>
        <time>2015-10-04T09:11:25Z</time>
      </trkpt>
      <trkpt lat="47.06196" lon="6.20281">
        <ele>473</ele>
        <time>2015-10-04T09:11:30Z</time>
      </trkpt>
      <trkpt lat="47.06188" lon="6.20282">
        <ele>474</ele>
        <time>2015-10-04T09:11:35Z</time>
      </trkpt>
      <trkpt lat="47.0618" lon="6.20286">
        <ele>476</ele>
        <time>2015-10-04T09:11:39Z</time>
      </trkpt>
      <trkpt lat="47.06182" lon="6.20297">
        <ele>476</ele>
        <time>2015-10-04T09:11:44Z</time>
      </trkpt>
      <trkpt lat="47.06189" lon="6.20304">
        <ele>475</ele>
        <time>2015-10-04T09:11:51Z</time>
      </trkpt>
      <trkpt lat="47.06195" lon="6.2031">
        <ele>474</ele>
        <time>2015-10-04T09:11:56Z</time>
      </trkpt>
      <trkpt lat="47.06202" lon="6.20318">
        <ele>475</ele>
        <time>2015-10-04T09:12:01Z</time>
      </trkpt>
      <trkpt lat="47.06207" lon="6.20326">
        <ele>477</ele>
        <time>2015-10-04T09:12:05Z</time>
      </trkpt>
      <trkpt lat="47.06213" lon="6.20335">
        <ele>479</ele>
        <time>2015-10-04T09:12:10Z</time>
      </trkpt>
      <trkpt lat="47.06218" lon="6.20341">
        <ele>479</ele>
        <time>2015-10-04T09:12:14Z</time>
      </trkpt>
      <trkpt lat="47.06226" lon="6.20348">
        <ele>480</ele>
        <time>2015-10-04T09:12:20Z</time>
      </trkpt>
      <trkpt lat="47.06233" lon="6.20353">
        <ele>482</ele>
        <time>2015-10-04T09:12:27Z</time>
      </trkpt>
      <trkpt lat="47.06239" lon="6.20361">
        <ele>483</ele>
        <time>2015-10-04T09:12:33Z</time>
      </trkpt>
      <trkpt lat="47.06246" lon="6.20369">
        <ele>480</ele>
        <time>2015-10-04T09:12:38Z</time>
      </trkpt>
      <trkpt lat="47.0625" lon="6.2038">
        <ele>478</ele>
        <time>2015-10-04T09:12:45Z</time>
      </trkpt>
      <trkpt lat="47.06255" lon="6.2039">
        <ele>480</ele>
        <time>2015-10-04T09:12:52Z</time>
      </trkpt>
      <trkpt lat="47.06263" lon="6.20396">
        <ele>482</ele>
        <time>2015-10-04T09:12:56Z</time>
      </trkpt>
      <trkpt lat="47.06271" lon="6.20407">
        <ele>483</ele>
        <time>2015-10-04T09:13:00Z</time>
      </trkpt>
      <trkpt lat="47.06274" lon="6.20418">
        <ele>488</ele>
        <time>2015-10-04T09:13:04Z</time>
      </trkpt>
      <trkpt lat="47.06272" lon="6.2043">
        <ele>487</ele>
        <time>2015-10-04T09:13:08Z</time>
      </trkpt>
      <trkpt lat="47.06269" lon="6.20442">
        <ele>488</ele>
        <time>2015-10-04T09:13:12Z</time>
      </trkpt>
      <trkpt lat="47.06264" lon="6.20453">
        <ele>490</ele>
        <time>2015-10-04T09:13:17Z</time>
      </trkpt>
      <trkpt lat="47.06257" lon="6.20462">
        <ele>491</ele>
        <time>2015-10-04T09:13:26Z</time>
      </trkpt>
      <trkpt lat="47.06249" lon="6.20456">
        <ele>491</ele>
        <time>2015-10-04T09:13:34Z</time>
      </trkpt>
      <trkpt lat="47.06242" lon="6.2045">
        <ele>494</ele>
        <time>2015-10-04T09:13:41Z</time>
      </trkpt>
      <trkpt lat="47.06234" lon="6.20447">
        <ele>497</ele>
        <time>2015-10-04T09:13:46Z</time>
      </trkpt>
      <trkpt lat="47.06227" lon="6.2044">
        <ele>502</ele>
        <time>2015-10-04T09:13:52Z</time>
      </trkpt>
      <trkpt lat="47.06219" lon="6.20435">
        <ele>506</ele>
        <time>2015-10-04T09:13:58Z</time>
      </trkpt>
      <trkpt lat="47.06212" lon="6.20428">
        <ele>510</ele>
        <time>2015-10-04T09:14:05Z</time>
      </trkpt>
      <trkpt lat="47.06205" lon="6.2042">
        <ele>514</ele>
        <time>2015-10-04T09:14:11Z</time>
      </trkpt>
      <trkpt lat="47.06199" lon="6.20413">
        <ele>517</ele>
        <time>2015-10-04T09:14:15Z</time>
      </trkpt>
      <trkpt lat="47.06191" lon="6.20409">
        <ele>516</ele>
        <time>2015-10-04T09:14:19Z</time>
      </trkpt>
      <trkpt lat="47.06181" lon="6.20405">
        <ele>519</ele>
        <time>2015-10-04T09:14:24Z</time>
      </trkpt>
      <trkpt lat="47.06172" lon="6.204">
        <ele>520</ele>
        <time>2015-10-04T09:14:29Z</time>
      </trkpt>
      <trkpt lat="47.06163" lon="6.20399">
        <ele>519</ele>
        <time>2015-10-04T09:14:34Z</time>
      </trkpt>
      <trkpt lat="47.06153" lon="6.204">
        <ele>518</ele>
        <time>2015-10-04T09:14:39Z</time>
      </trkpt>
      <trkpt lat="47.06145" lon="6.20403">
        <ele>523</ele>
        <time>2015-10-04T09:14:45Z</time>
      </trkpt>
      <trkpt lat="47.06136" lon="6.20405">
        <ele>522</ele>
        <time>2015-10-04T09:14:50Z</time>
      </trkpt>
      <trkpt lat="47.06129" lon="6.2041">
        <ele>519</ele>
        <time>2015-10-04T09:14:55Z</time>
      </trkpt>
      <trkpt lat="47.06122" lon="6.20413">
        <ele>522</ele>
        <time>2015-10-04T09:15:01Z</time>
      </trkpt>
      <trkpt lat="47.06113" lon="6.20413">
        <ele>526</ele>
        <time>2015-10-04T09:15:05Z</time>
      </trkpt>
      <trkpt lat="47.06106" lon="6.20414">
        <ele>524</ele>
        <time>2015-10-04T09:15:10Z</time>
      </trkpt>
      <trkpt lat="47.06096" lon="6.20416">
        <ele>528</ele>
        <time>2015-10-04T09:15:15Z</time>
      </trkpt>
      <trkpt lat="47.06087" lon="6.20417">
        <ele>531</ele>
        <time>2015-10-04T09:15:20Z</time>
      </trkpt>
      <trkpt lat="47.06079" lon="6.20419">
        <ele>532</ele>
        <time>2015-10-04T09:15:26Z</time>
      </trkpt>
      <trkpt lat="47.06071" lon="6.20423">
        <ele>533</ele>
        <time>2015-10-04T09:15:31Z</time>
      </trkpt>
      <trkpt lat="47.06065" lon="6.20431">
        <ele>529</ele>
        <time>2015-10-04T09:15:39Z</time>
      </trkpt>
      <trkpt lat="47.06056" lon="6.20431">
        <ele>527</ele>
        <time>2015-10-04T09:15:44Z</time>
      </trkpt>
      <trkpt lat="47.06048" lon="6.20434">
        <ele>529</ele>
        <time>2015-10-04T09:15:49Z</time>
      </trkpt>
      <trkpt lat="47.06041" lon="6.20433">
        <ele>531</ele>
        <time>2015-10-04T09:15:54Z</time>
      </trkpt>
      <trkpt lat="47.06033" lon="6.20434">
        <ele>532</ele>
        <time>2015-10-04T09:15:58Z</time>
      </trkpt>
      <trkpt lat="47.06023" lon="6.20433">
        <ele>535</ele>
        <time>2015-10-04T09:16:03Z</time>
      </trkpt>
      <trkpt lat="47.06015" lon="6.20432">
        <ele>536</ele>
        <time>2015-10-04T09:16:07Z</time>
      </trkpt>
      <trkpt lat="47.06007" lon="6.20438">
        <ele>537</ele>
        <time>2015-10-04T09:16:12Z</time>
      </trkpt>
      <trkpt lat="47.05999" lon="6.2044">
        <ele>540</ele>
        <time>2015-10-04T09:16:16Z</time>
      </trkpt>
      <trkpt lat="47.05993" lon="6.20442">
        <ele>540</ele>
        <time>2015-10-04T09:16:20Z</time>
      </trkpt>
      <trkpt lat="47.05982" lon="6.20448">
        <ele>541</ele>
        <time>2015-10-04T09:16:25Z</time>
      </trkpt>
      <trkpt lat="47.0597" lon="6.2045">
        <ele>544</ele>
        <time>2015-10-04T09:16:30Z</time>
      </trkpt>
      <trkpt lat="47.05962" lon="6.20451">
        <ele>546</ele>
        <time>2015-10-04T09:16:35Z</time>
      </trkpt>
      <trkpt lat="47.05954" lon="6.20452">
        <ele>546</ele>
        <time>2015-10-04T09:16:40Z</time>
      </trkpt>
      <trkpt lat="47.05944" lon="6.20451">
        <ele>546</ele>
        <time>2015-10-04T09:16:45Z</time>
      </trkpt>
      <trkpt lat="47.05935" lon="6.20456">
        <ele>548</ele>
        <time>2015-10-04T09:16:50Z</time>
      </trkpt>
      <trkpt lat="47.05929" lon="6.20463">
        <ele>544</ele>
        <time>2015-10-04T09:16:55Z</time>
      </trkpt>
      <trkpt lat="47.05919" lon="6.20468">
        <ele>543</ele>
        <time>2015-10-04T09:17:00Z</time>
      </trkpt>
      <trkpt lat="47.0591" lon="6.20472">
        <ele>543</ele>
        <time>2015-10-04T09:17:04Z</time>
      </trkpt>
      <trkpt lat="47.05901" lon="6.20476">
        <ele>546</ele>
        <time>2015-10-04T09:17:08Z</time>
      </trkpt>
      <trkpt lat="47.0589" lon="6.20479">
        <ele>554</ele>
        <time>2015-10-04T09:17:13Z</time>
      </trkpt>
      <trkpt lat="47.05882" lon="6.20482">
        <ele>555</ele>
        <time>2015-10-04T09:17:17Z</time>
      </trkpt>
      <trkpt lat="47.05872" lon="6.20487">
        <ele>555</ele>
        <time>2015-10-04T09:17:21Z</time>
      </trkpt>
      <trkpt lat="47.05863" lon="6.20492">
        <ele>551</ele>
        <time>2015-10-04T09:17:25Z</time>
      </trkpt>
      <trkpt lat="47.05853" lon="6.20495">
        <ele>554</ele>
        <time>2015-10-04T09:17:29Z</time>
      </trkpt>
      <trkpt lat="47.05843" lon="6.205">
        <ele>555</ele>
        <time>2015-10-04T09:17:34Z</time>
      </trkpt>
      <trkpt lat="47.05834" lon="6.20507">
        <ele>557</ele>
        <time>2015-10-04T09:17:39Z</time>
      </trkpt>
      <trkpt lat="47.05824" lon="6.20508">
        <ele>559</ele>
        <time>2015-10-04T09:17:43Z</time>
      </trkpt>
      <trkpt lat="47.05813" lon="6.20515">
        <ele>560</ele>
        <time>2015-10-04T09:17:48Z</time>
      </trkpt>
      <trkpt lat="47.05804" lon="6.20526">
        <ele>558</ele>
        <time>2015-10-04T09:17:53Z</time>
      </trkpt>
      <trkpt lat="47.05795" lon="6.20536">
        <ele>562</ele>
        <time>2015-10-04T09:17:57Z</time>
      </trkpt>
      <trkpt lat="47.05782" lon="6.20544">
        <ele>563</ele>
        <time>2015-10-04T09:18:02Z</time>
      </trkpt>
      <trkpt lat="47.05773" lon="6.20549">
        <ele>560</ele>
        <time>2015-10-04T09:18:06Z</time>
      </trkpt>
      <trkpt lat="47.05764" lon="6.2056">
        <ele>561</ele>
        <time>2015-10-04T09:18:11Z</time>
      </trkpt>
      <trkpt lat="47.05757" lon="6.20564">
        <ele>562</ele>
        <time>2015-10-04T09:18:15Z</time>
      </trkpt>
      <trkpt lat="47.05749" lon="6.20571">
        <ele>566</ele>
        <time>2015-10-04T09:18:20Z</time>
      </trkpt>
      <trkpt lat="47.05743" lon="6.20577">
        <ele>568</ele>
        <time>2015-10-04T09:18:24Z</time>
      </trkpt>
      <trkpt lat="47.05736" lon="6.20586">
        <ele>572</ele>
        <time>2015-10-04T09:18:28Z</time>
      </trkpt>
      <trkpt lat="47.0573" lon="6.206">
        <ele>568</ele>
        <time>2015-10-04T09:18:32Z</time>
      </trkpt>
      <trkpt lat="47.05722" lon="6.20612">
        <ele>568</ele>
        <time>2015-10-04T09:18:37Z</time>
      </trkpt>
      <trkpt lat="47.05716" lon="6.20623">
        <ele>569</ele>
        <time>2015-10-04T09:18:42Z</time>
      </trkpt>
      <trkpt lat="47.05708" lon="6.2063">
        <ele>569</ele>
        <time>2015-10-04T09:18:46Z</time>
      </trkpt>
      <trkpt lat="47.057" lon="6.2064">
        <ele>569</ele>
        <time>2015-10-04T09:18:51Z</time>
      </trkpt>
      <trkpt lat="47.0569" lon="6.20651">
        <ele>571</ele>
        <time>2015-10-04T09:18:56Z</time>
      </trkpt>
      <trkpt lat="47.05685" lon="6.20661">
        <ele>515</ele>
        <time>2015-10-04T09:19:00Z</time>
      </trkpt>
      <trkpt lat="47.05683" lon="6.2067">
        <ele>555</ele>
        <time>2015-10-04T09:19:04Z</time>
      </trkpt>
      <trkpt lat="47.05675" lon="6.20678">
        <ele>563</ele>
        <time>2015-10-04T09:19:08Z</time>
      </trkpt>
      <trkpt lat="47.05665" lon="6.20689">
        <ele>568</ele>
        <time>2015-10-04T09:19:13Z</time>
      </trkpt>
      <trkpt lat="47.05656" lon="6.207">
        <ele>571</ele>
        <time>2015-10-04T09:19:17Z</time>
      </trkpt>
      <trkpt lat="47.05647" lon="6.20709">
        <ele>572</ele>
        <time>2015-10-04T09:19:21Z</time>
      </trkpt>
      <trkpt lat="47.05643" lon="6.20721">
        <ele>568</ele>
        <time>2015-10-04T09:19:25Z</time>
      </trkpt>
      <trkpt lat="47.05638" lon="6.2073">
        <ele>572</ele>
        <time>2015-10-04T09:19:29Z</time>
      </trkpt>
      <trkpt lat="47.05629" lon="6.20736">
        <ele>579</ele>
        <time>2015-10-04T09:19:34Z</time>
      </trkpt>
      <trkpt lat="47.05622" lon="6.20744">
        <ele>581</ele>
        <time>2015-10-04T09:19:38Z</time>
      </trkpt>
      <trkpt lat="47.05613" lon="6.20752">
        <ele>584</ele>
        <time>2015-10-04T09:19:42Z</time>
      </trkpt>
      <trkpt lat="47.05603" lon="6.20761">
        <ele>586</ele>
        <time>2015-10-04T09:19:46Z</time>
      </trkpt>
      <trkpt lat="47.05592" lon="6.20766">
        <ele>591</ele>
        <time>2015-10-04T09:19:51Z</time>
      </trkpt>
      <trkpt lat="47.05577" lon="6.20776">
        <ele>590</ele>
        <time>2015-10-04T09:19:56Z</time>
      </trkpt>
      <trkpt lat="47.05561" lon="6.20781">
        <ele>587</ele>
        <time>2015-10-04T09:20:00Z</time>
      </trkpt>
      <trkpt lat="47.05548" lon="6.20793">
        <ele>583</ele>
        <time>2015-10-04T09:20:04Z</time>
      </trkpt>
      <trkpt lat="47.05534" lon="6.20816">
        <ele>579</ele>
        <time>2015-10-04T09:20:08Z</time>
      </trkpt>
      <trkpt lat="47.05524" lon="6.20839">
        <ele>578</ele>
        <time>2015-10-04T09:20:12Z</time>
      </trkpt>
      <trkpt lat="47.05512" lon="6.20858">
        <ele>552</ele>
        <time>2015-10-04T09:20:16Z</time>
      </trkpt>
      <trkpt lat="47.05506" lon="6.20867">
        <ele>576</ele>
        <time>2015-10-04T09:20:20Z</time>
      </trkpt>
      <trkpt lat="47.055" lon="6.20872">
        <ele>581</ele>
        <time>2015-10-04T09:20:24Z</time>
      </trkpt>
      <trkpt lat="47.05492" lon="6.20883">
        <ele>582</ele>
        <time>2015-10-04T09:20:28Z</time>
      </trkpt>
      <trkpt lat="47.0548" lon="6.20892">
        <ele>583</ele>
        <time>2015-10-04T09:20:32Z</time>
      </trkpt>
      <trkpt lat="47.05465" lon="6.20911">
        <ele>581</ele>
        <time>2015-10-04T09:20:37Z</time>
      </trkpt>
      <trkpt lat="47.05452" lon="6.20928">
        <ele>583</ele>
        <time>2015-10-04T09:20:42Z</time>
      </trkpt>
      <trkpt lat="47.05439" lon="6.20941">
        <ele>586</ele>
        <time>2015-10-04T09:20:46Z</time>
      </trkpt>
      <trkpt lat="47.05429" lon="6.20958">
        <ele>584</ele>
        <time>2015-10-04T09:20:50Z</time>
      </trkpt>
      <trkpt lat="47.05423" lon="6.20975">
        <ele>585</ele>
        <time>2015-10-04T09:20:54Z</time>
      </trkpt>
      <trkpt lat="47.05413" lon="6.20993">
        <ele>582</ele>
        <time>2015-10-04T09:20:58Z</time>
      </trkpt>
      <trkpt lat="47.05396" lon="6.21006">
        <ele>585</ele>
        <time>2015-10-04T09:21:03Z</time>
      </trkpt>
      <trkpt lat="47.05383" lon="6.21022">
        <ele>583</ele>
        <time>2015-10-04T09:21:07Z</time>
      </trkpt>
      <trkpt lat="47.0537" lon="6.21039">
        <ele>583</ele>
        <time>2015-10-04T09:21:11Z</time>
      </trkpt>
      <trkpt lat="47.05358" lon="6.21054">
        <ele>583</ele>
        <time>2015-10-04T09:21:15Z</time>
      </trkpt>
      <trkpt lat="47.05351" lon="6.21068">
        <ele>586</ele>
        <time>2015-10-04T09:21:20Z</time>
      </trkpt>
      <trkpt lat="47.05346" lon="6.21086">
        <ele>586</ele>
        <time>2015-10-04T09:21:24Z</time>
      </trkpt>
      <trkpt lat="47.05342" lon="6.21104">
        <ele>587</ele>
        <time>2015-10-04T09:21:29Z</time>
      </trkpt>
      <trkpt lat="47.05339" lon="6.21119">
        <ele>588</ele>
        <time>2015-10-04T09:21:33Z</time>
      </trkpt>
      <trkpt lat="47.05331" lon="6.21134">
        <ele>588</ele>
        <time>2015-10-04T09:21:38Z</time>
      </trkpt>
      <trkpt lat="47.05326" lon="6.21145">
        <ele>590</ele>
        <time>2015-10-04T09:21:42Z</time>
      </trkpt>
      <trkpt lat="47.05321" lon="6.21157">
        <ele>594</ele>
        <time>2015-10-04T09:21:47Z</time>
      </trkpt>
      <trkpt lat="47.05312" lon="6.21164">
        <ele>597</ele>
        <time>2015-10-04T09:21:51Z</time>
      </trkpt>
      <trkpt lat="47.05301" lon="6.21176">
        <ele>598</ele>
        <time>2015-10-04T09:21:56Z</time>
      </trkpt>
      <trkpt lat="47.05291" lon="6.21188">
        <ele>597</ele>
        <time>2015-10-04T09:22:00Z</time>
      </trkpt>
      <trkpt lat="47.05285" lon="6.21202">
        <ele>599</ele>
        <time>2015-10-04T09:22:04Z</time>
      </trkpt>
      <trkpt lat="47.0528" lon="6.21219">
        <ele>597</ele>
        <time>2015-10-04T09:22:09Z</time>
      </trkpt>
      <trkpt lat="47.0527" lon="6.21234">
        <ele>600</ele>
        <time>2015-10-04T09:22:14Z</time>
      </trkpt>
      <trkpt lat="47.05264" lon="6.21247">
        <ele>598</ele>
        <time>2015-10-04T09:22:18Z</time>
      </trkpt>
      <trkpt lat="47.05254" lon="6.2126">
        <ele>605</ele>
        <time>2015-10-04T09:22:23Z</time>
      </trkpt>
      <trkpt lat="47.05243" lon="6.21269">
        <ele>607</ele>
        <time>2015-10-04T09:22:28Z</time>
      </trkpt>
      <trkpt lat="47.05235" lon="6.21276">
        <ele>614</ele>
        <time>2015-10-04T09:22:32Z</time>
      </trkpt>
      <trkpt lat="47.05221" lon="6.21289">
        <ele>612</ele>
        <time>2015-10-04T09:22:37Z</time>
      </trkpt>
      <trkpt lat="47.0521" lon="6.21299">
        <ele>610</ele>
        <time>2015-10-04T09:22:41Z</time>
      </trkpt>
      <trkpt lat="47.05201" lon="6.21309">
        <ele>613</ele>
        <time>2015-10-04T09:22:45Z</time>
      </trkpt>
      <trkpt lat="47.05192" lon="6.2132">
        <ele>615</ele>
        <time>2015-10-04T09:22:49Z</time>
      </trkpt>
      <trkpt lat="47.05177" lon="6.21332">
        <ele>616</ele>
        <time>2015-10-04T09:22:54Z</time>
      </trkpt>
      <trkpt lat="47.05164" lon="6.21356">
        <ele>611</ele>
        <time>2015-10-04T09:22:59Z</time>
      </trkpt>
      <trkpt lat="47.05154" lon="6.2137">
        <ele>613</ele>
        <time>2015-10-04T09:23:03Z</time>
      </trkpt>
      <trkpt lat="47.05147" lon="6.21383">
        <ele>613</ele>
        <time>2015-10-04T09:23:07Z</time>
      </trkpt>
      <trkpt lat="47.05143" lon="6.21393">
        <ele>617</ele>
        <time>2015-10-04T09:23:12Z</time>
      </trkpt>
      <trkpt lat="47.05132" lon="6.21403">
        <ele>615</ele>
        <time>2015-10-04T09:23:16Z</time>
      </trkpt>
      <trkpt lat="47.05119" lon="6.21418">
        <ele>613</ele>
        <time>2015-10-04T09:23:21Z</time>
      </trkpt>
      <trkpt lat="47.05112" lon="6.21426">
        <ele>616</ele>
        <time>2015-10-04T09:23:25Z</time>
      </trkpt>
      <trkpt lat="47.05102" lon="6.21433">
        <ele>618</ele>
        <time>2015-10-04T09:23:30Z</time>
      </trkpt>
      <trkpt lat="47.05094" lon="6.21436">
        <ele>621</ele>
        <time>2015-10-04T09:23:34Z</time>
      </trkpt>
      <trkpt lat="47.05085" lon="6.2144">
        <ele>625</ele>
        <time>2015-10-04T09:23:38Z</time>
      </trkpt>
      <trkpt lat="47.05076" lon="6.21444">
        <ele>625</ele>
        <time>2015-10-04T09:23:42Z</time>
      </trkpt>
      <trkpt lat="47.05067" lon="6.21452">
        <ele>625</ele>
        <time>2015-10-04T09:23:46Z</time>
      </trkpt>
      <trkpt lat="47.05058" lon="6.21463">
        <ele>622</ele>
        <time>2015-10-04T09:23:51Z</time>
      </trkpt>
      <trkpt lat="47.05047" lon="6.21469">
        <ele>625</ele>
        <time>2015-10-04T09:23:56Z</time>
      </trkpt>
      <trkpt lat="47.05036" lon="6.21474">
        <ele>628</ele>
        <time>2015-10-04T09:24:01Z</time>
      </trkpt>
      <trkpt lat="47.05028" lon="6.2148">
        <ele>626</ele>
        <time>2015-10-04T09:24:05Z</time>
      </trkpt>
      <trkpt lat="47.05023" lon="6.21489">
        <ele>628</ele>
        <time>2015-10-04T09:24:09Z</time>
      </trkpt>
      <trkpt lat="47.05015" lon="6.21498">
        <ele>627</ele>
        <time>2015-10-04T09:24:13Z</time>
      </trkpt>
      <trkpt lat="47.05005" lon="6.21501">
        <ele>632</ele>
        <time>2015-10-04T09:24:17Z</time>
      </trkpt>
      <trkpt lat="47.05" lon="6.21512">
        <ele>628</ele>
        <time>2015-10-04T09:24:21Z</time>
      </trkpt>
      <trkpt lat="47.04995" lon="6.21521">
        <ele>628</ele>
        <time>2015-10-04T09:24:25Z</time>
      </trkpt>
      <trkpt lat="47.04989" lon="6.21529">
        <ele>632</ele>
        <time>2015-10-04T09:24:29Z</time>
      </trkpt>
      <trkpt lat="47.04984" lon="6.21538">
        <ele>631</ele>
        <time>2015-10-04T09:24:33Z</time>
      </trkpt>
      <trkpt lat="47.04977" lon="6.21546">
        <ele>630</ele>
        <time>2015-10-04T09:24:38Z</time>
      </trkpt>
      <trkpt lat="47.04969" lon="6.21551">
        <ele>629</ele>
        <time>2015-10-04T09:24:43Z</time>
      </trkpt>
      <trkpt lat="47.04962" lon="6.21556">
        <ele>628</ele>
        <time>2015-10-04T09:24:48Z</time>
      </trkpt>
      <trkpt lat="47.04955" lon="6.21566">
        <ele>626</ele>
        <time>2015-10-04T09:24:53Z</time>
      </trkpt>
      <trkpt lat="47.04951" lon="6.21577">
        <ele>628</ele>
        <time>2015-10-04T09:24:57Z</time>
      </trkpt>
      <trkpt lat="47.04947" lon="6.21587">
        <ele>625</ele>
        <time>2015-10-04T09:25:02Z</time>
      </trkpt>
      <trkpt lat="47.04941" lon="6.21596">
        <ele>629</ele>
        <time>2015-10-04T09:25:07Z</time>
      </trkpt>
      <trkpt lat="47.04932" lon="6.216">
        <ele>610</ele>
        <time>2015-10-04T09:25:11Z</time>
      </trkpt>
      <trkpt lat="47.04927" lon="6.21609">
        <ele>620</ele>
        <time>2015-10-04T09:25:15Z</time>
      </trkpt>
      <trkpt lat="47.04919" lon="6.21621">
        <ele>629</ele>
        <time>2015-10-04T09:25:20Z</time>
      </trkpt>
      <trkpt lat="47.04914" lon="6.21628">
        <ele>632</ele>
        <time>2015-10-04T09:25:24Z</time>
      </trkpt>
      <trkpt lat="47.04907" lon="6.21634">
        <ele>636</ele>
        <time>2015-10-04T09:25:28Z</time>
      </trkpt>
      <trkpt lat="47.04902" lon="6.21642">
        <ele>640</ele>
        <time>2015-10-04T09:25:33Z</time>
      </trkpt>
      <trkpt lat="47.04897" lon="6.21651">
        <ele>641</ele>
        <time>2015-10-04T09:25:38Z</time>
      </trkpt>
      <trkpt lat="47.0489" lon="6.21657">
        <ele>644</ele>
        <time>2015-10-04T09:25:42Z</time>
      </trkpt>
      <trkpt lat="47.04885" lon="6.21666">
        <ele>645</ele>
        <time>2015-10-04T09:25:46Z</time>
      </trkpt>
      <trkpt lat="47.0488" lon="6.21676">
        <ele>646</ele>
        <time>2015-10-04T09:25:51Z</time>
      </trkpt>
      <trkpt lat="47.04874" lon="6.21685">
        <ele>647</ele>
        <time>2015-10-04T09:25:56Z</time>
      </trkpt>
      <trkpt lat="47.04866" lon="6.21695">
        <ele>648</ele>
        <time>2015-10-04T09:26:01Z</time>
      </trkpt>
      <trkpt lat="47.04861" lon="6.21705">
        <ele>645</ele>
        <time>2015-10-04T09:26:05Z</time>
      </trkpt>
      <trkpt lat="47.04855" lon="6.21716">
        <ele>648</ele>
        <time>2015-10-04T09:26:10Z</time>
      </trkpt>
      <trkpt lat="47.04848" lon="6.21722">
        <ele>647</ele>
        <time>2015-10-04T09:26:14Z</time>
      </trkpt>
      <trkpt lat="47.04842" lon="6.21733">
        <ele>647</ele>
        <time>2015-10-04T09:26:19Z</time>
      </trkpt>
      <trkpt lat="47.04837" lon="6.21745">
        <ele>646</ele>
        <time>2015-10-04T09:26:24Z</time>
      </trkpt>
      <trkpt lat="47.04831" lon="6.21753">
        <ele>649</ele>
        <time>2015-10-04T09:26:28Z</time>
      </trkpt>
      <trkpt lat="47.04825" lon="6.21764">
        <ele>650</ele>
        <time>2015-10-04T09:26:33Z</time>
      </trkpt>
      <trkpt lat="47.04821" lon="6.21774">
        <ele>647</ele>
        <time>2015-10-04T09:26:37Z</time>
      </trkpt>
      <trkpt lat="47.04815" lon="6.21782">
        <ele>649</ele>
        <time>2015-10-04T09:26:42Z</time>
      </trkpt>
      <trkpt lat="47.0481" lon="6.21791">
        <ele>653</ele>
        <time>2015-10-04T09:26:47Z</time>
      </trkpt>
      <trkpt lat="47.04805" lon="6.21799">
        <ele>658</ele>
        <time>2015-10-04T09:26:52Z</time>
      </trkpt>
      <trkpt lat="47.04798" lon="6.21808">
        <ele>658</ele>
        <time>2015-10-04T09:26:57Z</time>
      </trkpt>
      <trkpt lat="47.04794" lon="6.21818">
        <ele>656</ele>
        <time>2015-10-04T09:27:01Z</time>
      </trkpt>
      <trkpt lat="47.04789" lon="6.21829">
        <ele>657</ele>
        <time>2015-10-04T09:27:06Z</time>
      </trkpt>
      <trkpt lat="47.04782" lon="6.21839">
        <ele>659</ele>
        <time>2015-10-04T09:27:10Z</time>
      </trkpt>
      <trkpt lat="47.04774" lon="6.21845">
        <ele>660</ele>
        <time>2015-10-04T09:27:14Z</time>
      </trkpt>
      <trkpt lat="47.04766" lon="6.21857">
        <ele>661</ele>
        <time>2015-10-04T09:27:19Z</time>
      </trkpt>
      <trkpt lat="47.04764" lon="6.2187">
        <ele>661</ele>
        <time>2015-10-04T09:27:23Z</time>
      </trkpt>
      <trkpt lat="47.04763" lon="6.21882">
        <ele>664</ele>
        <time>2015-10-04T09:27:27Z</time>
      </trkpt>
      <trkpt lat="47.0476" lon="6.21889">
        <ele>665</ele>
        <time>2015-10-04T09:27:30Z</time>
      </trkpt>
      <trkpt lat="47.04755" lon="6.21904">
        <ele>664</ele>
        <time>2015-10-04T09:27:35Z</time>
      </trkpt>
      <trkpt lat="47.0475" lon="6.21915">
        <ele>662</ele>
        <time>2015-10-04T09:27:39Z</time>
      </trkpt>
      <trkpt lat="47.04743" lon="6.21923">
        <ele>662</ele>
        <time>2015-10-04T09:27:44Z</time>
      </trkpt>
      <trkpt lat="47.04734" lon="6.21925">
        <ele>663</ele>
        <time>2015-10-04T09:27:49Z</time>
      </trkpt>
      <trkpt lat="47.04723" lon="6.21924">
        <ele>663</ele>
        <time>2015-10-04T09:27:53Z</time>
      </trkpt>
      <trkpt lat="47.04711" lon="6.21923">
        <ele>661</ele>
        <time>2015-10-04T09:27:57Z</time>
      </trkpt>
      <trkpt lat="47.04703" lon="6.21926">
        <ele>660</ele>
        <time>2015-10-04T09:28:01Z</time>
      </trkpt>
      <trkpt lat="47.04696" lon="6.21931">
        <ele>663</ele>
        <time>2015-10-04T09:28:05Z</time>
      </trkpt>
      <trkpt lat="47.04687" lon="6.21946">
        <ele>666</ele>
        <time>2015-10-04T09:28:10Z</time>
      </trkpt>
      <trkpt lat="47.0468" lon="6.21959">
        <ele>664</ele>
        <time>2015-10-04T09:28:14Z</time>
      </trkpt>
      <trkpt lat="47.04673" lon="6.21974">
        <ele>663</ele>
        <time>2015-10-04T09:28:19Z</time>
      </trkpt>
      <trkpt lat="47.04667" lon="6.21986">
        <ele>665</ele>
        <time>2015-10-04T09:28:23Z</time>
      </trkpt>
      <trkpt lat="47.04663" lon="6.21999">
        <ele>666</ele>
        <time>2015-10-04T09:28:27Z</time>
      </trkpt>
      <trkpt lat="47.04659" lon="6.22014">
        <ele>666</ele>
        <time>2015-10-04T09:28:32Z</time>
      </trkpt>
      <trkpt lat="47.04654" lon="6.22028">
        <ele>668</ele>
        <time>2015-10-04T09:28:37Z</time>
      </trkpt>
      <trkpt lat="47.04649" lon="6.22039">
        <ele>669</ele>
        <time>2015-10-04T09:28:41Z</time>
      </trkpt>
      <trkpt lat="47.04647" lon="6.22052">
        <ele>670</ele>
        <time>2015-10-04T09:29:09Z</time>
      </trkpt>
      <trkpt lat="47.04653" lon="6.22043">
        <ele>668</ele>
        <time>2015-10-04T09:33:12Z</time>
      </trkpt>
      <trkpt lat="47.04645" lon="6.22048">
        <ele>670</ele>
        <time>2015-10-04T09:35:31Z</time>
      </trkpt>
      <trkpt lat="47.04641" lon="6.22057">
        <ele>673</ele>
        <time>2015-10-04T09:38:37Z</time>
      </trkpt>
      <trkpt lat="47.04636" lon="6.22066">
        <ele>672</ele>
        <time>2015-10-04T09:38:41Z</time>
      </trkpt>
      <trkpt lat="47.04628" lon="6.22078">
        <ele>672</ele>
        <time>2015-10-04T09:38:46Z</time>
      </trkpt>
      <trkpt lat="47.04618" lon="6.22088">
        <ele>671</ele>
        <time>2015-10-04T09:38:50Z</time>
      </trkpt>
      <trkpt lat="47.04606" lon="6.22098">
        <ele>671</ele>
        <time>2015-10-04T09:38:54Z</time>
      </trkpt>
      <trkpt lat="47.04588" lon="6.22113">
        <ele>671</ele>
        <time>2015-10-04T09:38:59Z</time>
      </trkpt>
      <trkpt lat="47.04568" lon="6.22127">
        <ele>671</ele>
        <time>2015-10-04T09:39:04Z</time>
      </trkpt>
      <trkpt lat="47.04554" lon="6.22138">
        <ele>671</ele>
        <time>2015-10-04T09:39:08Z</time>
      </trkpt>
      <trkpt lat="47.04538" lon="6.22151">
        <ele>671</ele>
        <time>2015-10-04T09:39:13Z</time>
      </trkpt>
      <trkpt lat="47.04527" lon="6.22161">
        <ele>673</ele>
        <time>2015-10-04T09:39:17Z</time>
      </trkpt>
      <trkpt lat="47.04512" lon="6.22174">
        <ele>673</ele>
        <time>2015-10-04T09:39:22Z</time>
      </trkpt>
      <trkpt lat="47.04502" lon="6.22185">
        <ele>675</ele>
        <time>2015-10-04T09:39:26Z</time>
      </trkpt>
      <trkpt lat="47.04489" lon="6.222">
        <ele>675</ele>
        <time>2015-10-04T09:39:31Z</time>
      </trkpt>
      <trkpt lat="47.04479" lon="6.22214">
        <ele>675</ele>
        <time>2015-10-04T09:39:35Z</time>
      </trkpt>
      <trkpt lat="47.04465" lon="6.22228">
        <ele>676</ele>
        <time>2015-10-04T09:39:40Z</time>
      </trkpt>
      <trkpt lat="47.04453" lon="6.22237">
        <ele>677</ele>
        <time>2015-10-04T09:39:44Z</time>
      </trkpt>
      <trkpt lat="47.0444" lon="6.22243">
        <ele>679</ele>
        <time>2015-10-04T09:39:49Z</time>
      </trkpt>
      <trkpt lat="47.0443" lon="6.22246">
        <ele>678</ele>
        <time>2015-10-04T09:39:53Z</time>
      </trkpt>
      <trkpt lat="47.04421" lon="6.22249">
        <ele>680</ele>
        <time>2015-10-04T09:39:57Z</time>
      </trkpt>
      <trkpt lat="47.04409" lon="6.22251">
        <ele>680</ele>
        <time>2015-10-04T09:40:02Z</time>
      </trkpt>
      <trkpt lat="47.044" lon="6.22254">
        <ele>681</ele>
        <time>2015-10-04T09:40:06Z</time>
      </trkpt>
      <trkpt lat="47.04391" lon="6.22257">
        <ele>682</ele>
        <time>2015-10-04T09:40:10Z</time>
      </trkpt>
      <trkpt lat="47.04383" lon="6.22262">
        <ele>684</ele>
        <time>2015-10-04T09:40:14Z</time>
      </trkpt>
      <trkpt lat="47.04374" lon="6.22272">
        <ele>684</ele>
        <time>2015-10-04T09:40:19Z</time>
      </trkpt>
      <trkpt lat="47.04366" lon="6.2228">
        <ele>686</ele>
        <time>2015-10-04T09:40:23Z</time>
      </trkpt>
      <trkpt lat="47.04358" lon="6.22289">
        <ele>687</ele>
        <time>2015-10-04T09:40:28Z</time>
      </trkpt>
      <trkpt lat="47.04351" lon="6.22296">
        <ele>687</ele>
        <time>2015-10-04T09:40:32Z</time>
      </trkpt>
      <trkpt lat="47.04344" lon="6.22302">
        <ele>688</ele>
        <time>2015-10-04T09:40:36Z</time>
      </trkpt>
      <trkpt lat="47.04337" lon="6.22308">
        <ele>688</ele>
        <time>2015-10-04T09:40:40Z</time>
      </trkpt>
      <trkpt lat="47.0433" lon="6.22315">
        <ele>689</ele>
        <time>2015-10-04T09:40:44Z</time>
      </trkpt>
      <trkpt lat="47.04323" lon="6.22322">
        <ele>689</ele>
        <time>2015-10-04T09:40:48Z</time>
      </trkpt>
      <trkpt lat="47.04314" lon="6.22328">
        <ele>687</ele>
        <time>2015-10-04T09:40:52Z</time>
      </trkpt>
      <trkpt lat="47.04303" lon="6.22338">
        <ele>689</ele>
        <time>2015-10-04T09:40:57Z</time>
      </trkpt>
      <trkpt lat="47.04294" lon="6.22346">
        <ele>690</ele>
        <time>2015-10-04T09:41:01Z</time>
      </trkpt>
      <trkpt lat="47.04285" lon="6.22353">
        <ele>690</ele>
        <time>2015-10-04T09:41:05Z</time>
      </trkpt>
      <trkpt lat="47.04276" lon="6.22362">
        <ele>690</ele>
        <time>2015-10-04T09:41:10Z</time>
      </trkpt>
      <trkpt lat="47.04268" lon="6.22368">
        <ele>693</ele>
        <time>2015-10-04T09:41:14Z</time>
      </trkpt>
      <trkpt lat="47.04259" lon="6.22376">
        <ele>695</ele>
        <time>2015-10-04T09:41:19Z</time>
      </trkpt>
      <trkpt lat="47.04251" lon="6.22381">
        <ele>695</ele>
        <time>2015-10-04T09:41:23Z</time>
      </trkpt>
      <trkpt lat="47.04241" lon="6.22388">
        <ele>696</ele>
        <time>2015-10-04T09:41:28Z</time>
      </trkpt>
      <trkpt lat="47.04233" lon="6.22392">
        <ele>695</ele>
        <time>2015-10-04T09:41:32Z</time>
      </trkpt>
      <trkpt lat="47.04226" lon="6.22396">
        <ele>694</ele>
        <time>2015-10-04T09:41:36Z</time>
      </trkpt>
      <trkpt lat="47.04219" lon="6.22402">
        <ele>696</ele>
        <time>2015-10-04T09:41:40Z</time>
      </trkpt>
      <trkpt lat="47.04211" lon="6.22408">
        <ele>698</ele>
        <time>2015-10-04T09:41:45Z</time>
      </trkpt>
      <trkpt lat="47.04203" lon="6.22416">
        <ele>698</ele>
        <time>2015-10-04T09:41:50Z</time>
      </trkpt>
      <trkpt lat="47.04197" lon="6.22423">
        <ele>701</ele>
        <time>2015-10-04T09:41:54Z</time>
      </trkpt>
      <trkpt lat="47.04189" lon="6.22431">
        <ele>702</ele>
        <time>2015-10-04T09:41:59Z</time>
      </trkpt>
      <trkpt lat="47.04181" lon="6.22439">
        <ele>702</ele>
        <time>2015-10-04T09:42:04Z</time>
      </trkpt>
      <trkpt lat="47.04174" lon="6.22447">
        <ele>704</ele>
        <time>2015-10-04T09:42:08Z</time>
      </trkpt>
      <trkpt lat="47.04167" lon="6.22454">
        <ele>703</ele>
        <time>2015-10-04T09:42:12Z</time>
      </trkpt>
      <trkpt lat="47.04161" lon="6.22463">
        <ele>705</ele>
        <time>2015-10-04T09:42:16Z</time>
      </trkpt>
      <trkpt lat="47.04156" lon="6.22471">
        <ele>706</ele>
        <time>2015-10-04T09:42:20Z</time>
      </trkpt>
      <trkpt lat="47.0415" lon="6.22481">
        <ele>709</ele>
        <time>2015-10-04T09:42:25Z</time>
      </trkpt>
      <trkpt lat="47.04144" lon="6.22491">
        <ele>710</ele>
        <time>2015-10-04T09:42:30Z</time>
      </trkpt>
      <trkpt lat="47.04137" lon="6.225">
        <ele>711</ele>
        <time>2015-10-04T09:42:34Z</time>
      </trkpt>
      <trkpt lat="47.04125" lon="6.22511">
        <ele>713</ele>
        <time>2015-10-04T09:42:39Z</time>
      </trkpt>
      <trkpt lat="47.04115" lon="6.22505">
        <ele>710</ele>
        <time>2015-10-04T09:42:43Z</time>
      </trkpt>
      <trkpt lat="47.04109" lon="6.22491">
        <ele>709</ele>
        <time>2015-10-04T09:42:47Z</time>
      </trkpt>
      <trkpt lat="47.04103" lon="6.22479">
        <ele>709</ele>
        <time>2015-10-04T09:42:51Z</time>
      </trkpt>
      <trkpt lat="47.04095" lon="6.2246">
        <ele>707</ele>
        <time>2015-10-04T09:42:56Z</time>
      </trkpt>
      <trkpt lat="47.04087" lon="6.22443">
        <ele>705</ele>
        <time>2015-10-04T09:43:00Z</time>
      </trkpt>
      <trkpt lat="47.04071" lon="6.22409">
        <ele>706</ele>
        <time>2015-10-04T09:43:05Z</time>
      </trkpt>
      <trkpt lat="47.04055" lon="6.22368">
        <ele>708</ele>
        <time>2015-10-04T09:43:10Z</time>
      </trkpt>
      <trkpt lat="47.04042" lon="6.2233">
        <ele>704</ele>
        <time>2015-10-04T09:43:14Z</time>
      </trkpt>
      <trkpt lat="47.04031" lon="6.22283">
        <ele>700</ele>
        <time>2015-10-04T09:43:19Z</time>
      </trkpt>
      <trkpt lat="47.04027" lon="6.22253">
        <ele>697</ele>
        <time>2015-10-04T09:43:23Z</time>
      </trkpt>
      <trkpt lat="47.04014" lon="6.22233">
        <ele>695</ele>
        <time>2015-10-04T09:43:28Z</time>
      </trkpt>
      <trkpt lat="47.03997" lon="6.22239">
        <ele>692</ele>
        <time>2015-10-04T09:43:32Z</time>
      </trkpt>
      <trkpt lat="47.03978" lon="6.22246">
        <ele>690</ele>
        <time>2015-10-04T09:43:36Z</time>
      </trkpt>
      <trkpt lat="47.03947" lon="6.22254">
        <ele>689</ele>
        <time>2015-10-04T09:43:41Z</time>
      </trkpt>
      <trkpt lat="47.03921" lon="6.22266">
        <ele>688</ele>
        <time>2015-10-04T09:43:45Z</time>
      </trkpt>
      <trkpt lat="47.03897" lon="6.22277">
        <ele>688</ele>
        <time>2015-10-04T09:43:49Z</time>
      </trkpt>
      <trkpt lat="47.03877" lon="6.22291">
        <ele>689</ele>
        <time>2015-10-04T09:43:53Z</time>
      </trkpt>
      <trkpt lat="47.03849" lon="6.22311">
        <ele>687</ele>
        <time>2015-10-04T09:43:58Z</time>
      </trkpt>
      <trkpt lat="47.03824" lon="6.22319">
        <ele>687</ele>
        <time>2015-10-04T09:44:02Z</time>
      </trkpt>
      <trkpt lat="47.03804" lon="6.22328">
        <ele>686</ele>
        <time>2015-10-04T09:44:06Z</time>
      </trkpt>
      <trkpt lat="47.03785" lon="6.22335">
        <ele>687</ele>
        <time>2015-10-04T09:44:10Z</time>
      </trkpt>
      <trkpt lat="47.03767" lon="6.22344">
        <ele>687</ele>
        <time>2015-10-04T09:44:14Z</time>
      </trkpt>
      <trkpt lat="47.03752" lon="6.22347">
        <ele>688</ele>
        <time>2015-10-04T09:44:18Z</time>
      </trkpt>
      <trkpt lat="47.03735" lon="6.22347">
        <ele>687</ele>
        <time>2015-10-04T09:44:22Z</time>
      </trkpt>
      <trkpt lat="47.03712" lon="6.2235">
        <ele>688</ele>
        <time>2015-10-04T09:44:27Z</time>
      </trkpt>
      <trkpt lat="47.03693" lon="6.22354">
        <ele>688</ele>
        <time>2015-10-04T09:44:31Z</time>
      </trkpt>
      <trkpt lat="47.03674" lon="6.22367">
        <ele>690</ele>
        <time>2015-10-04T09:44:36Z</time>
      </trkpt>
      <trkpt lat="47.03657" lon="6.22379">
        <ele>690</ele>
        <time>2015-10-04T09:44:40Z</time>
      </trkpt>
      <trkpt lat="47.03639" lon="6.2239">
        <ele>692</ele>
        <time>2015-10-04T09:44:44Z</time>
      </trkpt>
      <trkpt lat="47.03621" lon="6.224">
        <ele>691</ele>
        <time>2015-10-04T09:44:48Z</time>
      </trkpt>
      <trkpt lat="47.03602" lon="6.2241">
        <ele>691</ele>
        <time>2015-10-04T09:44:52Z</time>
      </trkpt>
      <trkpt lat="47.03578" lon="6.22424">
        <ele>692</ele>
        <time>2015-10-04T09:44:57Z</time>
      </trkpt>
      <trkpt lat="47.03556" lon="6.22433">
        <ele>692</ele>
        <time>2015-10-04T09:45:01Z</time>
      </trkpt>
      <trkpt lat="47.03529" lon="6.22447">
        <ele>692</ele>
        <time>2015-10-04T09:45:06Z</time>
      </trkpt>
      <trkpt lat="47.03506" lon="6.22456">
        <ele>690</ele>
        <time>2015-10-04T09:45:10Z</time>
      </trkpt>
      <trkpt lat="47.03479" lon="6.22464">
        <ele>689</ele>
        <time>2015-10-04T09:45:15Z</time>
      </trkpt>
      <trkpt lat="47.03448" lon="6.22471">
        <ele>688</ele>
        <time>2015-10-04T09:45:20Z</time>
      </trkpt>
      <trkpt lat="47.03418" lon="6.22481">
        <ele>685</ele>
        <time>2015-10-04T09:45:24Z</time>
      </trkpt>
      <trkpt lat="47.03384" lon="6.22492">
        <ele>685</ele>
        <time>2015-10-04T09:45:28Z</time>
      </trkpt>
      <trkpt lat="47.03351" lon="6.22507">
        <ele>682</ele>
        <time>2015-10-04T09:45:32Z</time>
      </trkpt>
      <trkpt lat="47.03306" lon="6.22514">
        <ele>678</ele>
        <time>2015-10-04T09:45:37Z</time>
      </trkpt>
      <trkpt lat="47.03266" lon="6.22518">
        <ele>675</ele>
        <time>2015-10-04T09:45:42Z</time>
      </trkpt>
      <trkpt lat="47.03225" lon="6.22513">
        <ele>671</ele>
        <time>2015-10-04T09:45:47Z</time>
      </trkpt>
      <trkpt lat="47.03196" lon="6.22516">
        <ele>668</ele>
        <time>2015-10-04T09:45:51Z</time>
      </trkpt>
      <trkpt lat="47.03165" lon="6.22522">
        <ele>667</ele>
        <time>2015-10-04T09:45:55Z</time>
      </trkpt>
      <trkpt lat="47.03128" lon="6.22536">
        <ele>664</ele>
        <time>2015-10-04T09:45:59Z</time>
      </trkpt>
      <trkpt lat="47.03075" lon="6.22562">
        <ele>661</ele>
        <time>2015-10-04T09:46:04Z</time>
      </trkpt>
      <trkpt lat="47.0304" lon="6.22596">
        <ele>661</ele>
        <time>2015-10-04T09:46:09Z</time>
      </trkpt>
      <trkpt lat="47.03019" lon="6.22616">
        <ele>660</ele>
        <time>2015-10-04T09:46:14Z</time>
      </trkpt>
      <trkpt lat="47.03009" lon="6.22631">
        <ele>661</ele>
        <time>2015-10-04T09:46:18Z</time>
      </trkpt>
      <trkpt lat="47.03002" lon="6.22652">
        <ele>663</ele>
        <time>2015-10-04T09:46:22Z</time>
      </trkpt>
      <trkpt lat="47.02986" lon="6.2266">
        <ele>662</ele>
        <time>2015-10-04T09:46:26Z</time>
      </trkpt>
      <trkpt lat="47.02965" lon="6.22682">
        <ele>661</ele>
        <time>2015-10-04T09:46:31Z</time>
      </trkpt>
      <trkpt lat="47.02949" lon="6.22701">
        <ele>660</ele>
        <time>2015-10-04T09:46:35Z</time>
      </trkpt>
      <trkpt lat="47.0295" lon="6.22721">
        <ele>660</ele>
        <time>2015-10-04T09:46:39Z</time>
      </trkpt>
      <trkpt lat="47.02962" lon="6.22745">
        <ele>659</ele>
        <time>2015-10-04T09:46:44Z</time>
      </trkpt>
      <trkpt lat="47.02975" lon="6.22769">
        <ele>659</ele>
        <time>2015-10-04T09:46:49Z</time>
      </trkpt>
      <trkpt lat="47.02983" lon="6.22787">
        <ele>660</ele>
        <time>2015-10-04T09:46:53Z</time>
      </trkpt>
      <trkpt lat="47.02995" lon="6.22809">
        <ele>661</ele>
        <time>2015-10-04T09:46:58Z</time>
      </trkpt>
      <trkpt lat="47.03012" lon="6.22809">
        <ele>661</ele>
        <time>2015-10-04T09:47:02Z</time>
      </trkpt>
      <trkpt lat="47.03032" lon="6.22806">
        <ele>662</ele>
        <time>2015-10-04T09:47:07Z</time>
      </trkpt>
      <trkpt lat="47.03043" lon="6.22813">
        <ele>665</ele>
        <time>2015-10-04T09:47:11Z</time>
      </trkpt>
      <trkpt lat="47.03052" lon="6.22838">
        <ele>668</ele>
        <time>2015-10-04T09:47:16Z</time>
      </trkpt>
      <trkpt lat="47.03056" lon="6.22856">
        <ele>670</ele>
        <time>2015-10-04T09:47:20Z</time>
      </trkpt>
      <trkpt lat="47.03064" lon="6.22875">
        <ele>669</ele>
        <time>2015-10-04T09:47:24Z</time>
      </trkpt>
      <trkpt lat="47.03072" lon="6.22892">
        <ele>669</ele>
        <time>2015-10-04T09:47:28Z</time>
      </trkpt>
      <trkpt lat="47.0308" lon="6.22908">
        <ele>668</ele>
        <time>2015-10-04T09:47:32Z</time>
      </trkpt>
      <trkpt lat="47.03091" lon="6.22927">
        <ele>669</ele>
        <time>2015-10-04T09:47:37Z</time>
      </trkpt>
      <trkpt lat="47.03099" lon="6.22942">
        <ele>668</ele>
        <time>2015-10-04T09:47:41Z</time>
      </trkpt>
      <trkpt lat="47.03107" lon="6.22955">
        <ele>669</ele>
        <time>2015-10-04T09:47:45Z</time>
      </trkpt>
      <trkpt lat="47.03115" lon="6.22966">
        <ele>673</ele>
        <time>2015-10-04T09:47:49Z</time>
      </trkpt>
      <trkpt lat="47.03116" lon="6.22979">
        <ele>674</ele>
        <time>2015-10-04T09:47:53Z</time>
      </trkpt>
      <trkpt lat="47.03105" lon="6.22991">
        <ele>673</ele>
        <time>2015-10-04T09:47:58Z</time>
      </trkpt>
      <trkpt lat="47.03096" lon="6.22999">
        <ele>673</ele>
        <time>2015-10-04T09:48:02Z</time>
      </trkpt>
      <trkpt lat="47.03084" lon="6.23011">
        <ele>674</ele>
        <time>2015-10-04T09:48:07Z</time>
      </trkpt>
      <trkpt lat="47.03076" lon="6.2302">
        <ele>675</ele>
        <time>2015-10-04T09:48:11Z</time>
      </trkpt>
      <trkpt lat="47.03067" lon="6.23027">
        <ele>675</ele>
        <time>2015-10-04T09:48:15Z</time>
      </trkpt>
      <trkpt lat="47.03055" lon="6.23034">
        <ele>675</ele>
        <time>2015-10-04T09:48:20Z</time>
      </trkpt>
      <trkpt lat="47.03044" lon="6.2304">
        <ele>676</ele>
        <time>2015-10-04T09:48:25Z</time>
      </trkpt>
      <trkpt lat="47.03036" lon="6.23042">
        <ele>676</ele>
        <time>2015-10-04T09:48:30Z</time>
      </trkpt>
      <trkpt lat="47.0303" lon="6.23049">
        <ele>679</ele>
        <time>2015-10-04T09:48:34Z</time>
      </trkpt>
      <trkpt lat="47.03023" lon="6.23058">
        <ele>681</ele>
        <time>2015-10-04T09:48:39Z</time>
      </trkpt>
      <trkpt lat="47.03016" lon="6.23064">
        <ele>684</ele>
        <time>2015-10-04T09:48:44Z</time>
      </trkpt>
      <trkpt lat="47.03009" lon="6.2307">
        <ele>686</ele>
        <time>2015-10-04T09:48:49Z</time>
      </trkpt>
      <trkpt lat="47.03003" lon="6.2308">
        <ele>686</ele>
        <time>2015-10-04T09:48:53Z</time>
      </trkpt>
      <trkpt lat="47.03" lon="6.23091">
        <ele>690</ele>
        <time>2015-10-04T09:48:58Z</time>
      </trkpt>
      <trkpt lat="47.02996" lon="6.23101">
        <ele>692</ele>
        <time>2015-10-04T09:49:04Z</time>
      </trkpt>
      <trkpt lat="47.02993" lon="6.23111">
        <ele>694</ele>
        <time>2015-10-04T09:49:09Z</time>
      </trkpt>
      <trkpt lat="47.02993" lon="6.23124">
        <ele>696</ele>
        <time>2015-10-04T09:49:17Z</time>
      </trkpt>
      <trkpt lat="47.02996" lon="6.23135">
        <ele>694</ele>
        <time>2015-10-04T09:49:25Z</time>
      </trkpt>
      <trkpt lat="47.03001" lon="6.23145">
        <ele>693</ele>
        <time>2015-10-04T09:49:34Z</time>
      </trkpt>
      <trkpt lat="47.03008" lon="6.23154">
        <ele>696</ele>
        <time>2015-10-04T09:49:41Z</time>
      </trkpt>
      <trkpt lat="47.03012" lon="6.23165">
        <ele>694</ele>
        <time>2015-10-04T09:49:46Z</time>
      </trkpt>
      <trkpt lat="47.03016" lon="6.23175">
        <ele>698</ele>
        <time>2015-10-04T09:49:51Z</time>
      </trkpt>
      <trkpt lat="47.03022" lon="6.23192">
        <ele>697</ele>
        <time>2015-10-04T09:49:56Z</time>
      </trkpt>
      <trkpt lat="47.03029" lon="6.23201">
        <ele>697</ele>
        <time>2015-10-04T09:50:00Z</time>
      </trkpt>
      <trkpt lat="47.03033" lon="6.23212">
        <ele>696</ele>
        <time>2015-10-04T09:50:04Z</time>
      </trkpt>
      <trkpt lat="47.03031" lon="6.23224">
        <ele>695</ele>
        <time>2015-10-04T09:50:09Z</time>
      </trkpt>
      <trkpt lat="47.03022" lon="6.23225">
        <ele>700</ele>
        <time>2015-10-04T09:50:16Z</time>
      </trkpt>
      <trkpt lat="47.03014" lon="6.23229">
        <ele>698</ele>
        <time>2015-10-04T09:50:24Z</time>
      </trkpt>
      <trkpt lat="47.03005" lon="6.23227">
        <ele>699</ele>
        <time>2015-10-04T09:50:32Z</time>
      </trkpt>
      <trkpt lat="47.02999" lon="6.23236">
        <ele>702</ele>
        <time>2015-10-04T09:50:43Z</time>
      </trkpt>
      <trkpt lat="47.02991" lon="6.23236">
        <ele>704</ele>
        <time>2015-10-04T09:50:51Z</time>
      </trkpt>
      <trkpt lat="47.02982" lon="6.23234">
        <ele>706</ele>
        <time>2015-10-04T09:50:58Z</time>
      </trkpt>
      <trkpt lat="47.02974" lon="6.23234">
        <ele>704</ele>
        <time>2015-10-04T09:51:05Z</time>
      </trkpt>
      <trkpt lat="47.02967" lon="6.2323">
        <ele>705</ele>
        <time>2015-10-04T09:51:11Z</time>
      </trkpt>
      <trkpt lat="47.02958" lon="6.23223">
        <ele>706</ele>
        <time>2015-10-04T09:51:16Z</time>
      </trkpt>
      <trkpt lat="47.02951" lon="6.23216">
        <ele>712</ele>
        <time>2015-10-04T09:51:21Z</time>
      </trkpt>
      <trkpt lat="47.02943" lon="6.23208">
        <ele>716</ele>
        <time>2015-10-04T09:51:26Z</time>
      </trkpt>
      <trkpt lat="47.02938" lon="6.23198">
        <ele>719</ele>
        <time>2015-10-04T09:51:32Z</time>
      </trkpt>
      <trkpt lat="47.02932" lon="6.23192">
        <ele>719</ele>
        <time>2015-10-04T09:51:38Z</time>
      </trkpt>
      <trkpt lat="47.02926" lon="6.23185">
        <ele>723</ele>
        <time>2015-10-04T09:51:44Z</time>
      </trkpt>
      <trkpt lat="47.0292" lon="6.23176">
        <ele>721</ele>
        <time>2015-10-04T09:51:49Z</time>
      </trkpt>
      <trkpt lat="47.02913" lon="6.23169">
        <ele>721</ele>
        <time>2015-10-04T09:51:55Z</time>
      </trkpt>
      <trkpt lat="47.02909" lon="6.23159">
        <ele>725</ele>
        <time>2015-10-04T09:52:01Z</time>
      </trkpt>
      <trkpt lat="47.02905" lon="6.23147">
        <ele>727</ele>
        <time>2015-10-04T09:52:08Z</time>
      </trkpt>
      <trkpt lat="47.02898" lon="6.23141">
        <ele>728</ele>
        <time>2015-10-04T09:52:16Z</time>
      </trkpt>
      <trkpt lat="47.0289" lon="6.23137">
        <ele>732</ele>
        <time>2015-10-04T09:52:24Z</time>
      </trkpt>
      <trkpt lat="47.02882" lon="6.23133">
        <ele>734</ele>
        <time>2015-10-04T09:52:31Z</time>
      </trkpt>
      <trkpt lat="47.02875" lon="6.23129">
        <ele>737</ele>
        <time>2015-10-04T09:52:40Z</time>
      </trkpt>
      <trkpt lat="47.02868" lon="6.23122">
        <ele>738</ele>
        <time>2015-10-04T09:52:47Z</time>
      </trkpt>
      <trkpt lat="47.02861" lon="6.23116">
        <ele>741</ele>
        <time>2015-10-04T09:52:53Z</time>
      </trkpt>
      <trkpt lat="47.02854" lon="6.23109">
        <ele>743</ele>
        <time>2015-10-04T09:52:59Z</time>
      </trkpt>
      <trkpt lat="47.02846" lon="6.23107">
        <ele>744</ele>
        <time>2015-10-04T09:53:06Z</time>
      </trkpt>
      <trkpt lat="47.02838" lon="6.23105">
        <ele>744</ele>
        <time>2015-10-04T09:53:12Z</time>
      </trkpt>
      <trkpt lat="47.0283" lon="6.23103">
        <ele>742</ele>
        <time>2015-10-04T09:53:17Z</time>
      </trkpt>
      <trkpt lat="47.02822" lon="6.23103">
        <ele>741</ele>
        <time>2015-10-04T09:53:21Z</time>
      </trkpt>
      <trkpt lat="47.02813" lon="6.23101">
        <ele>740</ele>
        <time>2015-10-04T09:53:26Z</time>
      </trkpt>
      <trkpt lat="47.02806" lon="6.23096">
        <ele>742</ele>
        <time>2015-10-04T09:53:30Z</time>
      </trkpt>
      <trkpt lat="47.02799" lon="6.2309">
        <ele>742</ele>
        <time>2015-10-04T09:53:35Z</time>
      </trkpt>
      <trkpt lat="47.0279" lon="6.23082">
        <ele>745</ele>
        <time>2015-10-04T09:53:39Z</time>
      </trkpt>
      <trkpt lat="47.0278" lon="6.23075">
        <ele>747</ele>
        <time>2015-10-04T09:53:44Z</time>
      </trkpt>
      <trkpt lat="47.0277" lon="6.23068">
        <ele>746</ele>
        <time>2015-10-04T09:53:49Z</time>
      </trkpt>
      <trkpt lat="47.02763" lon="6.23063">
        <ele>745</ele>
        <time>2015-10-04T09:53:53Z</time>
      </trkpt>
      <trkpt lat="47.02755" lon="6.23055">
        <ele>746</ele>
        <time>2015-10-04T09:53:57Z</time>
      </trkpt>
      <trkpt lat="47.02744" lon="6.23043">
        <ele>743</ele>
        <time>2015-10-04T09:54:02Z</time>
      </trkpt>
      <trkpt lat="47.02737" lon="6.23034">
        <ele>744</ele>
        <time>2015-10-04T09:54:06Z</time>
      </trkpt>
      <trkpt lat="47.0273" lon="6.23022">
        <ele>747</ele>
        <time>2015-10-04T09:54:10Z</time>
      </trkpt>
      <trkpt lat="47.02722" lon="6.2301">
        <ele>751</ele>
        <time>2015-10-04T09:54:15Z</time>
      </trkpt>
      <trkpt lat="47.02713" lon="6.23007">
        <ele>751</ele>
        <time>2015-10-04T09:54:19Z</time>
      </trkpt>
      <trkpt lat="47.0271" lon="6.2302">
        <ele>749</ele>
        <time>2015-10-04T09:54:24Z</time>
      </trkpt>
      <trkpt lat="47.02714" lon="6.23032">
        <ele>752</ele>
        <time>2015-10-04T09:54:28Z</time>
      </trkpt>
      <trkpt lat="47.02722" lon="6.23044">
        <ele>753</ele>
        <time>2015-10-04T09:54:33Z</time>
      </trkpt>
      <trkpt lat="47.02731" lon="6.23057">
        <ele>753</ele>
        <time>2015-10-04T09:54:38Z</time>
      </trkpt>
      <trkpt lat="47.02737" lon="6.23066">
        <ele>753</ele>
        <time>2015-10-04T09:54:42Z</time>
      </trkpt>
      <trkpt lat="47.02744" lon="6.23075">
        <ele>756</ele>
        <time>2015-10-04T09:54:46Z</time>
      </trkpt>
      <trkpt lat="47.02752" lon="6.23086">
        <ele>758</ele>
        <time>2015-10-04T09:54:50Z</time>
      </trkpt>
      <trkpt lat="47.0276" lon="6.23095">
        <ele>757</ele>
        <time>2015-10-04T09:54:54Z</time>
      </trkpt>
      <trkpt lat="47.02772" lon="6.23107">
        <ele>757</ele>
        <time>2015-10-04T09:54:59Z</time>
      </trkpt>
      <trkpt lat="47.02781" lon="6.2312">
        <ele>758</ele>
        <time>2015-10-04T09:55:04Z</time>
      </trkpt>
      <trkpt lat="47.02787" lon="6.23131">
        <ele>756</ele>
        <time>2015-10-04T09:55:08Z</time>
      </trkpt>
      <trkpt lat="47.02794" lon="6.23145">
        <ele>758</ele>
        <time>2015-10-04T09:55:13Z</time>
      </trkpt>
      <trkpt lat="47.028" lon="6.23155">
        <ele>759</ele>
        <time>2015-10-04T09:55:17Z</time>
      </trkpt>
      <trkpt lat="47.02806" lon="6.23167">
        <ele>759</ele>
        <time>2015-10-04T09:55:21Z</time>
      </trkpt>
      <trkpt lat="47.02816" lon="6.23178">
        <ele>762</ele>
        <time>2015-10-04T09:55:26Z</time>
      </trkpt>
      <trkpt lat="47.02824" lon="6.23194">
        <ele>761</ele>
        <time>2015-10-04T09:55:31Z</time>
      </trkpt>
      <trkpt lat="47.0283" lon="6.23206">
        <ele>761</ele>
        <time>2015-10-04T09:55:35Z</time>
      </trkpt>
      <trkpt lat="47.02837" lon="6.2322">
        <ele>761</ele>
        <time>2015-10-04T09:55:39Z</time>
      </trkpt>
      <trkpt lat="47.02842" lon="6.23239">
        <ele>760</ele>
        <time>2015-10-04T09:55:44Z</time>
      </trkpt>
      <trkpt lat="47.02852" lon="6.23265">
        <ele>761</ele>
        <time>2015-10-04T09:55:49Z</time>
      </trkpt>
      <trkpt lat="47.02867" lon="6.23287">
        <ele>762</ele>
        <time>2015-10-04T09:55:54Z</time>
      </trkpt>
      <trkpt lat="47.02878" lon="6.23305">
        <ele>758</ele>
        <time>2015-10-04T09:55:58Z</time>
      </trkpt>
      <trkpt lat="47.02888" lon="6.23324">
        <ele>762</ele>
        <time>2015-10-04T09:56:03Z</time>
      </trkpt>
      <trkpt lat="47.02898" lon="6.23343">
        <ele>762</ele>
        <time>2015-10-04T09:56:08Z</time>
      </trkpt>
      <trkpt lat="47.02906" lon="6.23361">
        <ele>762</ele>
        <time>2015-10-04T09:56:12Z</time>
      </trkpt>
      <trkpt lat="47.02916" lon="6.23377">
        <ele>764</ele>
        <time>2015-10-04T09:56:16Z</time>
      </trkpt>
      <trkpt lat="47.02929" lon="6.23395">
        <ele>764</ele>
        <time>2015-10-04T09:56:21Z</time>
      </trkpt>
      <trkpt lat="47.02938" lon="6.23407">
        <ele>765</ele>
        <time>2015-10-04T09:56:25Z</time>
      </trkpt>
      <trkpt lat="47.02945" lon="6.2342">
        <ele>765</ele>
        <time>2015-10-04T09:56:29Z</time>
      </trkpt>
      <trkpt lat="47.02953" lon="6.23438">
        <ele>766</ele>
        <time>2015-10-04T09:56:34Z</time>
      </trkpt>
      <trkpt lat="47.0296" lon="6.23459">
        <ele>765</ele>
        <time>2015-10-04T09:56:39Z</time>
      </trkpt>
      <trkpt lat="47.02966" lon="6.23475">
        <ele>766</ele>
        <time>2015-10-04T09:56:43Z</time>
      </trkpt>
      <trkpt lat="47.02974" lon="6.23495">
        <ele>766</ele>
        <time>2015-10-04T09:56:48Z</time>
      </trkpt>
      <trkpt lat="47.02981" lon="6.23513">
        <ele>765</ele>
        <time>2015-10-04T09:56:53Z</time>
      </trkpt>
      <trkpt lat="47.02987" lon="6.23528">
        <ele>765</ele>
        <time>2015-10-04T09:56:57Z</time>
      </trkpt>
      <trkpt lat="47.02994" lon="6.23541">
        <ele>765</ele>
        <time>2015-10-04T09:57:01Z</time>
      </trkpt>
      <trkpt lat="47.02999" lon="6.23557">
        <ele>764</ele>
        <time>2015-10-04T09:57:06Z</time>
      </trkpt>
      <trkpt lat="47.03001" lon="6.23568">
        <ele>765</ele>
        <time>2015-10-04T09:57:11Z</time>
      </trkpt>
      <trkpt lat="47.02992" lon="6.23571">
        <ele>769</ele>
        <time>2015-10-04T09:58:11Z</time>
      </trkpt>
      <trkpt lat="47.03001" lon="6.23575">
        <ele>770</ele>
        <time>2015-10-04T10:03:20Z</time>
      </trkpt>
      <trkpt lat="47.03" lon="6.23562">
        <ele>771</ele>
        <time>2015-10-04T10:08:42Z</time>
      </trkpt>
      <trkpt lat="47.03008" lon="6.23561">
        <ele>770</ele>
        <time>2015-10-04T10:08:47Z</time>
      </trkpt>
      <trkpt lat="47.03018" lon="6.23563">
        <ele>771</ele>
        <time>2015-10-04T10:08:52Z</time>
      </trkpt>
      <trkpt lat="47.03026" lon="6.23569">
        <ele>772</ele>
        <time>2015-10-04T10:08:57Z</time>
      </trkpt>
      <trkpt lat="47.03032" lon="6.23577">
        <ele>768</ele>
        <time>2015-10-04T10:09:01Z</time>
      </trkpt>
      <trkpt lat="47.03036" lon="6.23589">
        <ele>770</ele>
        <time>2015-10-04T10:09:05Z</time>
      </trkpt>
      <trkpt lat="47.03041" lon="6.23606">
        <ele>766</ele>
        <time>2015-10-04T10:09:10Z</time>
      </trkpt>
      <trkpt lat="47.03048" lon="6.23617">
        <ele>767</ele>
        <time>2015-10-04T10:09:14Z</time>
      </trkpt>
      <trkpt lat="47.03055" lon="6.23627">
        <ele>768</ele>
        <time>2015-10-04T10:09:18Z</time>
      </trkpt>
      <trkpt lat="47.03062" lon="6.23641">
        <ele>770</ele>
        <time>2015-10-04T10:09:23Z</time>
      </trkpt>
      <trkpt lat="47.03069" lon="6.23652">
        <ele>772</ele>
        <time>2015-10-04T10:09:27Z</time>
      </trkpt>
      <trkpt lat="47.03075" lon="6.23664">
        <ele>771</ele>
        <time>2015-10-04T10:09:31Z</time>
      </trkpt>
      <trkpt lat="47.03083" lon="6.23679">
        <ele>773</ele>
        <time>2015-10-04T10:09:36Z</time>
      </trkpt>
      <trkpt lat="47.03089" lon="6.23689">
        <ele>773</ele>
        <time>2015-10-04T10:09:40Z</time>
      </trkpt>
      <trkpt lat="47.03095" lon="6.23704">
        <ele>773</ele>
        <time>2015-10-04T10:09:45Z</time>
      </trkpt>
      <trkpt lat="47.03099" lon="6.23717">
        <ele>772</ele>
        <time>2015-10-04T10:09:49Z</time>
      </trkpt>
      <trkpt lat="47.03105" lon="6.23734">
        <ele>769</ele>
        <time>2015-10-04T10:09:53Z</time>
      </trkpt>
      <trkpt lat="47.0311" lon="6.23761">
        <ele>769</ele>
        <time>2015-10-04T10:09:58Z</time>
      </trkpt>
      <trkpt lat="47.03116" lon="6.23788">
        <ele>768</ele>
        <time>2015-10-04T10:10:03Z</time>
      </trkpt>
      <trkpt lat="47.03121" lon="6.23808">
        <ele>769</ele>
        <time>2015-10-04T10:10:07Z</time>
      </trkpt>
      <trkpt lat="47.03128" lon="6.23839">
        <ele>766</ele>
        <time>2015-10-04T10:10:12Z</time>
      </trkpt>
      <trkpt lat="47.03137" lon="6.23876">
        <ele>764</ele>
        <time>2015-10-04T10:10:17Z</time>
      </trkpt>
      <trkpt lat="47.03139" lon="6.23897">
        <ele>764</ele>
        <time>2015-10-04T10:10:21Z</time>
      </trkpt>
      <trkpt lat="47.03149" lon="6.23925">
        <ele>762</ele>
        <time>2015-10-04T10:10:26Z</time>
      </trkpt>
      <trkpt lat="47.03157" lon="6.23949">
        <ele>762</ele>
        <time>2015-10-04T10:10:30Z</time>
      </trkpt>
      <trkpt lat="47.03167" lon="6.23971">
        <ele>762</ele>
        <time>2015-10-04T10:10:34Z</time>
      </trkpt>
      <trkpt lat="47.0318" lon="6.23991">
        <ele>760</ele>
        <time>2015-10-04T10:10:38Z</time>
      </trkpt>
      <trkpt lat="47.0319" lon="6.24014">
        <ele>761</ele>
        <time>2015-10-04T10:10:42Z</time>
      </trkpt>
      <trkpt lat="47.03199" lon="6.24038">
        <ele>760</ele>
        <time>2015-10-04T10:10:47Z</time>
      </trkpt>
      <trkpt lat="47.03202" lon="6.24058">
        <ele>759</ele>
        <time>2015-10-04T10:10:51Z</time>
      </trkpt>
      <trkpt lat="47.03212" lon="6.24087">
        <ele>756</ele>
        <time>2015-10-04T10:10:55Z</time>
      </trkpt>
      <trkpt lat="47.03223" lon="6.24122">
        <ele>753</ele>
        <time>2015-10-04T10:10:59Z</time>
      </trkpt>
      <trkpt lat="47.03247" lon="6.24177">
        <ele>749</ele>
        <time>2015-10-04T10:11:04Z</time>
      </trkpt>
      <trkpt lat="47.03263" lon="6.2422">
        <ele>748</ele>
        <time>2015-10-04T10:11:09Z</time>
      </trkpt>
      <trkpt lat="47.03271" lon="6.24245">
        <ele>750</ele>
        <time>2015-10-04T10:11:13Z</time>
      </trkpt>
      <trkpt lat="47.03279" lon="6.24271">
        <ele>754</ele>
        <time>2015-10-04T10:11:18Z</time>
      </trkpt>
      <trkpt lat="47.03283" lon="6.24294">
        <ele>754</ele>
        <time>2015-10-04T10:11:22Z</time>
      </trkpt>
      <trkpt lat="47.03288" lon="6.2432">
        <ele>754</ele>
        <time>2015-10-04T10:11:27Z</time>
      </trkpt>
      <trkpt lat="47.03289" lon="6.24341">
        <ele>754</ele>
        <time>2015-10-04T10:11:31Z</time>
      </trkpt>
      <trkpt lat="47.03291" lon="6.24358">
        <ele>756</ele>
        <time>2015-10-04T10:11:35Z</time>
      </trkpt>
      <trkpt lat="47.03292" lon="6.24375">
        <ele>759</ele>
        <time>2015-10-04T10:11:40Z</time>
      </trkpt>
      <trkpt lat="47.03288" lon="6.24387">
        <ele>759</ele>
        <time>2015-10-04T10:11:44Z</time>
      </trkpt>
      <trkpt lat="47.03283" lon="6.24396">
        <ele>760</ele>
        <time>2015-10-04T10:11:48Z</time>
      </trkpt>
      <trkpt lat="47.03276" lon="6.24405">
        <ele>763</ele>
        <time>2015-10-04T10:11:53Z</time>
      </trkpt>
      <trkpt lat="47.0327" lon="6.24416">
        <ele>766</ele>
        <time>2015-10-04T10:11:58Z</time>
      </trkpt>
      <trkpt lat="47.03265" lon="6.24424">
        <ele>767</ele>
        <time>2015-10-04T10:12:04Z</time>
      </trkpt>
      <trkpt lat="47.03263" lon="6.24436">
        <ele>767</ele>
        <time>2015-10-04T10:12:10Z</time>
      </trkpt>
      <trkpt lat="47.03257" lon="6.24445">
        <ele>769</ele>
        <time>2015-10-04T10:12:16Z</time>
      </trkpt>
      <trkpt lat="47.03253" lon="6.24455">
        <ele>771</ele>
        <time>2015-10-04T10:12:22Z</time>
      </trkpt>
      <trkpt lat="47.03249" lon="6.24465">
        <ele>772</ele>
        <time>2015-10-04T10:12:28Z</time>
      </trkpt>
      <trkpt lat="47.03244" lon="6.24473">
        <ele>772</ele>
        <time>2015-10-04T10:12:33Z</time>
      </trkpt>
      <trkpt lat="47.03239" lon="6.24483">
        <ele>772</ele>
        <time>2015-10-04T10:12:38Z</time>
      </trkpt>
      <trkpt lat="47.03236" lon="6.24493">
        <ele>771</ele>
        <time>2015-10-04T10:12:44Z</time>
      </trkpt>
      <trkpt lat="47.03233" lon="6.24504">
        <ele>773</ele>
        <time>2015-10-04T10:12:50Z</time>
      </trkpt>
      <trkpt lat="47.0323" lon="6.24514">
        <ele>775</ele>
        <time>2015-10-04T10:12:55Z</time>
      </trkpt>
      <trkpt lat="47.03227" lon="6.24526">
        <ele>776</ele>
        <time>2015-10-04T10:13:01Z</time>
      </trkpt>
      <trkpt lat="47.03224" lon="6.24538">
        <ele>776</ele>
        <time>2015-10-04T10:13:09Z</time>
      </trkpt>
      <trkpt lat="47.0322" lon="6.24553">
        <ele>776</ele>
        <time>2015-10-04T10:13:13Z</time>
      </trkpt>
      <trkpt lat="47.03212" lon="6.24564">
        <ele>777</ele>
        <time>2015-10-04T10:13:17Z</time>
      </trkpt>
      <trkpt lat="47.03205" lon="6.24577">
        <ele>778</ele>
        <time>2015-10-04T10:13:21Z</time>
      </trkpt>
      <trkpt lat="47.03199" lon="6.24593">
        <ele>779</ele>
        <time>2015-10-04T10:13:26Z</time>
      </trkpt>
      <trkpt lat="47.03194" lon="6.24606">
        <ele>778</ele>
        <time>2015-10-04T10:13:30Z</time>
      </trkpt>
      <trkpt lat="47.0319" lon="6.24619">
        <ele>780</ele>
        <time>2015-10-04T10:13:35Z</time>
      </trkpt>
      <trkpt lat="47.03187" lon="6.2463">
        <ele>781</ele>
        <time>2015-10-04T10:13:39Z</time>
      </trkpt>
      <trkpt lat="47.03183" lon="6.24645">
        <ele>782</ele>
        <time>2015-10-04T10:13:44Z</time>
      </trkpt>
      <trkpt lat="47.03178" lon="6.24657">
        <ele>783</ele>
        <time>2015-10-04T10:13:48Z</time>
      </trkpt>
      <trkpt lat="47.03173" lon="6.24669">
        <ele>783</ele>
        <time>2015-10-04T10:13:52Z</time>
      </trkpt>
      <trkpt lat="47.03168" lon="6.24683">
        <ele>785</ele>
        <time>2015-10-04T10:13:57Z</time>
      </trkpt>
      <trkpt lat="47.03165" lon="6.24695">
        <ele>785</ele>
        <time>2015-10-04T10:14:02Z</time>
      </trkpt>
      <trkpt lat="47.03162" lon="6.24706">
        <ele>783</ele>
        <time>2015-10-04T10:14:07Z</time>
      </trkpt>
      <trkpt lat="47.0316" lon="6.24717">
        <ele>787</ele>
        <time>2015-10-04T10:14:12Z</time>
      </trkpt>
      <trkpt lat="47.03156" lon="6.24729">
        <ele>789</ele>
        <time>2015-10-04T10:14:18Z</time>
      </trkpt>
      <trkpt lat="47.03152" lon="6.24739">
        <ele>790</ele>
        <time>2015-10-04T10:14:24Z</time>
      </trkpt>
      <trkpt lat="47.03148" lon="6.24749">
        <ele>791</ele>
        <time>2015-10-04T10:14:30Z</time>
      </trkpt>
      <trkpt lat="47.03143" lon="6.24759">
        <ele>792</ele>
        <time>2015-10-04T10:14:36Z</time>
      </trkpt>
      <trkpt lat="47.03137" lon="6.24768">
        <ele>791</ele>
        <time>2015-10-04T10:14:42Z</time>
      </trkpt>
      <trkpt lat="47.03132" lon="6.24778">
        <ele>793</ele>
        <time>2015-10-04T10:14:48Z</time>
      </trkpt>
      <trkpt lat="47.03128" lon="6.24789">
        <ele>796</ele>
        <time>2015-10-04T10:14:54Z</time>
      </trkpt>
      <trkpt lat="47.03124" lon="6.248">
        <ele>797</ele>
        <time>2015-10-04T10:15:02Z</time>
      </trkpt>
      <trkpt lat="47.03119" lon="6.24809">
        <ele>798</ele>
        <time>2015-10-04T10:15:09Z</time>
      </trkpt>
      <trkpt lat="47.03113" lon="6.24817">
        <ele>799</ele>
        <time>2015-10-04T10:15:16Z</time>
      </trkpt>
      <trkpt lat="47.03108" lon="6.24826">
        <ele>803</ele>
        <time>2015-10-04T10:15:23Z</time>
      </trkpt>
      <trkpt lat="47.03102" lon="6.24836">
        <ele>805</ele>
        <time>2015-10-04T10:15:30Z</time>
      </trkpt>
      <trkpt lat="47.03095" lon="6.24843">
        <ele>808</ele>
        <time>2015-10-04T10:15:38Z</time>
      </trkpt>
      <trkpt lat="47.03088" lon="6.24845">
        <ele>807</ele>
        <time>2015-10-04T10:15:44Z</time>
      </trkpt>
      <trkpt lat="47.03079" lon="6.24836">
        <ele>807</ele>
        <time>2015-10-04T10:15:49Z</time>
      </trkpt>
      <trkpt lat="47.03069" lon="6.24829">
        <ele>809</ele>
        <time>2015-10-04T10:15:53Z</time>
      </trkpt>
      <trkpt lat="47.03046" lon="6.24836">
        <ele>805</ele>
        <time>2015-10-04T10:15:58Z</time>
      </trkpt>
      <trkpt lat="47.03029" lon="6.24844">
        <ele>804</ele>
        <time>2015-10-04T10:16:03Z</time>
      </trkpt>
      <trkpt lat="47.0302" lon="6.24849">
        <ele>802</ele>
        <time>2015-10-04T10:16:07Z</time>
      </trkpt>
      <trkpt lat="47.03013" lon="6.24855">
        <ele>804</ele>
        <time>2015-10-04T10:16:11Z</time>
      </trkpt>
      <trkpt lat="47.03006" lon="6.24862">
        <ele>802</ele>
        <time>2015-10-04T10:16:16Z</time>
      </trkpt>
      <trkpt lat="47.03" lon="6.24869">
        <ele>803</ele>
        <time>2015-10-04T10:16:21Z</time>
      </trkpt>
      <trkpt lat="47.02992" lon="6.24874">
        <ele>804</ele>
        <time>2015-10-04T10:16:26Z</time>
      </trkpt>
      <trkpt lat="47.02985" lon="6.24881">
        <ele>807</ele>
        <time>2015-10-04T10:16:32Z</time>
      </trkpt>
      <trkpt lat="47.0298" lon="6.24889">
        <ele>808</ele>
        <time>2015-10-04T10:16:38Z</time>
      </trkpt>
      <trkpt lat="47.02973" lon="6.24898">
        <ele>814</ele>
        <time>2015-10-04T10:16:46Z</time>
      </trkpt>
      <trkpt lat="47.02968" lon="6.24909">
        <ele>818</ele>
        <time>2015-10-04T10:17:06Z</time>
      </trkpt>
      <trkpt lat="47.02961" lon="6.24915">
        <ele>817</ele>
        <time>2015-10-04T10:17:33Z</time>
      </trkpt>
      <trkpt lat="47.02954" lon="6.24921">
        <ele>818</ele>
        <time>2015-10-04T10:17:40Z</time>
      </trkpt>
      <trkpt lat="47.02947" lon="6.24928">
        <ele>824</ele>
        <time>2015-10-04T10:17:50Z</time>
      </trkpt>
      <trkpt lat="47.02939" lon="6.24933">
        <ele>825</ele>
        <time>2015-10-04T10:18:02Z</time>
      </trkpt>
      <trkpt lat="47.02932" lon="6.24941">
        <ele>830</ele>
        <time>2015-10-04T10:18:15Z</time>
      </trkpt>
      <trkpt lat="47.02924" lon="6.24946">
        <ele>833</ele>
        <time>2015-10-04T10:18:28Z</time>
      </trkpt>
      <trkpt lat="47.02916" lon="6.24949">
        <ele>840</ele>
        <time>2015-10-04T10:18:49Z</time>
      </trkpt>
      <trkpt lat="47.02909" lon="6.24956">
        <ele>840</ele>
        <time>2015-10-04T10:18:58Z</time>
      </trkpt>
      <trkpt lat="47.02901" lon="6.24963">
        <ele>841</ele>
        <time>2015-10-04T10:19:11Z</time>
      </trkpt>
      <trkpt lat="47.02898" lon="6.24974">
        <ele>845</ele>
        <time>2015-10-04T10:19:45Z</time>
      </trkpt>
      <trkpt lat="47.02892" lon="6.24984">
        <ele>846</ele>
        <time>2015-10-04T10:19:52Z</time>
      </trkpt>
      <trkpt lat="47.02887" lon="6.24994">
        <ele>847</ele>
        <time>2015-10-04T10:19:59Z</time>
      </trkpt>
      <trkpt lat="47.02882" lon="6.25004">
        <ele>847</ele>
        <time>2015-10-04T10:20:05Z</time>
      </trkpt>
      <trkpt lat="47.02877" lon="6.25014">
        <ele>852</ele>
        <time>2015-10-04T10:20:12Z</time>
      </trkpt>
      <trkpt lat="47.02871" lon="6.25024">
        <ele>854</ele>
        <time>2015-10-04T10:20:21Z</time>
      </trkpt>
      <trkpt lat="47.02866" lon="6.25035">
        <ele>858</ele>
        <time>2015-10-04T10:20:31Z</time>
      </trkpt>
      <trkpt lat="47.02861" lon="6.25043">
        <ele>856</ele>
        <time>2015-10-04T10:20:38Z</time>
      </trkpt>
      <trkpt lat="47.02856" lon="6.25054">
        <ele>858</ele>
        <time>2015-10-04T10:20:45Z</time>
      </trkpt>
      <trkpt lat="47.02852" lon="6.25064">
        <ele>853</ele>
        <time>2015-10-04T10:20:52Z</time>
      </trkpt>
      <trkpt lat="47.02849" lon="6.25075">
        <ele>856</ele>
        <time>2015-10-04T10:20:59Z</time>
      </trkpt>
      <trkpt lat="47.02845" lon="6.25084">
        <ele>855</ele>
        <time>2015-10-04T10:21:05Z</time>
      </trkpt>
      <trkpt lat="47.0284" lon="6.25095">
        <ele>857</ele>
        <time>2015-10-04T10:21:09Z</time>
      </trkpt>
      <trkpt lat="47.02833" lon="6.25104">
        <ele>858</ele>
        <time>2015-10-04T10:21:13Z</time>
      </trkpt>
      <trkpt lat="47.02827" lon="6.25113">
        <ele>860</ele>
        <time>2015-10-04T10:21:17Z</time>
      </trkpt>
      <trkpt lat="47.02819" lon="6.25126">
        <ele>862</ele>
        <time>2015-10-04T10:21:22Z</time>
      </trkpt>
      <trkpt lat="47.02811" lon="6.25141">
        <ele>862</ele>
        <time>2015-10-04T10:21:27Z</time>
      </trkpt>
      <trkpt lat="47.02803" lon="6.25156">
        <ele>861</ele>
        <time>2015-10-04T10:21:31Z</time>
      </trkpt>
      <trkpt lat="47.02797" lon="6.25177">
        <ele>862</ele>
        <time>2015-10-04T10:21:36Z</time>
      </trkpt>
      <trkpt lat="47.02796" lon="6.25194">
        <ele>862</ele>
        <time>2015-10-04T10:21:40Z</time>
      </trkpt>
      <trkpt lat="47.02792" lon="6.25212">
        <ele>863</ele>
        <time>2015-10-04T10:21:45Z</time>
      </trkpt>
      <trkpt lat="47.02787" lon="6.25231">
        <ele>863</ele>
        <time>2015-10-04T10:21:50Z</time>
      </trkpt>
      <trkpt lat="47.02783" lon="6.25245">
        <ele>858</ele>
        <time>2015-10-04T10:21:54Z</time>
      </trkpt>
      <trkpt lat="47.02774" lon="6.25259">
        <ele>858</ele>
        <time>2015-10-04T10:21:59Z</time>
      </trkpt>
      <trkpt lat="47.02772" lon="6.25275">
        <ele>858</ele>
        <time>2015-10-04T10:22:03Z</time>
      </trkpt>
      <trkpt lat="47.02771" lon="6.25286">
        <ele>859</ele>
        <time>2015-10-04T10:22:07Z</time>
      </trkpt>
      <trkpt lat="47.02763" lon="6.25292">
        <ele>858</ele>
        <time>2015-10-04T10:22:11Z</time>
      </trkpt>
      <trkpt lat="47.02755" lon="6.25304">
        <ele>854</ele>
        <time>2015-10-04T10:22:16Z</time>
      </trkpt>
      <trkpt lat="47.02754" lon="6.25317">
        <ele>855</ele>
        <time>2015-10-04T10:22:20Z</time>
      </trkpt>
      <trkpt lat="47.0275" lon="6.25335">
        <ele>854</ele>
        <time>2015-10-04T10:22:25Z</time>
      </trkpt>
      <trkpt lat="47.02748" lon="6.25358">
        <ele>857</ele>
        <time>2015-10-04T10:22:29Z</time>
      </trkpt>
      <trkpt lat="47.02741" lon="6.25379">
        <ele>858</ele>
        <time>2015-10-04T10:22:33Z</time>
      </trkpt>
      <trkpt lat="47.02727" lon="6.25392">
        <ele>864</ele>
        <time>2015-10-04T10:22:38Z</time>
      </trkpt>
      <trkpt lat="47.02716" lon="6.254">
        <ele>866</ele>
        <time>2015-10-04T10:22:42Z</time>
      </trkpt>
      <trkpt lat="47.02709" lon="6.25405">
        <ele>865</ele>
        <time>2015-10-04T10:22:46Z</time>
      </trkpt>
      <trkpt lat="47.02696" lon="6.25409">
        <ele>864</ele>
        <time>2015-10-04T10:22:51Z</time>
      </trkpt>
      <trkpt lat="47.02679" lon="6.25424">
        <ele>859</ele>
        <time>2015-10-04T10:22:55Z</time>
      </trkpt>
      <trkpt lat="47.02663" lon="6.25441">
        <ele>861</ele>
        <time>2015-10-04T10:22:59Z</time>
      </trkpt>
      <trkpt lat="47.02659" lon="6.25456">
        <ele>859</ele>
        <time>2015-10-04T10:23:03Z</time>
      </trkpt>
      <trkpt lat="47.02652" lon="6.25474">
        <ele>855</ele>
        <time>2015-10-04T10:23:07Z</time>
      </trkpt>
      <trkpt lat="47.02642" lon="6.25494">
        <ele>854</ele>
        <time>2015-10-04T10:23:12Z</time>
      </trkpt>
      <trkpt lat="47.02629" lon="6.25513">
        <ele>857</ele>
        <time>2015-10-04T10:23:17Z</time>
      </trkpt>
      <trkpt lat="47.0262" lon="6.25532">
        <ele>854</ele>
        <time>2015-10-04T10:23:21Z</time>
      </trkpt>
      <trkpt lat="47.0261" lon="6.25554">
        <ele>854</ele>
        <time>2015-10-04T10:23:25Z</time>
      </trkpt>
      <trkpt lat="47.0261" lon="6.25565">
        <ele>853</ele>
        <time>2015-10-04T10:23:29Z</time>
      </trkpt>
      <trkpt lat="47.02608" lon="6.25587">
        <ele>851</ele>
        <time>2015-10-04T10:23:34Z</time>
      </trkpt>
      <trkpt lat="47.02602" lon="6.25598">
        <ele>847</ele>
        <time>2015-10-04T10:23:38Z</time>
      </trkpt>
      <trkpt lat="47.02594" lon="6.25608">
        <ele>845</ele>
        <time>2015-10-04T10:23:42Z</time>
      </trkpt>
      <trkpt lat="47.02593" lon="6.25621">
        <ele>848</ele>
        <time>2015-10-04T10:23:46Z</time>
      </trkpt>
      <trkpt lat="47.02593" lon="6.25632">
        <ele>845</ele>
        <time>2015-10-04T10:24:00Z</time>
      </trkpt>
      <trkpt lat="47.02597" lon="6.25642">
        <ele>844</ele>
        <time>2015-10-04T10:24:06Z</time>
      </trkpt>
      <trkpt lat="47.026" lon="6.2566">
        <ele>839</ele>
        <time>2015-10-04T10:24:11Z</time>
      </trkpt>
      <trkpt lat="47.026" lon="6.25686">
        <ele>837</ele>
        <time>2015-10-04T10:24:16Z</time>
      </trkpt>
      <trkpt lat="47.02594" lon="6.25713">
        <ele>835</ele>
        <time>2015-10-04T10:24:20Z</time>
      </trkpt>
      <trkpt lat="47.02601" lon="6.25743">
        <ele>837</ele>
        <time>2015-10-04T10:24:25Z</time>
      </trkpt>
      <trkpt lat="47.02605" lon="6.25765">
        <ele>837</ele>
        <time>2015-10-04T10:24:29Z</time>
      </trkpt>
      <trkpt lat="47.02607" lon="6.25776">
        <ele>833</ele>
        <time>2015-10-04T10:24:47Z</time>
      </trkpt>
      <trkpt lat="47.02616" lon="6.2579">
        <ele>827</ele>
        <time>2015-10-04T10:24:51Z</time>
      </trkpt>
      <trkpt lat="47.0263" lon="6.25806">
        <ele>827</ele>
        <time>2015-10-04T10:24:56Z</time>
      </trkpt>
      <trkpt lat="47.02643" lon="6.25825">
        <ele>822</ele>
        <time>2015-10-04T10:25:01Z</time>
      </trkpt>
      <trkpt lat="47.02645" lon="6.25836">
        <ele>821</ele>
        <time>2015-10-04T10:25:06Z</time>
      </trkpt>
      <trkpt lat="47.02655" lon="6.25846">
        <ele>822</ele>
        <time>2015-10-04T10:25:10Z</time>
      </trkpt>
      <trkpt lat="47.02663" lon="6.25859">
        <ele>820</ele>
        <time>2015-10-04T10:25:15Z</time>
      </trkpt>
      <trkpt lat="47.02667" lon="6.25869">
        <ele>817</ele>
        <time>2015-10-04T10:25:20Z</time>
      </trkpt>
      <trkpt lat="47.02672" lon="6.25888">
        <ele>816</ele>
        <time>2015-10-04T10:25:25Z</time>
      </trkpt>
      <trkpt lat="47.02677" lon="6.25902">
        <ele>815</ele>
        <time>2015-10-04T10:25:29Z</time>
      </trkpt>
      <trkpt lat="47.02688" lon="6.25928">
        <ele>811</ele>
        <time>2015-10-04T10:25:34Z</time>
      </trkpt>
      <trkpt lat="47.02694" lon="6.2594">
        <ele>809</ele>
        <time>2015-10-04T10:25:38Z</time>
      </trkpt>
      <trkpt lat="47.02703" lon="6.25959">
        <ele>807</ele>
        <time>2015-10-04T10:25:43Z</time>
      </trkpt>
      <trkpt lat="47.02711" lon="6.25968">
        <ele>807</ele>
        <time>2015-10-04T10:25:47Z</time>
      </trkpt>
      <trkpt lat="47.02716" lon="6.25977">
        <ele>805</ele>
        <time>2015-10-04T10:26:12Z</time>
      </trkpt>
      <trkpt lat="47.0272" lon="6.25987">
        <ele>802</ele>
        <time>2015-10-04T10:26:18Z</time>
      </trkpt>
      <trkpt lat="47.02724" lon="6.25996">
        <ele>802</ele>
        <time>2015-10-04T10:26:23Z</time>
      </trkpt>
      <trkpt lat="47.02729" lon="6.26008">
        <ele>801</ele>
        <time>2015-10-04T10:26:27Z</time>
      </trkpt>
      <trkpt lat="47.02734" lon="6.26018">
        <ele>800</ele>
        <time>2015-10-04T10:26:31Z</time>
      </trkpt>
      <trkpt lat="47.02743" lon="6.26023">
        <ele>799</ele>
        <time>2015-10-04T10:26:40Z</time>
      </trkpt>
      <trkpt lat="47.02751" lon="6.26028">
        <ele>802</ele>
        <time>2015-10-04T10:26:52Z</time>
      </trkpt>
      <trkpt lat="47.02763" lon="6.26036">
        <ele>802</ele>
        <time>2015-10-04T10:26:57Z</time>
      </trkpt>
      <trkpt lat="47.02772" lon="6.26044">
        <ele>804</ele>
        <time>2015-10-04T10:27:02Z</time>
      </trkpt>
      <trkpt lat="47.0278" lon="6.26053">
        <ele>807</ele>
        <time>2015-10-04T10:27:06Z</time>
      </trkpt>
      <trkpt lat="47.0279" lon="6.26062">
        <ele>806</ele>
        <time>2015-10-04T10:27:11Z</time>
      </trkpt>
      <trkpt lat="47.02794" lon="6.26071">
        <ele>806</ele>
        <time>2015-10-04T10:27:15Z</time>
      </trkpt>
      <trkpt lat="47.028" lon="6.26078">
        <ele>806</ele>
        <time>2015-10-04T10:27:48Z</time>
      </trkpt>
      <trkpt lat="47.02805" lon="6.26089">
        <ele>810</ele>
        <time>2015-10-04T10:27:58Z</time>
      </trkpt>
      <trkpt lat="47.02806" lon="6.26101">
        <ele>810</ele>
        <time>2015-10-04T10:28:21Z</time>
      </trkpt>
      <trkpt lat="47.02813" lon="6.26116">
        <ele>808</ele>
        <time>2015-10-04T10:28:25Z</time>
      </trkpt>
      <trkpt lat="47.02814" lon="6.26142">
        <ele>807</ele>
        <time>2015-10-04T10:28:30Z</time>
      </trkpt>
      <trkpt lat="47.02814" lon="6.26161">
        <ele>804</ele>
        <time>2015-10-04T10:28:34Z</time>
      </trkpt>
      <trkpt lat="47.02816" lon="6.2618">
        <ele>802</ele>
        <time>2015-10-04T10:28:39Z</time>
      </trkpt>
      <trkpt lat="47.0282" lon="6.26194">
        <ele>803</ele>
        <time>2015-10-04T10:28:44Z</time>
      </trkpt>
      <trkpt lat="47.02824" lon="6.26208">
        <ele>804</ele>
        <time>2015-10-04T10:28:48Z</time>
      </trkpt>
      <trkpt lat="47.02827" lon="6.26223">
        <ele>801</ele>
        <time>2015-10-04T10:28:52Z</time>
      </trkpt>
      <trkpt lat="47.02834" lon="6.26242">
        <ele>804</ele>
        <time>2015-10-04T10:28:57Z</time>
      </trkpt>
      <trkpt lat="47.02838" lon="6.26257">
        <ele>804</ele>
        <time>2015-10-04T10:29:01Z</time>
      </trkpt>
      <trkpt lat="47.02843" lon="6.26273">
        <ele>799</ele>
        <time>2015-10-04T10:29:06Z</time>
      </trkpt>
      <trkpt lat="47.02844" lon="6.26291">
        <ele>802</ele>
        <time>2015-10-04T10:29:11Z</time>
      </trkpt>
      <trkpt lat="47.02844" lon="6.26303">
        <ele>802</ele>
        <time>2015-10-04T10:29:16Z</time>
      </trkpt>
      <trkpt lat="47.02845" lon="6.26316">
        <ele>804</ele>
        <time>2015-10-04T10:29:21Z</time>
      </trkpt>
      <trkpt lat="47.02844" lon="6.26332">
        <ele>802</ele>
        <time>2015-10-04T10:29:26Z</time>
      </trkpt>
      <trkpt lat="47.02841" lon="6.26342">
        <ele>800</ele>
        <time>2015-10-04T10:29:31Z</time>
      </trkpt>
      <trkpt lat="47.02835" lon="6.26358">
        <ele>800</ele>
        <time>2015-10-04T10:29:35Z</time>
      </trkpt>
      <trkpt lat="47.02839" lon="6.26373">
        <ele>801</ele>
        <time>2015-10-04T10:29:39Z</time>
      </trkpt>
      <trkpt lat="47.0284" lon="6.26385">
        <ele>804</ele>
        <time>2015-10-04T10:29:43Z</time>
      </trkpt>
      <trkpt lat="47.02844" lon="6.26402">
        <ele>806</ele>
        <time>2015-10-04T10:29:48Z</time>
      </trkpt>
      <trkpt lat="47.02845" lon="6.26416">
        <ele>805</ele>
        <time>2015-10-04T10:29:52Z</time>
      </trkpt>
      <trkpt lat="47.02848" lon="6.26439">
        <ele>804</ele>
        <time>2015-10-04T10:29:57Z</time>
      </trkpt>
      <trkpt lat="47.02856" lon="6.2646">
        <ele>798</ele>
        <time>2015-10-04T10:30:02Z</time>
      </trkpt>
      <trkpt lat="47.02861" lon="6.26478">
        <ele>796</ele>
        <time>2015-10-04T10:30:06Z</time>
      </trkpt>
      <trkpt lat="47.02859" lon="6.26502">
        <ele>796</ele>
        <time>2015-10-04T10:30:11Z</time>
      </trkpt>
      <trkpt lat="47.02862" lon="6.26519">
        <ele>794</ele>
        <time>2015-10-04T10:30:16Z</time>
      </trkpt>
      <trkpt lat="47.02864" lon="6.26534">
        <ele>792</ele>
        <time>2015-10-04T10:30:20Z</time>
      </trkpt>
      <trkpt lat="47.0287" lon="6.26555">
        <ele>791</ele>
        <time>2015-10-04T10:30:25Z</time>
      </trkpt>
      <trkpt lat="47.02876" lon="6.26571">
        <ele>791</ele>
        <time>2015-10-04T10:30:29Z</time>
      </trkpt>
      <trkpt lat="47.02879" lon="6.2658">
        <ele>793</ele>
        <time>2015-10-04T10:30:35Z</time>
      </trkpt>
      <trkpt lat="47.02883" lon="6.26591">
        <ele>791</ele>
        <time>2015-10-04T10:30:39Z</time>
      </trkpt>
      <trkpt lat="47.02887" lon="6.26602">
        <ele>792</ele>
        <time>2015-10-04T10:30:59Z</time>
      </trkpt>
      <trkpt lat="47.02895" lon="6.26603">
        <ele>790</ele>
        <time>2015-10-04T10:31:05Z</time>
      </trkpt>
      <trkpt lat="47.02906" lon="6.26606">
        <ele>790</ele>
        <time>2015-10-04T10:31:09Z</time>
      </trkpt>
      <trkpt lat="47.02914" lon="6.26616">
        <ele>790</ele>
        <time>2015-10-04T10:31:13Z</time>
      </trkpt>
      <trkpt lat="47.02919" lon="6.26626">
        <ele>789</ele>
        <time>2015-10-04T10:31:18Z</time>
      </trkpt>
      <trkpt lat="47.02922" lon="6.26637">
        <ele>788</ele>
        <time>2015-10-04T10:31:23Z</time>
      </trkpt>
      <trkpt lat="47.02924" lon="6.2665">
        <ele>786</ele>
        <time>2015-10-04T10:31:29Z</time>
      </trkpt>
      <trkpt lat="47.02927" lon="6.2666">
        <ele>788</ele>
        <time>2015-10-04T10:31:34Z</time>
      </trkpt>
      <trkpt lat="47.02932" lon="6.2667">
        <ele>791</ele>
        <time>2015-10-04T10:31:39Z</time>
      </trkpt>
      <trkpt lat="47.02935" lon="6.2668">
        <ele>793</ele>
        <time>2015-10-04T10:31:43Z</time>
      </trkpt>
      <trkpt lat="47.02937" lon="6.26692">
        <ele>793</ele>
        <time>2015-10-04T10:31:48Z</time>
      </trkpt>
      <trkpt lat="47.02939" lon="6.26704">
        <ele>790</ele>
        <time>2015-10-04T10:31:53Z</time>
      </trkpt>
      <trkpt lat="47.02943" lon="6.26715">
        <ele>790</ele>
        <time>2015-10-04T10:31:58Z</time>
      </trkpt>
      <trkpt lat="47.02948" lon="6.26727">
        <ele>792</ele>
        <time>2015-10-04T10:32:03Z</time>
      </trkpt>
      <trkpt lat="47.02951" lon="6.26742">
        <ele>793</ele>
        <time>2015-10-04T10:32:07Z</time>
      </trkpt>
      <trkpt lat="47.02954" lon="6.26753">
        <ele>794</ele>
        <time>2015-10-04T10:32:11Z</time>
      </trkpt>
      <trkpt lat="47.02955" lon="6.26765">
        <ele>793</ele>
        <time>2015-10-04T10:32:17Z</time>
      </trkpt>
      <trkpt lat="47.02958" lon="6.26775">
        <ele>796</ele>
        <time>2015-10-04T10:32:21Z</time>
      </trkpt>
      <trkpt lat="47.02962" lon="6.26786">
        <ele>795</ele>
        <time>2015-10-04T10:32:27Z</time>
      </trkpt>
      <trkpt lat="47.02964" lon="6.26798">
        <ele>793</ele>
        <time>2015-10-04T10:32:41Z</time>
      </trkpt>
      <trkpt lat="47.02969" lon="6.26807">
        <ele>792</ele>
        <time>2015-10-04T10:32:47Z</time>
      </trkpt>
      <trkpt lat="47.02972" lon="6.26826">
        <ele>793</ele>
        <time>2015-10-04T10:32:52Z</time>
      </trkpt>
      <trkpt lat="47.02978" lon="6.26843">
        <ele>794</ele>
        <time>2015-10-04T10:32:56Z</time>
      </trkpt>
      <trkpt lat="47.02985" lon="6.2685">
        <ele>793</ele>
        <time>2015-10-04T10:33:01Z</time>
      </trkpt>
      <trkpt lat="47.02987" lon="6.26863">
        <ele>794</ele>
        <time>2015-10-04T10:33:06Z</time>
      </trkpt>
      <trkpt lat="47.02987" lon="6.26876">
        <ele>793</ele>
        <time>2015-10-04T10:33:11Z</time>
      </trkpt>
      <trkpt lat="47.02985" lon="6.26889">
        <ele>789</ele>
        <time>2015-10-04T10:33:16Z</time>
      </trkpt>
      <trkpt lat="47.02992" lon="6.26896">
        <ele>789</ele>
        <time>2015-10-04T10:37:23Z</time>
      </trkpt>
      <trkpt lat="47.02985" lon="6.26902">
        <ele>791</ele>
        <time>2015-10-04T10:38:15Z</time>
      </trkpt>
      <trkpt lat="47.02979" lon="6.26902">
        <ele>789</ele>
        <time>2015-10-04T10:38:41Z</time>
      </trkpt>
      <trkpt lat="47.02961" lon="6.26897">
        <ele>788</ele>
        <time>2015-10-04T10:38:46Z</time>
      </trkpt>
      <trkpt lat="47.02944" lon="6.26888">
        <ele>787</ele>
        <time>2015-10-04T10:38:50Z</time>
      </trkpt>
      <trkpt lat="47.0293" lon="6.26879">
        <ele>787</ele>
        <time>2015-10-04T10:38:54Z</time>
      </trkpt>
      <trkpt lat="47.02917" lon="6.26873">
        <ele>738</ele>
        <time>2015-10-04T10:38:58Z</time>
      </trkpt>
      <trkpt lat="47.029" lon="6.26867">
        <ele>773</ele>
        <time>2015-10-04T10:39:03Z</time>
      </trkpt>
      <trkpt lat="47.02879" lon="6.26859">
        <ele>780</ele>
        <time>2015-10-04T10:39:08Z</time>
      </trkpt>
      <trkpt lat="47.02862" lon="6.26863">
        <ele>782</ele>
        <time>2015-10-04T10:39:12Z</time>
      </trkpt>
      <trkpt lat="47.02835" lon="6.26866">
        <ele>782</ele>
        <time>2015-10-04T10:39:17Z</time>
      </trkpt>
      <trkpt lat="47.02815" lon="6.26842">
        <ele>781</ele>
        <time>2015-10-04T10:39:21Z</time>
      </trkpt>
      <trkpt lat="47.02799" lon="6.26804">
        <ele>780</ele>
        <time>2015-10-04T10:39:25Z</time>
      </trkpt>
      <trkpt lat="47.02781" lon="6.26761">
        <ele>779</ele>
        <time>2015-10-04T10:39:29Z</time>
      </trkpt>
      <trkpt lat="47.02755" lon="6.26709">
        <ele>773</ele>
        <time>2015-10-04T10:39:34Z</time>
      </trkpt>
      <trkpt lat="47.02716" lon="6.26678">
        <ele>765</ele>
        <time>2015-10-04T10:39:39Z</time>
      </trkpt>
      <trkpt lat="47.02687" lon="6.26675">
        <ele>762</ele>
        <time>2015-10-04T10:39:43Z</time>
      </trkpt>
      <trkpt lat="47.02666" lon="6.26684">
        <ele>759</ele>
        <time>2015-10-04T10:39:48Z</time>
      </trkpt>
      <trkpt lat="47.02668" lon="6.26695">
        <ele>759</ele>
        <time>2015-10-04T10:40:17Z</time>
      </trkpt>
      <trkpt lat="47.02674" lon="6.26734">
        <ele>757</ele>
        <time>2015-10-04T10:40:22Z</time>
      </trkpt>
      <trkpt lat="47.02675" lon="6.26765">
        <ele>756</ele>
        <time>2015-10-04T10:40:26Z</time>
      </trkpt>
      <trkpt lat="47.02681" lon="6.26803">
        <ele>754</ele>
        <time>2015-10-04T10:40:31Z</time>
      </trkpt>
      <trkpt lat="47.02691" lon="6.26844">
        <ele>754</ele>
        <time>2015-10-04T10:40:36Z</time>
      </trkpt>
      <trkpt lat="47.027" lon="6.26876">
        <ele>753</ele>
        <time>2015-10-04T10:40:40Z</time>
      </trkpt>
      <trkpt lat="47.02702" lon="6.26908">
        <ele>749</ele>
        <time>2015-10-04T10:40:44Z</time>
      </trkpt>
      <trkpt lat="47.02705" lon="6.26936">
        <ele>750</ele>
        <time>2015-10-04T10:40:48Z</time>
      </trkpt>
      <trkpt lat="47.02716" lon="6.2696">
        <ele>749</ele>
        <time>2015-10-04T10:40:53Z</time>
      </trkpt>
      <trkpt lat="47.02728" lon="6.26981">
        <ele>747</ele>
        <time>2015-10-04T10:40:57Z</time>
      </trkpt>
      <trkpt lat="47.02739" lon="6.27004">
        <ele>747</ele>
        <time>2015-10-04T10:41:01Z</time>
      </trkpt>
      <trkpt lat="47.02747" lon="6.27032">
        <ele>751</ele>
        <time>2015-10-04T10:41:05Z</time>
      </trkpt>
      <trkpt lat="47.02759" lon="6.27056">
        <ele>753</ele>
        <time>2015-10-04T10:41:10Z</time>
      </trkpt>
      <trkpt lat="47.02775" lon="6.2707">
        <ele>752</ele>
        <time>2015-10-04T10:41:14Z</time>
      </trkpt>
      <trkpt lat="47.02798" lon="6.27081">
        <ele>745</ele>
        <time>2015-10-04T10:41:19Z</time>
      </trkpt>
      <trkpt lat="47.02825" lon="6.27095">
        <ele>742</ele>
        <time>2015-10-04T10:41:24Z</time>
      </trkpt>
      <trkpt lat="47.02844" lon="6.27103">
        <ele>736</ele>
        <time>2015-10-04T10:41:28Z</time>
      </trkpt>
      <trkpt lat="47.02865" lon="6.27116">
        <ele>735</ele>
        <time>2015-10-04T10:41:32Z</time>
      </trkpt>
      <trkpt lat="47.02884" lon="6.27128">
        <ele>738</ele>
        <time>2015-10-04T10:41:36Z</time>
      </trkpt>
      <trkpt lat="47.02898" lon="6.27137">
        <ele>737</ele>
        <time>2015-10-04T10:41:40Z</time>
      </trkpt>
      <trkpt lat="47.02906" lon="6.27137">
        <ele>725</ele>
        <time>2015-10-04T10:41:48Z</time>
      </trkpt>
      <trkpt lat="47.02914" lon="6.27141">
        <ele>722</ele>
        <time>2015-10-04T10:41:54Z</time>
      </trkpt>
      <trkpt lat="47.02921" lon="6.27143">
        <ele>695</ele>
        <time>2015-10-04T10:43:45Z</time>
      </trkpt>
      <trkpt lat="47.02934" lon="6.27139">
        <ele>697</ele>
        <time>2015-10-04T10:43:49Z</time>
      </trkpt>
      <trkpt lat="47.02943" lon="6.27138">
        <ele>696</ele>
        <time>2015-10-04T10:43:53Z</time>
      </trkpt>
      <trkpt lat="47.02951" lon="6.27139">
        <ele>691</ele>
        <time>2015-10-04T10:43:59Z</time>
      </trkpt>
      <trkpt lat="47.0296" lon="6.27139">
        <ele>686</ele>
        <time>2015-10-04T10:44:05Z</time>
      </trkpt>
      <trkpt lat="47.02968" lon="6.27141">
        <ele>686</ele>
        <time>2015-10-04T10:44:14Z</time>
      </trkpt>
      <trkpt lat="47.02975" lon="6.27141">
        <ele>681</ele>
        <time>2015-10-04T10:44:19Z</time>
      </trkpt>
      <trkpt lat="47.02984" lon="6.2714">
        <ele>674</ele>
        <time>2015-10-04T10:44:24Z</time>
      </trkpt>
      <trkpt lat="47.02992" lon="6.27139">
        <ele>674</ele>
        <time>2015-10-04T10:44:30Z</time>
      </trkpt>
      <trkpt lat="47.03001" lon="6.27136">
        <ele>668</ele>
        <time>2015-10-04T10:44:55Z</time>
      </trkpt>
      <trkpt lat="47.03009" lon="6.27141">
        <ele>670</ele>
        <time>2015-10-04T10:45:05Z</time>
      </trkpt>
      <trkpt lat="47.03017" lon="6.27141">
        <ele>667</ele>
        <time>2015-10-04T10:45:13Z</time>
      </trkpt>
      <trkpt lat="47.03024" lon="6.27145">
        <ele>662</ele>
        <time>2015-10-04T10:45:19Z</time>
      </trkpt>
      <trkpt lat="47.03032" lon="6.27149">
        <ele>660</ele>
        <time>2015-10-04T10:45:25Z</time>
      </trkpt>
      <trkpt lat="47.0304" lon="6.27155">
        <ele>661</ele>
        <time>2015-10-04T10:45:33Z</time>
      </trkpt>
      <trkpt lat="47.03047" lon="6.2715">
        <ele>664</ele>
        <time>2015-10-04T10:45:41Z</time>
      </trkpt>
      <trkpt lat="47.03053" lon="6.27141">
        <ele>659</ele>
        <time>2015-10-04T10:45:53Z</time>
      </trkpt>
      <trkpt lat="47.03054" lon="6.27129">
        <ele>657</ele>
        <time>2015-10-04T10:46:02Z</time>
      </trkpt>
      <trkpt lat="47.03057" lon="6.27118">
        <ele>646</ele>
        <time>2015-10-04T10:46:18Z</time>
      </trkpt>
      <trkpt lat="47.03081" lon="6.27121">
        <ele>644</ele>
        <time>2015-10-04T10:46:22Z</time>
      </trkpt>
      <trkpt lat="47.03102" lon="6.27128">
        <ele>639</ele>
        <time>2015-10-04T10:46:27Z</time>
      </trkpt>
      <trkpt lat="47.03112" lon="6.27133">
        <ele>636</ele>
        <time>2015-10-04T10:46:31Z</time>
      </trkpt>
      <trkpt lat="47.03115" lon="6.27121">
        <ele>630</ele>
        <time>2015-10-04T10:47:20Z</time>
      </trkpt>
      <trkpt lat="47.03114" lon="6.27107">
        <ele>628</ele>
        <time>2015-10-04T10:47:24Z</time>
      </trkpt>
      <trkpt lat="47.03111" lon="6.27093">
        <ele>627</ele>
        <time>2015-10-04T10:47:28Z</time>
      </trkpt>
      <trkpt lat="47.03107" lon="6.27078">
        <ele>623</ele>
        <time>2015-10-04T10:47:33Z</time>
      </trkpt>
      <trkpt lat="47.03095" lon="6.27071">
        <ele>616</ele>
        <time>2015-10-04T10:47:38Z</time>
      </trkpt>
      <trkpt lat="47.03089" lon="6.27051">
        <ele>617</ele>
        <time>2015-10-04T10:47:43Z</time>
      </trkpt>
      <trkpt lat="47.03086" lon="6.27031">
        <ele>615</ele>
        <time>2015-10-04T10:47:47Z</time>
      </trkpt>
      <trkpt lat="47.03086" lon="6.26992">
        <ele>615</ele>
        <time>2015-10-04T10:47:51Z</time>
      </trkpt>
      <trkpt lat="47.03094" lon="6.2696">
        <ele>619</ele>
        <time>2015-10-04T10:47:56Z</time>
      </trkpt>
      <trkpt lat="47.03107" lon="6.26944">
        <ele>617</ele>
        <time>2015-10-04T10:48:00Z</time>
      </trkpt>
      <trkpt lat="47.03111" lon="6.2692">
        <ele>609</ele>
        <time>2015-10-04T10:48:05Z</time>
      </trkpt>
      <trkpt lat="47.03112" lon="6.26898">
        <ele>610</ele>
        <time>2015-10-04T10:48:09Z</time>
      </trkpt>
      <trkpt lat="47.03116" lon="6.26878">
        <ele>610</ele>
        <time>2015-10-04T10:48:13Z</time>
      </trkpt>
      <trkpt lat="47.03123" lon="6.26854">
        <ele>613</ele>
        <time>2015-10-04T10:48:18Z</time>
      </trkpt>
      <trkpt lat="47.03131" lon="6.26839">
        <ele>608</ele>
        <time>2015-10-04T10:48:22Z</time>
      </trkpt>
      <trkpt lat="47.03146" lon="6.26819">
        <ele>601</ele>
        <time>2015-10-04T10:48:27Z</time>
      </trkpt>
      <trkpt lat="47.03159" lon="6.26793">
        <ele>601</ele>
        <time>2015-10-04T10:48:32Z</time>
      </trkpt>
      <trkpt lat="47.03167" lon="6.2677">
        <ele>599</ele>
        <time>2015-10-04T10:48:36Z</time>
      </trkpt>
      <trkpt lat="47.03175" lon="6.26745">
        <ele>593</ele>
        <time>2015-10-04T10:48:40Z</time>
      </trkpt>
      <trkpt lat="47.03185" lon="6.26718">
        <ele>591</ele>
        <time>2015-10-04T10:48:45Z</time>
      </trkpt>
      <trkpt lat="47.03195" lon="6.26711">
        <ele>586</ele>
        <time>2015-10-04T10:48:49Z</time>
      </trkpt>
      <trkpt lat="47.03203" lon="6.26707">
        <ele>582</ele>
        <time>2015-10-04T10:48:56Z</time>
      </trkpt>
      <trkpt lat="47.03223" lon="6.26712">
        <ele>576</ele>
        <time>2015-10-04T10:49:01Z</time>
      </trkpt>
      <trkpt lat="47.03241" lon="6.26732">
        <ele>576</ele>
        <time>2015-10-04T10:49:05Z</time>
      </trkpt>
      <trkpt lat="47.03254" lon="6.26762">
        <ele>574</ele>
        <time>2015-10-04T10:49:10Z</time>
      </trkpt>
      <trkpt lat="47.03268" lon="6.26778">
        <ele>576</ele>
        <time>2015-10-04T10:49:14Z</time>
      </trkpt>
      <trkpt lat="47.03277" lon="6.26793">
        <ele>571</ele>
        <time>2015-10-04T10:49:18Z</time>
      </trkpt>
      <trkpt lat="47.03288" lon="6.2682">
        <ele>568</ele>
        <time>2015-10-04T10:49:23Z</time>
      </trkpt>
      <trkpt lat="47.03293" lon="6.2685">
        <ele>562</ele>
        <time>2015-10-04T10:49:27Z</time>
      </trkpt>
      <trkpt lat="47.03296" lon="6.26869">
        <ele>561</ele>
        <time>2015-10-04T10:49:31Z</time>
      </trkpt>
      <trkpt lat="47.033" lon="6.26889">
        <ele>557</ele>
        <time>2015-10-04T10:49:35Z</time>
      </trkpt>
      <trkpt lat="47.03305" lon="6.26897">
        <ele>554</ele>
        <time>2015-10-04T10:49:40Z</time>
      </trkpt>
      <trkpt lat="47.03323" lon="6.26903">
        <ele>549</ele>
        <time>2015-10-04T10:49:45Z</time>
      </trkpt>
      <trkpt lat="47.03349" lon="6.26912">
        <ele>549</ele>
        <time>2015-10-04T10:49:50Z</time>
      </trkpt>
      <trkpt lat="47.03361" lon="6.26914">
        <ele>539</ele>
        <time>2015-10-04T10:49:54Z</time>
      </trkpt>
      <trkpt lat="47.03373" lon="6.26916">
        <ele>537</ele>
        <time>2015-10-04T10:49:58Z</time>
      </trkpt>
      <trkpt lat="47.03386" lon="6.26918">
        <ele>531</ele>
        <time>2015-10-04T10:50:02Z</time>
      </trkpt>
      <trkpt lat="47.034" lon="6.26922">
        <ele>525</ele>
        <time>2015-10-04T10:50:06Z</time>
      </trkpt>
      <trkpt lat="47.03414" lon="6.26926">
        <ele>522</ele>
        <time>2015-10-04T10:50:10Z</time>
      </trkpt>
      <trkpt lat="47.03429" lon="6.26933">
        <ele>517</ele>
        <time>2015-10-04T10:50:15Z</time>
      </trkpt>
      <trkpt lat="47.03445" lon="6.2694">
        <ele>508</ele>
        <time>2015-10-04T10:50:20Z</time>
      </trkpt>
      <trkpt lat="47.03463" lon="6.26943">
        <ele>500</ele>
        <time>2015-10-04T10:50:25Z</time>
      </trkpt>
      <trkpt lat="47.03478" lon="6.26945">
        <ele>494</ele>
        <time>2015-10-04T10:50:29Z</time>
      </trkpt>
      <trkpt lat="47.03492" lon="6.2695">
        <ele>489</ele>
        <time>2015-10-04T10:50:33Z</time>
      </trkpt>
      <trkpt lat="47.03505" lon="6.26952">
        <ele>485</ele>
        <time>2015-10-04T10:50:38Z</time>
      </trkpt>
      <trkpt lat="47.03514" lon="6.26953">
        <ele>483</ele>
        <time>2015-10-04T10:50:42Z</time>
      </trkpt>
      <trkpt lat="47.03525" lon="6.26954">
        <ele>477</ele>
        <time>2015-10-04T10:50:47Z</time>
      </trkpt>
      <trkpt lat="47.03537" lon="6.26956">
        <ele>476</ele>
        <time>2015-10-04T10:50:52Z</time>
      </trkpt>
      <trkpt lat="47.03546" lon="6.26959">
        <ele>474</ele>
        <time>2015-10-04T10:50:56Z</time>
      </trkpt>
      <trkpt lat="47.03557" lon="6.26965">
        <ele>469</ele>
        <time>2015-10-04T10:51:01Z</time>
      </trkpt>
      <trkpt lat="47.03564" lon="6.26971">
        <ele>465</ele>
        <time>2015-10-04T10:51:05Z</time>
      </trkpt>
      <trkpt lat="47.03572" lon="6.26979">
        <ele>461</ele>
        <time>2015-10-04T10:51:09Z</time>
      </trkpt>
      <trkpt lat="47.03583" lon="6.26988">
        <ele>456</ele>
        <time>2015-10-04T10:51:14Z</time>
      </trkpt>
      <trkpt lat="47.03593" lon="6.26994">
        <ele>453</ele>
        <time>2015-10-04T10:51:18Z</time>
      </trkpt>
      <trkpt lat="47.03601" lon="6.27001">
        <ele>447</ele>
        <time>2015-10-04T10:51:22Z</time>
      </trkpt>
      <trkpt lat="47.03608" lon="6.27006">
        <ele>444</ele>
        <time>2015-10-04T10:51:26Z</time>
      </trkpt>
      <trkpt lat="47.03619" lon="6.27015">
        <ele>441</ele>
        <time>2015-10-04T10:51:31Z</time>
      </trkpt>
      <trkpt lat="47.03632" lon="6.27017">
        <ele>438</ele>
        <time>2015-10-04T10:51:36Z</time>
      </trkpt>
      <trkpt lat="47.0364" lon="6.27022">
        <ele>443</ele>
        <time>2015-10-04T10:52:19Z</time>
      </trkpt>
      <trkpt lat="47.03644" lon="6.27016">
        <ele>440</ele>
        <time>2015-10-04T10:52:32Z</time>
      </trkpt>
      <trkpt lat="47.03654" lon="6.26998">
        <ele>439</ele>
        <time>2015-10-04T10:52:36Z</time>
      </trkpt>
      <trkpt lat="47.03667" lon="6.26978">
        <ele>437</ele>
        <time>2015-10-04T10:52:40Z</time>
      </trkpt>
      <trkpt lat="47.03675" lon="6.26968">
        <ele>437</ele>
        <time>2015-10-04T10:52:44Z</time>
      </trkpt>
      <trkpt lat="47.03684" lon="6.26961">
        <ele>434</ele>
        <time>2015-10-04T10:52:49Z</time>
      </trkpt>
      <trkpt lat="47.03697" lon="6.26957">
        <ele>431</ele>
        <time>2015-10-04T10:52:53Z</time>
      </trkpt>
      <trkpt lat="47.03717" lon="6.26976">
        <ele>429</ele>
        <time>2015-10-04T10:52:57Z</time>
      </trkpt>
      <trkpt lat="47.03728" lon="6.27005">
        <ele>427</ele>
        <time>2015-10-04T10:53:02Z</time>
      </trkpt>
      <trkpt lat="47.03724" lon="6.27026">
        <ele>424</ele>
        <time>2015-10-04T10:53:07Z</time>
      </trkpt>
      <trkpt lat="47.03717" lon="6.27052">
        <ele>423</ele>
        <time>2015-10-04T10:53:11Z</time>
      </trkpt>
      <trkpt lat="47.03712" lon="6.27074">
        <ele>422</ele>
        <time>2015-10-04T10:53:15Z</time>
      </trkpt>
      <trkpt lat="47.03711" lon="6.27106">
        <ele>419</ele>
        <time>2015-10-04T10:53:20Z</time>
      </trkpt>
      <trkpt lat="47.03712" lon="6.27138">
        <ele>419</ele>
        <time>2015-10-04T10:53:24Z</time>
      </trkpt>
      <trkpt lat="47.03717" lon="6.27168">
        <ele>418</ele>
        <time>2015-10-04T10:53:28Z</time>
      </trkpt>
      <trkpt lat="47.03714" lon="6.27214">
        <ele>414</ele>
        <time>2015-10-04T10:53:33Z</time>
      </trkpt>
      <trkpt lat="47.03703" lon="6.27242">
        <ele>411</ele>
        <time>2015-10-04T10:53:37Z</time>
      </trkpt>
      <trkpt lat="47.03688" lon="6.27259">
        <ele>410</ele>
        <time>2015-10-04T10:53:41Z</time>
      </trkpt>
      <trkpt lat="47.03671" lon="6.2728">
        <ele>411</ele>
        <time>2015-10-04T10:53:46Z</time>
      </trkpt>
      <trkpt lat="47.03669" lon="6.2729">
        <ele>411</ele>
        <time>2015-10-04T10:53:50Z</time>
      </trkpt>
      <trkpt lat="47.03665" lon="6.27301">
        <ele>412</ele>
        <time>2015-10-04T10:53:56Z</time>
      </trkpt>
      <trkpt lat="47.03662" lon="6.27314">
        <ele>409</ele>
        <time>2015-10-04T10:54:01Z</time>
      </trkpt>
      <trkpt lat="47.03659" lon="6.27332">
        <ele>406</ele>
        <time>2015-10-04T10:54:05Z</time>
      </trkpt>
      <trkpt lat="47.03654" lon="6.27366">
        <ele>403</ele>
        <time>2015-10-04T10:54:10Z</time>
      </trkpt>
      <trkpt lat="47.03653" lon="6.27398">
        <ele>401</ele>
        <time>2015-10-04T10:54:14Z</time>
      </trkpt>
      <trkpt lat="47.03653" lon="6.27425">
        <ele>398</ele>
        <time>2015-10-04T10:54:19Z</time>
      </trkpt>
      <trkpt lat="47.0367" lon="6.27445">
        <ele>393</ele>
        <time>2015-10-04T10:54:23Z</time>
      </trkpt>
      <trkpt lat="47.03695" lon="6.27462">
        <ele>385</ele>
        <time>2015-10-04T10:54:28Z</time>
      </trkpt>
      <trkpt lat="47.03709" lon="6.27521">
        <ele>378</ele>
        <time>2015-10-04T10:54:33Z</time>
      </trkpt>
      <trkpt lat="47.03723" lon="6.27561">
        <ele>378</ele>
        <time>2015-10-04T10:54:38Z</time>
      </trkpt>
      <trkpt lat="47.03738" lon="6.27564">
        <ele>378</ele>
        <time>2015-10-04T10:54:42Z</time>
      </trkpt>
      <trkpt lat="47.03752" lon="6.27569">
        <ele>376</ele>
        <time>2015-10-04T10:54:47Z</time>
      </trkpt>
      <trkpt lat="47.03762" lon="6.27576">
        <ele>375</ele>
        <time>2015-10-04T10:54:51Z</time>
      </trkpt>
      <trkpt lat="47.03768" lon="6.2759">
        <ele>376</ele>
        <time>2015-10-04T10:54:55Z</time>
      </trkpt>
      <trkpt lat="47.03769" lon="6.27606">
        <ele>376</ele>
        <time>2015-10-04T10:54:59Z</time>
      </trkpt>
      <trkpt lat="47.03767" lon="6.27623">
        <ele>374</ele>
        <time>2015-10-04T10:55:04Z</time>
      </trkpt>
      <trkpt lat="47.03768" lon="6.27637">
        <ele>378</ele>
        <time>2015-10-04T10:55:09Z</time>
      </trkpt>
      <trkpt lat="47.03768" lon="6.27649">
        <ele>382</ele>
        <time>2015-10-04T10:55:15Z</time>
      </trkpt>
      <trkpt lat="47.03767" lon="6.27661">
        <ele>383</ele>
        <time>2015-10-04T10:55:19Z</time>
      </trkpt>
      <trkpt lat="47.0377" lon="6.27685">
        <ele>381</ele>
        <time>2015-10-04T10:55:24Z</time>
      </trkpt>
      <trkpt lat="47.03772" lon="6.27703">
        <ele>382</ele>
        <time>2015-10-04T10:55:28Z</time>
      </trkpt>
      <trkpt lat="47.03774" lon="6.27721">
        <ele>381</ele>
        <time>2015-10-04T10:55:32Z</time>
      </trkpt>
      <trkpt lat="47.03775" lon="6.27745">
        <ele>381</ele>
        <time>2015-10-04T10:55:37Z</time>
      </trkpt>
      <trkpt lat="47.03774" lon="6.27768">
        <ele>381</ele>
        <time>2015-10-04T10:55:42Z</time>
      </trkpt>
      <trkpt lat="47.03772" lon="6.27787">
        <ele>381</ele>
        <time>2015-10-04T10:55:46Z</time>
      </trkpt>
      <trkpt lat="47.03771" lon="6.27808">
        <ele>380</ele>
        <time>2015-10-04T10:55:50Z</time>
      </trkpt>
      <trkpt lat="47.03768" lon="6.27834">
        <ele>378</ele>
        <time>2015-10-04T10:55:55Z</time>
      </trkpt>
      <trkpt lat="47.03766" lon="6.27861">
        <ele>375</ele>
        <time>2015-10-04T10:55:59Z</time>
      </trkpt>
      <trkpt lat="47.03763" lon="6.27886">
        <ele>375</ele>
        <time>2015-10-04T10:56:02Z</time>
      </trkpt>
      <trkpt lat="47.03744" lon="6.27926">
        <ele>374</ele>
        <time>2015-10-04T10:56:07Z</time>
      </trkpt>
      <trkpt lat="47.0373" lon="6.27973">
        <ele>375</ele>
        <time>2015-10-04T10:56:12Z</time>
      </trkpt>
      <trkpt lat="47.0372" lon="6.28005">
        <ele>376</ele>
        <time>2015-10-04T10:56:16Z</time>
      </trkpt>
      <trkpt lat="47.03711" lon="6.28046">
        <ele>379</ele>
        <time>2015-10-04T10:56:21Z</time>
      </trkpt>
      <trkpt lat="47.03701" lon="6.28078">
        <ele>378</ele>
        <time>2015-10-04T10:56:25Z</time>
      </trkpt>
      <trkpt lat="47.03685" lon="6.28113">
        <ele>376</ele>
        <time>2015-10-04T10:56:30Z</time>
      </trkpt>
      <trkpt lat="47.03672" lon="6.2814">
        <ele>375</ele>
        <time>2015-10-04T10:56:34Z</time>
      </trkpt>
      <trkpt lat="47.03659" lon="6.28164">
        <ele>375</ele>
        <time>2015-10-04T10:56:38Z</time>
      </trkpt>
      <trkpt lat="47.03651" lon="6.28197">
        <ele>376</ele>
        <time>2015-10-04T10:56:43Z</time>
      </trkpt>
      <trkpt lat="47.03645" lon="6.28216">
        <ele>378</ele>
        <time>2015-10-04T10:56:47Z</time>
      </trkpt>
      <trkpt lat="47.03639" lon="6.28235">
        <ele>378</ele>
        <time>2015-10-04T10:56:51Z</time>
      </trkpt>
      <trkpt lat="47.0363" lon="6.28258">
        <ele>382</ele>
        <time>2015-10-04T10:56:56Z</time>
      </trkpt>
      <trkpt lat="47.03615" lon="6.28272">
        <ele>383</ele>
        <time>2015-10-04T10:57:01Z</time>
      </trkpt>
      <trkpt lat="47.036" lon="6.2828">
        <ele>382</ele>
        <time>2015-10-04T10:57:05Z</time>
      </trkpt>
      <trkpt lat="47.03579" lon="6.28296">
        <ele>380</ele>
        <time>2015-10-04T10:57:10Z</time>
      </trkpt>
      <trkpt lat="47.03563" lon="6.28309">
        <ele>378</ele>
        <time>2015-10-04T10:57:14Z</time>
      </trkpt>
      <trkpt lat="47.03548" lon="6.28319">
        <ele>382</ele>
        <time>2015-10-04T10:57:18Z</time>
      </trkpt>
      <trkpt lat="47.03537" lon="6.28336">
        <ele>382</ele>
        <time>2015-10-04T10:57:22Z</time>
      </trkpt>
      <trkpt lat="47.03526" lon="6.28351">
        <ele>381</ele>
        <time>2015-10-04T10:57:26Z</time>
      </trkpt>
      <trkpt lat="47.03517" lon="6.28367">
        <ele>381</ele>
        <time>2015-10-04T10:57:30Z</time>
      </trkpt>
      <trkpt lat="47.03509" lon="6.28385">
        <ele>379</ele>
        <time>2015-10-04T10:57:35Z</time>
      </trkpt>
      <trkpt lat="47.03497" lon="6.28394">
        <ele>379</ele>
        <time>2015-10-04T10:57:40Z</time>
      </trkpt>
      <trkpt lat="47.03484" lon="6.28405">
        <ele>381</ele>
        <time>2015-10-04T10:57:44Z</time>
      </trkpt>
      <trkpt lat="47.03466" lon="6.28406">
        <ele>379</ele>
        <time>2015-10-04T10:57:49Z</time>
      </trkpt>
      <trkpt lat="47.03458" lon="6.28401">
        <ele>379</ele>
        <time>2015-10-04T10:57:53Z</time>
      </trkpt>
      <trkpt lat="47.0345" lon="6.28399">
        <ele>376</ele>
        <time>2015-10-04T10:58:00Z</time>
      </trkpt>
      <trkpt lat="47.03442" lon="6.28394">
        <ele>380</ele>
        <time>2015-10-04T10:58:05Z</time>
      </trkpt>
      <trkpt lat="47.03434" lon="6.28391">
        <ele>380</ele>
        <time>2015-10-04T10:58:10Z</time>
      </trkpt>
      <trkpt lat="47.03426" lon="6.2839">
        <ele>377</ele>
        <time>2015-10-04T10:58:15Z</time>
      </trkpt>
      <trkpt lat="47.03417" lon="6.2839">
        <ele>378</ele>
        <time>2015-10-04T10:58:20Z</time>
      </trkpt>
      <trkpt lat="47.03409" lon="6.2839">
        <ele>376</ele>
        <time>2015-10-04T10:58:25Z</time>
      </trkpt>
      <trkpt lat="47.034" lon="6.28391">
        <ele>377</ele>
        <time>2015-10-04T10:58:32Z</time>
      </trkpt>
      <trkpt lat="47.03392" lon="6.2839">
        <ele>383</ele>
        <time>2015-10-04T10:58:37Z</time>
      </trkpt>
      <trkpt lat="47.03384" lon="6.28391">
        <ele>385</ele>
        <time>2015-10-04T10:58:42Z</time>
      </trkpt>
      <trkpt lat="47.03375" lon="6.28389">
        <ele>386</ele>
        <time>2015-10-04T10:58:47Z</time>
      </trkpt>
      <trkpt lat="47.03367" lon="6.28388">
        <ele>385</ele>
        <time>2015-10-04T10:58:52Z</time>
      </trkpt>
      <trkpt lat="47.03359" lon="6.28385">
        <ele>389</ele>
        <time>2015-10-04T10:58:57Z</time>
      </trkpt>
      <trkpt lat="47.03351" lon="6.28385">
        <ele>389</ele>
        <time>2015-10-04T10:59:02Z</time>
      </trkpt>
      <trkpt lat="47.03344" lon="6.28385">
        <ele>391</ele>
        <time>2015-10-04T10:59:06Z</time>
      </trkpt>
      <trkpt lat="47.03336" lon="6.28387">
        <ele>392</ele>
        <time>2015-10-04T10:59:11Z</time>
      </trkpt>
      <trkpt lat="47.03327" lon="6.28384">
        <ele>394</ele>
        <time>2015-10-04T10:59:17Z</time>
      </trkpt>
      <trkpt lat="47.0332" lon="6.28383">
        <ele>392</ele>
        <time>2015-10-04T10:59:21Z</time>
      </trkpt>
      <trkpt lat="47.03312" lon="6.28383">
        <ele>389</ele>
        <time>2015-10-04T10:59:25Z</time>
      </trkpt>
      <trkpt lat="47.03304" lon="6.28383">
        <ele>390</ele>
        <time>2015-10-04T10:59:29Z</time>
      </trkpt>
      <trkpt lat="47.03296" lon="6.28383">
        <ele>391</ele>
        <time>2015-10-04T10:59:33Z</time>
      </trkpt>
      <trkpt lat="47.03288" lon="6.28385">
        <ele>392</ele>
        <time>2015-10-04T10:59:38Z</time>
      </trkpt>
      <trkpt lat="47.03279" lon="6.2839">
        <ele>394</ele>
        <time>2015-10-04T10:59:43Z</time>
      </trkpt>
      <trkpt lat="47.03274" lon="6.28399">
        <ele>397</ele>
        <time>2015-10-04T10:59:47Z</time>
      </trkpt>
      <trkpt lat="47.03283" lon="6.28402">
        <ele>402</ele>
        <time>2015-10-04T10:59:59Z</time>
      </trkpt>
      <trkpt lat="47.03291" lon="6.28398">
        <ele>403</ele>
        <time>2015-10-04T11:00:05Z</time>
      </trkpt>
      <trkpt lat="47.03299" lon="6.28399">
        <ele>409</ele>
        <time>2015-10-04T11:00:10Z</time>
      </trkpt>
      <trkpt lat="47.03307" lon="6.28402">
        <ele>414</ele>
        <time>2015-10-04T11:00:17Z</time>
      </trkpt>
      <trkpt lat="47.03315" lon="6.28404">
        <ele>416</ele>
        <time>2015-10-04T11:00:23Z</time>
      </trkpt>
      <trkpt lat="47.03321" lon="6.28409">
        <ele>417</ele>
        <time>2015-10-04T11:00:27Z</time>
      </trkpt>
      <trkpt lat="47.03331" lon="6.28412">
        <ele>420</ele>
        <time>2015-10-04T11:00:32Z</time>
      </trkpt>
      <trkpt lat="47.03339" lon="6.28413">
        <ele>421</ele>
        <time>2015-10-04T11:00:39Z</time>
      </trkpt>
      <trkpt lat="47.03347" lon="6.28411">
        <ele>423</ele>
        <time>2015-10-04T11:00:44Z</time>
      </trkpt>
      <trkpt lat="47.03355" lon="6.28416">
        <ele>422</ele>
        <time>2015-10-04T11:00:48Z</time>
      </trkpt>
      <trkpt lat="47.03365" lon="6.28422">
        <ele>423</ele>
        <time>2015-10-04T11:00:53Z</time>
      </trkpt>
      <trkpt lat="47.03373" lon="6.28423">
        <ele>424</ele>
        <time>2015-10-04T11:00:57Z</time>
      </trkpt>
      <trkpt lat="47.03382" lon="6.2843">
        <ele>417</ele>
        <time>2015-10-04T11:01:02Z</time>
      </trkpt>
      <trkpt lat="47.0339" lon="6.2843">
        <ele>417</ele>
        <time>2015-10-04T11:01:07Z</time>
      </trkpt>
      <trkpt lat="47.03397" lon="6.28434">
        <ele>418</ele>
        <time>2015-10-04T11:01:12Z</time>
      </trkpt>
      <trkpt lat="47.03395" lon="6.28447">
        <ele>420</ele>
        <time>2015-10-04T11:01:18Z</time>
      </trkpt>
      <trkpt lat="47.03387" lon="6.28451">
        <ele>421</ele>
        <time>2015-10-04T11:01:25Z</time>
      </trkpt>
      <trkpt lat="47.0338" lon="6.28447">
        <ele>423</ele>
        <time>2015-10-04T11:01:31Z</time>
      </trkpt>
      <trkpt lat="47.03372" lon="6.28445">
        <ele>425</ele>
        <time>2015-10-04T11:01:36Z</time>
      </trkpt>
      <trkpt lat="47.03364" lon="6.28446">
        <ele>426</ele>
        <time>2015-10-04T11:01:41Z</time>
      </trkpt>
      <trkpt lat="47.03356" lon="6.28447">
        <ele>428</ele>
        <time>2015-10-04T11:01:46Z</time>
      </trkpt>
      <trkpt lat="47.03347" lon="6.28449">
        <ele>428</ele>
        <time>2015-10-04T11:01:51Z</time>
      </trkpt>
      <trkpt lat="47.03342" lon="6.28453">
        <ele>427</ele>
        <time>2015-10-04T11:01:55Z</time>
      </trkpt>
      <trkpt lat="47.03334" lon="6.28455">
        <ele>428</ele>
        <time>2015-10-04T11:02:00Z</time>
      </trkpt>
      <trkpt lat="47.03326" lon="6.28458">
        <ele>428</ele>
        <time>2015-10-04T11:02:05Z</time>
      </trkpt>
      <trkpt lat="47.03317" lon="6.28461">
        <ele>431</ele>
        <time>2015-10-04T11:02:10Z</time>
      </trkpt>
      <trkpt lat="47.03309" lon="6.28465">
        <ele>432</ele>
        <time>2015-10-04T11:02:15Z</time>
      </trkpt>
      <trkpt lat="47.03302" lon="6.28473">
        <ele>434</ele>
        <time>2015-10-04T11:02:21Z</time>
      </trkpt>
      <trkpt lat="47.03296" lon="6.28483">
        <ele>438</ele>
        <time>2015-10-04T11:02:28Z</time>
      </trkpt>
      <trkpt lat="47.0329" lon="6.28492">
        <ele>442</ele>
        <time>2015-10-04T11:02:37Z</time>
      </trkpt>
      <trkpt lat="47.03285" lon="6.28502">
        <ele>443</ele>
        <time>2015-10-04T11:02:45Z</time>
      </trkpt>
      <trkpt lat="47.03278" lon="6.28511">
        <ele>443</ele>
        <time>2015-10-04T11:02:53Z</time>
      </trkpt>
      <trkpt lat="47.03271" lon="6.28516">
        <ele>445</ele>
        <time>2015-10-04T11:03:00Z</time>
      </trkpt>
      <trkpt lat="47.03263" lon="6.28521">
        <ele>445</ele>
        <time>2015-10-04T11:03:06Z</time>
      </trkpt>
      <trkpt lat="47.03256" lon="6.28529">
        <ele>444</ele>
        <time>2015-10-04T11:03:14Z</time>
      </trkpt>
      <trkpt lat="47.03249" lon="6.28535">
        <ele>447</ele>
        <time>2015-10-04T11:03:20Z</time>
      </trkpt>
      <trkpt lat="47.03241" lon="6.28538">
        <ele>449</ele>
        <time>2015-10-04T11:03:27Z</time>
      </trkpt>
      <trkpt lat="47.03233" lon="6.28543">
        <ele>459</ele>
        <time>2015-10-04T11:03:34Z</time>
      </trkpt>
      <trkpt lat="47.03225" lon="6.28547">
        <ele>461</ele>
        <time>2015-10-04T11:03:41Z</time>
      </trkpt>
      <trkpt lat="47.03218" lon="6.28552">
        <ele>462</ele>
        <time>2015-10-04T11:03:48Z</time>
      </trkpt>
      <trkpt lat="47.03211" lon="6.28557">
        <ele>462</ele>
        <time>2015-10-04T11:03:54Z</time>
      </trkpt>
      <trkpt lat="47.03205" lon="6.28565">
        <ele>462</ele>
        <time>2015-10-04T11:03:59Z</time>
      </trkpt>
      <trkpt lat="47.03197" lon="6.28571">
        <ele>465</ele>
        <time>2015-10-04T11:04:08Z</time>
      </trkpt>
      <trkpt lat="47.0319" lon="6.28577">
        <ele>465</ele>
        <time>2015-10-04T11:04:18Z</time>
      </trkpt>
      <trkpt lat="47.03185" lon="6.28586">
        <ele>466</ele>
        <time>2015-10-04T11:04:25Z</time>
      </trkpt>
      <trkpt lat="47.03178" lon="6.28594">
        <ele>467</ele>
        <time>2015-10-04T11:04:31Z</time>
      </trkpt>
      <trkpt lat="47.03173" lon="6.28602">
        <ele>468</ele>
        <time>2015-10-04T11:04:37Z</time>
      </trkpt>
      <trkpt lat="47.03164" lon="6.28607">
        <ele>468</ele>
        <time>2015-10-04T11:04:44Z</time>
      </trkpt>
      <trkpt lat="47.03158" lon="6.28614">
        <ele>467</ele>
        <time>2015-10-04T11:04:50Z</time>
      </trkpt>
      <trkpt lat="47.03152" lon="6.28623">
        <ele>466</ele>
        <time>2015-10-04T11:04:56Z</time>
      </trkpt>
      <trkpt lat="47.03146" lon="6.28631">
        <ele>469</ele>
        <time>2015-10-04T11:05:02Z</time>
      </trkpt>
      <trkpt lat="47.03139" lon="6.28636">
        <ele>470</ele>
        <time>2015-10-04T11:05:08Z</time>
      </trkpt>
      <trkpt lat="47.03132" lon="6.28641">
        <ele>474</ele>
        <time>2015-10-04T11:05:14Z</time>
      </trkpt>
      <trkpt lat="47.03127" lon="6.28651">
        <ele>475</ele>
        <time>2015-10-04T11:05:20Z</time>
      </trkpt>
      <trkpt lat="47.0312" lon="6.28656">
        <ele>475</ele>
        <time>2015-10-04T11:05:25Z</time>
      </trkpt>
      <trkpt lat="47.03112" lon="6.28663">
        <ele>476</ele>
        <time>2015-10-04T11:05:30Z</time>
      </trkpt>
      <trkpt lat="47.03105" lon="6.28669">
        <ele>477</ele>
        <time>2015-10-04T11:05:36Z</time>
      </trkpt>
      <trkpt lat="47.03098" lon="6.28677">
        <ele>479</ele>
        <time>2015-10-04T11:05:42Z</time>
      </trkpt>
      <trkpt lat="47.031" lon="6.28689">
        <ele>478</ele>
        <time>2015-10-04T11:05:50Z</time>
      </trkpt>
      <trkpt lat="47.03108" lon="6.28687">
        <ele>477</ele>
        <time>2015-10-04T11:05:56Z</time>
      </trkpt>
      <trkpt lat="47.03115" lon="6.28681">
        <ele>478</ele>
        <time>2015-10-04T11:06:01Z</time>
      </trkpt>
      <trkpt lat="47.03122" lon="6.28673">
        <ele>479</ele>
        <time>2015-10-04T11:06:06Z</time>
      </trkpt>
      <trkpt lat="47.0313" lon="6.28668">
        <ele>483</ele>
        <time>2015-10-04T11:06:13Z</time>
      </trkpt>
      <trkpt lat="47.03139" lon="6.28669">
        <ele>484</ele>
        <time>2015-10-04T11:06:19Z</time>
      </trkpt>
      <trkpt lat="47.03147" lon="6.28666">
        <ele>486</ele>
        <time>2015-10-04T11:06:25Z</time>
      </trkpt>
      <trkpt lat="47.03154" lon="6.28664">
        <ele>486</ele>
        <time>2015-10-04T11:06:30Z</time>
      </trkpt>
      <trkpt lat="47.03163" lon="6.28663">
        <ele>484</ele>
        <time>2015-10-04T11:06:43Z</time>
      </trkpt>
      <trkpt lat="47.03171" lon="6.28656">
        <ele>489</ele>
        <time>2015-10-04T11:11:48Z</time>
      </trkpt>
      <trkpt lat="47.0318" lon="6.28654">
        <ele>489</ele>
        <time>2015-10-04T11:11:53Z</time>
      </trkpt>
      <trkpt lat="47.03187" lon="6.28649">
        <ele>491</ele>
        <time>2015-10-04T11:11:57Z</time>
      </trkpt>
      <trkpt lat="47.03196" lon="6.2864">
        <ele>494</ele>
        <time>2015-10-04T11:12:02Z</time>
      </trkpt>
      <trkpt lat="47.03204" lon="6.28636">
        <ele>496</ele>
        <time>2015-10-04T11:12:06Z</time>
      </trkpt>
      <trkpt lat="47.03212" lon="6.28637">
        <ele>495</ele>
        <time>2015-10-04T11:12:10Z</time>
      </trkpt>
      <trkpt lat="47.03221" lon="6.28637">
        <ele>497</ele>
        <time>2015-10-04T11:12:15Z</time>
      </trkpt>
      <trkpt lat="47.03229" lon="6.28638">
        <ele>501</ele>
        <time>2015-10-04T11:12:21Z</time>
      </trkpt>
      <trkpt lat="47.03234" lon="6.28646">
        <ele>504</ele>
        <time>2015-10-04T11:12:25Z</time>
      </trkpt>
      <trkpt lat="47.03239" lon="6.28657">
        <ele>501</ele>
        <time>2015-10-04T11:12:29Z</time>
      </trkpt>
      <trkpt lat="47.03231" lon="6.28662">
        <ele>502</ele>
        <time>2015-10-04T11:12:35Z</time>
      </trkpt>
      <trkpt lat="47.03223" lon="6.28667">
        <ele>501</ele>
        <time>2015-10-04T11:12:46Z</time>
      </trkpt>
      <trkpt lat="47.03214" lon="6.28667">
        <ele>503</ele>
        <time>2015-10-04T11:12:54Z</time>
      </trkpt>
      <trkpt lat="47.0321" lon="6.28678">
        <ele>503</ele>
        <time>2015-10-04T11:13:08Z</time>
      </trkpt>
      <trkpt lat="47.03208" lon="6.2869">
        <ele>500</ele>
        <time>2015-10-04T11:13:42Z</time>
      </trkpt>
      <trkpt lat="47.03206" lon="6.28701">
        <ele>500</ele>
        <time>2015-10-04T11:13:47Z</time>
      </trkpt>
      <trkpt lat="47.032" lon="6.28708">
        <ele>501</ele>
        <time>2015-10-04T11:13:51Z</time>
      </trkpt>
      <trkpt lat="47.03192" lon="6.28714">
        <ele>498</ele>
        <time>2015-10-04T11:13:57Z</time>
      </trkpt>
      <trkpt lat="47.03189" lon="6.2873">
        <ele>494</ele>
        <time>2015-10-04T11:14:02Z</time>
      </trkpt>
      <trkpt lat="47.03187" lon="6.2874">
        <ele>489</ele>
        <time>2015-10-04T11:14:06Z</time>
      </trkpt>
      <trkpt lat="47.03182" lon="6.28751">
        <ele>488</ele>
        <time>2015-10-04T11:14:10Z</time>
      </trkpt>
      <trkpt lat="47.03175" lon="6.28762">
        <ele>485</ele>
        <time>2015-10-04T11:14:15Z</time>
      </trkpt>
      <trkpt lat="47.03168" lon="6.28768">
        <ele>488</ele>
        <time>2015-10-04T11:14:20Z</time>
      </trkpt>
      <trkpt lat="47.03162" lon="6.28782">
        <ele>484</ele>
        <time>2015-10-04T11:14:25Z</time>
      </trkpt>
      <trkpt lat="47.03157" lon="6.28791">
        <ele>486</ele>
        <time>2015-10-04T11:14:29Z</time>
      </trkpt>
      <trkpt lat="47.03154" lon="6.28803">
        <ele>486</ele>
        <time>2015-10-04T11:14:34Z</time>
      </trkpt>
      <trkpt lat="47.03149" lon="6.28813">
        <ele>492</ele>
        <time>2015-10-04T11:14:39Z</time>
      </trkpt>
      <trkpt lat="47.03143" lon="6.28821">
        <ele>495</ele>
        <time>2015-10-04T11:14:44Z</time>
      </trkpt>
      <trkpt lat="47.03136" lon="6.28827">
        <ele>498</ele>
        <time>2015-10-04T11:14:49Z</time>
      </trkpt>
      <trkpt lat="47.0313" lon="6.28836">
        <ele>500</ele>
        <time>2015-10-04T11:14:54Z</time>
      </trkpt>
      <trkpt lat="47.03123" lon="6.28845">
        <ele>505</ele>
        <time>2015-10-04T11:15:05Z</time>
      </trkpt>
      <trkpt lat="47.0312" lon="6.28856">
        <ele>506</ele>
        <time>2015-10-04T11:15:25Z</time>
      </trkpt>
      <trkpt lat="47.03109" lon="6.28865">
        <ele>507</ele>
        <time>2015-10-04T11:15:30Z</time>
      </trkpt>
      <trkpt lat="47.03099" lon="6.28872">
        <ele>510</ele>
        <time>2015-10-04T11:15:34Z</time>
      </trkpt>
      <trkpt lat="47.03088" lon="6.28882">
        <ele>511</ele>
        <time>2015-10-04T11:15:39Z</time>
      </trkpt>
      <trkpt lat="47.0308" lon="6.2889">
        <ele>514</ele>
        <time>2015-10-04T11:15:44Z</time>
      </trkpt>
      <trkpt lat="47.03072" lon="6.289">
        <ele>521</ele>
        <time>2015-10-04T11:15:48Z</time>
      </trkpt>
      <trkpt lat="47.03069" lon="6.2891">
        <ele>524</ele>
        <time>2015-10-04T11:15:52Z</time>
      </trkpt>
      <trkpt lat="47.03064" lon="6.28924">
        <ele>529</ele>
        <time>2015-10-04T11:15:56Z</time>
      </trkpt>
      <trkpt lat="47.03059" lon="6.28941">
        <ele>534</ele>
        <time>2015-10-04T11:16:00Z</time>
      </trkpt>
      <trkpt lat="47.03055" lon="6.28953">
        <ele>545</ele>
        <time>2015-10-04T11:16:08Z</time>
      </trkpt>
      <trkpt lat="47.03053" lon="6.28965">
        <ele>544</ele>
        <time>2015-10-04T11:16:16Z</time>
      </trkpt>
      <trkpt lat="47.03052" lon="6.28978">
        <ele>544</ele>
        <time>2015-10-04T11:16:27Z</time>
      </trkpt>
      <trkpt lat="47.03057" lon="6.28987">
        <ele>547</ele>
        <time>2015-10-04T11:16:33Z</time>
      </trkpt>
      <trkpt lat="47.03058" lon="6.29">
        <ele>556</ele>
        <time>2015-10-04T11:16:46Z</time>
      </trkpt>
      <trkpt lat="47.03062" lon="6.29011">
        <ele>555</ele>
        <time>2015-10-04T11:16:53Z</time>
      </trkpt>
      <trkpt lat="47.03067" lon="6.29021">
        <ele>558</ele>
        <time>2015-10-04T11:16:59Z</time>
      </trkpt>
      <trkpt lat="47.03067" lon="6.29033">
        <ele>560</ele>
        <time>2015-10-04T11:17:06Z</time>
      </trkpt>
      <trkpt lat="47.03071" lon="6.29044">
        <ele>557</ele>
        <time>2015-10-04T11:17:11Z</time>
      </trkpt>
      <trkpt lat="47.0308" lon="6.29057">
        <ele>559</ele>
        <time>2015-10-04T11:17:16Z</time>
      </trkpt>
      <trkpt lat="47.03086" lon="6.29065">
        <ele>560</ele>
        <time>2015-10-04T11:17:21Z</time>
      </trkpt>
      <trkpt lat="47.03092" lon="6.29074">
        <ele>564</ele>
        <time>2015-10-04T11:17:28Z</time>
      </trkpt>
      <trkpt lat="47.03099" lon="6.29079">
        <ele>572</ele>
        <time>2015-10-04T11:17:34Z</time>
      </trkpt>
      <trkpt lat="47.03105" lon="6.29088">
        <ele>574</ele>
        <time>2015-10-04T11:17:39Z</time>
      </trkpt>
      <trkpt lat="47.03109" lon="6.29097">
        <ele>583</ele>
        <time>2015-10-04T11:17:48Z</time>
      </trkpt>
      <trkpt lat="47.03109" lon="6.29109">
        <ele>586</ele>
        <time>2015-10-04T11:17:55Z</time>
      </trkpt>
      <trkpt lat="47.0311" lon="6.2912">
        <ele>584</ele>
        <time>2015-10-04T11:18:03Z</time>
      </trkpt>
      <trkpt lat="47.03116" lon="6.29129">
        <ele>584</ele>
        <time>2015-10-04T11:18:17Z</time>
      </trkpt>
      <trkpt lat="47.03122" lon="6.29138">
        <ele>585</ele>
        <time>2015-10-04T11:18:47Z</time>
      </trkpt>
      <trkpt lat="47.03128" lon="6.29148">
        <ele>581</ele>
        <time>2015-10-04T11:18:51Z</time>
      </trkpt>
      <trkpt lat="47.03133" lon="6.29158">
        <ele>585</ele>
        <time>2015-10-04T11:19:19Z</time>
      </trkpt>
      <trkpt lat="47.03138" lon="6.29173">
        <ele>584</ele>
        <time>2015-10-04T11:19:23Z</time>
      </trkpt>
      <trkpt lat="47.0314" lon="6.2919">
        <ele>586</ele>
        <time>2015-10-04T11:19:27Z</time>
      </trkpt>
      <trkpt lat="47.03145" lon="6.29196">
        <ele>590</ele>
        <time>2015-10-04T11:19:32Z</time>
      </trkpt>
      <trkpt lat="47.03151" lon="6.29213">
        <ele>595</ele>
        <time>2015-10-04T11:19:36Z</time>
      </trkpt>
      <trkpt lat="47.03155" lon="6.29236">
        <ele>593</ele>
        <time>2015-10-04T11:19:41Z</time>
      </trkpt>
      <trkpt lat="47.0316" lon="6.29249">
        <ele>593</ele>
        <time>2015-10-04T11:19:45Z</time>
      </trkpt>
      <trkpt lat="47.03163" lon="6.29268">
        <ele>595</ele>
        <time>2015-10-04T11:19:50Z</time>
      </trkpt>
      <trkpt lat="47.03162" lon="6.29282">
        <ele>597</ele>
        <time>2015-10-04T11:19:54Z</time>
      </trkpt>
      <trkpt lat="47.03163" lon="6.29294">
        <ele>604</ele>
        <time>2015-10-04T11:19:58Z</time>
      </trkpt>
      <trkpt lat="47.03165" lon="6.29306">
        <ele>608</ele>
        <time>2015-10-04T11:20:04Z</time>
      </trkpt>
      <trkpt lat="47.03168" lon="6.29316">
        <ele>612</ele>
        <time>2015-10-04T11:20:28Z</time>
      </trkpt>
      <trkpt lat="47.03178" lon="6.29333">
        <ele>607</ele>
        <time>2015-10-04T11:20:33Z</time>
      </trkpt>
      <trkpt lat="47.03178" lon="6.29347">
        <ele>605</ele>
        <time>2015-10-04T11:20:39Z</time>
      </trkpt>
      <trkpt lat="47.03177" lon="6.29359">
        <ele>605</ele>
        <time>2015-10-04T11:20:45Z</time>
      </trkpt>
      <trkpt lat="47.03184" lon="6.29354">
        <ele>616</ele>
        <time>2015-10-04T11:22:06Z</time>
      </trkpt>
      <trkpt lat="47.03192" lon="6.29346">
        <ele>614</ele>
        <time>2015-10-04T11:22:11Z</time>
      </trkpt>
      <trkpt lat="47.03192" lon="6.29333">
        <ele>626</ele>
        <time>2015-10-04T11:23:15Z</time>
      </trkpt>
      <trkpt lat="47.03193" lon="6.2932">
        <ele>630</ele>
        <time>2015-10-04T11:23:21Z</time>
      </trkpt>
      <trkpt lat="47.03194" lon="6.29307">
        <ele>634</ele>
        <time>2015-10-04T11:23:26Z</time>
      </trkpt>
      <trkpt lat="47.03195" lon="6.29295">
        <ele>637</ele>
        <time>2015-10-04T11:23:32Z</time>
      </trkpt>
      <trkpt lat="47.03196" lon="6.29282">
        <ele>641</ele>
        <time>2015-10-04T11:23:41Z</time>
      </trkpt>
      <trkpt lat="47.03197" lon="6.29269">
        <ele>640</ele>
        <time>2015-10-04T11:23:49Z</time>
      </trkpt>
      <trkpt lat="47.03196" lon="6.29256">
        <ele>649</ele>
        <time>2015-10-04T11:24:02Z</time>
      </trkpt>
      <trkpt lat="47.03197" lon="6.29243">
        <ele>647</ele>
        <time>2015-10-04T11:24:45Z</time>
      </trkpt>
      <trkpt lat="47.03204" lon="6.29234">
        <ele>640</ele>
        <time>2015-10-04T11:24:50Z</time>
      </trkpt>
      <trkpt lat="47.03208" lon="6.29223">
        <ele>643</ele>
        <time>2015-10-04T11:24:56Z</time>
      </trkpt>
      <trkpt lat="47.03211" lon="6.29212">
        <ele>643</ele>
        <time>2015-10-04T11:25:01Z</time>
      </trkpt>
      <trkpt lat="47.03214" lon="6.292">
        <ele>643</ele>
        <time>2015-10-04T11:25:05Z</time>
      </trkpt>
      <trkpt lat="47.03218" lon="6.29188">
        <ele>641</ele>
        <time>2015-10-04T11:25:13Z</time>
      </trkpt>
      <trkpt lat="47.03223" lon="6.2918">
        <ele>641</ele>
        <time>2015-10-04T11:25:42Z</time>
      </trkpt>
      <trkpt lat="47.03231" lon="6.29175">
        <ele>646</ele>
        <time>2015-10-04T11:25:50Z</time>
      </trkpt>
      <trkpt lat="47.03236" lon="6.29166">
        <ele>650</ele>
        <time>2015-10-04T11:25:55Z</time>
      </trkpt>
      <trkpt lat="47.03243" lon="6.29158">
        <ele>651</ele>
        <time>2015-10-04T11:26:02Z</time>
      </trkpt>
      <trkpt lat="47.03251" lon="6.29154">
        <ele>649</ele>
        <time>2015-10-04T11:26:11Z</time>
      </trkpt>
      <trkpt lat="47.03259" lon="6.29154">
        <ele>652</ele>
        <time>2015-10-04T11:26:17Z</time>
      </trkpt>
      <trkpt lat="47.03267" lon="6.29149">
        <ele>657</ele>
        <time>2015-10-04T11:26:26Z</time>
      </trkpt>
      <trkpt lat="47.03272" lon="6.2914">
        <ele>661</ele>
        <time>2015-10-04T11:26:33Z</time>
      </trkpt>
      <trkpt lat="47.03281" lon="6.29136">
        <ele>660</ele>
        <time>2015-10-04T11:26:41Z</time>
      </trkpt>
      <trkpt lat="47.03289" lon="6.2914">
        <ele>654</ele>
        <time>2015-10-04T11:26:47Z</time>
      </trkpt>
      <trkpt lat="47.03297" lon="6.29134">
        <ele>668</ele>
        <time>2015-10-04T11:29:04Z</time>
      </trkpt>
      <trkpt lat="47.03297" lon="6.29147">
        <ele>659</ele>
        <time>2015-10-04T11:32:08Z</time>
      </trkpt>
      <trkpt lat="47.03299" lon="6.29159">
        <ele>661</ele>
        <time>2015-10-04T11:32:20Z</time>
      </trkpt>
      <trkpt lat="47.03291" lon="6.29156">
        <ele>658</ele>
        <time>2015-10-04T11:34:10Z</time>
      </trkpt>
      <trkpt lat="47.03296" lon="6.29146">
        <ele>655</ele>
        <time>2015-10-04T11:34:26Z</time>
      </trkpt>
      <trkpt lat="47.03305" lon="6.29133">
        <ele>659</ele>
        <time>2015-10-04T11:34:30Z</time>
      </trkpt>
      <trkpt lat="47.0332" lon="6.29111">
        <ele>660</ele>
        <time>2015-10-04T11:34:35Z</time>
      </trkpt>
      <trkpt lat="47.03347" lon="6.29088">
        <ele>655</ele>
        <time>2015-10-04T11:34:40Z</time>
      </trkpt>
      <trkpt lat="47.03357" lon="6.29081">
        <ele>654</ele>
        <time>2015-10-04T11:34:44Z</time>
      </trkpt>
      <trkpt lat="47.03366" lon="6.29079">
        <ele>657</ele>
        <time>2015-10-04T11:34:51Z</time>
      </trkpt>
      <trkpt lat="47.03374" lon="6.29081">
        <ele>656</ele>
        <time>2015-10-04T11:34:56Z</time>
      </trkpt>
      <trkpt lat="47.03382" lon="6.29083">
        <ele>660</ele>
        <time>2015-10-04T11:35:09Z</time>
      </trkpt>
      <trkpt lat="47.0339" lon="6.29089">
        <ele>662</ele>
        <time>2015-10-04T11:35:18Z</time>
      </trkpt>
      <trkpt lat="47.03398" lon="6.29088">
        <ele>661</ele>
        <time>2015-10-04T11:35:24Z</time>
      </trkpt>
      <trkpt lat="47.03408" lon="6.29087">
        <ele>661</ele>
        <time>2015-10-04T11:35:28Z</time>
      </trkpt>
      <trkpt lat="47.03417" lon="6.29085">
        <ele>663</ele>
        <time>2015-10-04T11:35:33Z</time>
      </trkpt>
      <trkpt lat="47.03429" lon="6.29084">
        <ele>665</ele>
        <time>2015-10-04T11:35:38Z</time>
      </trkpt>
      <trkpt lat="47.03446" lon="6.29087">
        <ele>664</ele>
        <time>2015-10-04T11:35:42Z</time>
      </trkpt>
      <trkpt lat="47.03465" lon="6.29096">
        <ele>660</ele>
        <time>2015-10-04T11:35:46Z</time>
      </trkpt>
      <trkpt lat="47.03482" lon="6.29111">
        <ele>656</ele>
        <time>2015-10-04T11:35:50Z</time>
      </trkpt>
      <trkpt lat="47.03518" lon="6.29136">
        <ele>657</ele>
        <time>2015-10-04T11:35:55Z</time>
      </trkpt>
      <trkpt lat="47.03547" lon="6.2916">
        <ele>655</ele>
        <time>2015-10-04T11:35:59Z</time>
      </trkpt>
      <trkpt lat="47.03571" lon="6.29204">
        <ele>651</ele>
        <time>2015-10-04T11:36:03Z</time>
      </trkpt>
      <trkpt lat="47.03571" lon="6.29214">
        <ele>649</ele>
        <time>2015-10-04T11:36:07Z</time>
      </trkpt>
      <trkpt lat="47.03577" lon="6.2923">
        <ele>645</ele>
        <time>2015-10-04T11:36:12Z</time>
      </trkpt>
      <trkpt lat="47.03582" lon="6.29241">
        <ele>651</ele>
        <time>2015-10-04T11:36:20Z</time>
      </trkpt>
      <trkpt lat="47.0359" lon="6.29247">
        <ele>656</ele>
        <time>2015-10-04T11:36:28Z</time>
      </trkpt>
      <trkpt lat="47.03595" lon="6.29254">
        <ele>655</ele>
        <time>2015-10-04T11:36:33Z</time>
      </trkpt>
      <trkpt lat="47.03603" lon="6.2926">
        <ele>654</ele>
        <time>2015-10-04T11:36:38Z</time>
      </trkpt>
      <trkpt lat="47.03613" lon="6.29262">
        <ele>659</ele>
        <time>2015-10-04T11:36:45Z</time>
      </trkpt>
      <trkpt lat="47.03617" lon="6.29251">
        <ele>657</ele>
        <time>2015-10-04T11:37:00Z</time>
      </trkpt>
      <trkpt lat="47.03616" lon="6.29239">
        <ele>663</ele>
        <time>2015-10-04T11:37:11Z</time>
      </trkpt>
      <trkpt lat="47.03621" lon="6.29228">
        <ele>658</ele>
        <time>2015-10-04T11:37:36Z</time>
      </trkpt>
      <trkpt lat="47.03621" lon="6.29216">
        <ele>662</ele>
        <time>2015-10-04T11:37:42Z</time>
      </trkpt>
      <trkpt lat="47.0362" lon="6.29199">
        <ele>663</ele>
        <time>2015-10-04T11:37:46Z</time>
      </trkpt>
      <trkpt lat="47.03635" lon="6.29148">
        <ele>667</ele>
        <time>2015-10-04T11:37:50Z</time>
      </trkpt>
      <trkpt lat="47.03638" lon="6.29122">
        <ele>665</ele>
        <time>2015-10-04T11:37:54Z</time>
      </trkpt>
      <trkpt lat="47.03646" lon="6.29081">
        <ele>651</ele>
        <time>2015-10-04T11:37:59Z</time>
      </trkpt>
      <trkpt lat="47.03653" lon="6.29046">
        <ele>651</ele>
        <time>2015-10-04T11:38:03Z</time>
      </trkpt>
      <trkpt lat="47.03659" lon="6.29027">
        <ele>651</ele>
        <time>2015-10-04T11:38:08Z</time>
      </trkpt>
      <trkpt lat="47.03664" lon="6.29016">
        <ele>654</ele>
        <time>2015-10-04T11:38:14Z</time>
      </trkpt>
      <trkpt lat="47.03671" lon="6.2901">
        <ele>653</ele>
        <time>2015-10-04T11:38:21Z</time>
      </trkpt>
      <trkpt lat="47.03679" lon="6.29009">
        <ele>651</ele>
        <time>2015-10-04T11:38:29Z</time>
      </trkpt>
      <trkpt lat="47.03687" lon="6.29007">
        <ele>652</ele>
        <time>2015-10-04T11:38:34Z</time>
      </trkpt>
      <trkpt lat="47.03695" lon="6.29002">
        <ele>655</ele>
        <time>2015-10-04T11:38:40Z</time>
      </trkpt>
      <trkpt lat="47.03702" lon="6.28996">
        <ele>657</ele>
        <time>2015-10-04T11:38:47Z</time>
      </trkpt>
      <trkpt lat="47.03709" lon="6.2899">
        <ele>659</ele>
        <time>2015-10-04T11:38:53Z</time>
      </trkpt>
      <trkpt lat="47.03717" lon="6.28989">
        <ele>659</ele>
        <time>2015-10-04T11:38:59Z</time>
      </trkpt>
      <trkpt lat="47.03725" lon="6.28989">
        <ele>661</ele>
        <time>2015-10-04T11:39:06Z</time>
      </trkpt>
      <trkpt lat="47.03733" lon="6.28986">
        <ele>666</ele>
        <time>2015-10-04T11:39:20Z</time>
      </trkpt>
      <trkpt lat="47.03741" lon="6.28986">
        <ele>669</ele>
        <time>2015-10-04T11:39:26Z</time>
      </trkpt>
      <trkpt lat="47.03749" lon="6.28986">
        <ele>671</ele>
        <time>2015-10-04T11:39:32Z</time>
      </trkpt>
      <trkpt lat="47.03758" lon="6.28984">
        <ele>673</ele>
        <time>2015-10-04T11:39:47Z</time>
      </trkpt>
      <trkpt lat="47.03765" lon="6.28979">
        <ele>675</ele>
        <time>2015-10-04T11:39:52Z</time>
      </trkpt>
      <trkpt lat="47.03773" lon="6.28976">
        <ele>676</ele>
        <time>2015-10-04T11:39:57Z</time>
      </trkpt>
      <trkpt lat="47.03781" lon="6.28972">
        <ele>678</ele>
        <time>2015-10-04T11:40:02Z</time>
      </trkpt>
      <trkpt lat="47.0379" lon="6.28967">
        <ele>679</ele>
        <time>2015-10-04T11:40:08Z</time>
      </trkpt>
      <trkpt lat="47.03797" lon="6.28963">
        <ele>679</ele>
        <time>2015-10-04T11:40:14Z</time>
      </trkpt>
      <trkpt lat="47.03805" lon="6.28967">
        <ele>681</ele>
        <time>2015-10-04T11:40:21Z</time>
      </trkpt>
      <trkpt lat="47.03812" lon="6.28975">
        <ele>682</ele>
        <time>2015-10-04T11:40:29Z</time>
      </trkpt>
      <trkpt lat="47.0382" lon="6.2898">
        <ele>683</ele>
        <time>2015-10-04T11:40:35Z</time>
      </trkpt>
      <trkpt lat="47.03827" lon="6.28983">
        <ele>683</ele>
        <time>2015-10-04T11:40:41Z</time>
      </trkpt>
      <trkpt lat="47.03835" lon="6.28987">
        <ele>685</ele>
        <time>2015-10-04T11:40:48Z</time>
      </trkpt>
      <trkpt lat="47.03843" lon="6.28991">
        <ele>687</ele>
        <time>2015-10-04T11:40:55Z</time>
      </trkpt>
      <trkpt lat="47.03849" lon="6.28998">
        <ele>688</ele>
        <time>2015-10-04T11:41:02Z</time>
      </trkpt>
      <trkpt lat="47.03856" lon="6.29006">
        <ele>689</ele>
        <time>2015-10-04T11:41:09Z</time>
      </trkpt>
      <trkpt lat="47.03864" lon="6.29014">
        <ele>691</ele>
        <time>2015-10-04T11:41:16Z</time>
      </trkpt>
      <trkpt lat="47.0387" lon="6.29022">
        <ele>692</ele>
        <time>2015-10-04T11:41:23Z</time>
      </trkpt>
      <trkpt lat="47.03876" lon="6.2903">
        <ele>693</ele>
        <time>2015-10-04T11:41:30Z</time>
      </trkpt>
      <trkpt lat="47.03882" lon="6.29038">
        <ele>692</ele>
        <time>2015-10-04T11:41:36Z</time>
      </trkpt>
      <trkpt lat="47.03889" lon="6.29047">
        <ele>693</ele>
        <time>2015-10-04T11:41:43Z</time>
      </trkpt>
      <trkpt lat="47.03895" lon="6.29055">
        <ele>696</ele>
        <time>2015-10-04T11:41:50Z</time>
      </trkpt>
      <trkpt lat="47.03902" lon="6.29061">
        <ele>697</ele>
        <time>2015-10-04T11:41:58Z</time>
      </trkpt>
      <trkpt lat="47.03911" lon="6.29062">
        <ele>697</ele>
        <time>2015-10-04T11:42:04Z</time>
      </trkpt>
      <trkpt lat="47.03919" lon="6.29058">
        <ele>696</ele>
        <time>2015-10-04T11:42:11Z</time>
      </trkpt>
      <trkpt lat="47.03925" lon="6.29049">
        <ele>697</ele>
        <time>2015-10-04T11:42:18Z</time>
      </trkpt>
      <trkpt lat="47.03933" lon="6.29046">
        <ele>698</ele>
        <time>2015-10-04T11:44:58Z</time>
      </trkpt>
      <trkpt lat="47.03942" lon="6.29047">
        <ele>697</ele>
        <time>2015-10-04T11:45:09Z</time>
      </trkpt>
      <trkpt lat="47.03942" lon="6.29034">
        <ele>700</ele>
        <time>2015-10-04T11:45:30Z</time>
      </trkpt>
      <trkpt lat="47.03948" lon="6.29026">
        <ele>694</ele>
        <time>2015-10-04T11:45:35Z</time>
      </trkpt>
      <trkpt lat="47.03954" lon="6.29017">
        <ele>694</ele>
        <time>2015-10-04T11:45:45Z</time>
      </trkpt>
      <trkpt lat="47.03962" lon="6.29013">
        <ele>695</ele>
        <time>2015-10-04T11:46:03Z</time>
      </trkpt>
      <trkpt lat="47.0397" lon="6.29007">
        <ele>695</ele>
        <time>2015-10-04T11:46:11Z</time>
      </trkpt>
      <trkpt lat="47.03976" lon="6.29002">
        <ele>699</ele>
        <time>2015-10-04T11:46:31Z</time>
      </trkpt>
      <trkpt lat="47.03988" lon="6.29002">
        <ele>701</ele>
        <time>2015-10-04T11:46:35Z</time>
      </trkpt>
      <trkpt lat="47.03997" lon="6.29006">
        <ele>703</ele>
        <time>2015-10-04T11:46:40Z</time>
      </trkpt>
      <trkpt lat="47.04005" lon="6.29006">
        <ele>705</ele>
        <time>2015-10-04T11:46:46Z</time>
      </trkpt>
      <trkpt lat="47.04013" lon="6.29005">
        <ele>709</ele>
        <time>2015-10-04T11:46:51Z</time>
      </trkpt>
      <trkpt lat="47.04021" lon="6.29004">
        <ele>712</ele>
        <time>2015-10-04T11:46:56Z</time>
      </trkpt>
      <trkpt lat="47.0403" lon="6.29005">
        <ele>713</ele>
        <time>2015-10-04T11:47:10Z</time>
      </trkpt>
      <trkpt lat="47.04038" lon="6.29007">
        <ele>718</ele>
        <time>2015-10-04T11:47:25Z</time>
      </trkpt>
      <trkpt lat="47.04047" lon="6.29008">
        <ele>718</ele>
        <time>2015-10-04T11:47:34Z</time>
      </trkpt>
      <trkpt lat="47.04056" lon="6.29008">
        <ele>719</ele>
        <time>2015-10-04T11:47:51Z</time>
      </trkpt>
      <trkpt lat="47.04063" lon="6.29014">
        <ele>721</ele>
        <time>2015-10-04T11:48:00Z</time>
      </trkpt>
      <trkpt lat="47.04069" lon="6.29023">
        <ele>726</ele>
        <time>2015-10-04T11:48:11Z</time>
      </trkpt>
      <trkpt lat="47.04075" lon="6.29032">
        <ele>723</ele>
        <time>2015-10-04T11:48:28Z</time>
      </trkpt>
      <trkpt lat="47.04079" lon="6.29046">
        <ele>722</ele>
        <time>2015-10-04T11:48:33Z</time>
      </trkpt>
      <trkpt lat="47.04086" lon="6.29059">
        <ele>724</ele>
        <time>2015-10-04T11:48:38Z</time>
      </trkpt>
      <trkpt lat="47.04092" lon="6.29066">
        <ele>727</ele>
        <time>2015-10-04T11:48:43Z</time>
      </trkpt>
      <trkpt lat="47.04097" lon="6.29076">
        <ele>725</ele>
        <time>2015-10-04T11:48:48Z</time>
      </trkpt>
      <trkpt lat="47.04102" lon="6.29084">
        <ele>721</ele>
        <time>2015-10-04T11:48:52Z</time>
      </trkpt>
      <trkpt lat="47.04108" lon="6.29094">
        <ele>719</ele>
        <time>2015-10-04T11:48:57Z</time>
      </trkpt>
      <trkpt lat="47.04114" lon="6.29104">
        <ele>719</ele>
        <time>2015-10-04T11:49:03Z</time>
      </trkpt>
      <trkpt lat="47.04121" lon="6.29109">
        <ele>722</ele>
        <time>2015-10-04T11:49:08Z</time>
      </trkpt>
      <trkpt lat="47.04129" lon="6.29114">
        <ele>725</ele>
        <time>2015-10-04T11:49:14Z</time>
      </trkpt>
      <trkpt lat="47.04136" lon="6.29119">
        <ele>724</ele>
        <time>2015-10-04T11:49:19Z</time>
      </trkpt>
      <trkpt lat="47.04149" lon="6.29125">
        <ele>725</ele>
        <time>2015-10-04T11:49:24Z</time>
      </trkpt>
      <trkpt lat="47.04163" lon="6.29131">
        <ele>720</ele>
        <time>2015-10-04T11:49:28Z</time>
      </trkpt>
      <trkpt lat="47.0417" lon="6.29137">
        <ele>720</ele>
        <time>2015-10-04T11:49:32Z</time>
      </trkpt>
      <trkpt lat="47.04178" lon="6.29141">
        <ele>720</ele>
        <time>2015-10-04T11:50:02Z</time>
      </trkpt>
      <trkpt lat="47.04187" lon="6.29143">
        <ele>726</ele>
        <time>2015-10-04T11:50:44Z</time>
      </trkpt>
      <trkpt lat="47.04193" lon="6.29133">
        <ele>721</ele>
        <time>2015-10-04T11:50:50Z</time>
      </trkpt>
      <trkpt lat="47.04197" lon="6.29124">
        <ele>724</ele>
        <time>2015-10-04T11:50:54Z</time>
      </trkpt>
      <trkpt lat="47.042" lon="6.29113">
        <ele>726</ele>
        <time>2015-10-04T11:50:59Z</time>
      </trkpt>
      <trkpt lat="47.04203" lon="6.29101">
        <ele>725</ele>
        <time>2015-10-04T11:51:04Z</time>
      </trkpt>
      <trkpt lat="47.04209" lon="6.2909">
        <ele>723</ele>
        <time>2015-10-04T11:51:19Z</time>
      </trkpt>
      <trkpt lat="47.04216" lon="6.29084">
        <ele>724</ele>
        <time>2015-10-04T11:52:05Z</time>
      </trkpt>
      <trkpt lat="47.04224" lon="6.29077">
        <ele>722</ele>
        <time>2015-10-04T11:52:12Z</time>
      </trkpt>
      <trkpt lat="47.04232" lon="6.29073">
        <ele>722</ele>
        <time>2015-10-04T11:52:22Z</time>
      </trkpt>
      <trkpt lat="47.0424" lon="6.29073">
        <ele>726</ele>
        <time>2015-10-04T11:52:30Z</time>
      </trkpt>
      <trkpt lat="47.04248" lon="6.29077">
        <ele>727</ele>
        <time>2015-10-04T11:52:39Z</time>
      </trkpt>
      <trkpt lat="47.04254" lon="6.29086">
        <ele>729</ele>
        <time>2015-10-04T11:52:46Z</time>
      </trkpt>
      <trkpt lat="47.04261" lon="6.29093">
        <ele>729</ele>
        <time>2015-10-04T11:52:55Z</time>
      </trkpt>
      <trkpt lat="47.04268" lon="6.29097">
        <ele>732</ele>
        <time>2015-10-04T11:53:00Z</time>
      </trkpt>
      <trkpt lat="47.04276" lon="6.29101">
        <ele>737</ele>
        <time>2015-10-04T11:53:06Z</time>
      </trkpt>
      <trkpt lat="47.04282" lon="6.29108">
        <ele>733</ele>
        <time>2015-10-04T11:53:12Z</time>
      </trkpt>
      <trkpt lat="47.0429" lon="6.29117">
        <ele>730</ele>
        <time>2015-10-04T11:53:17Z</time>
      </trkpt>
      <trkpt lat="47.04292" lon="6.29128">
        <ele>734</ele>
        <time>2015-10-04T11:53:25Z</time>
      </trkpt>
      <trkpt lat="47.04299" lon="6.29133">
        <ele>737</ele>
        <time>2015-10-04T11:53:32Z</time>
      </trkpt>
      <trkpt lat="47.04307" lon="6.29135">
        <ele>740</ele>
        <time>2015-10-04T11:53:36Z</time>
      </trkpt>
      <trkpt lat="47.04315" lon="6.29141">
        <ele>744</ele>
        <time>2015-10-04T11:53:42Z</time>
      </trkpt>
      <trkpt lat="47.04322" lon="6.2915">
        <ele>742</ele>
        <time>2015-10-04T11:53:46Z</time>
      </trkpt>
      <trkpt lat="47.04327" lon="6.2916">
        <ele>738</ele>
        <time>2015-10-04T11:53:51Z</time>
      </trkpt>
      <trkpt lat="47.04333" lon="6.29167">
        <ele>741</ele>
        <time>2015-10-04T11:53:56Z</time>
      </trkpt>
      <trkpt lat="47.04342" lon="6.2917">
        <ele>739</ele>
        <time>2015-10-04T11:54:01Z</time>
      </trkpt>
      <trkpt lat="47.04349" lon="6.29167">
        <ele>739</ele>
        <time>2015-10-04T11:54:05Z</time>
      </trkpt>
      <trkpt lat="47.04358" lon="6.29166">
        <ele>730</ele>
        <time>2015-10-04T11:54:09Z</time>
      </trkpt>
      <trkpt lat="47.04367" lon="6.29166">
        <ele>727</ele>
        <time>2015-10-04T11:54:13Z</time>
      </trkpt>
      <trkpt lat="47.04374" lon="6.29164">
        <ele>731</ele>
        <time>2015-10-04T11:54:18Z</time>
      </trkpt>
      <trkpt lat="47.04382" lon="6.29166">
        <ele>734</ele>
        <time>2015-10-04T11:54:23Z</time>
      </trkpt>
      <trkpt lat="47.04391" lon="6.29167">
        <ele>737</ele>
        <time>2015-10-04T11:54:28Z</time>
      </trkpt>
      <trkpt lat="47.04399" lon="6.29167">
        <ele>740</ele>
        <time>2015-10-04T11:54:33Z</time>
      </trkpt>
      <trkpt lat="47.04407" lon="6.29164">
        <ele>742</ele>
        <time>2015-10-04T11:54:40Z</time>
      </trkpt>
      <trkpt lat="47.04415" lon="6.29166">
        <ele>744</ele>
        <time>2015-10-04T11:54:47Z</time>
      </trkpt>
      <trkpt lat="47.04423" lon="6.29167">
        <ele>743</ele>
        <time>2015-10-04T11:55:33Z</time>
      </trkpt>
      <trkpt lat="47.04427" lon="6.29177">
        <ele>738</ele>
        <time>2015-10-04T11:55:38Z</time>
      </trkpt>
      <trkpt lat="47.04432" lon="6.29186">
        <ele>742</ele>
        <time>2015-10-04T11:55:43Z</time>
      </trkpt>
      <trkpt lat="47.0444" lon="6.2919">
        <ele>747</ele>
        <time>2015-10-04T11:55:50Z</time>
      </trkpt>
      <trkpt lat="47.04446" lon="6.29199">
        <ele>749</ele>
        <time>2015-10-04T11:55:58Z</time>
      </trkpt>
      <trkpt lat="47.04453" lon="6.29204">
        <ele>750</ele>
        <time>2015-10-04T11:56:04Z</time>
      </trkpt>
      <trkpt lat="47.04461" lon="6.29208">
        <ele>753</ele>
        <time>2015-10-04T11:56:09Z</time>
      </trkpt>
      <trkpt lat="47.04469" lon="6.29213">
        <ele>738</ele>
        <time>2015-10-04T11:56:48Z</time>
      </trkpt>
      <trkpt lat="47.04477" lon="6.29211">
        <ele>753</ele>
        <time>2015-10-04T11:56:55Z</time>
      </trkpt>
      <trkpt lat="47.04484" lon="6.29211">
        <ele>758</ele>
        <time>2015-10-04T11:57:00Z</time>
      </trkpt>
      <trkpt lat="47.04492" lon="6.2921">
        <ele>760</ele>
        <time>2015-10-04T11:57:05Z</time>
      </trkpt>
      <trkpt lat="47.04498" lon="6.29208">
        <ele>762</ele>
        <time>2015-10-04T11:57:08Z</time>
      </trkpt>
      <trkpt lat="47.04507" lon="6.29207">
        <ele>766</ele>
        <time>2015-10-04T11:57:13Z</time>
      </trkpt>
      <trkpt lat="47.04514" lon="6.29204">
        <ele>766</ele>
        <time>2015-10-04T11:57:25Z</time>
      </trkpt>
      <trkpt lat="47.04522" lon="6.29201">
        <ele>767</ele>
        <time>2015-10-04T11:57:31Z</time>
      </trkpt>
      <trkpt lat="47.0453" lon="6.29197">
        <ele>768</ele>
        <time>2015-10-04T11:57:37Z</time>
      </trkpt>
      <trkpt lat="47.04536" lon="6.2919">
        <ele>768</ele>
        <time>2015-10-04T11:57:43Z</time>
      </trkpt>
      <trkpt lat="47.04542" lon="6.29182">
        <ele>766</ele>
        <time>2015-10-04T11:57:52Z</time>
      </trkpt>
      <trkpt lat="47.04548" lon="6.29175">
        <ele>766</ele>
        <time>2015-10-04T11:57:58Z</time>
      </trkpt>
      <trkpt lat="47.04558" lon="6.29172">
        <ele>765</ele>
        <time>2015-10-04T11:58:03Z</time>
      </trkpt>
      <trkpt lat="47.04566" lon="6.29166">
        <ele>764</ele>
        <time>2015-10-04T11:58:07Z</time>
      </trkpt>
      <trkpt lat="47.04573" lon="6.29163">
        <ele>763</ele>
        <time>2015-10-04T11:58:12Z</time>
      </trkpt>
      <trkpt lat="47.04581" lon="6.29157">
        <ele>767</ele>
        <time>2015-10-04T11:59:11Z</time>
      </trkpt>
      <trkpt lat="47.04588" lon="6.29154">
        <ele>773</ele>
        <time>2015-10-04T11:59:47Z</time>
      </trkpt>
      <trkpt lat="47.04598" lon="6.29146">
        <ele>775</ele>
        <time>2015-10-04T11:59:52Z</time>
      </trkpt>
      <trkpt lat="47.04607" lon="6.29137">
        <ele>775</ele>
        <time>2015-10-04T11:59:56Z</time>
      </trkpt>
      <trkpt lat="47.04615" lon="6.29127">
        <ele>776</ele>
        <time>2015-10-04T12:00:00Z</time>
      </trkpt>
      <trkpt lat="47.04623" lon="6.29118">
        <ele>776</ele>
        <time>2015-10-04T12:00:04Z</time>
      </trkpt>
      <trkpt lat="47.04628" lon="6.29105">
        <ele>777</ele>
        <time>2015-10-04T12:00:08Z</time>
      </trkpt>
      <trkpt lat="47.04636" lon="6.29091">
        <ele>777</ele>
        <time>2015-10-04T12:00:13Z</time>
      </trkpt>
      <trkpt lat="47.04645" lon="6.29083">
        <ele>778</ele>
        <time>2015-10-04T12:00:17Z</time>
      </trkpt>
      <trkpt lat="47.04652" lon="6.29077">
        <ele>779</ele>
        <time>2015-10-04T12:00:21Z</time>
      </trkpt>
      <trkpt lat="47.0466" lon="6.29073">
        <ele>781</ele>
        <time>2015-10-04T12:00:25Z</time>
      </trkpt>
      <trkpt lat="47.04668" lon="6.29072">
        <ele>780</ele>
        <time>2015-10-04T12:00:29Z</time>
      </trkpt>
      <trkpt lat="47.04676" lon="6.29069">
        <ele>780</ele>
        <time>2015-10-04T12:00:34Z</time>
      </trkpt>
      <trkpt lat="47.04683" lon="6.29065">
        <ele>780</ele>
        <time>2015-10-04T12:00:38Z</time>
      </trkpt>
      <trkpt lat="47.0469" lon="6.2906">
        <ele>781</ele>
        <time>2015-10-04T12:00:43Z</time>
      </trkpt>
      <trkpt lat="47.04696" lon="6.29053">
        <ele>782</ele>
        <time>2015-10-04T12:00:48Z</time>
      </trkpt>
      <trkpt lat="47.04703" lon="6.29047">
        <ele>784</ele>
        <time>2015-10-04T12:00:53Z</time>
      </trkpt>
      <trkpt lat="47.04709" lon="6.2904">
        <ele>785</ele>
        <time>2015-10-04T12:00:58Z</time>
      </trkpt>
      <trkpt lat="47.04716" lon="6.29035">
        <ele>785</ele>
        <time>2015-10-04T12:01:03Z</time>
      </trkpt>
      <trkpt lat="47.04724" lon="6.29029">
        <ele>783</ele>
        <time>2015-10-04T12:01:08Z</time>
      </trkpt>
      <trkpt lat="47.04731" lon="6.29024">
        <ele>784</ele>
        <time>2015-10-04T12:01:14Z</time>
      </trkpt>
      <trkpt lat="47.04738" lon="6.29018">
        <ele>784</ele>
        <time>2015-10-04T12:01:21Z</time>
      </trkpt>
      <trkpt lat="47.04747" lon="6.29015">
        <ele>786</ele>
        <time>2015-10-04T12:01:29Z</time>
      </trkpt>
      <trkpt lat="47.04752" lon="6.29005">
        <ele>789</ele>
        <time>2015-10-04T12:01:36Z</time>
      </trkpt>
      <trkpt lat="47.04754" lon="6.28994">
        <ele>789</ele>
        <time>2015-10-04T12:01:45Z</time>
      </trkpt>
      <trkpt lat="47.04758" lon="6.28984">
        <ele>791</ele>
        <time>2015-10-04T12:01:52Z</time>
      </trkpt>
      <trkpt lat="47.04761" lon="6.28973">
        <ele>793</ele>
        <time>2015-10-04T12:01:58Z</time>
      </trkpt>
      <trkpt lat="47.04765" lon="6.28962">
        <ele>794</ele>
        <time>2015-10-04T12:02:04Z</time>
      </trkpt>
      <trkpt lat="47.04768" lon="6.28952">
        <ele>793</ele>
        <time>2015-10-04T12:02:09Z</time>
      </trkpt>
      <trkpt lat="47.04772" lon="6.28942">
        <ele>795</ele>
        <time>2015-10-04T12:02:14Z</time>
      </trkpt>
      <trkpt lat="47.04778" lon="6.28932">
        <ele>796</ele>
        <time>2015-10-04T12:02:19Z</time>
      </trkpt>
      <trkpt lat="47.04781" lon="6.28921">
        <ele>795</ele>
        <time>2015-10-04T12:02:24Z</time>
      </trkpt>
      <trkpt lat="47.04783" lon="6.28908">
        <ele>797</ele>
        <time>2015-10-04T12:02:29Z</time>
      </trkpt>
      <trkpt lat="47.04787" lon="6.28897">
        <ele>796</ele>
        <time>2015-10-04T12:02:34Z</time>
      </trkpt>
      <trkpt lat="47.04787" lon="6.28882">
        <ele>795</ele>
        <time>2015-10-04T12:02:39Z</time>
      </trkpt>
      <trkpt lat="47.04787" lon="6.28869">
        <ele>794</ele>
        <time>2015-10-04T12:02:44Z</time>
      </trkpt>
      <trkpt lat="47.04782" lon="6.28856">
        <ele>796</ele>
        <time>2015-10-04T12:02:49Z</time>
      </trkpt>
      <trkpt lat="47.04778" lon="6.28843">
        <ele>797</ele>
        <time>2015-10-04T12:02:53Z</time>
      </trkpt>
      <trkpt lat="47.04771" lon="6.28831">
        <ele>796</ele>
        <time>2015-10-04T12:02:57Z</time>
      </trkpt>
      <trkpt lat="47.04766" lon="6.28819">
        <ele>796</ele>
        <time>2015-10-04T12:03:01Z</time>
      </trkpt>
      <trkpt lat="47.04762" lon="6.28807">
        <ele>796</ele>
        <time>2015-10-04T12:03:05Z</time>
      </trkpt>
      <trkpt lat="47.04758" lon="6.28795">
        <ele>796</ele>
        <time>2015-10-04T12:03:09Z</time>
      </trkpt>
      <trkpt lat="47.04755" lon="6.28782">
        <ele>795</ele>
        <time>2015-10-04T12:03:13Z</time>
      </trkpt>
      <trkpt lat="47.04753" lon="6.28771">
        <ele>795</ele>
        <time>2015-10-04T12:03:17Z</time>
      </trkpt>
      <trkpt lat="47.04749" lon="6.28758">
        <ele>796</ele>
        <time>2015-10-04T12:03:21Z</time>
      </trkpt>
      <trkpt lat="47.04749" lon="6.28744">
        <ele>798</ele>
        <time>2015-10-04T12:03:25Z</time>
      </trkpt>
      <trkpt lat="47.04758" lon="6.28734">
        <ele>801</ele>
        <time>2015-10-04T12:03:30Z</time>
      </trkpt>
      <trkpt lat="47.04766" lon="6.2873">
        <ele>800</ele>
        <time>2015-10-04T12:03:36Z</time>
      </trkpt>
      <trkpt lat="47.04773" lon="6.28736">
        <ele>802</ele>
        <time>2015-10-04T12:03:44Z</time>
      </trkpt>
      <trkpt lat="47.0478" lon="6.28745">
        <ele>802</ele>
        <time>2015-10-04T12:04:44Z</time>
      </trkpt>
      <trkpt lat="47.04777" lon="6.28733">
        <ele>804</ele>
        <time>2015-10-04T12:12:01Z</time>
      </trkpt>
      <trkpt lat="47.04776" lon="6.2872">
        <ele>806</ele>
        <time>2015-10-04T12:12:08Z</time>
      </trkpt>
      <trkpt lat="47.04782" lon="6.28713">
        <ele>807</ele>
        <time>2015-10-04T12:12:13Z</time>
      </trkpt>
      <trkpt lat="47.04788" lon="6.28706">
        <ele>808</ele>
        <time>2015-10-04T12:12:18Z</time>
      </trkpt>
      <trkpt lat="47.04795" lon="6.287">
        <ele>809</ele>
        <time>2015-10-04T12:12:23Z</time>
      </trkpt>
      <trkpt lat="47.04799" lon="6.28688">
        <ele>810</ele>
        <time>2015-10-04T12:12:29Z</time>
      </trkpt>
      <trkpt lat="47.04796" lon="6.28679">
        <ele>809</ele>
        <time>2015-10-04T12:12:33Z</time>
      </trkpt>
      <trkpt lat="47.04792" lon="6.28667">
        <ele>809</ele>
        <time>2015-10-04T12:12:37Z</time>
      </trkpt>
      <trkpt lat="47.04788" lon="6.28653">
        <ele>808</ele>
        <time>2015-10-04T12:12:41Z</time>
      </trkpt>
      <trkpt lat="47.04784" lon="6.28634">
        <ele>808</ele>
        <time>2015-10-04T12:12:46Z</time>
      </trkpt>
      <trkpt lat="47.04781" lon="6.28618">
        <ele>809</ele>
        <time>2015-10-04T12:12:50Z</time>
      </trkpt>
      <trkpt lat="47.04789" lon="6.28608">
        <ele>808</ele>
        <time>2015-10-04T12:12:54Z</time>
      </trkpt>
      <trkpt lat="47.04798" lon="6.28605">
        <ele>808</ele>
        <time>2015-10-04T12:12:59Z</time>
      </trkpt>
      <trkpt lat="47.04805" lon="6.28604">
        <ele>808</ele>
        <time>2015-10-04T12:13:04Z</time>
      </trkpt>
      <trkpt lat="47.04813" lon="6.28606">
        <ele>809</ele>
        <time>2015-10-04T12:13:09Z</time>
      </trkpt>
      <trkpt lat="47.04822" lon="6.28608">
        <ele>810</ele>
        <time>2015-10-04T12:13:17Z</time>
      </trkpt>
      <trkpt lat="47.04831" lon="6.28608">
        <ele>812</ele>
        <time>2015-10-04T12:13:26Z</time>
      </trkpt>
      <trkpt lat="47.0484" lon="6.28617">
        <ele>813</ele>
        <time>2015-10-04T12:13:31Z</time>
      </trkpt>
      <trkpt lat="47.04846" lon="6.28624">
        <ele>815</ele>
        <time>2015-10-04T12:13:36Z</time>
      </trkpt>
      <trkpt lat="47.04854" lon="6.28626">
        <ele>816</ele>
        <time>2015-10-04T12:13:42Z</time>
      </trkpt>
      <trkpt lat="47.04863" lon="6.28625">
        <ele>819</ele>
        <time>2015-10-04T12:13:52Z</time>
      </trkpt>
      <trkpt lat="47.04869" lon="6.2863">
        <ele>822</ele>
        <time>2015-10-04T12:13:59Z</time>
      </trkpt>
      <trkpt lat="47.04876" lon="6.28638">
        <ele>822</ele>
        <time>2015-10-04T12:14:05Z</time>
      </trkpt>
      <trkpt lat="47.04882" lon="6.28645">
        <ele>821</ele>
        <time>2015-10-04T12:14:11Z</time>
      </trkpt>
      <trkpt lat="47.0489" lon="6.28642">
        <ele>826</ele>
        <time>2015-10-04T12:14:18Z</time>
      </trkpt>
      <trkpt lat="47.04898" lon="6.28649">
        <ele>830</ele>
        <time>2015-10-04T12:14:44Z</time>
      </trkpt>
      <trkpt lat="47.04904" lon="6.28652">
        <ele>832</ele>
        <time>2015-10-04T12:14:51Z</time>
      </trkpt>
      <trkpt lat="47.04913" lon="6.28655">
        <ele>835</ele>
        <time>2015-10-04T12:15:02Z</time>
      </trkpt>
      <trkpt lat="47.04921" lon="6.28658">
        <ele>838</ele>
        <time>2015-10-04T12:15:12Z</time>
      </trkpt>
      <trkpt lat="47.04927" lon="6.28649">
        <ele>840</ele>
        <time>2015-10-04T12:15:30Z</time>
      </trkpt>
      <trkpt lat="47.04928" lon="6.28636">
        <ele>841</ele>
        <time>2015-10-04T12:15:44Z</time>
      </trkpt>
      <trkpt lat="47.0493" lon="6.28624">
        <ele>841</ele>
        <time>2015-10-04T12:16:02Z</time>
      </trkpt>
      <trkpt lat="47.0493" lon="6.28611">
        <ele>844</ele>
        <time>2015-10-04T12:16:11Z</time>
      </trkpt>
      <trkpt lat="47.0493" lon="6.28598">
        <ele>846</ele>
        <time>2015-10-04T12:16:20Z</time>
      </trkpt>
      <trkpt lat="47.04929" lon="6.28586">
        <ele>849</ele>
        <time>2015-10-04T12:16:29Z</time>
      </trkpt>
      <trkpt lat="47.0493" lon="6.28573">
        <ele>849</ele>
        <time>2015-10-04T12:16:40Z</time>
      </trkpt>
      <trkpt lat="47.04933" lon="6.28562">
        <ele>851</ele>
        <time>2015-10-04T12:16:50Z</time>
      </trkpt>
      <trkpt lat="47.04937" lon="6.28552">
        <ele>853</ele>
        <time>2015-10-04T12:16:58Z</time>
      </trkpt>
      <trkpt lat="47.04942" lon="6.28541">
        <ele>855</ele>
        <time>2015-10-04T12:17:07Z</time>
      </trkpt>
      <trkpt lat="47.04943" lon="6.28528">
        <ele>856</ele>
        <time>2015-10-04T12:17:17Z</time>
      </trkpt>
      <trkpt lat="47.04943" lon="6.28516">
        <ele>857</ele>
        <time>2015-10-04T12:17:25Z</time>
      </trkpt>
      <trkpt lat="47.04948" lon="6.28505">
        <ele>860</ele>
        <time>2015-10-04T12:17:36Z</time>
      </trkpt>
      <trkpt lat="47.04947" lon="6.28494">
        <ele>861</ele>
        <time>2015-10-04T12:17:46Z</time>
      </trkpt>
      <trkpt lat="47.04944" lon="6.28479">
        <ele>859</ele>
        <time>2015-10-04T12:17:50Z</time>
      </trkpt>
      <trkpt lat="47.04942" lon="6.28461">
        <ele>858</ele>
        <time>2015-10-04T12:17:54Z</time>
      </trkpt>
      <trkpt lat="47.04939" lon="6.2844">
        <ele>859</ele>
        <time>2015-10-04T12:17:59Z</time>
      </trkpt>
      <trkpt lat="47.04937" lon="6.28421">
        <ele>858</ele>
        <time>2015-10-04T12:18:03Z</time>
      </trkpt>
      <trkpt lat="47.04935" lon="6.28405">
        <ele>860</ele>
        <time>2015-10-04T12:18:07Z</time>
      </trkpt>
      <trkpt lat="47.04934" lon="6.28393">
        <ele>862</ele>
        <time>2015-10-04T12:18:11Z</time>
      </trkpt>
      <trkpt lat="47.04934" lon="6.28381">
        <ele>864</ele>
        <time>2015-10-04T12:18:15Z</time>
      </trkpt>
      <trkpt lat="47.04929" lon="6.28365">
        <ele>865</ele>
        <time>2015-10-04T12:18:20Z</time>
      </trkpt>
      <trkpt lat="47.04926" lon="6.28349">
        <ele>869</ele>
        <time>2015-10-04T12:18:25Z</time>
      </trkpt>
      <trkpt lat="47.04925" lon="6.28336">
        <ele>871</ele>
        <time>2015-10-04T12:18:29Z</time>
      </trkpt>
      <trkpt lat="47.04923" lon="6.28321">
        <ele>871</ele>
        <time>2015-10-04T12:18:34Z</time>
      </trkpt>
      <trkpt lat="47.04924" lon="6.28309">
        <ele>872</ele>
        <time>2015-10-04T12:18:38Z</time>
      </trkpt>
      <trkpt lat="47.04922" lon="6.28298">
        <ele>873</ele>
        <time>2015-10-04T12:18:43Z</time>
      </trkpt>
      <trkpt lat="47.04922" lon="6.28285">
        <ele>874</ele>
        <time>2015-10-04T12:18:48Z</time>
      </trkpt>
      <trkpt lat="47.04922" lon="6.28275">
        <ele>874</ele>
        <time>2015-10-04T12:18:52Z</time>
      </trkpt>
      <trkpt lat="47.04924" lon="6.28261">
        <ele>875</ele>
        <time>2015-10-04T12:18:57Z</time>
      </trkpt>
      <trkpt lat="47.04926" lon="6.2825">
        <ele>876</ele>
        <time>2015-10-04T12:19:01Z</time>
      </trkpt>
      <trkpt lat="47.04928" lon="6.28237">
        <ele>878</ele>
        <time>2015-10-04T12:19:06Z</time>
      </trkpt>
      <trkpt lat="47.04929" lon="6.28224">
        <ele>879</ele>
        <time>2015-10-04T12:19:11Z</time>
      </trkpt>
      <trkpt lat="47.04931" lon="6.28212">
        <ele>880</ele>
        <time>2015-10-04T12:19:16Z</time>
      </trkpt>
      <trkpt lat="47.04932" lon="6.282">
        <ele>880</ele>
        <time>2015-10-04T12:19:21Z</time>
      </trkpt>
      <trkpt lat="47.04927" lon="6.28188">
        <ele>878</ele>
        <time>2015-10-04T12:19:36Z</time>
      </trkpt>
      <trkpt lat="47.04936" lon="6.28185">
        <ele>881</ele>
        <time>2015-10-04T12:28:55Z</time>
      </trkpt>
      <trkpt lat="47.04942" lon="6.28157">
        <ele>878</ele>
        <time>2015-10-04T12:29:00Z</time>
      </trkpt>
      <trkpt lat="47.04947" lon="6.28132">
        <ele>877</ele>
        <time>2015-10-04T12:29:05Z</time>
      </trkpt>
      <trkpt lat="47.0495" lon="6.28117">
        <ele>875</ele>
        <time>2015-10-04T12:29:09Z</time>
      </trkpt>
      <trkpt lat="47.04957" lon="6.28093">
        <ele>872</ele>
        <time>2015-10-04T12:29:13Z</time>
      </trkpt>
      <trkpt lat="47.04963" lon="6.28055">
        <ele>873</ele>
        <time>2015-10-04T12:29:18Z</time>
      </trkpt>
      <trkpt lat="47.04962" lon="6.28042">
        <ele>873</ele>
        <time>2015-10-04T12:29:23Z</time>
      </trkpt>
      <trkpt lat="47.04963" lon="6.28028">
        <ele>873</ele>
        <time>2015-10-04T12:29:27Z</time>
      </trkpt>
      <trkpt lat="47.04964" lon="6.28004">
        <ele>872</ele>
        <time>2015-10-04T12:29:32Z</time>
      </trkpt>
      <trkpt lat="47.04963" lon="6.27979">
        <ele>871</ele>
        <time>2015-10-04T12:29:37Z</time>
      </trkpt>
      <trkpt lat="47.04968" lon="6.27962">
        <ele>868</ele>
        <time>2015-10-04T12:29:41Z</time>
      </trkpt>
      <trkpt lat="47.0499" lon="6.27941">
        <ele>862</ele>
        <time>2015-10-04T12:29:46Z</time>
      </trkpt>
      <trkpt lat="47.05008" lon="6.27913">
        <ele>857</ele>
        <time>2015-10-04T12:29:51Z</time>
      </trkpt>
      <trkpt lat="47.05029" lon="6.27885">
        <ele>852</ele>
        <time>2015-10-04T12:29:56Z</time>
      </trkpt>
      <trkpt lat="47.05046" lon="6.27866">
        <ele>848</ele>
        <time>2015-10-04T12:30:00Z</time>
      </trkpt>
      <trkpt lat="47.05065" lon="6.27852">
        <ele>844</ele>
        <time>2015-10-04T12:30:04Z</time>
      </trkpt>
      <trkpt lat="47.05093" lon="6.27849">
        <ele>838</ele>
        <time>2015-10-04T12:30:08Z</time>
      </trkpt>
      <trkpt lat="47.05116" lon="6.27832">
        <ele>837</ele>
        <time>2015-10-04T12:30:12Z</time>
      </trkpt>
      <trkpt lat="47.05127" lon="6.27804">
        <ele>836</ele>
        <time>2015-10-04T12:30:16Z</time>
      </trkpt>
      <trkpt lat="47.05141" lon="6.27782">
        <ele>835</ele>
        <time>2015-10-04T12:30:20Z</time>
      </trkpt>
      <trkpt lat="47.05165" lon="6.27754">
        <ele>831</ele>
        <time>2015-10-04T12:30:25Z</time>
      </trkpt>
      <trkpt lat="47.05186" lon="6.27733">
        <ele>830</ele>
        <time>2015-10-04T12:30:29Z</time>
      </trkpt>
      <trkpt lat="47.05202" lon="6.277">
        <ele>829</ele>
        <time>2015-10-04T12:30:34Z</time>
      </trkpt>
      <trkpt lat="47.05215" lon="6.277">
        <ele>828</ele>
        <time>2015-10-04T12:30:38Z</time>
      </trkpt>
      <trkpt lat="47.05225" lon="6.27698">
        <ele>826</ele>
        <time>2015-10-04T12:30:42Z</time>
      </trkpt>
      <trkpt lat="47.05234" lon="6.27688">
        <ele>823</ele>
        <time>2015-10-04T12:30:46Z</time>
      </trkpt>
      <trkpt lat="47.05245" lon="6.27678">
        <ele>822</ele>
        <time>2015-10-04T12:30:50Z</time>
      </trkpt>
      <trkpt lat="47.05256" lon="6.27669">
        <ele>820</ele>
        <time>2015-10-04T12:30:54Z</time>
      </trkpt>
      <trkpt lat="47.05268" lon="6.27662">
        <ele>818</ele>
        <time>2015-10-04T12:30:59Z</time>
      </trkpt>
      <trkpt lat="47.05276" lon="6.27654">
        <ele>816</ele>
        <time>2015-10-04T12:31:03Z</time>
      </trkpt>
      <trkpt lat="47.05276" lon="6.27642">
        <ele>813</ele>
        <time>2015-10-04T12:31:11Z</time>
      </trkpt>
      <trkpt lat="47.05282" lon="6.27633">
        <ele>809</ele>
        <time>2015-10-04T12:31:25Z</time>
      </trkpt>
      <trkpt lat="47.05289" lon="6.27626">
        <ele>808</ele>
        <time>2015-10-04T12:31:34Z</time>
      </trkpt>
      <trkpt lat="47.05297" lon="6.27622">
        <ele>805</ele>
        <time>2015-10-04T12:31:39Z</time>
      </trkpt>
      <trkpt lat="47.053" lon="6.27611">
        <ele>804</ele>
        <time>2015-10-04T12:31:51Z</time>
      </trkpt>
      <trkpt lat="47.05304" lon="6.27597">
        <ele>802</ele>
        <time>2015-10-04T12:31:56Z</time>
      </trkpt>
      <trkpt lat="47.05303" lon="6.27587">
        <ele>802</ele>
        <time>2015-10-04T12:32:01Z</time>
      </trkpt>
      <trkpt lat="47.0531" lon="6.2757">
        <ele>801</ele>
        <time>2015-10-04T12:32:05Z</time>
      </trkpt>
      <trkpt lat="47.05327" lon="6.27574">
        <ele>797</ele>
        <time>2015-10-04T12:32:10Z</time>
      </trkpt>
      <trkpt lat="47.05341" lon="6.2757">
        <ele>792</ele>
        <time>2015-10-04T12:32:14Z</time>
      </trkpt>
      <trkpt lat="47.05349" lon="6.27565">
        <ele>785</ele>
        <time>2015-10-04T12:32:18Z</time>
      </trkpt>
      <trkpt lat="47.05348" lon="6.27553">
        <ele>781</ele>
        <time>2015-10-04T12:32:22Z</time>
      </trkpt>
      <trkpt lat="47.05347" lon="6.2754">
        <ele>780</ele>
        <time>2015-10-04T12:32:31Z</time>
      </trkpt>
      <trkpt lat="47.05347" lon="6.27526">
        <ele>782</ele>
        <time>2015-10-04T12:32:36Z</time>
      </trkpt>
      <trkpt lat="47.05346" lon="6.27514">
        <ele>782</ele>
        <time>2015-10-04T12:32:46Z</time>
      </trkpt>
      <trkpt lat="47.05349" lon="6.27502">
        <ele>779</ele>
        <time>2015-10-04T12:33:07Z</time>
      </trkpt>
      <trkpt lat="47.0535" lon="6.27491">
        <ele>776</ele>
        <time>2015-10-04T12:33:12Z</time>
      </trkpt>
      <trkpt lat="47.05347" lon="6.27479">
        <ele>776</ele>
        <time>2015-10-04T12:33:19Z</time>
      </trkpt>
      <trkpt lat="47.05347" lon="6.27466">
        <ele>774</ele>
        <time>2015-10-04T12:33:24Z</time>
      </trkpt>
      <trkpt lat="47.05346" lon="6.27455">
        <ele>764</ele>
        <time>2015-10-04T12:33:29Z</time>
      </trkpt>
      <trkpt lat="47.05344" lon="6.27444">
        <ele>765</ele>
        <time>2015-10-04T12:33:35Z</time>
      </trkpt>
      <trkpt lat="47.05342" lon="6.27431">
        <ele>764</ele>
        <time>2015-10-04T12:33:42Z</time>
      </trkpt>
      <trkpt lat="47.05344" lon="6.27419">
        <ele>761</ele>
        <time>2015-10-04T12:33:49Z</time>
      </trkpt>
      <trkpt lat="47.05353" lon="6.27422">
        <ele>755</ele>
        <time>2015-10-04T12:34:03Z</time>
      </trkpt>
      <trkpt lat="47.0536" lon="6.27429">
        <ele>752</ele>
        <time>2015-10-04T12:34:28Z</time>
      </trkpt>
      <trkpt lat="47.05363" lon="6.27441">
        <ele>751</ele>
        <time>2015-10-04T12:34:38Z</time>
      </trkpt>
      <trkpt lat="47.0537" lon="6.27449">
        <ele>753</ele>
        <time>2015-10-04T12:34:47Z</time>
      </trkpt>
      <trkpt lat="47.05372" lon="6.27461">
        <ele>749</ele>
        <time>2015-10-04T12:34:58Z</time>
      </trkpt>
      <trkpt lat="47.05376" lon="6.27472">
        <ele>748</ele>
        <time>2015-10-04T12:36:06Z</time>
      </trkpt>
      <trkpt lat="47.05381" lon="6.27483">
        <ele>751</ele>
        <time>2015-10-04T12:36:14Z</time>
      </trkpt>
      <trkpt lat="47.05387" lon="6.27493">
        <ele>752</ele>
        <time>2015-10-04T12:36:34Z</time>
      </trkpt>
      <trkpt lat="47.05392" lon="6.27503">
        <ele>752</ele>
        <time>2015-10-04T12:36:40Z</time>
      </trkpt>
      <trkpt lat="47.05396" lon="6.27514">
        <ele>750</ele>
        <time>2015-10-04T12:36:46Z</time>
      </trkpt>
      <trkpt lat="47.05402" lon="6.27523">
        <ele>751</ele>
        <time>2015-10-04T12:36:51Z</time>
      </trkpt>
      <trkpt lat="47.05407" lon="6.27531">
        <ele>751</ele>
        <time>2015-10-04T12:36:55Z</time>
      </trkpt>
      <trkpt lat="47.05415" lon="6.27545">
        <ele>749</ele>
        <time>2015-10-04T12:37:00Z</time>
      </trkpt>
      <trkpt lat="47.05427" lon="6.2756">
        <ele>748</ele>
        <time>2015-10-04T12:37:04Z</time>
      </trkpt>
      <trkpt lat="47.05442" lon="6.27576">
        <ele>751</ele>
        <time>2015-10-04T12:37:09Z</time>
      </trkpt>
      <trkpt lat="47.05464" lon="6.27601">
        <ele>743</ele>
        <time>2015-10-04T12:37:13Z</time>
      </trkpt>
      <trkpt lat="47.05479" lon="6.27618">
        <ele>738</ele>
        <time>2015-10-04T12:37:17Z</time>
      </trkpt>
      <trkpt lat="47.055" lon="6.27635">
        <ele>734</ele>
        <time>2015-10-04T12:37:21Z</time>
      </trkpt>
      <trkpt lat="47.0552" lon="6.27652">
        <ele>734</ele>
        <time>2015-10-04T12:37:26Z</time>
      </trkpt>
      <trkpt lat="47.05534" lon="6.27665">
        <ele>735</ele>
        <time>2015-10-04T12:37:30Z</time>
      </trkpt>
      <trkpt lat="47.05541" lon="6.27672">
        <ele>735</ele>
        <time>2015-10-04T12:37:37Z</time>
      </trkpt>
      <trkpt lat="47.05547" lon="6.2768">
        <ele>739</ele>
        <time>2015-10-04T12:37:42Z</time>
      </trkpt>
      <trkpt lat="47.05552" lon="6.27688">
        <ele>736</ele>
        <time>2015-10-04T12:37:46Z</time>
      </trkpt>
      <trkpt lat="47.05561" lon="6.27698">
        <ele>731</ele>
        <time>2015-10-04T12:37:51Z</time>
      </trkpt>
      <trkpt lat="47.05569" lon="6.27712">
        <ele>730</ele>
        <time>2015-10-04T12:37:55Z</time>
      </trkpt>
      <trkpt lat="47.05574" lon="6.27721">
        <ele>731</ele>
        <time>2015-10-04T12:38:00Z</time>
      </trkpt>
      <trkpt lat="47.05579" lon="6.27729">
        <ele>733</ele>
        <time>2015-10-04T12:38:05Z</time>
      </trkpt>
      <trkpt lat="47.05587" lon="6.27742">
        <ele>730</ele>
        <time>2015-10-04T12:38:10Z</time>
      </trkpt>
      <trkpt lat="47.05594" lon="6.27751">
        <ele>729</ele>
        <time>2015-10-04T12:38:14Z</time>
      </trkpt>
      <trkpt lat="47.05603" lon="6.27761">
        <ele>728</ele>
        <time>2015-10-04T12:38:18Z</time>
      </trkpt>
      <trkpt lat="47.05618" lon="6.27775">
        <ele>727</ele>
        <time>2015-10-04T12:38:23Z</time>
      </trkpt>
      <trkpt lat="47.05632" lon="6.27788">
        <ele>724</ele>
        <time>2015-10-04T12:38:28Z</time>
      </trkpt>
      <trkpt lat="47.05653" lon="6.27798">
        <ele>726</ele>
        <time>2015-10-04T12:38:33Z</time>
      </trkpt>
      <trkpt lat="47.05671" lon="6.27814">
        <ele>725</ele>
        <time>2015-10-04T12:38:37Z</time>
      </trkpt>
      <trkpt lat="47.05678" lon="6.27823">
        <ele>724</ele>
        <time>2015-10-04T12:38:41Z</time>
      </trkpt>
      <trkpt lat="47.05688" lon="6.27832">
        <ele>721</ele>
        <time>2015-10-04T12:38:46Z</time>
      </trkpt>
      <trkpt lat="47.05698" lon="6.27844">
        <ele>720</ele>
        <time>2015-10-04T12:38:51Z</time>
      </trkpt>
      <trkpt lat="47.05707" lon="6.2785">
        <ele>718</ele>
        <time>2015-10-04T12:38:55Z</time>
      </trkpt>
      <trkpt lat="47.05714" lon="6.27855">
        <ele>724</ele>
        <time>2015-10-04T12:39:06Z</time>
      </trkpt>
      <trkpt lat="47.0572" lon="6.2786">
        <ele>722</ele>
        <time>2015-10-04T12:39:12Z</time>
      </trkpt>
      <trkpt lat="47.05725" lon="6.27867">
        <ele>721</ele>
        <time>2015-10-04T12:39:16Z</time>
      </trkpt>
      <trkpt lat="47.05733" lon="6.27876">
        <ele>718</ele>
        <time>2015-10-04T12:39:20Z</time>
      </trkpt>
      <trkpt lat="47.05749" lon="6.27887">
        <ele>716</ele>
        <time>2015-10-04T12:39:25Z</time>
      </trkpt>
      <trkpt lat="47.05761" lon="6.27896">
        <ele>714</ele>
        <time>2015-10-04T12:39:29Z</time>
      </trkpt>
      <trkpt lat="47.0577" lon="6.27902">
        <ele>713</ele>
        <time>2015-10-04T12:39:33Z</time>
      </trkpt>
      <trkpt lat="47.05778" lon="6.27908">
        <ele>713</ele>
        <time>2015-10-04T12:39:37Z</time>
      </trkpt>
      <trkpt lat="47.05786" lon="6.27913">
        <ele>712</ele>
        <time>2015-10-04T12:39:41Z</time>
      </trkpt>
      <trkpt lat="47.05798" lon="6.27919">
        <ele>714</ele>
        <time>2015-10-04T12:39:46Z</time>
      </trkpt>
      <trkpt lat="47.05806" lon="6.27924">
        <ele>710</ele>
        <time>2015-10-04T12:39:50Z</time>
      </trkpt>
      <trkpt lat="47.05809" lon="6.27913">
        <ele>709</ele>
        <time>2015-10-04T12:39:59Z</time>
      </trkpt>
      <trkpt lat="47.05793" lon="6.27888">
        <ele>710</ele>
        <time>2015-10-04T12:40:04Z</time>
      </trkpt>
      <trkpt lat="47.05783" lon="6.27869">
        <ele>711</ele>
        <time>2015-10-04T12:40:08Z</time>
      </trkpt>
      <trkpt lat="47.05768" lon="6.27847">
        <ele>709</ele>
        <time>2015-10-04T12:40:12Z</time>
      </trkpt>
      <trkpt lat="47.0576" lon="6.27835">
        <ele>711</ele>
        <time>2015-10-04T12:40:16Z</time>
      </trkpt>
      <trkpt lat="47.05747" lon="6.27823">
        <ele>712</ele>
        <time>2015-10-04T12:40:21Z</time>
      </trkpt>
      <trkpt lat="47.05742" lon="6.27817">
        <ele>709</ele>
        <time>2015-10-04T12:40:35Z</time>
      </trkpt>
      <trkpt lat="47.0572" lon="6.2779">
        <ele>708</ele>
        <time>2015-10-04T12:40:40Z</time>
      </trkpt>
      <trkpt lat="47.05706" lon="6.27771">
        <ele>709</ele>
        <time>2015-10-04T12:40:45Z</time>
      </trkpt>
      <trkpt lat="47.05693" lon="6.27751">
        <ele>705</ele>
        <time>2015-10-04T12:40:50Z</time>
      </trkpt>
      <trkpt lat="47.05681" lon="6.27736">
        <ele>704</ele>
        <time>2015-10-04T12:40:54Z</time>
      </trkpt>
      <trkpt lat="47.05664" lon="6.27713">
        <ele>705</ele>
        <time>2015-10-04T12:40:59Z</time>
      </trkpt>
      <trkpt lat="47.05639" lon="6.27674">
        <ele>699</ele>
        <time>2015-10-04T12:41:04Z</time>
      </trkpt>
      <trkpt lat="47.05616" lon="6.27644">
        <ele>695</ele>
        <time>2015-10-04T12:41:08Z</time>
      </trkpt>
      <trkpt lat="47.056" lon="6.27623">
        <ele>698</ele>
        <time>2015-10-04T12:41:12Z</time>
      </trkpt>
      <trkpt lat="47.05581" lon="6.27599">
        <ele>698</ele>
        <time>2015-10-04T12:41:17Z</time>
      </trkpt>
      <trkpt lat="47.05567" lon="6.27583">
        <ele>697</ele>
        <time>2015-10-04T12:41:22Z</time>
      </trkpt>
      <trkpt lat="47.05554" lon="6.27568">
        <ele>696</ele>
        <time>2015-10-04T12:41:27Z</time>
      </trkpt>
      <trkpt lat="47.05543" lon="6.27557">
        <ele>699</ele>
        <time>2015-10-04T12:41:31Z</time>
      </trkpt>
      <trkpt lat="47.05532" lon="6.27545">
        <ele>698</ele>
        <time>2015-10-04T12:41:35Z</time>
      </trkpt>
      <trkpt lat="47.05524" lon="6.27529">
        <ele>702</ele>
        <time>2015-10-04T12:41:39Z</time>
      </trkpt>
      <trkpt lat="47.05513" lon="6.27507">
        <ele>699</ele>
        <time>2015-10-04T12:41:44Z</time>
      </trkpt>
      <trkpt lat="47.05502" lon="6.27481">
        <ele>696</ele>
        <time>2015-10-04T12:41:49Z</time>
      </trkpt>
      <trkpt lat="47.05499" lon="6.27471">
        <ele>694</ele>
        <time>2015-10-04T12:41:53Z</time>
      </trkpt>
      <trkpt lat="47.055" lon="6.27456">
        <ele>692</ele>
        <time>2015-10-04T12:41:58Z</time>
      </trkpt>
      <trkpt lat="47.05497" lon="6.27442">
        <ele>691</ele>
        <time>2015-10-04T12:42:02Z</time>
      </trkpt>
      <trkpt lat="47.05488" lon="6.27432">
        <ele>692</ele>
        <time>2015-10-04T12:42:07Z</time>
      </trkpt>
      <trkpt lat="47.05482" lon="6.27422">
        <ele>692</ele>
        <time>2015-10-04T12:42:11Z</time>
      </trkpt>
      <trkpt lat="47.05473" lon="6.27409">
        <ele>690</ele>
        <time>2015-10-04T12:42:15Z</time>
      </trkpt>
      <trkpt lat="47.05463" lon="6.27392">
        <ele>689</ele>
        <time>2015-10-04T12:42:19Z</time>
      </trkpt>
      <trkpt lat="47.05449" lon="6.27365">
        <ele>688</ele>
        <time>2015-10-04T12:42:24Z</time>
      </trkpt>
      <trkpt lat="47.05438" lon="6.27346">
        <ele>686</ele>
        <time>2015-10-04T12:42:28Z</time>
      </trkpt>
      <trkpt lat="47.0542" lon="6.27308">
        <ele>684</ele>
        <time>2015-10-04T12:42:32Z</time>
      </trkpt>
      <trkpt lat="47.05401" lon="6.27278">
        <ele>682</ele>
        <time>2015-10-04T12:42:36Z</time>
      </trkpt>
      <trkpt lat="47.05373" lon="6.2724">
        <ele>680</ele>
        <time>2015-10-04T12:42:41Z</time>
      </trkpt>
      <trkpt lat="47.0535" lon="6.27209">
        <ele>679</ele>
        <time>2015-10-04T12:42:46Z</time>
      </trkpt>
      <trkpt lat="47.05316" lon="6.27175">
        <ele>677</ele>
        <time>2015-10-04T12:42:50Z</time>
      </trkpt>
      <trkpt lat="47.05285" lon="6.2715">
        <ele>676</ele>
        <time>2015-10-04T12:42:54Z</time>
      </trkpt>
      <trkpt lat="47.05253" lon="6.27128">
        <ele>673</ele>
        <time>2015-10-04T12:42:58Z</time>
      </trkpt>
      <trkpt lat="47.05225" lon="6.27109">
        <ele>670</ele>
        <time>2015-10-04T12:43:02Z</time>
      </trkpt>
      <trkpt lat="47.05211" lon="6.27106">
        <ele>669</ele>
        <time>2015-10-04T12:43:06Z</time>
      </trkpt>
      <trkpt lat="47.05207" lon="6.27094">
        <ele>669</ele>
        <time>2015-10-04T12:43:11Z</time>
      </trkpt>
      <trkpt lat="47.0522" lon="6.2708">
        <ele>668</ele>
        <time>2015-10-04T12:43:16Z</time>
      </trkpt>
      <trkpt lat="47.05243" lon="6.27081">
        <ele>667</ele>
        <time>2015-10-04T12:43:20Z</time>
      </trkpt>
      <trkpt lat="47.0527" lon="6.27077">
        <ele>667</ele>
        <time>2015-10-04T12:43:25Z</time>
      </trkpt>
      <trkpt lat="47.05287" lon="6.27073">
        <ele>667</ele>
        <time>2015-10-04T12:43:29Z</time>
      </trkpt>
      <trkpt lat="47.05302" lon="6.27061">
        <ele>665</ele>
        <time>2015-10-04T12:43:33Z</time>
      </trkpt>
      <trkpt lat="47.0532" lon="6.27047">
        <ele>659</ele>
        <time>2015-10-04T12:43:38Z</time>
      </trkpt>
      <trkpt lat="47.05338" lon="6.27033">
        <ele>655</ele>
        <time>2015-10-04T12:43:43Z</time>
      </trkpt>
      <trkpt lat="47.05351" lon="6.27023">
        <ele>650</ele>
        <time>2015-10-04T12:43:47Z</time>
      </trkpt>
      <trkpt lat="47.05365" lon="6.27003">
        <ele>642</ele>
        <time>2015-10-04T12:43:51Z</time>
      </trkpt>
      <trkpt lat="47.05379" lon="6.26986">
        <ele>637</ele>
        <time>2015-10-04T12:43:55Z</time>
      </trkpt>
      <trkpt lat="47.05398" lon="6.26982">
        <ele>633</ele>
        <time>2015-10-04T12:44:00Z</time>
      </trkpt>
      <trkpt lat="47.05412" lon="6.26971">
        <ele>629</ele>
        <time>2015-10-04T12:44:04Z</time>
      </trkpt>
      <trkpt lat="47.0541" lon="6.26942">
        <ele>627</ele>
        <time>2015-10-04T12:44:08Z</time>
      </trkpt>
      <trkpt lat="47.05413" lon="6.26918">
        <ele>626</ele>
        <time>2015-10-04T12:44:12Z</time>
      </trkpt>
      <trkpt lat="47.0541" lon="6.26877">
        <ele>621</ele>
        <time>2015-10-04T12:44:17Z</time>
      </trkpt>
      <trkpt lat="47.05405" lon="6.26845">
        <ele>620</ele>
        <time>2015-10-04T12:44:21Z</time>
      </trkpt>
      <trkpt lat="47.054" lon="6.26814">
        <ele>620</ele>
        <time>2015-10-04T12:44:25Z</time>
      </trkpt>
      <trkpt lat="47.05398" lon="6.26782">
        <ele>617</ele>
        <time>2015-10-04T12:44:29Z</time>
      </trkpt>
      <trkpt lat="47.05396" lon="6.26747">
        <ele>613</ele>
        <time>2015-10-04T12:44:33Z</time>
      </trkpt>
      <trkpt lat="47.0539" lon="6.26715">
        <ele>611</ele>
        <time>2015-10-04T12:44:37Z</time>
      </trkpt>
      <trkpt lat="47.0538" lon="6.26685">
        <ele>610</ele>
        <time>2015-10-04T12:44:41Z</time>
      </trkpt>
      <trkpt lat="47.05373" lon="6.26656">
        <ele>608</ele>
        <time>2015-10-04T12:44:45Z</time>
      </trkpt>
      <trkpt lat="47.05362" lon="6.26629">
        <ele>606</ele>
        <time>2015-10-04T12:44:49Z</time>
      </trkpt>
      <trkpt lat="47.05352" lon="6.26601">
        <ele>601</ele>
        <time>2015-10-04T12:44:54Z</time>
      </trkpt>
      <trkpt lat="47.05346" lon="6.26587">
        <ele>599</ele>
        <time>2015-10-04T12:44:58Z</time>
      </trkpt>
      <trkpt lat="47.05345" lon="6.26575">
        <ele>595</ele>
        <time>2015-10-04T12:45:02Z</time>
      </trkpt>
      <trkpt lat="47.05355" lon="6.26578">
        <ele>592</ele>
        <time>2015-10-04T12:45:06Z</time>
      </trkpt>
      <trkpt lat="47.05367" lon="6.26585">
        <ele>591</ele>
        <time>2015-10-04T12:45:10Z</time>
      </trkpt>
      <trkpt lat="47.05392" lon="6.26595">
        <ele>588</ele>
        <time>2015-10-04T12:45:15Z</time>
      </trkpt>
      <trkpt lat="47.05416" lon="6.26614">
        <ele>584</ele>
        <time>2015-10-04T12:45:19Z</time>
      </trkpt>
      <trkpt lat="47.05434" lon="6.26634">
        <ele>582</ele>
        <time>2015-10-04T12:45:23Z</time>
      </trkpt>
      <trkpt lat="47.0545" lon="6.2665">
        <ele>576</ele>
        <time>2015-10-04T12:45:28Z</time>
      </trkpt>
      <trkpt lat="47.05466" lon="6.26661">
        <ele>571</ele>
        <time>2015-10-04T12:45:33Z</time>
      </trkpt>
      <trkpt lat="47.05481" lon="6.26672">
        <ele>566</ele>
        <time>2015-10-04T12:45:37Z</time>
      </trkpt>
      <trkpt lat="47.05494" lon="6.26687">
        <ele>559</ele>
        <time>2015-10-04T12:45:41Z</time>
      </trkpt>
      <trkpt lat="47.05508" lon="6.26702">
        <ele>555</ele>
        <time>2015-10-04T12:45:46Z</time>
      </trkpt>
      <trkpt lat="47.05518" lon="6.26711">
        <ele>553</ele>
        <time>2015-10-04T12:45:50Z</time>
      </trkpt>
      <trkpt lat="47.05532" lon="6.26724">
        <ele>548</ele>
        <time>2015-10-04T12:45:55Z</time>
      </trkpt>
      <trkpt lat="47.05539" lon="6.26752">
        <ele>545</ele>
        <time>2015-10-04T12:45:59Z</time>
      </trkpt>
      <trkpt lat="47.05545" lon="6.26772">
        <ele>545</ele>
        <time>2015-10-04T12:46:03Z</time>
      </trkpt>
      <trkpt lat="47.05554" lon="6.26795">
        <ele>545</ele>
        <time>2015-10-04T12:46:07Z</time>
      </trkpt>
      <trkpt lat="47.05569" lon="6.26828">
        <ele>544</ele>
        <time>2015-10-04T12:46:12Z</time>
      </trkpt>
      <trkpt lat="47.05581" lon="6.26856">
        <ele>542</ele>
        <time>2015-10-04T12:46:16Z</time>
      </trkpt>
      <trkpt lat="47.0559" lon="6.26884">
        <ele>544</ele>
        <time>2015-10-04T12:46:21Z</time>
      </trkpt>
      <trkpt lat="47.05594" lon="6.269">
        <ele>544</ele>
        <time>2015-10-04T12:46:25Z</time>
      </trkpt>
      <trkpt lat="47.05602" lon="6.26921">
        <ele>545</ele>
        <time>2015-10-04T12:46:30Z</time>
      </trkpt>
      <trkpt lat="47.0561" lon="6.26942">
        <ele>545</ele>
        <time>2015-10-04T12:46:35Z</time>
      </trkpt>
      <trkpt lat="47.05619" lon="6.26961">
        <ele>545</ele>
        <time>2015-10-04T12:46:39Z</time>
      </trkpt>
      <trkpt lat="47.05629" lon="6.26982">
        <ele>544</ele>
        <time>2015-10-04T12:46:43Z</time>
      </trkpt>
      <trkpt lat="47.0564" lon="6.27008">
        <ele>543</ele>
        <time>2015-10-04T12:46:47Z</time>
      </trkpt>
      <trkpt lat="47.05648" lon="6.27025">
        <ele>543</ele>
        <time>2015-10-04T12:46:51Z</time>
      </trkpt>
      <trkpt lat="47.05654" lon="6.27039">
        <ele>544</ele>
        <time>2015-10-04T12:46:56Z</time>
      </trkpt>
      <trkpt lat="47.05658" lon="6.2705">
        <ele>544</ele>
        <time>2015-10-04T12:47:00Z</time>
      </trkpt>
      <trkpt lat="47.05662" lon="6.27063">
        <ele>545</ele>
        <time>2015-10-04T12:47:04Z</time>
      </trkpt>
      <trkpt lat="47.05669" lon="6.27081">
        <ele>547</ele>
        <time>2015-10-04T12:47:09Z</time>
      </trkpt>
      <trkpt lat="47.05677" lon="6.27098">
        <ele>548</ele>
        <time>2015-10-04T12:47:14Z</time>
      </trkpt>
      <trkpt lat="47.05682" lon="6.27108">
        <ele>550</ele>
        <time>2015-10-04T12:47:18Z</time>
      </trkpt>
      <trkpt lat="47.05689" lon="6.27119">
        <ele>550</ele>
        <time>2015-10-04T12:47:22Z</time>
      </trkpt>
      <trkpt lat="47.05702" lon="6.27134">
        <ele>548</ele>
        <time>2015-10-04T12:47:27Z</time>
      </trkpt>
      <trkpt lat="47.05727" lon="6.2715">
        <ele>548</ele>
        <time>2015-10-04T12:47:32Z</time>
      </trkpt>
      <trkpt lat="47.0575" lon="6.27177">
        <ele>546</ele>
        <time>2015-10-04T12:47:37Z</time>
      </trkpt>
      <trkpt lat="47.05764" lon="6.27201">
        <ele>544</ele>
        <time>2015-10-04T12:47:41Z</time>
      </trkpt>
      <trkpt lat="47.05774" lon="6.27222">
        <ele>544</ele>
        <time>2015-10-04T12:47:46Z</time>
      </trkpt>
      <trkpt lat="47.05782" lon="6.27238">
        <ele>545</ele>
        <time>2015-10-04T12:47:51Z</time>
      </trkpt>
      <trkpt lat="47.05787" lon="6.27252">
        <ele>545</ele>
        <time>2015-10-04T12:47:55Z</time>
      </trkpt>
      <trkpt lat="47.05791" lon="6.27265">
        <ele>547</ele>
        <time>2015-10-04T12:48:00Z</time>
      </trkpt>
      <trkpt lat="47.05797" lon="6.27276">
        <ele>546</ele>
        <time>2015-10-04T12:48:04Z</time>
      </trkpt>
      <trkpt lat="47.05803" lon="6.27285">
        <ele>548</ele>
        <time>2015-10-04T12:48:09Z</time>
      </trkpt>
      <trkpt lat="47.05808" lon="6.27296">
        <ele>548</ele>
        <time>2015-10-04T12:48:14Z</time>
      </trkpt>
      <trkpt lat="47.05813" lon="6.27305">
        <ele>551</ele>
        <time>2015-10-04T12:48:18Z</time>
      </trkpt>
      <trkpt lat="47.05819" lon="6.27316">
        <ele>550</ele>
        <time>2015-10-04T12:48:23Z</time>
      </trkpt>
      <trkpt lat="47.05823" lon="6.27327">
        <ele>550</ele>
        <time>2015-10-04T12:48:28Z</time>
      </trkpt>
      <trkpt lat="47.05829" lon="6.27338">
        <ele>549</ele>
        <time>2015-10-04T12:48:33Z</time>
      </trkpt>
      <trkpt lat="47.05835" lon="6.27346">
        <ele>554</ele>
        <time>2015-10-04T12:48:38Z</time>
      </trkpt>
      <trkpt lat="47.05841" lon="6.27353">
        <ele>558</ele>
        <time>2015-10-04T12:48:43Z</time>
      </trkpt>
      <trkpt lat="47.05848" lon="6.27362">
        <ele>559</ele>
        <time>2015-10-04T12:48:48Z</time>
      </trkpt>
      <trkpt lat="47.05854" lon="6.27371">
        <ele>558</ele>
        <time>2015-10-04T12:48:52Z</time>
      </trkpt>
      <trkpt lat="47.05861" lon="6.27376">
        <ele>557</ele>
        <time>2015-10-04T12:48:57Z</time>
      </trkpt>
      <trkpt lat="47.05869" lon="6.27378">
        <ele>554</ele>
        <time>2015-10-04T12:49:02Z</time>
      </trkpt>
      <trkpt lat="47.05878" lon="6.27378">
        <ele>551</ele>
        <time>2015-10-04T12:49:06Z</time>
      </trkpt>
      <trkpt lat="47.05888" lon="6.27376">
        <ele>549</ele>
        <time>2015-10-04T12:49:10Z</time>
      </trkpt>
      <trkpt lat="47.05904" lon="6.27374">
        <ele>546</ele>
        <time>2015-10-04T12:49:15Z</time>
      </trkpt>
      <trkpt lat="47.05921" lon="6.2737">
        <ele>542</ele>
        <time>2015-10-04T12:49:20Z</time>
      </trkpt>
      <trkpt lat="47.05934" lon="6.27371">
        <ele>539</ele>
        <time>2015-10-04T12:49:24Z</time>
      </trkpt>
      <trkpt lat="47.05947" lon="6.27371">
        <ele>535</ele>
        <time>2015-10-04T12:49:28Z</time>
      </trkpt>
      <trkpt lat="47.05961" lon="6.27372">
        <ele>532</ele>
        <time>2015-10-04T12:49:32Z</time>
      </trkpt>
      <trkpt lat="47.05973" lon="6.27375">
        <ele>528</ele>
        <time>2015-10-04T12:49:35Z</time>
      </trkpt>
      <trkpt lat="47.06001" lon="6.27389">
        <ele>522</ele>
        <time>2015-10-04T12:49:40Z</time>
      </trkpt>
      <trkpt lat="47.06023" lon="6.27413">
        <ele>519</ele>
        <time>2015-10-04T12:49:44Z</time>
      </trkpt>
      <trkpt lat="47.06038" lon="6.27433">
        <ele>518</ele>
        <time>2015-10-04T12:49:49Z</time>
      </trkpt>
      <trkpt lat="47.06045" lon="6.27427">
        <ele>510</ele>
        <time>2015-10-04T12:50:19Z</time>
      </trkpt>
      <trkpt lat="47.06056" lon="6.27414">
        <ele>505</ele>
        <time>2015-10-04T12:50:23Z</time>
      </trkpt>
      <trkpt lat="47.06068" lon="6.27398">
        <ele>500</ele>
        <time>2015-10-04T12:50:28Z</time>
      </trkpt>
      <trkpt lat="47.06085" lon="6.27376">
        <ele>499</ele>
        <time>2015-10-04T12:50:32Z</time>
      </trkpt>
      <trkpt lat="47.06087" lon="6.27364">
        <ele>500</ele>
        <time>2015-10-04T12:50:36Z</time>
      </trkpt>
      <trkpt lat="47.06082" lon="6.27355">
        <ele>502</ele>
        <time>2015-10-04T12:50:40Z</time>
      </trkpt>
      <trkpt lat="47.06076" lon="6.27343">
        <ele>505</ele>
        <time>2015-10-04T12:50:45Z</time>
      </trkpt>
      <trkpt lat="47.0607" lon="6.27331">
        <ele>505</ele>
        <time>2015-10-04T12:50:49Z</time>
      </trkpt>
      <trkpt lat="47.06064" lon="6.27318">
        <ele>508</ele>
        <time>2015-10-04T12:50:53Z</time>
      </trkpt>
      <trkpt lat="47.06057" lon="6.27303">
        <ele>509</ele>
        <time>2015-10-04T12:50:58Z</time>
      </trkpt>
      <trkpt lat="47.06049" lon="6.27285">
        <ele>507</ele>
        <time>2015-10-04T12:51:03Z</time>
      </trkpt>
      <trkpt lat="47.06043" lon="6.27271">
        <ele>508</ele>
        <time>2015-10-04T12:51:07Z</time>
      </trkpt>
      <trkpt lat="47.06036" lon="6.27256">
        <ele>508</ele>
        <time>2015-10-04T12:51:11Z</time>
      </trkpt>
      <trkpt lat="47.06027" lon="6.27239">
        <ele>507</ele>
        <time>2015-10-04T12:51:15Z</time>
      </trkpt>
      <trkpt lat="47.06018" lon="6.27225">
        <ele>506</ele>
        <time>2015-10-04T12:51:19Z</time>
      </trkpt>
      <trkpt lat="47.06009" lon="6.27211">
        <ele>505</ele>
        <time>2015-10-04T12:51:23Z</time>
      </trkpt>
      <trkpt lat="47.06" lon="6.27198">
        <ele>501</ele>
        <time>2015-10-04T12:51:27Z</time>
      </trkpt>
      <trkpt lat="47.0599" lon="6.27169">
        <ele>500</ele>
        <time>2015-10-04T12:51:32Z</time>
      </trkpt>
      <trkpt lat="47.05979" lon="6.27151">
        <ele>497</ele>
        <time>2015-10-04T12:51:37Z</time>
      </trkpt>
      <trkpt lat="47.05967" lon="6.27134">
        <ele>496</ele>
        <time>2015-10-04T12:51:41Z</time>
      </trkpt>
      <trkpt lat="47.05956" lon="6.27116">
        <ele>493</ele>
        <time>2015-10-04T12:51:45Z</time>
      </trkpt>
      <trkpt lat="47.05946" lon="6.27097">
        <ele>492</ele>
        <time>2015-10-04T12:51:49Z</time>
      </trkpt>
      <trkpt lat="47.05938" lon="6.27076">
        <ele>491</ele>
        <time>2015-10-04T12:51:53Z</time>
      </trkpt>
      <trkpt lat="47.05925" lon="6.27052">
        <ele>491</ele>
        <time>2015-10-04T12:51:58Z</time>
      </trkpt>
      <trkpt lat="47.05915" lon="6.27033">
        <ele>491</ele>
        <time>2015-10-04T12:52:02Z</time>
      </trkpt>
      <trkpt lat="47.05901" lon="6.27006">
        <ele>491</ele>
        <time>2015-10-04T12:52:07Z</time>
      </trkpt>
      <trkpt lat="47.0589" lon="6.26985">
        <ele>490</ele>
        <time>2015-10-04T12:52:11Z</time>
      </trkpt>
      <trkpt lat="47.05879" lon="6.26962">
        <ele>489</ele>
        <time>2015-10-04T12:52:15Z</time>
      </trkpt>
      <trkpt lat="47.05867" lon="6.26933">
        <ele>490</ele>
        <time>2015-10-04T12:52:20Z</time>
      </trkpt>
      <trkpt lat="47.0586" lon="6.26911">
        <ele>490</ele>
        <time>2015-10-04T12:52:24Z</time>
      </trkpt>
      <trkpt lat="47.05855" lon="6.26891">
        <ele>490</ele>
        <time>2015-10-04T12:52:28Z</time>
      </trkpt>
      <trkpt lat="47.0585" lon="6.26876">
        <ele>490</ele>
        <time>2015-10-04T12:52:32Z</time>
      </trkpt>
      <trkpt lat="47.0584" lon="6.26853">
        <ele>489</ele>
        <time>2015-10-04T12:52:37Z</time>
      </trkpt>
      <trkpt lat="47.0583" lon="6.26835">
        <ele>489</ele>
        <time>2015-10-04T12:52:41Z</time>
      </trkpt>
      <trkpt lat="47.0582" lon="6.26821">
        <ele>488</ele>
        <time>2015-10-04T12:52:45Z</time>
      </trkpt>
      <trkpt lat="47.05829" lon="6.26819">
        <ele>490</ele>
        <time>2015-10-04T12:52:51Z</time>
      </trkpt>
      <trkpt lat="47.05835" lon="6.2683">
        <ele>491</ele>
        <time>2015-10-04T12:52:59Z</time>
      </trkpt>
      <trkpt lat="47.05841" lon="6.26837">
        <ele>493</ele>
        <time>2015-10-04T12:53:05Z</time>
      </trkpt>
      <trkpt lat="47.05848" lon="6.26846">
        <ele>496</ele>
        <time>2015-10-04T12:53:11Z</time>
      </trkpt>
      <trkpt lat="47.05854" lon="6.26854">
        <ele>496</ele>
        <time>2015-10-04T12:53:20Z</time>
      </trkpt>
      <trkpt lat="47.05858" lon="6.26864">
        <ele>498</ele>
        <time>2015-10-04T12:53:26Z</time>
      </trkpt>
      <trkpt lat="47.05864" lon="6.26873">
        <ele>499</ele>
        <time>2015-10-04T12:53:32Z</time>
      </trkpt>
      <trkpt lat="47.05869" lon="6.26883">
        <ele>500</ele>
        <time>2015-10-04T12:53:38Z</time>
      </trkpt>
      <trkpt lat="47.05874" lon="6.26894">
        <ele>501</ele>
        <time>2015-10-04T12:53:44Z</time>
      </trkpt>
      <trkpt lat="47.05879" lon="6.26902">
        <ele>503</ele>
        <time>2015-10-04T12:53:49Z</time>
      </trkpt>
      <trkpt lat="47.05883" lon="6.26909">
        <ele>496</ele>
        <time>2015-10-04T12:53:54Z</time>
      </trkpt>
      <trkpt lat="47.05888" lon="6.26918">
        <ele>502</ele>
        <time>2015-10-04T12:53:58Z</time>
      </trkpt>
      <trkpt lat="47.05891" lon="6.26929">
        <ele>504</ele>
        <time>2015-10-04T12:54:03Z</time>
      </trkpt>
      <trkpt lat="47.05896" lon="6.26938">
        <ele>505</ele>
        <time>2015-10-04T12:54:08Z</time>
      </trkpt>
      <trkpt lat="47.05901" lon="6.26947">
        <ele>507</ele>
        <time>2015-10-04T12:54:13Z</time>
      </trkpt>
      <trkpt lat="47.05907" lon="6.26955">
        <ele>507</ele>
        <time>2015-10-04T12:54:19Z</time>
      </trkpt>
      <trkpt lat="47.05914" lon="6.26965">
        <ele>510</ele>
        <time>2015-10-04T12:54:26Z</time>
      </trkpt>
      <trkpt lat="47.0592" lon="6.26973">
        <ele>512</ele>
        <time>2015-10-04T12:54:32Z</time>
      </trkpt>
      <trkpt lat="47.05926" lon="6.26981">
        <ele>513</ele>
        <time>2015-10-04T12:54:37Z</time>
      </trkpt>
      <trkpt lat="47.05933" lon="6.2699">
        <ele>513</ele>
        <time>2015-10-04T12:54:42Z</time>
      </trkpt>
      <trkpt lat="47.05939" lon="6.26999">
        <ele>516</ele>
        <time>2015-10-04T12:54:47Z</time>
      </trkpt>
      <trkpt lat="47.05945" lon="6.27006">
        <ele>516</ele>
        <time>2015-10-04T12:54:52Z</time>
      </trkpt>
      <trkpt lat="47.05951" lon="6.27014">
        <ele>517</ele>
        <time>2015-10-04T12:54:57Z</time>
      </trkpt>
      <trkpt lat="47.05957" lon="6.27023">
        <ele>520</ele>
        <time>2015-10-04T12:55:03Z</time>
      </trkpt>
      <trkpt lat="47.05964" lon="6.2703">
        <ele>522</ele>
        <time>2015-10-04T12:55:09Z</time>
      </trkpt>
      <trkpt lat="47.05971" lon="6.27036">
        <ele>524</ele>
        <time>2015-10-04T12:55:16Z</time>
      </trkpt>
      <trkpt lat="47.05977" lon="6.27044">
        <ele>526</ele>
        <time>2015-10-04T12:55:21Z</time>
      </trkpt>
      <trkpt lat="47.05983" lon="6.27052">
        <ele>527</ele>
        <time>2015-10-04T12:55:26Z</time>
      </trkpt>
      <trkpt lat="47.05989" lon="6.27057">
        <ele>525</ele>
        <time>2015-10-04T12:55:31Z</time>
      </trkpt>
      <trkpt lat="47.05996" lon="6.27065">
        <ele>527</ele>
        <time>2015-10-04T12:55:36Z</time>
      </trkpt>
      <trkpt lat="47.06001" lon="6.27074">
        <ele>530</ele>
        <time>2015-10-04T12:55:42Z</time>
      </trkpt>
      <trkpt lat="47.06007" lon="6.27081">
        <ele>529</ele>
        <time>2015-10-04T12:55:47Z</time>
      </trkpt>
      <trkpt lat="47.06013" lon="6.27088">
        <ele>533</ele>
        <time>2015-10-04T12:55:53Z</time>
      </trkpt>
      <trkpt lat="47.06019" lon="6.27096">
        <ele>531</ele>
        <time>2015-10-04T12:55:58Z</time>
      </trkpt>
      <trkpt lat="47.06025" lon="6.27104">
        <ele>530</ele>
        <time>2015-10-04T12:56:02Z</time>
      </trkpt>
      <trkpt lat="47.06031" lon="6.27113">
        <ele>530</ele>
        <time>2015-10-04T12:56:07Z</time>
      </trkpt>
      <trkpt lat="47.06038" lon="6.27121">
        <ele>533</ele>
        <time>2015-10-04T12:56:13Z</time>
      </trkpt>
      <trkpt lat="47.06044" lon="6.27129">
        <ele>535</ele>
        <time>2015-10-04T12:56:19Z</time>
      </trkpt>
      <trkpt lat="47.06051" lon="6.27137">
        <ele>535</ele>
        <time>2015-10-04T12:56:25Z</time>
      </trkpt>
      <trkpt lat="47.06056" lon="6.27145">
        <ele>536</ele>
        <time>2015-10-04T12:56:30Z</time>
      </trkpt>
      <trkpt lat="47.06062" lon="6.27152">
        <ele>537</ele>
        <time>2015-10-04T12:56:35Z</time>
      </trkpt>
      <trkpt lat="47.06067" lon="6.27163">
        <ele>540</ele>
        <time>2015-10-04T12:56:41Z</time>
      </trkpt>
      <trkpt lat="47.06073" lon="6.27169">
        <ele>540</ele>
        <time>2015-10-04T12:56:46Z</time>
      </trkpt>
      <trkpt lat="47.06078" lon="6.27178">
        <ele>539</ele>
        <time>2015-10-04T12:56:51Z</time>
      </trkpt>
      <trkpt lat="47.06084" lon="6.27186">
        <ele>540</ele>
        <time>2015-10-04T12:56:56Z</time>
      </trkpt>
      <trkpt lat="47.0609" lon="6.27194">
        <ele>542</ele>
        <time>2015-10-04T12:57:01Z</time>
      </trkpt>
      <trkpt lat="47.06096" lon="6.27201">
        <ele>543</ele>
        <time>2015-10-04T12:57:06Z</time>
      </trkpt>
      <trkpt lat="47.06102" lon="6.27212">
        <ele>543</ele>
        <time>2015-10-04T12:57:11Z</time>
      </trkpt>
      <trkpt lat="47.06107" lon="6.27221">
        <ele>545</ele>
        <time>2015-10-04T12:57:17Z</time>
      </trkpt>
      <trkpt lat="47.06112" lon="6.2723">
        <ele>546</ele>
        <time>2015-10-04T12:57:21Z</time>
      </trkpt>
      <trkpt lat="47.06117" lon="6.27239">
        <ele>546</ele>
        <time>2015-10-04T12:57:26Z</time>
      </trkpt>
      <trkpt lat="47.06123" lon="6.27248">
        <ele>543</ele>
        <time>2015-10-04T12:57:32Z</time>
      </trkpt>
      <trkpt lat="47.06129" lon="6.27257">
        <ele>545</ele>
        <time>2015-10-04T12:57:37Z</time>
      </trkpt>
      <trkpt lat="47.06134" lon="6.27246">
        <ele>546</ele>
        <time>2015-10-04T12:57:46Z</time>
      </trkpt>
      <trkpt lat="47.0613" lon="6.27235">
        <ele>548</ele>
        <time>2015-10-04T12:57:53Z</time>
      </trkpt>
      <trkpt lat="47.06128" lon="6.27223">
        <ele>550</ele>
        <time>2015-10-04T12:58:01Z</time>
      </trkpt>
      <trkpt lat="47.06123" lon="6.27213">
        <ele>552</ele>
        <time>2015-10-04T12:58:08Z</time>
      </trkpt>
      <trkpt lat="47.06121" lon="6.27202">
        <ele>551</ele>
        <time>2015-10-04T12:58:14Z</time>
      </trkpt>
      <trkpt lat="47.06118" lon="6.27191">
        <ele>554</ele>
        <time>2015-10-04T12:58:21Z</time>
      </trkpt>
      <trkpt lat="47.06112" lon="6.27183">
        <ele>558</ele>
        <time>2015-10-04T12:58:27Z</time>
      </trkpt>
      <trkpt lat="47.06106" lon="6.27173">
        <ele>560</ele>
        <time>2015-10-04T12:58:32Z</time>
      </trkpt>
      <trkpt lat="47.06101" lon="6.27161">
        <ele>560</ele>
        <time>2015-10-04T12:58:37Z</time>
      </trkpt>
      <trkpt lat="47.06097" lon="6.27151">
        <ele>562</ele>
        <time>2015-10-04T12:58:42Z</time>
      </trkpt>
      <trkpt lat="47.06092" lon="6.27141">
        <ele>568</ele>
        <time>2015-10-04T12:58:48Z</time>
      </trkpt>
      <trkpt lat="47.06087" lon="6.27129">
        <ele>569</ele>
        <time>2015-10-04T12:58:53Z</time>
      </trkpt>
      <trkpt lat="47.06083" lon="6.27119">
        <ele>569</ele>
        <time>2015-10-04T12:58:58Z</time>
      </trkpt>
      <trkpt lat="47.06081" lon="6.27108">
        <ele>570</ele>
        <time>2015-10-04T12:59:03Z</time>
      </trkpt>
      <trkpt lat="47.06079" lon="6.27096">
        <ele>571</ele>
        <time>2015-10-04T12:59:08Z</time>
      </trkpt>
      <trkpt lat="47.06078" lon="6.27085">
        <ele>572</ele>
        <time>2015-10-04T12:59:13Z</time>
      </trkpt>
      <trkpt lat="47.06074" lon="6.27075">
        <ele>573</ele>
        <time>2015-10-04T12:59:18Z</time>
      </trkpt>
      <trkpt lat="47.0607" lon="6.27066">
        <ele>572</ele>
        <time>2015-10-04T12:59:23Z</time>
      </trkpt>
      <trkpt lat="47.06065" lon="6.27057">
        <ele>572</ele>
        <time>2015-10-04T12:59:28Z</time>
      </trkpt>
      <trkpt lat="47.06062" lon="6.27046">
        <ele>572</ele>
        <time>2015-10-04T12:59:33Z</time>
      </trkpt>
      <trkpt lat="47.06059" lon="6.27035">
        <ele>572</ele>
        <time>2015-10-04T12:59:38Z</time>
      </trkpt>
      <trkpt lat="47.06056" lon="6.27024">
        <ele>572</ele>
        <time>2015-10-04T12:59:43Z</time>
      </trkpt>
      <trkpt lat="47.06054" lon="6.27012">
        <ele>573</ele>
        <time>2015-10-04T12:59:49Z</time>
      </trkpt>
      <trkpt lat="47.0605" lon="6.27001">
        <ele>573</ele>
        <time>2015-10-04T12:59:54Z</time>
      </trkpt>
      <trkpt lat="47.06046" lon="6.2699">
        <ele>573</ele>
        <time>2015-10-04T12:59:59Z</time>
      </trkpt>
      <trkpt lat="47.06042" lon="6.2698">
        <ele>574</ele>
        <time>2015-10-04T13:00:04Z</time>
      </trkpt>
      <trkpt lat="47.06038" lon="6.26969">
        <ele>574</ele>
        <time>2015-10-04T13:00:09Z</time>
      </trkpt>
      <trkpt lat="47.06034" lon="6.26959">
        <ele>575</ele>
        <time>2015-10-04T13:00:14Z</time>
      </trkpt>
      <trkpt lat="47.06031" lon="6.26948">
        <ele>575</ele>
        <time>2015-10-04T13:00:21Z</time>
      </trkpt>
      <trkpt lat="47.06027" lon="6.26936">
        <ele>577</ele>
        <time>2015-10-04T13:00:25Z</time>
      </trkpt>
      <trkpt lat="47.06025" lon="6.26925">
        <ele>578</ele>
        <time>2015-10-04T13:00:30Z</time>
      </trkpt>
      <trkpt lat="47.06023" lon="6.26914">
        <ele>579</ele>
        <time>2015-10-04T13:00:35Z</time>
      </trkpt>
      <trkpt lat="47.06022" lon="6.26902">
        <ele>580</ele>
        <time>2015-10-04T13:00:40Z</time>
      </trkpt>
      <trkpt lat="47.0602" lon="6.26891">
        <ele>582</ele>
        <time>2015-10-04T13:00:45Z</time>
      </trkpt>
      <trkpt lat="47.06018" lon="6.26879">
        <ele>582</ele>
        <time>2015-10-04T13:00:50Z</time>
      </trkpt>
      <trkpt lat="47.06016" lon="6.26867">
        <ele>581</ele>
        <time>2015-10-04T13:00:55Z</time>
      </trkpt>
      <trkpt lat="47.06015" lon="6.26856">
        <ele>583</ele>
        <time>2015-10-04T13:01:00Z</time>
      </trkpt>
      <trkpt lat="47.06014" lon="6.26845">
        <ele>584</ele>
        <time>2015-10-04T13:01:05Z</time>
      </trkpt>
      <trkpt lat="47.06012" lon="6.26833">
        <ele>585</ele>
        <time>2015-10-04T13:01:11Z</time>
      </trkpt>
      <trkpt lat="47.06009" lon="6.26822">
        <ele>590</ele>
        <time>2015-10-04T13:01:17Z</time>
      </trkpt>
      <trkpt lat="47.06006" lon="6.26811">
        <ele>591</ele>
        <time>2015-10-04T13:01:23Z</time>
      </trkpt>
      <trkpt lat="47.06003" lon="6.26799">
        <ele>592</ele>
        <time>2015-10-04T13:01:29Z</time>
      </trkpt>
      <trkpt lat="47.06002" lon="6.26787">
        <ele>591</ele>
        <time>2015-10-04T13:01:34Z</time>
      </trkpt>
      <trkpt lat="47.06" lon="6.26775">
        <ele>592</ele>
        <time>2015-10-04T13:01:39Z</time>
      </trkpt>
      <trkpt lat="47.05999" lon="6.26763">
        <ele>593</ele>
        <time>2015-10-04T13:01:45Z</time>
      </trkpt>
      <trkpt lat="47.05997" lon="6.26751">
        <ele>594</ele>
        <time>2015-10-04T13:01:50Z</time>
      </trkpt>
      <trkpt lat="47.05994" lon="6.26739">
        <ele>596</ele>
        <time>2015-10-04T13:01:56Z</time>
      </trkpt>
      <trkpt lat="47.05993" lon="6.26726">
        <ele>596</ele>
        <time>2015-10-04T13:02:02Z</time>
      </trkpt>
      <trkpt lat="47.05989" lon="6.26714">
        <ele>598</ele>
        <time>2015-10-04T13:02:15Z</time>
      </trkpt>
      <trkpt lat="47.05988" lon="6.26703">
        <ele>600</ele>
        <time>2015-10-04T13:02:25Z</time>
      </trkpt>
      <trkpt lat="47.05986" lon="6.26691">
        <ele>601</ele>
        <time>2015-10-04T13:02:30Z</time>
      </trkpt>
      <trkpt lat="47.05983" lon="6.2668">
        <ele>602</ele>
        <time>2015-10-04T13:02:37Z</time>
      </trkpt>
      <trkpt lat="47.05978" lon="6.26669">
        <ele>603</ele>
        <time>2015-10-04T13:02:41Z</time>
      </trkpt>
      <trkpt lat="47.05974" lon="6.26657">
        <ele>604</ele>
        <time>2015-10-04T13:02:47Z</time>
      </trkpt>
      <trkpt lat="47.0597" lon="6.26647">
        <ele>605</ele>
        <time>2015-10-04T13:02:52Z</time>
      </trkpt>
      <trkpt lat="47.05967" lon="6.26637">
        <ele>606</ele>
        <time>2015-10-04T13:02:57Z</time>
      </trkpt>
      <trkpt lat="47.05965" lon="6.26626">
        <ele>606</ele>
        <time>2015-10-04T13:03:02Z</time>
      </trkpt>
      <trkpt lat="47.05962" lon="6.26616">
        <ele>607</ele>
        <time>2015-10-04T13:03:07Z</time>
      </trkpt>
      <trkpt lat="47.05959" lon="6.26604">
        <ele>607</ele>
        <time>2015-10-04T13:03:13Z</time>
      </trkpt>
      <trkpt lat="47.05957" lon="6.26591">
        <ele>607</ele>
        <time>2015-10-04T13:03:20Z</time>
      </trkpt>
      <trkpt lat="47.05955" lon="6.2658">
        <ele>608</ele>
        <time>2015-10-04T13:03:27Z</time>
      </trkpt>
      <trkpt lat="47.05951" lon="6.26569">
        <ele>610</ele>
        <time>2015-10-04T13:03:33Z</time>
      </trkpt>
      <trkpt lat="47.05949" lon="6.26557">
        <ele>611</ele>
        <time>2015-10-04T13:03:38Z</time>
      </trkpt>
      <trkpt lat="47.05948" lon="6.26544">
        <ele>612</ele>
        <time>2015-10-04T13:03:43Z</time>
      </trkpt>
      <trkpt lat="47.05947" lon="6.26532">
        <ele>613</ele>
        <time>2015-10-04T13:03:48Z</time>
      </trkpt>
      <trkpt lat="47.05946" lon="6.2652">
        <ele>614</ele>
        <time>2015-10-04T13:03:53Z</time>
      </trkpt>
      <trkpt lat="47.05944" lon="6.26508">
        <ele>615</ele>
        <time>2015-10-04T13:03:58Z</time>
      </trkpt>
      <trkpt lat="47.05944" lon="6.26495">
        <ele>616</ele>
        <time>2015-10-04T13:04:03Z</time>
      </trkpt>
      <trkpt lat="47.05943" lon="6.26482">
        <ele>617</ele>
        <time>2015-10-04T13:04:08Z</time>
      </trkpt>
      <trkpt lat="47.05941" lon="6.26471">
        <ele>619</ele>
        <time>2015-10-04T13:04:13Z</time>
      </trkpt>
      <trkpt lat="47.05939" lon="6.2646">
        <ele>620</ele>
        <time>2015-10-04T13:04:18Z</time>
      </trkpt>
      <trkpt lat="47.05936" lon="6.26448">
        <ele>621</ele>
        <time>2015-10-04T13:04:23Z</time>
      </trkpt>
      <trkpt lat="47.05934" lon="6.26436">
        <ele>622</ele>
        <time>2015-10-04T13:04:28Z</time>
      </trkpt>
      <trkpt lat="47.05932" lon="6.26424">
        <ele>622</ele>
        <time>2015-10-04T13:04:33Z</time>
      </trkpt>
      <trkpt lat="47.0593" lon="6.26411">
        <ele>623</ele>
        <time>2015-10-04T13:04:38Z</time>
      </trkpt>
      <trkpt lat="47.05929" lon="6.264">
        <ele>624</ele>
        <time>2015-10-04T13:04:43Z</time>
      </trkpt>
      <trkpt lat="47.05927" lon="6.26389">
        <ele>626</ele>
        <time>2015-10-04T13:04:49Z</time>
      </trkpt>
      <trkpt lat="47.05925" lon="6.26377">
        <ele>628</ele>
        <time>2015-10-04T13:04:55Z</time>
      </trkpt>
      <trkpt lat="47.05923" lon="6.26365">
        <ele>628</ele>
        <time>2015-10-04T13:05:01Z</time>
      </trkpt>
      <trkpt lat="47.05922" lon="6.26352">
        <ele>630</ele>
        <time>2015-10-04T13:05:07Z</time>
      </trkpt>
      <trkpt lat="47.0592" lon="6.2634">
        <ele>633</ele>
        <time>2015-10-04T13:05:13Z</time>
      </trkpt>
      <trkpt lat="47.05919" lon="6.26328">
        <ele>635</ele>
        <time>2015-10-04T13:05:19Z</time>
      </trkpt>
      <trkpt lat="47.05919" lon="6.26316">
        <ele>636</ele>
        <time>2015-10-04T13:05:25Z</time>
      </trkpt>
      <trkpt lat="47.05919" lon="6.26305">
        <ele>636</ele>
        <time>2015-10-04T13:05:30Z</time>
      </trkpt>
      <trkpt lat="47.05917" lon="6.26293">
        <ele>636</ele>
        <time>2015-10-04T13:05:35Z</time>
      </trkpt>
      <trkpt lat="47.05914" lon="6.26282">
        <ele>638</ele>
        <time>2015-10-04T13:05:40Z</time>
      </trkpt>
      <trkpt lat="47.05908" lon="6.26272">
        <ele>640</ele>
        <time>2015-10-04T13:05:45Z</time>
      </trkpt>
      <trkpt lat="47.05903" lon="6.26264">
        <ele>642</ele>
        <time>2015-10-04T13:05:50Z</time>
      </trkpt>
      <trkpt lat="47.05899" lon="6.26253">
        <ele>643</ele>
        <time>2015-10-04T13:05:56Z</time>
      </trkpt>
      <trkpt lat="47.05896" lon="6.26243">
        <ele>645</ele>
        <time>2015-10-04T13:06:01Z</time>
      </trkpt>
      <trkpt lat="47.05893" lon="6.26232">
        <ele>645</ele>
        <time>2015-10-04T13:06:06Z</time>
      </trkpt>
      <trkpt lat="47.0589" lon="6.26222">
        <ele>648</ele>
        <time>2015-10-04T13:06:11Z</time>
      </trkpt>
      <trkpt lat="47.05888" lon="6.26212">
        <ele>650</ele>
        <time>2015-10-04T13:06:16Z</time>
      </trkpt>
      <trkpt lat="47.05885" lon="6.262">
        <ele>651</ele>
        <time>2015-10-04T13:06:21Z</time>
      </trkpt>
      <trkpt lat="47.05882" lon="6.26188">
        <ele>655</ele>
        <time>2015-10-04T13:06:27Z</time>
      </trkpt>
      <trkpt lat="47.05879" lon="6.26177">
        <ele>658</ele>
        <time>2015-10-04T13:06:33Z</time>
      </trkpt>
      <trkpt lat="47.05878" lon="6.26166">
        <ele>659</ele>
        <time>2015-10-04T13:06:38Z</time>
      </trkpt>
      <trkpt lat="47.05877" lon="6.26153">
        <ele>659</ele>
        <time>2015-10-04T13:06:44Z</time>
      </trkpt>
      <trkpt lat="47.05876" lon="6.26142">
        <ele>660</ele>
        <time>2015-10-04T13:06:49Z</time>
      </trkpt>
      <trkpt lat="47.05874" lon="6.26129">
        <ele>660</ele>
        <time>2015-10-04T13:06:54Z</time>
      </trkpt>
      <trkpt lat="47.05871" lon="6.26119">
        <ele>661</ele>
        <time>2015-10-04T13:06:59Z</time>
      </trkpt>
      <trkpt lat="47.05871" lon="6.26106">
        <ele>659</ele>
        <time>2015-10-04T13:07:05Z</time>
      </trkpt>
      <trkpt lat="47.0587" lon="6.26093">
        <ele>659</ele>
        <time>2015-10-04T13:07:11Z</time>
      </trkpt>
      <trkpt lat="47.05869" lon="6.26082">
        <ele>661</ele>
        <time>2015-10-04T13:07:17Z</time>
      </trkpt>
      <trkpt lat="47.05868" lon="6.2607">
        <ele>663</ele>
        <time>2015-10-04T13:07:23Z</time>
      </trkpt>
      <trkpt lat="47.05868" lon="6.26057">
        <ele>664</ele>
        <time>2015-10-04T13:07:29Z</time>
      </trkpt>
      <trkpt lat="47.05867" lon="6.26045">
        <ele>666</ele>
        <time>2015-10-04T13:07:35Z</time>
      </trkpt>
      <trkpt lat="47.05865" lon="6.26033">
        <ele>668</ele>
        <time>2015-10-04T13:07:41Z</time>
      </trkpt>
      <trkpt lat="47.05864" lon="6.26021">
        <ele>669</ele>
        <time>2015-10-04T13:07:47Z</time>
      </trkpt>
      <trkpt lat="47.05863" lon="6.26009">
        <ele>670</ele>
        <time>2015-10-04T13:07:53Z</time>
      </trkpt>
      <trkpt lat="47.05864" lon="6.25996">
        <ele>673</ele>
        <time>2015-10-04T13:08:00Z</time>
      </trkpt>
      <trkpt lat="47.05864" lon="6.25984">
        <ele>676</ele>
        <time>2015-10-04T13:08:06Z</time>
      </trkpt>
      <trkpt lat="47.05864" lon="6.25971">
        <ele>679</ele>
        <time>2015-10-04T13:08:13Z</time>
      </trkpt>
      <trkpt lat="47.05863" lon="6.25959">
        <ele>682</ele>
        <time>2015-10-04T13:08:20Z</time>
      </trkpt>
      <trkpt lat="47.0586" lon="6.25948">
        <ele>686</ele>
        <time>2015-10-04T13:08:27Z</time>
      </trkpt>
      <trkpt lat="47.05857" lon="6.25937">
        <ele>686</ele>
        <time>2015-10-04T13:08:33Z</time>
      </trkpt>
      <trkpt lat="47.05855" lon="6.25925">
        <ele>687</ele>
        <time>2015-10-04T13:08:39Z</time>
      </trkpt>
      <trkpt lat="47.05852" lon="6.25913">
        <ele>689</ele>
        <time>2015-10-04T13:08:45Z</time>
      </trkpt>
      <trkpt lat="47.05848" lon="6.25904">
        <ele>691</ele>
        <time>2015-10-04T13:08:50Z</time>
      </trkpt>
      <trkpt lat="47.05842" lon="6.25893">
        <ele>690</ele>
        <time>2015-10-04T13:08:55Z</time>
      </trkpt>
      <trkpt lat="47.05838" lon="6.25884">
        <ele>690</ele>
        <time>2015-10-04T13:08:59Z</time>
      </trkpt>
      <trkpt lat="47.0583" lon="6.25873">
        <ele>692</ele>
        <time>2015-10-04T13:09:03Z</time>
      </trkpt>
      <trkpt lat="47.05822" lon="6.25859">
        <ele>693</ele>
        <time>2015-10-04T13:09:08Z</time>
      </trkpt>
      <trkpt lat="47.05819" lon="6.25848">
        <ele>695</ele>
        <time>2015-10-04T13:09:13Z</time>
      </trkpt>
      <trkpt lat="47.05814" lon="6.25838">
        <ele>695</ele>
        <time>2015-10-04T13:09:19Z</time>
      </trkpt>
      <trkpt lat="47.05809" lon="6.25828">
        <ele>695</ele>
        <time>2015-10-04T13:09:25Z</time>
      </trkpt>
      <trkpt lat="47.05806" lon="6.25817">
        <ele>696</ele>
        <time>2015-10-04T13:09:33Z</time>
      </trkpt>
      <trkpt lat="47.05799" lon="6.25807">
        <ele>680</ele>
        <time>2015-10-04T13:30:21Z</time>
      </trkpt>
      <trkpt lat="47.05793" lon="6.25798">
        <ele>684</ele>
        <time>2015-10-04T13:30:25Z</time>
      </trkpt>
      <trkpt lat="47.05788" lon="6.25788">
        <ele>684</ele>
        <time>2015-10-04T13:30:29Z</time>
      </trkpt>
      <trkpt lat="47.05782" lon="6.25775">
        <ele>683</ele>
        <time>2015-10-04T13:30:34Z</time>
      </trkpt>
      <trkpt lat="47.05775" lon="6.25768">
        <ele>680</ele>
        <time>2015-10-04T13:30:39Z</time>
      </trkpt>
      <trkpt lat="47.0577" lon="6.25759">
        <ele>681</ele>
        <time>2015-10-04T13:30:43Z</time>
      </trkpt>
      <trkpt lat="47.05764" lon="6.25749">
        <ele>684</ele>
        <time>2015-10-04T13:30:47Z</time>
      </trkpt>
      <trkpt lat="47.05763" lon="6.25746">
        <ele>684</ele>
        <time>2015-10-04T13:30:48Z</time>
      </trkpt>
      <trkpt lat="47.05757" lon="6.2573">
        <ele>689</ele>
        <time>2015-10-04T13:30:54Z</time>
      </trkpt>
      <trkpt lat="47.05755" lon="6.25717">
        <ele>689</ele>
        <time>2015-10-04T13:30:58Z</time>
      </trkpt>
      <trkpt lat="47.05753" lon="6.25705">
        <ele>691</ele>
        <time>2015-10-04T13:31:02Z</time>
      </trkpt>
      <trkpt lat="47.05749" lon="6.25692">
        <ele>691</ele>
        <time>2015-10-04T13:31:06Z</time>
      </trkpt>
      <trkpt lat="47.05743" lon="6.25673">
        <ele>691</ele>
        <time>2015-10-04T13:31:11Z</time>
      </trkpt>
      <trkpt lat="47.0574" lon="6.25659">
        <ele>692</ele>
        <time>2015-10-04T13:31:15Z</time>
      </trkpt>
      <trkpt lat="47.05735" lon="6.25641">
        <ele>692</ele>
        <time>2015-10-04T13:31:20Z</time>
      </trkpt>
      <trkpt lat="47.05732" lon="6.25628">
        <ele>693</ele>
        <time>2015-10-04T13:31:24Z</time>
      </trkpt>
      <trkpt lat="47.05727" lon="6.25612">
        <ele>692</ele>
        <time>2015-10-04T13:31:29Z</time>
      </trkpt>
      <trkpt lat="47.05721" lon="6.25598">
        <ele>694</ele>
        <time>2015-10-04T13:31:34Z</time>
      </trkpt>
      <trkpt lat="47.05716" lon="6.25589">
        <ele>694</ele>
        <time>2015-10-04T13:31:38Z</time>
      </trkpt>
      <trkpt lat="47.05711" lon="6.25573">
        <ele>695</ele>
        <time>2015-10-04T13:31:43Z</time>
      </trkpt>
      <trkpt lat="47.0571" lon="6.2556">
        <ele>696</ele>
        <time>2015-10-04T13:31:47Z</time>
      </trkpt>
      <trkpt lat="47.05709" lon="6.25545">
        <ele>699</ele>
        <time>2015-10-04T13:31:52Z</time>
      </trkpt>
      <trkpt lat="47.05707" lon="6.2553">
        <ele>700</ele>
        <time>2015-10-04T13:31:57Z</time>
      </trkpt>
      <trkpt lat="47.05704" lon="6.25514">
        <ele>701</ele>
        <time>2015-10-04T13:32:02Z</time>
      </trkpt>
      <trkpt lat="47.05701" lon="6.25495">
        <ele>701</ele>
        <time>2015-10-04T13:32:07Z</time>
      </trkpt>
      <trkpt lat="47.057" lon="6.25482">
        <ele>703</ele>
        <time>2015-10-04T13:32:11Z</time>
      </trkpt>
      <trkpt lat="47.05699" lon="6.2547">
        <ele>704</ele>
        <time>2015-10-04T13:32:15Z</time>
      </trkpt>
      <trkpt lat="47.05697" lon="6.25456">
        <ele>705</ele>
        <time>2015-10-04T13:32:20Z</time>
      </trkpt>
      <trkpt lat="47.05695" lon="6.25442">
        <ele>705</ele>
        <time>2015-10-04T13:32:25Z</time>
      </trkpt>
      <trkpt lat="47.05693" lon="6.2543">
        <ele>706</ele>
        <time>2015-10-04T13:32:29Z</time>
      </trkpt>
      <trkpt lat="47.05691" lon="6.25418">
        <ele>706</ele>
        <time>2015-10-04T13:32:33Z</time>
      </trkpt>
      <trkpt lat="47.05687" lon="6.25402">
        <ele>706</ele>
        <time>2015-10-04T13:32:38Z</time>
      </trkpt>
      <trkpt lat="47.05683" lon="6.25386">
        <ele>707</ele>
        <time>2015-10-04T13:32:43Z</time>
      </trkpt>
      <trkpt lat="47.05682" lon="6.25373">
        <ele>708</ele>
        <time>2015-10-04T13:32:47Z</time>
      </trkpt>
      <trkpt lat="47.05679" lon="6.25358">
        <ele>710</ele>
        <time>2015-10-04T13:32:52Z</time>
      </trkpt>
      <trkpt lat="47.05679" lon="6.25346">
        <ele>712</ele>
        <time>2015-10-04T13:32:56Z</time>
      </trkpt>
      <trkpt lat="47.05679" lon="6.25332">
        <ele>711</ele>
        <time>2015-10-04T13:33:01Z</time>
      </trkpt>
      <trkpt lat="47.05685" lon="6.2531">
        <ele>709</ele>
        <time>2015-10-04T13:33:06Z</time>
      </trkpt>
      <trkpt lat="47.05684" lon="6.25268">
        <ele>706</ele>
        <time>2015-10-04T13:33:11Z</time>
      </trkpt>
      <trkpt lat="47.05686" lon="6.25232">
        <ele>704</ele>
        <time>2015-10-04T13:33:15Z</time>
      </trkpt>
      <trkpt lat="47.05667" lon="6.2521">
        <ele>705</ele>
        <time>2015-10-04T13:33:19Z</time>
      </trkpt>
      <trkpt lat="47.05649" lon="6.25188">
        <ele>706</ele>
        <time>2015-10-04T13:33:24Z</time>
      </trkpt>
      <trkpt lat="47.05638" lon="6.25178">
        <ele>708</ele>
        <time>2015-10-04T13:33:28Z</time>
      </trkpt>
      <trkpt lat="47.05629" lon="6.2517">
        <ele>710</ele>
        <time>2015-10-04T13:33:32Z</time>
      </trkpt>
      <trkpt lat="47.05619" lon="6.25163">
        <ele>712</ele>
        <time>2015-10-04T13:33:37Z</time>
      </trkpt>
      <trkpt lat="47.05608" lon="6.25156">
        <ele>712</ele>
        <time>2015-10-04T13:33:42Z</time>
      </trkpt>
      <trkpt lat="47.05597" lon="6.25146">
        <ele>712</ele>
        <time>2015-10-04T13:33:46Z</time>
      </trkpt>
      <trkpt lat="47.05589" lon="6.25133">
        <ele>713</ele>
        <time>2015-10-04T13:33:50Z</time>
      </trkpt>
      <trkpt lat="47.05583" lon="6.25119">
        <ele>713</ele>
        <time>2015-10-04T13:33:54Z</time>
      </trkpt>
      <trkpt lat="47.05579" lon="6.25103">
        <ele>714</ele>
        <time>2015-10-04T13:33:58Z</time>
      </trkpt>
      <trkpt lat="47.05573" lon="6.25082">
        <ele>715</ele>
        <time>2015-10-04T13:34:03Z</time>
      </trkpt>
      <trkpt lat="47.05571" lon="6.25065">
        <ele>716</ele>
        <time>2015-10-04T13:34:07Z</time>
      </trkpt>
      <trkpt lat="47.0557" lon="6.25046">
        <ele>717</ele>
        <time>2015-10-04T13:34:11Z</time>
      </trkpt>
      <trkpt lat="47.05571" lon="6.25022">
        <ele>717</ele>
        <time>2015-10-04T13:34:16Z</time>
      </trkpt>
      <trkpt lat="47.05577" lon="6.24999">
        <ele>718</ele>
        <time>2015-10-04T13:34:21Z</time>
      </trkpt>
      <trkpt lat="47.05585" lon="6.2498">
        <ele>718</ele>
        <time>2015-10-04T13:34:26Z</time>
      </trkpt>
      <trkpt lat="47.05589" lon="6.24966">
        <ele>719</ele>
        <time>2015-10-04T13:34:30Z</time>
      </trkpt>
      <trkpt lat="47.05588" lon="6.24956">
        <ele>723</ele>
        <time>2015-10-04T13:34:35Z</time>
      </trkpt>
      <trkpt lat="47.05583" lon="6.24945">
        <ele>726</ele>
        <time>2015-10-04T13:34:39Z</time>
      </trkpt>
      <trkpt lat="47.05576" lon="6.24929">
        <ele>726</ele>
        <time>2015-10-04T13:34:44Z</time>
      </trkpt>
      <trkpt lat="47.0557" lon="6.24913">
        <ele>726</ele>
        <time>2015-10-04T13:34:49Z</time>
      </trkpt>
      <trkpt lat="47.05566" lon="6.24901">
        <ele>726</ele>
        <time>2015-10-04T13:34:53Z</time>
      </trkpt>
      <trkpt lat="47.05562" lon="6.24885">
        <ele>726</ele>
        <time>2015-10-04T13:34:57Z</time>
      </trkpt>
      <trkpt lat="47.05559" lon="6.24866">
        <ele>726</ele>
        <time>2015-10-04T13:35:01Z</time>
      </trkpt>
      <trkpt lat="47.05559" lon="6.24848">
        <ele>726</ele>
        <time>2015-10-04T13:35:05Z</time>
      </trkpt>
      <trkpt lat="47.0556" lon="6.24831">
        <ele>727</ele>
        <time>2015-10-04T13:35:09Z</time>
      </trkpt>
      <trkpt lat="47.05561" lon="6.24817">
        <ele>726</ele>
        <time>2015-10-04T13:35:13Z</time>
      </trkpt>
      <trkpt lat="47.05561" lon="6.24801">
        <ele>727</ele>
        <time>2015-10-04T13:35:18Z</time>
      </trkpt>
      <trkpt lat="47.05563" lon="6.24783">
        <ele>728</ele>
        <time>2015-10-04T13:35:22Z</time>
      </trkpt>
      <trkpt lat="47.05565" lon="6.24765">
        <ele>727</ele>
        <time>2015-10-04T13:35:27Z</time>
      </trkpt>
      <trkpt lat="47.05567" lon="6.24746">
        <ele>727</ele>
        <time>2015-10-04T13:35:32Z</time>
      </trkpt>
      <trkpt lat="47.05568" lon="6.2473">
        <ele>727</ele>
        <time>2015-10-04T13:35:36Z</time>
      </trkpt>
      <trkpt lat="47.05568" lon="6.24713">
        <ele>728</ele>
        <time>2015-10-04T13:35:40Z</time>
      </trkpt>
      <trkpt lat="47.05567" lon="6.24693">
        <ele>727</ele>
        <time>2015-10-04T13:35:45Z</time>
      </trkpt>
      <trkpt lat="47.05565" lon="6.24673">
        <ele>727</ele>
        <time>2015-10-04T13:35:50Z</time>
      </trkpt>
      <trkpt lat="47.05563" lon="6.2466">
        <ele>727</ele>
        <time>2015-10-04T13:35:56Z</time>
      </trkpt>
      <trkpt lat="47.05556" lon="6.2463">
        <ele>726</ele>
        <time>2015-10-04T13:36:00Z</time>
      </trkpt>
      <trkpt lat="47.05552" lon="6.24616">
        <ele>726</ele>
        <time>2015-10-04T13:36:04Z</time>
      </trkpt>
      <trkpt lat="47.0554" lon="6.2459">
        <ele>725</ele>
        <time>2015-10-04T13:36:09Z</time>
      </trkpt>
      <trkpt lat="47.05528" lon="6.24567">
        <ele>724</ele>
        <time>2015-10-04T13:36:14Z</time>
      </trkpt>
      <trkpt lat="47.05501" lon="6.24556">
        <ele>721</ele>
        <time>2015-10-04T13:36:19Z</time>
      </trkpt>
      <trkpt lat="47.05475" lon="6.24545">
        <ele>718</ele>
        <time>2015-10-04T13:36:23Z</time>
      </trkpt>
      <trkpt lat="47.05449" lon="6.2453">
        <ele>716</ele>
        <time>2015-10-04T13:36:27Z</time>
      </trkpt>
      <trkpt lat="47.05441" lon="6.24506">
        <ele>717</ele>
        <time>2015-10-04T13:36:31Z</time>
      </trkpt>
      <trkpt lat="47.05442" lon="6.24479">
        <ele>717</ele>
        <time>2015-10-04T13:36:36Z</time>
      </trkpt>
      <trkpt lat="47.05444" lon="6.24454">
        <ele>718</ele>
        <time>2015-10-04T13:36:41Z</time>
      </trkpt>
      <trkpt lat="47.05447" lon="6.24441">
        <ele>719</ele>
        <time>2015-10-04T13:36:44Z</time>
      </trkpt>
      <trkpt lat="47.05451" lon="6.2442">
        <ele>719</ele>
        <time>2015-10-04T13:36:49Z</time>
      </trkpt>
      <trkpt lat="47.05455" lon="6.24402">
        <ele>720</ele>
        <time>2015-10-04T13:36:53Z</time>
      </trkpt>
      <trkpt lat="47.05458" lon="6.24386">
        <ele>719</ele>
        <time>2015-10-04T13:36:57Z</time>
      </trkpt>
      <trkpt lat="47.05463" lon="6.24361">
        <ele>719</ele>
        <time>2015-10-04T13:37:01Z</time>
      </trkpt>
      <trkpt lat="47.05473" lon="6.2435">
        <ele>718</ele>
        <time>2015-10-04T13:37:05Z</time>
      </trkpt>
      <trkpt lat="47.05486" lon="6.24345">
        <ele>719</ele>
        <time>2015-10-04T13:37:10Z</time>
      </trkpt>
      <trkpt lat="47.05498" lon="6.24345">
        <ele>721</ele>
        <time>2015-10-04T13:37:15Z</time>
      </trkpt>
      <trkpt lat="47.05507" lon="6.24343">
        <ele>719</ele>
        <time>2015-10-04T13:37:19Z</time>
      </trkpt>
      <trkpt lat="47.05515" lon="6.24339">
        <ele>717</ele>
        <time>2015-10-04T13:37:23Z</time>
      </trkpt>
      <trkpt lat="47.05526" lon="6.2433">
        <ele>718</ele>
        <time>2015-10-04T13:37:28Z</time>
      </trkpt>
      <trkpt lat="47.05539" lon="6.2432">
        <ele>720</ele>
        <time>2015-10-04T13:37:33Z</time>
      </trkpt>
      <trkpt lat="47.05551" lon="6.24312">
        <ele>720</ele>
        <time>2015-10-04T13:37:37Z</time>
      </trkpt>
      <trkpt lat="47.05568" lon="6.24294">
        <ele>718</ele>
        <time>2015-10-04T13:37:42Z</time>
      </trkpt>
      <trkpt lat="47.05581" lon="6.24276">
        <ele>718</ele>
        <time>2015-10-04T13:37:46Z</time>
      </trkpt>
      <trkpt lat="47.05568" lon="6.24248">
        <ele>720</ele>
        <time>2015-10-04T13:37:51Z</time>
      </trkpt>
      <trkpt lat="47.05563" lon="6.24218">
        <ele>720</ele>
        <time>2015-10-04T13:37:55Z</time>
      </trkpt>
      <trkpt lat="47.05582" lon="6.24191">
        <ele>717</ele>
        <time>2015-10-04T13:38:00Z</time>
      </trkpt>
      <trkpt lat="47.056" lon="6.24164">
        <ele>711</ele>
        <time>2015-10-04T13:38:05Z</time>
      </trkpt>
      <trkpt lat="47.05589" lon="6.24129">
        <ele>713</ele>
        <time>2015-10-04T13:38:10Z</time>
      </trkpt>
      <trkpt lat="47.05584" lon="6.2411">
        <ele>710</ele>
        <time>2015-10-04T13:38:14Z</time>
      </trkpt>
      <trkpt lat="47.05584" lon="6.24078">
        <ele>705</ele>
        <time>2015-10-04T13:38:18Z</time>
      </trkpt>
      <trkpt lat="47.05581" lon="6.24059">
        <ele>699</ele>
        <time>2015-10-04T13:38:22Z</time>
      </trkpt>
      <trkpt lat="47.0559" lon="6.24046">
        <ele>695</ele>
        <time>2015-10-04T13:38:27Z</time>
      </trkpt>
      <trkpt lat="47.05599" lon="6.24036">
        <ele>703</ele>
        <time>2015-10-04T13:38:31Z</time>
      </trkpt>
      <trkpt lat="47.05606" lon="6.24031">
        <ele>703</ele>
        <time>2015-10-04T13:38:36Z</time>
      </trkpt>
      <trkpt lat="47.05613" lon="6.24025">
        <ele>702</ele>
        <time>2015-10-04T13:38:41Z</time>
      </trkpt>
      <trkpt lat="47.0562" lon="6.24021">
        <ele>702</ele>
        <time>2015-10-04T13:38:46Z</time>
      </trkpt>
      <trkpt lat="47.05627" lon="6.24016">
        <ele>701</ele>
        <time>2015-10-04T13:38:51Z</time>
      </trkpt>
      <trkpt lat="47.05634" lon="6.24012">
        <ele>697</ele>
        <time>2015-10-04T13:38:55Z</time>
      </trkpt>
      <trkpt lat="47.05643" lon="6.24008">
        <ele>697</ele>
        <time>2015-10-04T13:39:00Z</time>
      </trkpt>
      <trkpt lat="47.05656" lon="6.23998">
        <ele>695</ele>
        <time>2015-10-04T13:39:04Z</time>
      </trkpt>
      <trkpt lat="47.05669" lon="6.23991">
        <ele>697</ele>
        <time>2015-10-04T13:39:08Z</time>
      </trkpt>
      <trkpt lat="47.05681" lon="6.23982">
        <ele>695</ele>
        <time>2015-10-04T13:39:12Z</time>
      </trkpt>
      <trkpt lat="47.05695" lon="6.23969">
        <ele>695</ele>
        <time>2015-10-04T13:39:17Z</time>
      </trkpt>
      <trkpt lat="47.05709" lon="6.2396">
        <ele>696</ele>
        <time>2015-10-04T13:39:21Z</time>
      </trkpt>
      <trkpt lat="47.05726" lon="6.23952">
        <ele>694</ele>
        <time>2015-10-04T13:39:26Z</time>
      </trkpt>
      <trkpt lat="47.05739" lon="6.23941">
        <ele>690</ele>
        <time>2015-10-04T13:39:30Z</time>
      </trkpt>
      <trkpt lat="47.0577" lon="6.23917">
        <ele>689</ele>
        <time>2015-10-04T13:39:35Z</time>
      </trkpt>
      <trkpt lat="47.0578" lon="6.23912">
        <ele>690</ele>
        <time>2015-10-04T13:39:39Z</time>
      </trkpt>
      <trkpt lat="47.05789" lon="6.23913">
        <ele>693</ele>
        <time>2015-10-04T13:39:47Z</time>
      </trkpt>
      <trkpt lat="47.05797" lon="6.23909">
        <ele>695</ele>
        <time>2015-10-04T13:40:11Z</time>
      </trkpt>
      <trkpt lat="47.05803" lon="6.23899">
        <ele>699</ele>
        <time>2015-10-04T13:40:22Z</time>
      </trkpt>
      <trkpt lat="47.05811" lon="6.23895">
        <ele>701</ele>
        <time>2015-10-04T13:40:34Z</time>
      </trkpt>
      <trkpt lat="47.05819" lon="6.23889">
        <ele>702</ele>
        <time>2015-10-04T13:40:39Z</time>
      </trkpt>
      <trkpt lat="47.05826" lon="6.23886">
        <ele>703</ele>
        <time>2015-10-04T13:40:43Z</time>
      </trkpt>
      <trkpt lat="47.05834" lon="6.23879">
        <ele>704</ele>
        <time>2015-10-04T13:40:48Z</time>
      </trkpt>
      <trkpt lat="47.05841" lon="6.23873">
        <ele>706</ele>
        <time>2015-10-04T13:40:52Z</time>
      </trkpt>
      <trkpt lat="47.05848" lon="6.23869">
        <ele>707</ele>
        <time>2015-10-04T13:40:56Z</time>
      </trkpt>
      <trkpt lat="47.05857" lon="6.23863">
        <ele>707</ele>
        <time>2015-10-04T13:41:01Z</time>
      </trkpt>
      <trkpt lat="47.05866" lon="6.23855">
        <ele>709</ele>
        <time>2015-10-04T13:41:05Z</time>
      </trkpt>
      <trkpt lat="47.05879" lon="6.23844">
        <ele>710</ele>
        <time>2015-10-04T13:41:10Z</time>
      </trkpt>
      <trkpt lat="47.05889" lon="6.23837">
        <ele>708</ele>
        <time>2015-10-04T13:41:14Z</time>
      </trkpt>
      <trkpt lat="47.059" lon="6.23832">
        <ele>707</ele>
        <time>2015-10-04T13:41:18Z</time>
      </trkpt>
      <trkpt lat="47.05918" lon="6.23825">
        <ele>703</ele>
        <time>2015-10-04T13:41:23Z</time>
      </trkpt>
      <trkpt lat="47.05938" lon="6.23814">
        <ele>706</ele>
        <time>2015-10-04T13:41:27Z</time>
      </trkpt>
      <trkpt lat="47.05962" lon="6.23802">
        <ele>699</ele>
        <time>2015-10-04T13:41:32Z</time>
      </trkpt>
      <trkpt lat="47.05987" lon="6.23796">
        <ele>698</ele>
        <time>2015-10-04T13:41:37Z</time>
      </trkpt>
      <trkpt lat="47.06002" lon="6.23792">
        <ele>698</ele>
        <time>2015-10-04T13:41:41Z</time>
      </trkpt>
      <trkpt lat="47.06019" lon="6.23784">
        <ele>695</ele>
        <time>2015-10-04T13:41:45Z</time>
      </trkpt>
      <trkpt lat="47.06039" lon="6.23773">
        <ele>695</ele>
        <time>2015-10-04T13:41:49Z</time>
      </trkpt>
      <trkpt lat="47.06065" lon="6.23761">
        <ele>693</ele>
        <time>2015-10-04T13:41:54Z</time>
      </trkpt>
      <trkpt lat="47.06093" lon="6.23748">
        <ele>692</ele>
        <time>2015-10-04T13:41:58Z</time>
      </trkpt>
      <trkpt lat="47.06113" lon="6.23741">
        <ele>690</ele>
        <time>2015-10-04T13:42:02Z</time>
      </trkpt>
      <trkpt lat="47.06124" lon="6.23754">
        <ele>687</ele>
        <time>2015-10-04T13:42:07Z</time>
      </trkpt>
      <trkpt lat="47.06127" lon="6.23767">
        <ele>686</ele>
        <time>2015-10-04T13:42:11Z</time>
      </trkpt>
      <trkpt lat="47.06132" lon="6.23787">
        <ele>699</ele>
        <time>2015-10-04T13:42:16Z</time>
      </trkpt>
      <trkpt lat="47.06136" lon="6.23803">
        <ele>688</ele>
        <time>2015-10-04T13:42:20Z</time>
      </trkpt>
      <trkpt lat="47.06142" lon="6.23826">
        <ele>686</ele>
        <time>2015-10-04T13:42:25Z</time>
      </trkpt>
      <trkpt lat="47.06149" lon="6.23851">
        <ele>685</ele>
        <time>2015-10-04T13:42:30Z</time>
      </trkpt>
      <trkpt lat="47.06153" lon="6.23876">
        <ele>686</ele>
        <time>2015-10-04T13:42:35Z</time>
      </trkpt>
      <trkpt lat="47.06158" lon="6.23897">
        <ele>687</ele>
        <time>2015-10-04T13:42:39Z</time>
      </trkpt>
      <trkpt lat="47.06162" lon="6.23919">
        <ele>683</ele>
        <time>2015-10-04T13:42:43Z</time>
      </trkpt>
      <trkpt lat="47.06166" lon="6.23941">
        <ele>684</ele>
        <time>2015-10-04T13:42:47Z</time>
      </trkpt>
      <trkpt lat="47.0617" lon="6.23964">
        <ele>682</ele>
        <time>2015-10-04T13:42:51Z</time>
      </trkpt>
      <trkpt lat="47.06177" lon="6.24001">
        <ele>682</ele>
        <time>2015-10-04T13:42:56Z</time>
      </trkpt>
      <trkpt lat="47.06186" lon="6.24018">
        <ele>682</ele>
        <time>2015-10-04T13:43:00Z</time>
      </trkpt>
      <trkpt lat="47.06201" lon="6.24011">
        <ele>681</ele>
        <time>2015-10-04T13:43:04Z</time>
      </trkpt>
      <trkpt lat="47.06218" lon="6.23993">
        <ele>681</ele>
        <time>2015-10-04T13:43:08Z</time>
      </trkpt>
      <trkpt lat="47.06236" lon="6.23975">
        <ele>678</ele>
        <time>2015-10-04T13:43:12Z</time>
      </trkpt>
      <trkpt lat="47.06255" lon="6.23958">
        <ele>680</ele>
        <time>2015-10-04T13:43:17Z</time>
      </trkpt>
      <trkpt lat="47.06273" lon="6.23942">
        <ele>678</ele>
        <time>2015-10-04T13:43:21Z</time>
      </trkpt>
      <trkpt lat="47.0629" lon="6.23934">
        <ele>676</ele>
        <time>2015-10-04T13:43:25Z</time>
      </trkpt>
      <trkpt lat="47.06298" lon="6.23941">
        <ele>675</ele>
        <time>2015-10-04T13:43:29Z</time>
      </trkpt>
      <trkpt lat="47.06306" lon="6.23952">
        <ele>676</ele>
        <time>2015-10-04T13:43:34Z</time>
      </trkpt>
      <trkpt lat="47.06313" lon="6.23963">
        <ele>677</ele>
        <time>2015-10-04T13:43:39Z</time>
      </trkpt>
      <trkpt lat="47.0632" lon="6.23972">
        <ele>677</ele>
        <time>2015-10-04T13:43:43Z</time>
      </trkpt>
      <trkpt lat="47.06326" lon="6.23982">
        <ele>678</ele>
        <time>2015-10-04T13:43:47Z</time>
      </trkpt>
      <trkpt lat="47.06334" lon="6.23993">
        <ele>678</ele>
        <time>2015-10-04T13:43:52Z</time>
      </trkpt>
      <trkpt lat="47.06341" lon="6.24003">
        <ele>679</ele>
        <time>2015-10-04T13:43:56Z</time>
      </trkpt>
      <trkpt lat="47.06351" lon="6.24016">
        <ele>679</ele>
        <time>2015-10-04T13:44:01Z</time>
      </trkpt>
      <trkpt lat="47.06361" lon="6.2403">
        <ele>680</ele>
        <time>2015-10-04T13:44:05Z</time>
      </trkpt>
      <trkpt lat="47.06374" lon="6.24046">
        <ele>679</ele>
        <time>2015-10-04T13:44:09Z</time>
      </trkpt>
      <trkpt lat="47.06389" lon="6.24061">
        <ele>679</ele>
        <time>2015-10-04T13:44:13Z</time>
      </trkpt>
      <trkpt lat="47.06407" lon="6.24082">
        <ele>679</ele>
        <time>2015-10-04T13:44:18Z</time>
      </trkpt>
      <trkpt lat="47.06424" lon="6.24102">
        <ele>679</ele>
        <time>2015-10-04T13:44:23Z</time>
      </trkpt>
      <trkpt lat="47.06438" lon="6.24118">
        <ele>679</ele>
        <time>2015-10-04T13:44:27Z</time>
      </trkpt>
      <trkpt lat="47.06452" lon="6.24134">
        <ele>680</ele>
        <time>2015-10-04T13:44:31Z</time>
      </trkpt>
      <trkpt lat="47.06466" lon="6.2415">
        <ele>681</ele>
        <time>2015-10-04T13:44:35Z</time>
      </trkpt>
      <trkpt lat="47.06483" lon="6.2417">
        <ele>681</ele>
        <time>2015-10-04T13:44:40Z</time>
      </trkpt>
      <trkpt lat="47.065" lon="6.24186">
        <ele>682</ele>
        <time>2015-10-04T13:44:45Z</time>
      </trkpt>
      <trkpt lat="47.06513" lon="6.24174">
        <ele>683</ele>
        <time>2015-10-04T13:44:49Z</time>
      </trkpt>
      <trkpt lat="47.06529" lon="6.24155">
        <ele>683</ele>
        <time>2015-10-04T13:44:54Z</time>
      </trkpt>
      <trkpt lat="47.06543" lon="6.24141">
        <ele>684</ele>
        <time>2015-10-04T13:44:58Z</time>
      </trkpt>
      <trkpt lat="47.06561" lon="6.24124">
        <ele>684</ele>
        <time>2015-10-04T13:45:03Z</time>
      </trkpt>
      <trkpt lat="47.06578" lon="6.24109">
        <ele>685</ele>
        <time>2015-10-04T13:45:08Z</time>
      </trkpt>
      <trkpt lat="47.06592" lon="6.24099">
        <ele>685</ele>
        <time>2015-10-04T13:45:12Z</time>
      </trkpt>
      <trkpt lat="47.06606" lon="6.2409">
        <ele>686</ele>
        <time>2015-10-04T13:45:16Z</time>
      </trkpt>
      <trkpt lat="47.06623" lon="6.24081">
        <ele>687</ele>
        <time>2015-10-04T13:45:21Z</time>
      </trkpt>
      <trkpt lat="47.06637" lon="6.24074">
        <ele>688</ele>
        <time>2015-10-04T13:45:25Z</time>
      </trkpt>
      <trkpt lat="47.06655" lon="6.24067">
        <ele>689</ele>
        <time>2015-10-04T13:45:30Z</time>
      </trkpt>
      <trkpt lat="47.06673" lon="6.2406">
        <ele>689</ele>
        <time>2015-10-04T13:45:35Z</time>
      </trkpt>
      <trkpt lat="47.06691" lon="6.24056">
        <ele>690</ele>
        <time>2015-10-04T13:45:40Z</time>
      </trkpt>
      <trkpt lat="47.06706" lon="6.24056">
        <ele>691</ele>
        <time>2015-10-04T13:45:44Z</time>
      </trkpt>
      <trkpt lat="47.0672" lon="6.24054">
        <ele>691</ele>
        <time>2015-10-04T13:45:49Z</time>
      </trkpt>
      <trkpt lat="47.06731" lon="6.2405">
        <ele>692</ele>
        <time>2015-10-04T13:45:53Z</time>
      </trkpt>
      <trkpt lat="47.06744" lon="6.24045">
        <ele>692</ele>
        <time>2015-10-04T13:45:58Z</time>
      </trkpt>
      <trkpt lat="47.06758" lon="6.24041">
        <ele>693</ele>
        <time>2015-10-04T13:46:03Z</time>
      </trkpt>
      <trkpt lat="47.06768" lon="6.24039">
        <ele>694</ele>
        <time>2015-10-04T13:46:07Z</time>
      </trkpt>
      <trkpt lat="47.06779" lon="6.24036">
        <ele>694</ele>
        <time>2015-10-04T13:46:11Z</time>
      </trkpt>
      <trkpt lat="47.06793" lon="6.24034">
        <ele>695</ele>
        <time>2015-10-04T13:46:16Z</time>
      </trkpt>
      <trkpt lat="47.06804" lon="6.24031">
        <ele>695</ele>
        <time>2015-10-04T13:46:20Z</time>
      </trkpt>
      <trkpt lat="47.06818" lon="6.24026">
        <ele>696</ele>
        <time>2015-10-04T13:46:25Z</time>
      </trkpt>
      <trkpt lat="47.06831" lon="6.24019">
        <ele>696</ele>
        <time>2015-10-04T13:46:30Z</time>
      </trkpt>
      <trkpt lat="47.06842" lon="6.2401">
        <ele>697</ele>
        <time>2015-10-04T13:46:34Z</time>
      </trkpt>
      <trkpt lat="47.06853" lon="6.24003">
        <ele>697</ele>
        <time>2015-10-04T13:46:38Z</time>
      </trkpt>
      <trkpt lat="47.06863" lon="6.23995">
        <ele>697</ele>
        <time>2015-10-04T13:46:42Z</time>
      </trkpt>
      <trkpt lat="47.06878" lon="6.23986">
        <ele>698</ele>
        <time>2015-10-04T13:46:47Z</time>
      </trkpt>
      <trkpt lat="47.06892" lon="6.23976">
        <ele>697</ele>
        <time>2015-10-04T13:46:52Z</time>
      </trkpt>
      <trkpt lat="47.06902" lon="6.2397">
        <ele>697</ele>
        <time>2015-10-04T13:46:55Z</time>
      </trkpt>
      <trkpt lat="47.06919" lon="6.2396">
        <ele>698</ele>
        <time>2015-10-04T13:47:00Z</time>
      </trkpt>
      <trkpt lat="47.06935" lon="6.23952">
        <ele>697</ele>
        <time>2015-10-04T13:47:04Z</time>
      </trkpt>
      <trkpt lat="47.06957" lon="6.2394">
        <ele>698</ele>
        <time>2015-10-04T13:47:09Z</time>
      </trkpt>
      <trkpt lat="47.06975" lon="6.23933">
        <ele>698</ele>
        <time>2015-10-04T13:47:13Z</time>
      </trkpt>
      <trkpt lat="47.06992" lon="6.23917">
        <ele>697</ele>
        <time>2015-10-04T13:47:17Z</time>
      </trkpt>
      <trkpt lat="47.07007" lon="6.23893">
        <ele>696</ele>
        <time>2015-10-04T13:47:21Z</time>
      </trkpt>
      <trkpt lat="47.07024" lon="6.23862">
        <ele>694</ele>
        <time>2015-10-04T13:47:25Z</time>
      </trkpt>
      <trkpt lat="47.07041" lon="6.23827">
        <ele>691</ele>
        <time>2015-10-04T13:47:29Z</time>
      </trkpt>
      <trkpt lat="47.0706" lon="6.23786">
        <ele>689</ele>
        <time>2015-10-04T13:47:33Z</time>
      </trkpt>
      <trkpt lat="47.07082" lon="6.23745">
        <ele>687</ele>
        <time>2015-10-04T13:47:37Z</time>
      </trkpt>
      <trkpt lat="47.0711" lon="6.23691">
        <ele>684</ele>
        <time>2015-10-04T13:47:42Z</time>
      </trkpt>
      <trkpt lat="47.07135" lon="6.23645">
        <ele>682</ele>
        <time>2015-10-04T13:47:46Z</time>
      </trkpt>
      <trkpt lat="47.07166" lon="6.23586">
        <ele>679</ele>
        <time>2015-10-04T13:47:51Z</time>
      </trkpt>
      <trkpt lat="47.07198" lon="6.23548">
        <ele>676</ele>
        <time>2015-10-04T13:47:55Z</time>
      </trkpt>
      <trkpt lat="47.07245" lon="6.23511">
        <ele>672</ele>
        <time>2015-10-04T13:48:00Z</time>
      </trkpt>
      <trkpt lat="47.07275" lon="6.23468">
        <ele>669</ele>
        <time>2015-10-04T13:48:04Z</time>
      </trkpt>
      <trkpt lat="47.07296" lon="6.23393">
        <ele>666</ele>
        <time>2015-10-04T13:48:09Z</time>
      </trkpt>
      <trkpt lat="47.0731" lon="6.23329">
        <ele>664</ele>
        <time>2015-10-04T13:48:13Z</time>
      </trkpt>
      <trkpt lat="47.07323" lon="6.23266">
        <ele>662</ele>
        <time>2015-10-04T13:48:17Z</time>
      </trkpt>
      <trkpt lat="47.07345" lon="6.23216">
        <ele>658</ele>
        <time>2015-10-04T13:48:21Z</time>
      </trkpt>
      <trkpt lat="47.07373" lon="6.23171">
        <ele>655</ele>
        <time>2015-10-04T13:48:25Z</time>
      </trkpt>
      <trkpt lat="47.07405" lon="6.23112">
        <ele>652</ele>
        <time>2015-10-04T13:48:30Z</time>
      </trkpt>
      <trkpt lat="47.0741" lon="6.23072">
        <ele>652</ele>
        <time>2015-10-04T13:48:35Z</time>
      </trkpt>
      <trkpt lat="47.07391" lon="6.23067">
        <ele>652</ele>
        <time>2015-10-04T13:48:39Z</time>
      </trkpt>
      <trkpt lat="47.0738" lon="6.23052">
        <ele>652</ele>
        <time>2015-10-04T13:48:43Z</time>
      </trkpt>
      <trkpt lat="47.07379" lon="6.23028">
        <ele>652</ele>
        <time>2015-10-04T13:48:47Z</time>
      </trkpt>
      <trkpt lat="47.07388" lon="6.23015">
        <ele>652</ele>
        <time>2015-10-04T13:48:51Z</time>
      </trkpt>
      <trkpt lat="47.07384" lon="6.23003">
        <ele>652</ele>
        <time>2015-10-04T13:49:32Z</time>
      </trkpt>
      <trkpt lat="47.07387" lon="6.23015">
        <ele>653</ele>
        <time>2015-10-04T13:49:56Z</time>
      </trkpt>
      <trkpt lat="47.07384" lon="6.23004">
        <ele>654</ele>
        <time>2015-10-04T13:50:40Z</time>
      </trkpt>
      <trkpt lat="47.07389" lon="6.23015">
        <ele>651</ele>
        <time>2015-10-04T13:51:18Z</time>
      </trkpt>
      <trkpt lat="47.07397" lon="6.23018">
        <ele>651</ele>
        <time>2015-10-04T13:51:24Z</time>
      </trkpt>
      <trkpt lat="47.07408" lon="6.23016">
        <ele>650</ele>
        <time>2015-10-04T13:51:29Z</time>
      </trkpt>
      <trkpt lat="47.07415" lon="6.23">
        <ele>649</ele>
        <time>2015-10-04T13:51:33Z</time>
      </trkpt>
      <trkpt lat="47.07426" lon="6.22974">
        <ele>648</ele>
        <time>2015-10-04T13:51:38Z</time>
      </trkpt>
      <trkpt lat="47.07434" lon="6.22959">
        <ele>648</ele>
        <time>2015-10-04T13:51:41Z</time>
      </trkpt>
      <trkpt lat="47.07449" lon="6.22928">
        <ele>648</ele>
        <time>2015-10-04T13:51:46Z</time>
      </trkpt>
      <trkpt lat="47.0747" lon="6.2291">
        <ele>648</ele>
        <time>2015-10-04T13:51:50Z</time>
      </trkpt>
      <trkpt lat="47.07502" lon="6.22895">
        <ele>646</ele>
        <time>2015-10-04T13:51:55Z</time>
      </trkpt>
      <trkpt lat="47.07533" lon="6.22878">
        <ele>645</ele>
        <time>2015-10-04T13:52:00Z</time>
      </trkpt>
      <trkpt lat="47.07554" lon="6.22895">
        <ele>645</ele>
        <time>2015-10-04T13:52:04Z</time>
      </trkpt>
      <trkpt lat="47.07572" lon="6.22913">
        <ele>644</ele>
        <time>2015-10-04T13:52:08Z</time>
      </trkpt>
      <trkpt lat="47.07595" lon="6.22909">
        <ele>644</ele>
        <time>2015-10-04T13:52:13Z</time>
      </trkpt>
      <trkpt lat="47.07612" lon="6.2288">
        <ele>643</ele>
        <time>2015-10-04T13:52:17Z</time>
      </trkpt>
      <trkpt lat="47.07631" lon="6.22844">
        <ele>640</ele>
        <time>2015-10-04T13:52:21Z</time>
      </trkpt>
      <trkpt lat="47.0765" lon="6.22806">
        <ele>639</ele>
        <time>2015-10-04T13:52:25Z</time>
      </trkpt>
      <trkpt lat="47.0767" lon="6.22759">
        <ele>637</ele>
        <time>2015-10-04T13:52:30Z</time>
      </trkpt>
      <trkpt lat="47.07682" lon="6.22721">
        <ele>636</ele>
        <time>2015-10-04T13:52:34Z</time>
      </trkpt>
      <trkpt lat="47.07696" lon="6.22673">
        <ele>635</ele>
        <time>2015-10-04T13:52:39Z</time>
      </trkpt>
      <trkpt lat="47.07706" lon="6.22628">
        <ele>633</ele>
        <time>2015-10-04T13:52:43Z</time>
      </trkpt>
      <trkpt lat="47.07715" lon="6.22575">
        <ele>633</ele>
        <time>2015-10-04T13:52:48Z</time>
      </trkpt>
      <trkpt lat="47.07722" lon="6.22526">
        <ele>633</ele>
        <time>2015-10-04T13:52:53Z</time>
      </trkpt>
      <trkpt lat="47.07714" lon="6.22494">
        <ele>634</ele>
        <time>2015-10-04T13:52:57Z</time>
      </trkpt>
      <trkpt lat="47.077" lon="6.2247">
        <ele>636</ele>
        <time>2015-10-04T13:53:02Z</time>
      </trkpt>
      <trkpt lat="47.07689" lon="6.22452">
        <ele>637</ele>
        <time>2015-10-04T13:53:07Z</time>
      </trkpt>
      <trkpt lat="47.07683" lon="6.22435">
        <ele>637</ele>
        <time>2015-10-04T13:53:11Z</time>
      </trkpt>
      <trkpt lat="47.07677" lon="6.22418">
        <ele>638</ele>
        <time>2015-10-04T13:53:15Z</time>
      </trkpt>
      <trkpt lat="47.07675" lon="6.22399">
        <ele>638</ele>
        <time>2015-10-04T13:53:19Z</time>
      </trkpt>
      <trkpt lat="47.07676" lon="6.22379">
        <ele>641</ele>
        <time>2015-10-04T13:53:23Z</time>
      </trkpt>
      <trkpt lat="47.07678" lon="6.22355">
        <ele>643</ele>
        <time>2015-10-04T13:53:28Z</time>
      </trkpt>
      <trkpt lat="47.07679" lon="6.22334">
        <ele>643</ele>
        <time>2015-10-04T13:53:32Z</time>
      </trkpt>
      <trkpt lat="47.07685" lon="6.22308">
        <ele>641</ele>
        <time>2015-10-04T13:53:37Z</time>
      </trkpt>
      <trkpt lat="47.07692" lon="6.22285">
        <ele>641</ele>
        <time>2015-10-04T13:53:41Z</time>
      </trkpt>
      <trkpt lat="47.07703" lon="6.22252">
        <ele>639</ele>
        <time>2015-10-04T13:53:46Z</time>
      </trkpt>
      <trkpt lat="47.0771" lon="6.22218">
        <ele>638</ele>
        <time>2015-10-04T13:53:51Z</time>
      </trkpt>
      <trkpt lat="47.07711" lon="6.22189">
        <ele>638</ele>
        <time>2015-10-04T13:53:55Z</time>
      </trkpt>
      <trkpt lat="47.07713" lon="6.22159">
        <ele>639</ele>
        <time>2015-10-04T13:53:59Z</time>
      </trkpt>
      <trkpt lat="47.07714" lon="6.22122">
        <ele>626</ele>
        <time>2015-10-04T13:54:04Z</time>
      </trkpt>
      <trkpt lat="47.07714" lon="6.22092">
        <ele>634</ele>
        <time>2015-10-04T13:54:08Z</time>
      </trkpt>
      <trkpt lat="47.07715" lon="6.22054">
        <ele>637</ele>
        <time>2015-10-04T13:54:13Z</time>
      </trkpt>
      <trkpt lat="47.07711" lon="6.22024">
        <ele>638</ele>
        <time>2015-10-04T13:54:17Z</time>
      </trkpt>
      <trkpt lat="47.07698" lon="6.21993">
        <ele>637</ele>
        <time>2015-10-04T13:54:22Z</time>
      </trkpt>
      <trkpt lat="47.07684" lon="6.2196">
        <ele>636</ele>
        <time>2015-10-04T13:54:27Z</time>
      </trkpt>
      <trkpt lat="47.07669" lon="6.21925">
        <ele>635</ele>
        <time>2015-10-04T13:54:32Z</time>
      </trkpt>
      <trkpt lat="47.07661" lon="6.21891">
        <ele>635</ele>
        <time>2015-10-04T13:54:36Z</time>
      </trkpt>
      <trkpt lat="47.07657" lon="6.2185">
        <ele>636</ele>
        <time>2015-10-04T13:54:41Z</time>
      </trkpt>
      <trkpt lat="47.07656" lon="6.21817">
        <ele>637</ele>
        <time>2015-10-04T13:54:45Z</time>
      </trkpt>
      <trkpt lat="47.07658" lon="6.21783">
        <ele>636</ele>
        <time>2015-10-04T13:54:49Z</time>
      </trkpt>
      <trkpt lat="47.07663" lon="6.21752">
        <ele>634</ele>
        <time>2015-10-04T13:54:53Z</time>
      </trkpt>
      <trkpt lat="47.07672" lon="6.21722">
        <ele>634</ele>
        <time>2015-10-04T13:54:57Z</time>
      </trkpt>
      <trkpt lat="47.07682" lon="6.21692">
        <ele>631</ele>
        <time>2015-10-04T13:55:01Z</time>
      </trkpt>
      <trkpt lat="47.07695" lon="6.21654">
        <ele>629</ele>
        <time>2015-10-04T13:55:06Z</time>
      </trkpt>
      <trkpt lat="47.07703" lon="6.21618">
        <ele>628</ele>
        <time>2015-10-04T13:55:10Z</time>
      </trkpt>
      <trkpt lat="47.07706" lon="6.21581">
        <ele>628</ele>
        <time>2015-10-04T13:55:14Z</time>
      </trkpt>
      <trkpt lat="47.07705" lon="6.21535">
        <ele>627</ele>
        <time>2015-10-04T13:55:19Z</time>
      </trkpt>
      <trkpt lat="47.07707" lon="6.21482">
        <ele>628</ele>
        <time>2015-10-04T13:55:24Z</time>
      </trkpt>
      <trkpt lat="47.0771" lon="6.21438">
        <ele>628</ele>
        <time>2015-10-04T13:55:28Z</time>
      </trkpt>
      <trkpt lat="47.07713" lon="6.21392">
        <ele>627</ele>
        <time>2015-10-04T13:55:32Z</time>
      </trkpt>
      <trkpt lat="47.07718" lon="6.21343">
        <ele>626</ele>
        <time>2015-10-04T13:55:36Z</time>
      </trkpt>
      <trkpt lat="47.07722" lon="6.21285">
        <ele>625</ele>
        <time>2015-10-04T13:55:41Z</time>
      </trkpt>
      <trkpt lat="47.07725" lon="6.21239">
        <ele>625</ele>
        <time>2015-10-04T13:55:45Z</time>
      </trkpt>
      <trkpt lat="47.07726" lon="6.21188">
        <ele>622</ele>
        <time>2015-10-04T13:55:49Z</time>
      </trkpt>
      <trkpt lat="47.07714" lon="6.21139">
        <ele>619</ele>
        <time>2015-10-04T13:55:53Z</time>
      </trkpt>
      <trkpt lat="47.077" lon="6.21093">
        <ele>616</ele>
        <time>2015-10-04T13:55:57Z</time>
      </trkpt>
      <trkpt lat="47.07687" lon="6.21048">
        <ele>616</ele>
        <time>2015-10-04T13:56:01Z</time>
      </trkpt>
      <trkpt lat="47.07671" lon="6.20995">
        <ele>614</ele>
        <time>2015-10-04T13:56:06Z</time>
      </trkpt>
      <trkpt lat="47.07666" lon="6.20951">
        <ele>614</ele>
        <time>2015-10-04T13:56:10Z</time>
      </trkpt>
      <trkpt lat="47.07678" lon="6.20904">
        <ele>612</ele>
        <time>2015-10-04T13:56:14Z</time>
      </trkpt>
      <trkpt lat="47.0769" lon="6.20855">
        <ele>609</ele>
        <time>2015-10-04T13:56:18Z</time>
      </trkpt>
      <trkpt lat="47.07698" lon="6.2079">
        <ele>607</ele>
        <time>2015-10-04T13:56:23Z</time>
      </trkpt>
      <trkpt lat="47.07692" lon="6.20751">
        <ele>604</ele>
        <time>2015-10-04T13:56:27Z</time>
      </trkpt>
      <trkpt lat="47.07681" lon="6.20682">
        <ele>598</ele>
        <time>2015-10-04T13:56:31Z</time>
      </trkpt>
      <trkpt lat="47.07674" lon="6.20625">
        <ele>593</ele>
        <time>2015-10-04T13:56:36Z</time>
      </trkpt>
      <trkpt lat="47.07685" lon="6.20606">
        <ele>590</ele>
        <time>2015-10-04T13:56:41Z</time>
      </trkpt>
      <trkpt lat="47.07699" lon="6.20608">
        <ele>587</ele>
        <time>2015-10-04T13:56:45Z</time>
      </trkpt>
      <trkpt lat="47.07718" lon="6.20629">
        <ele>583</ele>
        <time>2015-10-04T13:56:50Z</time>
      </trkpt>
      <trkpt lat="47.0774" lon="6.20649">
        <ele>576</ele>
        <time>2015-10-04T13:56:55Z</time>
      </trkpt>
      <trkpt lat="47.07751" lon="6.20665">
        <ele>573</ele>
        <time>2015-10-04T13:56:59Z</time>
      </trkpt>
      <trkpt lat="47.07762" lon="6.20682">
        <ele>571</ele>
        <time>2015-10-04T13:57:03Z</time>
      </trkpt>
      <trkpt lat="47.0777" lon="6.207">
        <ele>569</ele>
        <time>2015-10-04T13:57:07Z</time>
      </trkpt>
      <trkpt lat="47.07777" lon="6.20715">
        <ele>570</ele>
        <time>2015-10-04T13:57:10Z</time>
      </trkpt>
      <trkpt lat="47.07788" lon="6.2074">
        <ele>568</ele>
        <time>2015-10-04T13:57:15Z</time>
      </trkpt>
      <trkpt lat="47.07793" lon="6.2073">
        <ele>568</ele>
        <time>2015-10-04T13:57:30Z</time>
      </trkpt>
      <trkpt lat="47.07798" lon="6.20722">
        <ele>564</ele>
        <time>2015-10-04T13:57:35Z</time>
      </trkpt>
      <trkpt lat="47.078" lon="6.20706">
        <ele>562</ele>
        <time>2015-10-04T13:57:40Z</time>
      </trkpt>
      <trkpt lat="47.078" lon="6.20694">
        <ele>560</ele>
        <time>2015-10-04T13:57:44Z</time>
      </trkpt>
      <trkpt lat="47.07803" lon="6.2068">
        <ele>555</ele>
        <time>2015-10-04T13:57:49Z</time>
      </trkpt>
      <trkpt lat="47.07805" lon="6.2067">
        <ele>550</ele>
        <time>2015-10-04T13:57:53Z</time>
      </trkpt>
      <trkpt lat="47.07806" lon="6.20658">
        <ele>548</ele>
        <time>2015-10-04T13:57:57Z</time>
      </trkpt>
      <trkpt lat="47.07807" lon="6.20646">
        <ele>545</ele>
        <time>2015-10-04T13:58:20Z</time>
      </trkpt>
      <trkpt lat="47.07808" lon="6.20634">
        <ele>543</ele>
        <time>2015-10-04T13:58:29Z</time>
      </trkpt>
      <trkpt lat="47.07809" lon="6.20617">
        <ele>542</ele>
        <time>2015-10-04T13:58:34Z</time>
      </trkpt>
      <trkpt lat="47.07811" lon="6.20603">
        <ele>539</ele>
        <time>2015-10-04T13:58:38Z</time>
      </trkpt>
      <trkpt lat="47.07814" lon="6.20592">
        <ele>538</ele>
        <time>2015-10-04T13:58:41Z</time>
      </trkpt>
      <trkpt lat="47.07822" lon="6.20578">
        <ele>527</ele>
        <time>2015-10-04T13:58:46Z</time>
      </trkpt>
      <trkpt lat="47.07834" lon="6.20566">
        <ele>519</ele>
        <time>2015-10-04T13:58:51Z</time>
      </trkpt>
      <trkpt lat="47.07846" lon="6.20548">
        <ele>512</ele>
        <time>2015-10-04T13:58:56Z</time>
      </trkpt>
      <trkpt lat="47.07856" lon="6.20532">
        <ele>507</ele>
        <time>2015-10-04T13:59:00Z</time>
      </trkpt>
      <trkpt lat="47.07865" lon="6.20514">
        <ele>503</ele>
        <time>2015-10-04T13:59:04Z</time>
      </trkpt>
      <trkpt lat="47.07873" lon="6.20496">
        <ele>505</ele>
        <time>2015-10-04T13:59:08Z</time>
      </trkpt>
      <trkpt lat="47.07875" lon="6.20478">
        <ele>504</ele>
        <time>2015-10-04T13:59:12Z</time>
      </trkpt>
      <trkpt lat="47.07873" lon="6.20453">
        <ele>505</ele>
        <time>2015-10-04T13:59:17Z</time>
      </trkpt>
      <trkpt lat="47.0787" lon="6.20432">
        <ele>508</ele>
        <time>2015-10-04T13:59:21Z</time>
      </trkpt>
      <trkpt lat="47.07864" lon="6.20423">
        <ele>514</ele>
        <time>2015-10-04T14:00:17Z</time>
      </trkpt>
      <trkpt lat="47.07851" lon="6.20416">
        <ele>513</ele>
        <time>2015-10-04T14:00:21Z</time>
      </trkpt>
      <trkpt lat="47.0785" lon="6.20395">
        <ele>509</ele>
        <time>2015-10-04T14:00:25Z</time>
      </trkpt>
      <trkpt lat="47.07858" lon="6.2037">
        <ele>508</ele>
        <time>2015-10-04T14:00:30Z</time>
      </trkpt>
      <trkpt lat="47.07858" lon="6.20354">
        <ele>507</ele>
        <time>2015-10-04T14:00:34Z</time>
      </trkpt>
      <trkpt lat="47.07858" lon="6.20338">
        <ele>509</ele>
        <time>2015-10-04T14:00:38Z</time>
      </trkpt>
      <trkpt lat="47.07853" lon="6.20317">
        <ele>507</ele>
        <time>2015-10-04T14:00:43Z</time>
      </trkpt>
      <trkpt lat="47.07839" lon="6.2028">
        <ele>505</ele>
        <time>2015-10-04T14:00:48Z</time>
      </trkpt>
      <trkpt lat="47.07837" lon="6.20254">
        <ele>509</ele>
        <time>2015-10-04T14:00:52Z</time>
      </trkpt>
      <trkpt lat="47.0783" lon="6.20232">
        <ele>507</ele>
        <time>2015-10-04T14:00:56Z</time>
      </trkpt>
      <trkpt lat="47.07818" lon="6.202">
        <ele>518</ele>
        <time>2015-10-04T14:01:01Z</time>
      </trkpt>
      <trkpt lat="47.07818" lon="6.20179">
        <ele>512</ele>
        <time>2015-10-04T14:01:04Z</time>
      </trkpt>
      <trkpt lat="47.07817" lon="6.20153">
        <ele>509</ele>
        <time>2015-10-04T14:01:09Z</time>
      </trkpt>
      <trkpt lat="47.07819" lon="6.20134">
        <ele>508</ele>
        <time>2015-10-04T14:01:13Z</time>
      </trkpt>
      <trkpt lat="47.07819" lon="6.20116">
        <ele>510</ele>
        <time>2015-10-04T14:01:17Z</time>
      </trkpt>
      <trkpt lat="47.07817" lon="6.20096">
        <ele>510</ele>
        <time>2015-10-04T14:01:21Z</time>
      </trkpt>
      <trkpt lat="47.07813" lon="6.2007">
        <ele>509</ele>
        <time>2015-10-04T14:01:26Z</time>
      </trkpt>
      <trkpt lat="47.07809" lon="6.2005">
        <ele>508</ele>
        <time>2015-10-04T14:01:30Z</time>
      </trkpt>
      <trkpt lat="47.07803" lon="6.20016">
        <ele>504</ele>
        <time>2015-10-04T14:01:35Z</time>
      </trkpt>
      <trkpt lat="47.0779" lon="6.20002">
        <ele>500</ele>
        <time>2015-10-04T14:01:40Z</time>
      </trkpt>
      <trkpt lat="47.0778" lon="6.1999">
        <ele>496</ele>
        <time>2015-10-04T14:01:44Z</time>
      </trkpt>
      <trkpt lat="47.07783" lon="6.19966">
        <ele>491</ele>
        <time>2015-10-04T14:01:49Z</time>
      </trkpt>
      <trkpt lat="47.07795" lon="6.19939">
        <ele>483</ele>
        <time>2015-10-04T14:01:54Z</time>
      </trkpt>
      <trkpt lat="47.0781" lon="6.19915">
        <ele>480</ele>
        <time>2015-10-04T14:01:58Z</time>
      </trkpt>
      <trkpt lat="47.07824" lon="6.19898">
        <ele>475</ele>
        <time>2015-10-04T14:02:02Z</time>
      </trkpt>
      <trkpt lat="47.07835" lon="6.1988">
        <ele>467</ele>
        <time>2015-10-04T14:02:07Z</time>
      </trkpt>
      <trkpt lat="47.07846" lon="6.19859">
        <ele>461</ele>
        <time>2015-10-04T14:02:11Z</time>
      </trkpt>
      <trkpt lat="47.07859" lon="6.19855">
        <ele>456</ele>
        <time>2015-10-04T14:02:16Z</time>
      </trkpt>
      <trkpt lat="47.07867" lon="6.19864">
        <ele>453</ele>
        <time>2015-10-04T14:02:20Z</time>
      </trkpt>
      <trkpt lat="47.07875" lon="6.19877">
        <ele>448</ele>
        <time>2015-10-04T14:02:24Z</time>
      </trkpt>
      <trkpt lat="47.07887" lon="6.1989">
        <ele>444</ele>
        <time>2015-10-04T14:02:28Z</time>
      </trkpt>
      <trkpt lat="47.07903" lon="6.19901">
        <ele>439</ele>
        <time>2015-10-04T14:02:33Z</time>
      </trkpt>
      <trkpt lat="47.07919" lon="6.19901">
        <ele>435</ele>
        <time>2015-10-04T14:02:38Z</time>
      </trkpt>
      <trkpt lat="47.07922" lon="6.19875">
        <ele>433</ele>
        <time>2015-10-04T14:02:42Z</time>
      </trkpt>
      <trkpt lat="47.07914" lon="6.19852">
        <ele>433</ele>
        <time>2015-10-04T14:02:46Z</time>
      </trkpt>
      <trkpt lat="47.07908" lon="6.19826">
        <ele>430</ele>
        <time>2015-10-04T14:02:51Z</time>
      </trkpt>
      <trkpt lat="47.0791" lon="6.19801">
        <ele>425</ele>
        <time>2015-10-04T14:02:55Z</time>
      </trkpt>
      <trkpt lat="47.07924" lon="6.1977">
        <ele>417</ele>
        <time>2015-10-04T14:03:00Z</time>
      </trkpt>
      <trkpt lat="47.07935" lon="6.19754">
        <ele>410</ele>
        <time>2015-10-04T14:03:04Z</time>
      </trkpt>
      <trkpt lat="47.07945" lon="6.19734">
        <ele>407</ele>
        <time>2015-10-04T14:03:08Z</time>
      </trkpt>
      <trkpt lat="47.07952" lon="6.19733">
        <ele>405</ele>
        <time>2015-10-04T14:03:14Z</time>
      </trkpt>
      <trkpt lat="47.07973" lon="6.19724">
        <ele>402</ele>
        <time>2015-10-04T14:03:18Z</time>
      </trkpt>
      <trkpt lat="47.07995" lon="6.19711">
        <ele>397</ele>
        <time>2015-10-04T14:03:22Z</time>
      </trkpt>
      <trkpt lat="47.08009" lon="6.19701">
        <ele>393</ele>
        <time>2015-10-04T14:03:26Z</time>
      </trkpt>
      <trkpt lat="47.08015" lon="6.19682">
        <ele>388</ele>
        <time>2015-10-04T14:03:31Z</time>
      </trkpt>
      <trkpt lat="47.07995" lon="6.19651">
        <ele>384</ele>
        <time>2015-10-04T14:03:36Z</time>
      </trkpt>
      <trkpt lat="47.07975" lon="6.19611">
        <ele>379</ele>
        <time>2015-10-04T14:03:41Z</time>
      </trkpt>
      <trkpt lat="47.07956" lon="6.19561">
        <ele>373</ele>
        <time>2015-10-04T14:03:45Z</time>
      </trkpt>
      <trkpt lat="47.07949" lon="6.19511">
        <ele>367</ele>
        <time>2015-10-04T14:03:49Z</time>
      </trkpt>
      <trkpt lat="47.0794" lon="6.19446">
        <ele>358</ele>
        <time>2015-10-04T14:03:54Z</time>
      </trkpt>
      <trkpt lat="47.07946" lon="6.19402">
        <ele>353</ele>
        <time>2015-10-04T14:03:58Z</time>
      </trkpt>
      <trkpt lat="47.07973" lon="6.19393">
        <ele>352</ele>
        <time>2015-10-04T14:04:03Z</time>
      </trkpt>
      <trkpt lat="47.07993" lon="6.194">
        <ele>352</ele>
        <time>2015-10-04T14:04:07Z</time>
      </trkpt>
      <trkpt lat="47.08012" lon="6.19409">
        <ele>352</ele>
        <time>2015-10-04T14:04:11Z</time>
      </trkpt>
      <trkpt lat="47.08027" lon="6.19423">
        <ele>352</ele>
        <time>2015-10-04T14:04:15Z</time>
      </trkpt>
      <trkpt lat="47.08042" lon="6.19441">
        <ele>351</ele>
        <time>2015-10-04T14:04:20Z</time>
      </trkpt>
      <trkpt lat="47.08058" lon="6.19434">
        <ele>350</ele>
        <time>2015-10-04T14:04:24Z</time>
      </trkpt>
      <trkpt lat="47.08081" lon="6.19427">
        <ele>349</ele>
        <time>2015-10-04T14:04:29Z</time>
      </trkpt>
      <trkpt lat="47.08097" lon="6.1943">
        <ele>350</ele>
        <time>2015-10-04T14:04:33Z</time>
      </trkpt>
      <trkpt lat="47.08109" lon="6.19423">
        <ele>352</ele>
        <time>2015-10-04T14:04:38Z</time>
      </trkpt>
      <trkpt lat="47.08116" lon="6.19417">
        <ele>354</ele>
        <time>2015-10-04T14:04:42Z</time>
      </trkpt>
      <trkpt lat="47.08121" lon="6.19407">
        <ele>356</ele>
        <time>2015-10-04T14:04:47Z</time>
      </trkpt>
      <trkpt lat="47.08127" lon="6.19397">
        <ele>359</ele>
        <time>2015-10-04T14:04:52Z</time>
      </trkpt>
      <trkpt lat="47.08133" lon="6.19388">
        <ele>361</ele>
        <time>2015-10-04T14:04:57Z</time>
      </trkpt>
      <trkpt lat="47.08138" lon="6.19378">
        <ele>363</ele>
        <time>2015-10-04T14:05:02Z</time>
      </trkpt>
      <trkpt lat="47.08136" lon="6.19366">
        <ele>365</ele>
        <time>2015-10-04T14:05:07Z</time>
      </trkpt>
      <trkpt lat="47.08133" lon="6.19355">
        <ele>365</ele>
        <time>2015-10-04T14:05:11Z</time>
      </trkpt>
      <trkpt lat="47.08136" lon="6.19341">
        <ele>365</ele>
        <time>2015-10-04T14:05:16Z</time>
      </trkpt>
      <trkpt lat="47.08145" lon="6.19336">
        <ele>365</ele>
        <time>2015-10-04T14:05:20Z</time>
      </trkpt>
      <trkpt lat="47.08155" lon="6.19331">
        <ele>365</ele>
        <time>2015-10-04T14:05:25Z</time>
      </trkpt>
      <trkpt lat="47.08167" lon="6.19325">
        <ele>365</ele>
        <time>2015-10-04T14:05:30Z</time>
      </trkpt>
      <trkpt lat="47.0818" lon="6.19312">
        <ele>365</ele>
        <time>2015-10-04T14:05:35Z</time>
      </trkpt>
      <trkpt lat="47.08191" lon="6.19296">
        <ele>364</ele>
        <time>2015-10-04T14:05:40Z</time>
      </trkpt>
      <trkpt lat="47.08199" lon="6.19282">
        <ele>363</ele>
        <time>2015-10-04T14:05:44Z</time>
      </trkpt>
      <trkpt lat="47.08207" lon="6.19267">
        <ele>362</ele>
        <time>2015-10-04T14:05:48Z</time>
      </trkpt>
      <trkpt lat="47.08215" lon="6.19253">
        <ele>362</ele>
        <time>2015-10-04T14:05:52Z</time>
      </trkpt>
      <trkpt lat="47.08223" lon="6.19237">
        <ele>360</ele>
        <time>2015-10-04T14:05:57Z</time>
      </trkpt>
      <trkpt lat="47.08235" lon="6.19222">
        <ele>356</ele>
        <time>2015-10-04T14:06:02Z</time>
      </trkpt>
      <trkpt lat="47.0826" lon="6.19205">
        <ele>353</ele>
        <time>2015-10-04T14:06:07Z</time>
      </trkpt>
      <trkpt lat="47.08286" lon="6.19185">
        <ele>350</ele>
        <time>2015-10-04T14:06:11Z</time>
      </trkpt>
      <trkpt lat="47.08303" lon="6.19153">
        <ele>347</ele>
        <time>2015-10-04T14:06:15Z</time>
      </trkpt>
      <trkpt lat="47.08323" lon="6.19111">
        <ele>344</ele>
        <time>2015-10-04T14:06:20Z</time>
      </trkpt>
      <trkpt lat="47.08348" lon="6.19076">
        <ele>342</ele>
        <time>2015-10-04T14:06:25Z</time>
      </trkpt>
      <trkpt lat="47.08365" lon="6.19053">
        <ele>341</ele>
        <time>2015-10-04T14:06:29Z</time>
      </trkpt>
      <trkpt lat="47.08383" lon="6.19037">
        <ele>340</ele>
        <time>2015-10-04T14:06:33Z</time>
      </trkpt>
      <trkpt lat="47.08404" lon="6.1901">
        <ele>339</ele>
        <time>2015-10-04T14:06:38Z</time>
      </trkpt>
      <trkpt lat="47.08427" lon="6.18982">
        <ele>339</ele>
        <time>2015-10-04T14:06:43Z</time>
      </trkpt>
      <trkpt lat="47.08448" lon="6.18958">
        <ele>339</ele>
        <time>2015-10-04T14:06:48Z</time>
      </trkpt>
      <trkpt lat="47.08464" lon="6.18936">
        <ele>338</ele>
        <time>2015-10-04T14:06:52Z</time>
      </trkpt>
      <trkpt lat="47.08484" lon="6.18911">
        <ele>338</ele>
        <time>2015-10-04T14:06:57Z</time>
      </trkpt>
      <trkpt lat="47.085" lon="6.1889">
        <ele>337</ele>
        <time>2015-10-04T14:07:01Z</time>
      </trkpt>
      <trkpt lat="47.0852" lon="6.18878">
        <ele>339</ele>
        <time>2015-10-04T14:07:06Z</time>
      </trkpt>
      <trkpt lat="47.08539" lon="6.18869">
        <ele>339</ele>
        <time>2015-10-04T14:07:11Z</time>
      </trkpt>
      <trkpt lat="47.08555" lon="6.18858">
        <ele>340</ele>
        <time>2015-10-04T14:07:15Z</time>
      </trkpt>
      <trkpt lat="47.08574" lon="6.18844">
        <ele>341</ele>
        <time>2015-10-04T14:07:20Z</time>
      </trkpt>
      <trkpt lat="47.08588" lon="6.1883">
        <ele>341</ele>
        <time>2015-10-04T14:07:24Z</time>
      </trkpt>
      <trkpt lat="47.08605" lon="6.18813">
        <ele>340</ele>
        <time>2015-10-04T14:07:28Z</time>
      </trkpt>
      <trkpt lat="47.08625" lon="6.18793">
        <ele>339</ele>
        <time>2015-10-04T14:07:33Z</time>
      </trkpt>
      <trkpt lat="47.08647" lon="6.18775">
        <ele>339</ele>
        <time>2015-10-04T14:07:38Z</time>
      </trkpt>
      <trkpt lat="47.08666" lon="6.18767">
        <ele>339</ele>
        <time>2015-10-04T14:07:42Z</time>
      </trkpt>
      <trkpt lat="47.08692" lon="6.18755">
        <ele>339</ele>
        <time>2015-10-04T14:07:47Z</time>
      </trkpt>
      <trkpt lat="47.08718" lon="6.18743">
        <ele>339</ele>
        <time>2015-10-04T14:07:52Z</time>
      </trkpt>
      <trkpt lat="47.08746" lon="6.18726">
        <ele>337</ele>
        <time>2015-10-04T14:07:57Z</time>
      </trkpt>
      <trkpt lat="47.08762" lon="6.18714">
        <ele>337</ele>
        <time>2015-10-04T14:08:00Z</time>
      </trkpt>
      <trkpt lat="47.08787" lon="6.1869">
        <ele>337</ele>
        <time>2015-10-04T14:08:05Z</time>
      </trkpt>
      <trkpt lat="47.08805" lon="6.18666">
        <ele>337</ele>
        <time>2015-10-04T14:08:09Z</time>
      </trkpt>
      <trkpt lat="47.0883" lon="6.18641">
        <ele>337</ele>
        <time>2015-10-04T14:08:14Z</time>
      </trkpt>
      <trkpt lat="47.08853" lon="6.18635">
        <ele>338</ele>
        <time>2015-10-04T14:08:18Z</time>
      </trkpt>
      <trkpt lat="47.08876" lon="6.18629">
        <ele>338</ele>
        <time>2015-10-04T14:08:22Z</time>
      </trkpt>
      <trkpt lat="47.08898" lon="6.18624">
        <ele>338</ele>
        <time>2015-10-04T14:08:26Z</time>
      </trkpt>
      <trkpt lat="47.08918" lon="6.18619">
        <ele>338</ele>
        <time>2015-10-04T14:08:31Z</time>
      </trkpt>
      <trkpt lat="47.08942" lon="6.18618">
        <ele>339</ele>
        <time>2015-10-04T14:08:35Z</time>
      </trkpt>
      <trkpt lat="47.08965" lon="6.18625">
        <ele>339</ele>
        <time>2015-10-04T14:08:40Z</time>
      </trkpt>
      <trkpt lat="47.08988" lon="6.18624">
        <ele>339</ele>
        <time>2015-10-04T14:08:45Z</time>
      </trkpt>
      <trkpt lat="47.09004" lon="6.18603">
        <ele>338</ele>
        <time>2015-10-04T14:08:49Z</time>
      </trkpt>
      <trkpt lat="47.0902" lon="6.1858">
        <ele>339</ele>
        <time>2015-10-04T14:08:53Z</time>
      </trkpt>
      <trkpt lat="47.0904" lon="6.18554">
        <ele>339</ele>
        <time>2015-10-04T14:08:58Z</time>
      </trkpt>
      <trkpt lat="47.09055" lon="6.18532">
        <ele>340</ele>
        <time>2015-10-04T14:09:02Z</time>
      </trkpt>
      <trkpt lat="47.0907" lon="6.18511">
        <ele>340</ele>
        <time>2015-10-04T14:09:06Z</time>
      </trkpt>
      <trkpt lat="47.09083" lon="6.1849">
        <ele>341</ele>
        <time>2015-10-04T14:09:10Z</time>
      </trkpt>
      <trkpt lat="47.09095" lon="6.18472">
        <ele>342</ele>
        <time>2015-10-04T14:09:14Z</time>
      </trkpt>
      <trkpt lat="47.0911" lon="6.18454">
        <ele>344</ele>
        <time>2015-10-04T14:09:19Z</time>
      </trkpt>
      <trkpt lat="47.09123" lon="6.18435">
        <ele>346</ele>
        <time>2015-10-04T14:09:24Z</time>
      </trkpt>
      <trkpt lat="47.09136" lon="6.18421">
        <ele>348</ele>
        <time>2015-10-04T14:09:29Z</time>
      </trkpt>
      <trkpt lat="47.09146" lon="6.18415">
        <ele>350</ele>
        <time>2015-10-04T14:09:33Z</time>
      </trkpt>
      <trkpt lat="47.09153" lon="6.18412">
        <ele>350</ele>
        <time>2015-10-04T14:09:37Z</time>
      </trkpt>
      <trkpt lat="47.09163" lon="6.18407">
        <ele>351</ele>
        <time>2015-10-04T14:09:41Z</time>
      </trkpt>
      <trkpt lat="47.09174" lon="6.18402">
        <ele>352</ele>
        <time>2015-10-04T14:09:46Z</time>
      </trkpt>
      <trkpt lat="47.09183" lon="6.18397">
        <ele>353</ele>
        <time>2015-10-04T14:09:51Z</time>
      </trkpt>
      <trkpt lat="47.0919" lon="6.1839">
        <ele>353</ele>
        <time>2015-10-04T14:09:55Z</time>
      </trkpt>
      <trkpt lat="47.09197" lon="6.18381">
        <ele>354</ele>
        <time>2015-10-04T14:09:59Z</time>
      </trkpt>
      <trkpt lat="47.09206" lon="6.18369">
        <ele>355</ele>
        <time>2015-10-04T14:10:04Z</time>
      </trkpt>
      <trkpt lat="47.09213" lon="6.1836">
        <ele>356</ele>
        <time>2015-10-04T14:10:08Z</time>
      </trkpt>
      <trkpt lat="47.09221" lon="6.18351">
        <ele>357</ele>
        <time>2015-10-04T14:10:12Z</time>
      </trkpt>
      <trkpt lat="47.09228" lon="6.18343">
        <ele>357</ele>
        <time>2015-10-04T14:10:16Z</time>
      </trkpt>
      <trkpt lat="47.09236" lon="6.18336">
        <ele>358</ele>
        <time>2015-10-04T14:10:20Z</time>
      </trkpt>
      <trkpt lat="47.09245" lon="6.18331">
        <ele>359</ele>
        <time>2015-10-04T14:10:24Z</time>
      </trkpt>
      <trkpt lat="47.09256" lon="6.18328">
        <ele>360</ele>
        <time>2015-10-04T14:10:29Z</time>
      </trkpt>
      <trkpt lat="47.09264" lon="6.18328">
        <ele>362</ele>
        <time>2015-10-04T14:10:33Z</time>
      </trkpt>
      <trkpt lat="47.09273" lon="6.18334">
        <ele>362</ele>
        <time>2015-10-04T14:10:38Z</time>
      </trkpt>
      <trkpt lat="47.0928" lon="6.18339">
        <ele>363</ele>
        <time>2015-10-04T14:10:42Z</time>
      </trkpt>
      <trkpt lat="47.09288" lon="6.18342">
        <ele>363</ele>
        <time>2015-10-04T14:10:47Z</time>
      </trkpt>
      <trkpt lat="47.09296" lon="6.18339">
        <ele>363</ele>
        <time>2015-10-04T14:10:51Z</time>
      </trkpt>
      <trkpt lat="47.09304" lon="6.1833">
        <ele>363</ele>
        <time>2015-10-04T14:10:55Z</time>
      </trkpt>
      <trkpt lat="47.09315" lon="6.18322">
        <ele>362</ele>
        <time>2015-10-04T14:10:59Z</time>
      </trkpt>
      <trkpt lat="47.09327" lon="6.18312">
        <ele>362</ele>
        <time>2015-10-04T14:11:04Z</time>
      </trkpt>
      <trkpt lat="47.09337" lon="6.18304">
        <ele>362</ele>
        <time>2015-10-04T14:11:08Z</time>
      </trkpt>
      <trkpt lat="47.09346" lon="6.18297">
        <ele>362</ele>
        <time>2015-10-04T14:11:12Z</time>
      </trkpt>
      <trkpt lat="47.09359" lon="6.18284">
        <ele>361</ele>
        <time>2015-10-04T14:11:17Z</time>
      </trkpt>
      <trkpt lat="47.09369" lon="6.18272">
        <ele>362</ele>
        <time>2015-10-04T14:11:21Z</time>
      </trkpt>
      <trkpt lat="47.09381" lon="6.18259">
        <ele>362</ele>
        <time>2015-10-04T14:11:26Z</time>
      </trkpt>
      <trkpt lat="47.09391" lon="6.18248">
        <ele>362</ele>
        <time>2015-10-04T14:11:30Z</time>
      </trkpt>
      <trkpt lat="47.09405" lon="6.18238">
        <ele>363</ele>
        <time>2015-10-04T14:11:35Z</time>
      </trkpt>
      <trkpt lat="47.09418" lon="6.18229">
        <ele>363</ele>
        <time>2015-10-04T14:11:40Z</time>
      </trkpt>
      <trkpt lat="47.09431" lon="6.18221">
        <ele>364</ele>
        <time>2015-10-04T14:11:45Z</time>
      </trkpt>
      <trkpt lat="47.09439" lon="6.18217">
        <ele>366</ele>
        <time>2015-10-04T14:11:49Z</time>
      </trkpt>
      <trkpt lat="47.0945" lon="6.18217">
        <ele>368</ele>
        <time>2015-10-04T14:11:54Z</time>
      </trkpt>
      <trkpt lat="47.09461" lon="6.18218">
        <ele>368</ele>
        <time>2015-10-04T14:11:59Z</time>
      </trkpt>
      <trkpt lat="47.0947" lon="6.1822">
        <ele>370</ele>
        <time>2015-10-04T14:12:03Z</time>
      </trkpt>
      <trkpt lat="47.09478" lon="6.18222">
        <ele>371</ele>
        <time>2015-10-04T14:12:07Z</time>
      </trkpt>
      <trkpt lat="47.09486" lon="6.18224">
        <ele>370</ele>
        <time>2015-10-04T14:12:11Z</time>
      </trkpt>
      <trkpt lat="47.09499" lon="6.18222">
        <ele>370</ele>
        <time>2015-10-04T14:12:16Z</time>
      </trkpt>
      <trkpt lat="47.09516" lon="6.1822">
        <ele>369</ele>
        <time>2015-10-04T14:12:21Z</time>
      </trkpt>
      <trkpt lat="47.09533" lon="6.18218">
        <ele>369</ele>
        <time>2015-10-04T14:12:26Z</time>
      </trkpt>
      <trkpt lat="47.09546" lon="6.18217">
        <ele>368</ele>
        <time>2015-10-04T14:12:30Z</time>
      </trkpt>
      <trkpt lat="47.09562" lon="6.18215">
        <ele>369</ele>
        <time>2015-10-04T14:12:35Z</time>
      </trkpt>
      <trkpt lat="47.09572" lon="6.18214">
        <ele>370</ele>
        <time>2015-10-04T14:12:39Z</time>
      </trkpt>
      <trkpt lat="47.09583" lon="6.18214">
        <ele>369</ele>
        <time>2015-10-04T14:12:43Z</time>
      </trkpt>
      <trkpt lat="47.09604" lon="6.18205">
        <ele>367</ele>
        <time>2015-10-04T14:12:48Z</time>
      </trkpt>
      <trkpt lat="47.09636" lon="6.18186">
        <ele>364</ele>
        <time>2015-10-04T14:12:53Z</time>
      </trkpt>
      <trkpt lat="47.09664" lon="6.18168">
        <ele>364</ele>
        <time>2015-10-04T14:12:57Z</time>
      </trkpt>
      <trkpt lat="47.09694" lon="6.18152">
        <ele>363</ele>
        <time>2015-10-04T14:13:02Z</time>
      </trkpt>
      <trkpt lat="47.09715" lon="6.18147">
        <ele>363</ele>
        <time>2015-10-04T14:13:06Z</time>
      </trkpt>
      <trkpt lat="47.09741" lon="6.18147">
        <ele>363</ele>
        <time>2015-10-04T14:13:10Z</time>
      </trkpt>
      <trkpt lat="47.09767" lon="6.18148">
        <ele>362</ele>
        <time>2015-10-04T14:13:14Z</time>
      </trkpt>
      <trkpt lat="47.09794" lon="6.18148">
        <ele>361</ele>
        <time>2015-10-04T14:13:18Z</time>
      </trkpt>
      <trkpt lat="47.09827" lon="6.1815">
        <ele>361</ele>
        <time>2015-10-04T14:13:23Z</time>
      </trkpt>
      <trkpt lat="47.09851" lon="6.18152">
        <ele>361</ele>
        <time>2015-10-04T14:13:27Z</time>
      </trkpt>
      <trkpt lat="47.09877" lon="6.18154">
        <ele>361</ele>
        <time>2015-10-04T14:13:32Z</time>
      </trkpt>
      <trkpt lat="47.09895" lon="6.18157">
        <ele>361</ele>
        <time>2015-10-04T14:13:36Z</time>
      </trkpt>
      <trkpt lat="47.09913" lon="6.18161">
        <ele>361</ele>
        <time>2015-10-04T14:13:40Z</time>
      </trkpt>
      <trkpt lat="47.09932" lon="6.18167">
        <ele>361</ele>
        <time>2015-10-04T14:13:44Z</time>
      </trkpt>
      <trkpt lat="47.09952" lon="6.18173">
        <ele>360</ele>
        <time>2015-10-04T14:13:48Z</time>
      </trkpt>
      <trkpt lat="47.09978" lon="6.18176">
        <ele>358</ele>
        <time>2015-10-04T14:13:53Z</time>
      </trkpt>
      <trkpt lat="47.1" lon="6.18177">
        <ele>358</ele>
        <time>2015-10-04T14:13:57Z</time>
      </trkpt>
      <trkpt lat="47.10033" lon="6.18181">
        <ele>355</ele>
        <time>2015-10-04T14:14:02Z</time>
      </trkpt>
      <trkpt lat="47.10065" lon="6.18193">
        <ele>354</ele>
        <time>2015-10-04T14:14:07Z</time>
      </trkpt>
      <trkpt lat="47.10089" lon="6.18209">
        <ele>354</ele>
        <time>2015-10-04T14:14:11Z</time>
      </trkpt>
      <trkpt lat="47.10117" lon="6.18226">
        <ele>354</ele>
        <time>2015-10-04T14:14:16Z</time>
      </trkpt>
      <trkpt lat="47.10139" lon="6.1824">
        <ele>354</ele>
        <time>2015-10-04T14:14:20Z</time>
      </trkpt>
      <trkpt lat="47.1016" lon="6.18254">
        <ele>354</ele>
        <time>2015-10-04T14:14:24Z</time>
      </trkpt>
      <trkpt lat="47.10173" lon="6.1827">
        <ele>355</ele>
        <time>2015-10-04T14:14:28Z</time>
      </trkpt>
      <trkpt lat="47.10183" lon="6.1828">
        <ele>356</ele>
        <time>2015-10-04T14:14:32Z</time>
      </trkpt>
      <trkpt lat="47.10196" lon="6.18295">
        <ele>356</ele>
        <time>2015-10-04T14:14:37Z</time>
      </trkpt>
      <trkpt lat="47.10207" lon="6.18306">
        <ele>356</ele>
        <time>2015-10-04T14:14:41Z</time>
      </trkpt>
      <trkpt lat="47.10219" lon="6.18319">
        <ele>356</ele>
        <time>2015-10-04T14:14:45Z</time>
      </trkpt>
      <trkpt lat="47.10231" lon="6.18334">
        <ele>356</ele>
        <time>2015-10-04T14:14:50Z</time>
      </trkpt>
      <trkpt lat="47.10241" lon="6.18347">
        <ele>357</ele>
        <time>2015-10-04T14:14:55Z</time>
      </trkpt>
      <trkpt lat="47.1025" lon="6.18357">
        <ele>357</ele>
        <time>2015-10-04T14:14:59Z</time>
      </trkpt>
      <trkpt lat="47.10264" lon="6.18366">
        <ele>358</ele>
        <time>2015-10-04T14:15:03Z</time>
      </trkpt>
      <trkpt lat="47.10277" lon="6.18374">
        <ele>358</ele>
        <time>2015-10-04T14:15:07Z</time>
      </trkpt>
      <trkpt lat="47.10301" lon="6.18387">
        <ele>356</ele>
        <time>2015-10-04T14:15:12Z</time>
      </trkpt>
      <trkpt lat="47.10319" lon="6.18397">
        <ele>355</ele>
        <time>2015-10-04T14:15:16Z</time>
      </trkpt>
      <trkpt lat="47.10342" lon="6.18411">
        <ele>355</ele>
        <time>2015-10-04T14:15:21Z</time>
      </trkpt>
      <trkpt lat="47.10356" lon="6.18423">
        <ele>356</ele>
        <time>2015-10-04T14:15:25Z</time>
      </trkpt>
      <trkpt lat="47.1037" lon="6.18433">
        <ele>356</ele>
        <time>2015-10-04T14:15:29Z</time>
      </trkpt>
      <trkpt lat="47.1039" lon="6.18449">
        <ele>354</ele>
        <time>2015-10-04T14:15:34Z</time>
      </trkpt>
      <trkpt lat="47.10413" lon="6.18462">
        <ele>354</ele>
        <time>2015-10-04T14:15:39Z</time>
      </trkpt>
      <trkpt lat="47.10434" lon="6.18474">
        <ele>355</ele>
        <time>2015-10-04T14:15:44Z</time>
      </trkpt>
      <trkpt lat="47.10448" lon="6.1848">
        <ele>358</ele>
        <time>2015-10-04T14:15:48Z</time>
      </trkpt>
      <trkpt lat="47.10465" lon="6.18489">
        <ele>358</ele>
        <time>2015-10-04T14:15:53Z</time>
      </trkpt>
      <trkpt lat="47.10479" lon="6.18498">
        <ele>357</ele>
        <time>2015-10-04T14:15:57Z</time>
      </trkpt>
      <trkpt lat="47.10492" lon="6.18509">
        <ele>358</ele>
        <time>2015-10-04T14:16:01Z</time>
      </trkpt>
      <trkpt lat="47.10505" lon="6.18516">
        <ele>359</ele>
        <time>2015-10-04T14:16:05Z</time>
      </trkpt>
      <trkpt lat="47.1052" lon="6.18523">
        <ele>362</ele>
        <time>2015-10-04T14:16:09Z</time>
      </trkpt>
      <trkpt lat="47.10532" lon="6.18532">
        <ele>365</ele>
        <time>2015-10-04T14:16:13Z</time>
      </trkpt>
      <trkpt lat="47.1055" lon="6.18535">
        <ele>368</ele>
        <time>2015-10-04T14:16:18Z</time>
      </trkpt>
      <trkpt lat="47.10564" lon="6.1854">
        <ele>366</ele>
        <time>2015-10-04T14:16:22Z</time>
      </trkpt>
      <trkpt lat="47.10582" lon="6.18555">
        <ele>364</ele>
        <time>2015-10-04T14:16:26Z</time>
      </trkpt>
      <trkpt lat="47.10596" lon="6.18562">
        <ele>360</ele>
        <time>2015-10-04T14:16:30Z</time>
      </trkpt>
      <trkpt lat="47.10604" lon="6.18547">
        <ele>359</ele>
        <time>2015-10-04T14:16:35Z</time>
      </trkpt>
      <trkpt lat="47.10608" lon="6.18533">
        <ele>356</ele>
        <time>2015-10-04T14:16:40Z</time>
      </trkpt>
      <trkpt lat="47.1061" lon="6.1852">
        <ele>359</ele>
        <time>2015-10-04T14:17:00Z</time>
      </trkpt>
      <trkpt lat="47.10608" lon="6.18505">
        <ele>359</ele>
        <time>2015-10-04T14:17:05Z</time>
      </trkpt>
      <trkpt lat="47.10598" lon="6.18495">
        <ele>360</ele>
        <time>2015-10-04T14:17:09Z</time>
      </trkpt>
      <trkpt lat="47.10585" lon="6.18488">
        <ele>361</ele>
        <time>2015-10-04T14:17:14Z</time>
      </trkpt>
      <trkpt lat="47.10569" lon="6.1848">
        <ele>360</ele>
        <time>2015-10-04T14:17:18Z</time>
      </trkpt>
      <trkpt lat="47.10552" lon="6.18469">
        <ele>361</ele>
        <time>2015-10-04T14:17:22Z</time>
      </trkpt>
      <trkpt lat="47.10535" lon="6.18459">
        <ele>359</ele>
        <time>2015-10-04T14:17:26Z</time>
      </trkpt>
      <trkpt lat="47.10517" lon="6.18449">
        <ele>359</ele>
        <time>2015-10-04T14:17:30Z</time>
      </trkpt>
      <trkpt lat="47.10492" lon="6.18436">
        <ele>416</ele>
        <time>2015-10-04T14:17:35Z</time>
      </trkpt>
      <trkpt lat="47.10474" lon="6.18426">
        <ele>384</ele>
        <time>2015-10-04T14:17:39Z</time>
      </trkpt>
      <trkpt lat="47.10457" lon="6.18413">
        <ele>375</ele>
        <time>2015-10-04T14:17:43Z</time>
      </trkpt>
      <trkpt lat="47.10439" lon="6.18396">
        <ele>369</ele>
        <time>2015-10-04T14:17:47Z</time>
      </trkpt>
      <trkpt lat="47.10418" lon="6.18377">
        <ele>361</ele>
        <time>2015-10-04T14:17:52Z</time>
      </trkpt>
      <trkpt lat="47.10399" lon="6.18356">
        <ele>359</ele>
        <time>2015-10-04T14:17:57Z</time>
      </trkpt>
      <trkpt lat="47.10383" lon="6.1834">
        <ele>357</ele>
        <time>2015-10-04T14:18:01Z</time>
      </trkpt>
      <trkpt lat="47.10366" lon="6.18328">
        <ele>359</ele>
        <time>2015-10-04T14:18:05Z</time>
      </trkpt>
      <trkpt lat="47.10346" lon="6.18312">
        <ele>357</ele>
        <time>2015-10-04T14:18:09Z</time>
      </trkpt>
      <trkpt lat="47.10326" lon="6.18297">
        <ele>398</ele>
        <time>2015-10-04T14:18:13Z</time>
      </trkpt>
      <trkpt lat="47.10303" lon="6.18277">
        <ele>365</ele>
        <time>2015-10-04T14:18:18Z</time>
      </trkpt>
      <trkpt lat="47.10292" lon="6.18254">
        <ele>360</ele>
        <time>2015-10-04T14:18:22Z</time>
      </trkpt>
      <trkpt lat="47.10272" lon="6.18227">
        <ele>359</ele>
        <time>2015-10-04T14:18:27Z</time>
      </trkpt>
      <trkpt lat="47.10258" lon="6.18209">
        <ele>359</ele>
        <time>2015-10-04T14:18:32Z</time>
      </trkpt>
      <trkpt lat="47.10242" lon="6.18194">
        <ele>358</ele>
        <time>2015-10-04T14:18:37Z</time>
      </trkpt>
      <trkpt lat="47.10228" lon="6.18178">
        <ele>358</ele>
        <time>2015-10-04T14:18:41Z</time>
      </trkpt>
      <trkpt lat="47.10216" lon="6.18166">
        <ele>359</ele>
        <time>2015-10-04T14:18:45Z</time>
      </trkpt>
      <trkpt lat="47.10206" lon="6.18152">
        <ele>356</ele>
        <time>2015-10-04T14:18:49Z</time>
      </trkpt>
      <trkpt lat="47.10187" lon="6.1813">
        <ele>355</ele>
        <time>2015-10-04T14:18:54Z</time>
      </trkpt>
      <trkpt lat="47.10164" lon="6.18102">
        <ele>354</ele>
        <time>2015-10-04T14:18:59Z</time>
      </trkpt>
      <trkpt lat="47.10144" lon="6.18081">
        <ele>353</ele>
        <time>2015-10-04T14:19:03Z</time>
      </trkpt>
      <trkpt lat="47.10117" lon="6.18061">
        <ele>353</ele>
        <time>2015-10-04T14:19:08Z</time>
      </trkpt>
      <trkpt lat="47.10094" lon="6.18049">
        <ele>354</ele>
        <time>2015-10-04T14:19:12Z</time>
      </trkpt>
      <trkpt lat="47.10077" lon="6.1803">
        <ele>354</ele>
        <time>2015-10-04T14:19:16Z</time>
      </trkpt>
      <trkpt lat="47.10063" lon="6.18008">
        <ele>354</ele>
        <time>2015-10-04T14:19:20Z</time>
      </trkpt>
      <trkpt lat="47.1004" lon="6.17987">
        <ele>352</ele>
        <time>2015-10-04T14:19:25Z</time>
      </trkpt>
      <trkpt lat="47.10006" lon="6.17978">
        <ele>349</ele>
        <time>2015-10-04T14:19:30Z</time>
      </trkpt>
      <trkpt lat="47.09973" lon="6.17965">
        <ele>348</ele>
        <time>2015-10-04T14:19:35Z</time>
      </trkpt>
      <trkpt lat="47.09951" lon="6.17947">
        <ele>347</ele>
        <time>2015-10-04T14:19:39Z</time>
      </trkpt>
      <trkpt lat="47.09927" lon="6.17926">
        <ele>346</ele>
        <time>2015-10-04T14:19:44Z</time>
      </trkpt>
      <trkpt lat="47.09899" lon="6.17919">
        <ele>345</ele>
        <time>2015-10-04T14:19:48Z</time>
      </trkpt>
      <trkpt lat="47.09871" lon="6.17907">
        <ele>344</ele>
        <time>2015-10-04T14:19:52Z</time>
      </trkpt>
      <trkpt lat="47.09846" lon="6.17892">
        <ele>343</ele>
        <time>2015-10-04T14:19:57Z</time>
      </trkpt>
      <trkpt lat="47.09816" lon="6.17872">
        <ele>342</ele>
        <time>2015-10-04T14:20:01Z</time>
      </trkpt>
      <trkpt lat="47.09787" lon="6.17854">
        <ele>340</ele>
        <time>2015-10-04T14:20:06Z</time>
      </trkpt>
      <trkpt lat="47.09758" lon="6.17859">
        <ele>339</ele>
        <time>2015-10-04T14:20:11Z</time>
      </trkpt>
      <trkpt lat="47.09731" lon="6.17861">
        <ele>339</ele>
        <time>2015-10-04T14:20:15Z</time>
      </trkpt>
      <trkpt lat="47.09706" lon="6.17858">
        <ele>339</ele>
        <time>2015-10-04T14:20:19Z</time>
      </trkpt>
      <trkpt lat="47.09688" lon="6.17841">
        <ele>338</ele>
        <time>2015-10-04T14:20:23Z</time>
      </trkpt>
      <trkpt lat="47.0967" lon="6.17818">
        <ele>338</ele>
        <time>2015-10-04T14:20:27Z</time>
      </trkpt>
      <trkpt lat="47.09656" lon="6.17788">
        <ele>337</ele>
        <time>2015-10-04T14:20:31Z</time>
      </trkpt>
      <trkpt lat="47.09642" lon="6.17747">
        <ele>336</ele>
        <time>2015-10-04T14:20:36Z</time>
      </trkpt>
      <trkpt lat="47.09636" lon="6.17721">
        <ele>336</ele>
        <time>2015-10-04T14:20:40Z</time>
      </trkpt>
      <trkpt lat="47.09622" lon="6.1767">
        <ele>346</ele>
        <time>2015-10-04T14:20:45Z</time>
      </trkpt>
      <trkpt lat="47.09613" lon="6.17629">
        <ele>339</ele>
        <time>2015-10-04T14:20:50Z</time>
      </trkpt>
      <trkpt lat="47.09597" lon="6.17598">
        <ele>339</ele>
        <time>2015-10-04T14:20:55Z</time>
      </trkpt>
      <trkpt lat="47.09606" lon="6.17569">
        <ele>339</ele>
        <time>2015-10-04T14:21:00Z</time>
      </trkpt>
      <trkpt lat="47.09615" lon="6.17544">
        <ele>338</ele>
        <time>2015-10-04T14:21:04Z</time>
      </trkpt>
      <trkpt lat="47.09623" lon="6.17516">
        <ele>338</ele>
        <time>2015-10-04T14:21:08Z</time>
      </trkpt>
      <trkpt lat="47.09633" lon="6.17482">
        <ele>338</ele>
        <time>2015-10-04T14:21:13Z</time>
      </trkpt>
      <trkpt lat="47.0964" lon="6.17454">
        <ele>338</ele>
        <time>2015-10-04T14:21:17Z</time>
      </trkpt>
      <trkpt lat="47.09646" lon="6.17425">
        <ele>339</ele>
        <time>2015-10-04T14:21:21Z</time>
      </trkpt>
      <trkpt lat="47.09652" lon="6.17399">
        <ele>339</ele>
        <time>2015-10-04T14:21:25Z</time>
      </trkpt>
      <trkpt lat="47.09658" lon="6.17369">
        <ele>339</ele>
        <time>2015-10-04T14:21:30Z</time>
      </trkpt>
      <trkpt lat="47.09664" lon="6.17342">
        <ele>339</ele>
        <time>2015-10-04T14:21:34Z</time>
      </trkpt>
      <trkpt lat="47.09669" lon="6.17316">
        <ele>338</ele>
        <time>2015-10-04T14:21:38Z</time>
      </trkpt>
      <trkpt lat="47.09675" lon="6.17289">
        <ele>338</ele>
        <time>2015-10-04T14:21:42Z</time>
      </trkpt>
      <trkpt lat="47.09681" lon="6.17261">
        <ele>338</ele>
        <time>2015-10-04T14:21:46Z</time>
      </trkpt>
      <trkpt lat="47.09691" lon="6.17224">
        <ele>337</ele>
        <time>2015-10-04T14:21:51Z</time>
      </trkpt>
      <trkpt lat="47.09702" lon="6.17195">
        <ele>337</ele>
        <time>2015-10-04T14:21:55Z</time>
      </trkpt>
      <trkpt lat="47.09713" lon="6.17164">
        <ele>336</ele>
        <time>2015-10-04T14:21:59Z</time>
      </trkpt>
      <trkpt lat="47.09725" lon="6.17132">
        <ele>336</ele>
        <time>2015-10-04T14:22:03Z</time>
      </trkpt>
      <trkpt lat="47.09739" lon="6.17094">
        <ele>336</ele>
        <time>2015-10-04T14:22:08Z</time>
      </trkpt>
      <trkpt lat="47.09755" lon="6.17053">
        <ele>335</ele>
        <time>2015-10-04T14:22:13Z</time>
      </trkpt>
      <trkpt lat="47.09768" lon="6.1702">
        <ele>334</ele>
        <time>2015-10-04T14:22:17Z</time>
      </trkpt>
      <trkpt lat="47.09784" lon="6.16977">
        <ele>335</ele>
        <time>2015-10-04T14:22:22Z</time>
      </trkpt>
      <trkpt lat="47.09797" lon="6.16943">
        <ele>335</ele>
        <time>2015-10-04T14:22:26Z</time>
      </trkpt>
      <trkpt lat="47.0981" lon="6.16909">
        <ele>335</ele>
        <time>2015-10-04T14:22:30Z</time>
      </trkpt>
      <trkpt lat="47.09825" lon="6.16876">
        <ele>335</ele>
        <time>2015-10-04T14:22:34Z</time>
      </trkpt>
      <trkpt lat="47.09842" lon="6.16846">
        <ele>335</ele>
        <time>2015-10-04T14:22:38Z</time>
      </trkpt>
      <trkpt lat="47.09867" lon="6.16814">
        <ele>336</ele>
        <time>2015-10-04T14:22:43Z</time>
      </trkpt>
      <trkpt lat="47.09895" lon="6.16783">
        <ele>335</ele>
        <time>2015-10-04T14:22:48Z</time>
      </trkpt>
      <trkpt lat="47.09919" lon="6.16761">
        <ele>335</ele>
        <time>2015-10-04T14:22:52Z</time>
      </trkpt>
      <trkpt lat="47.09943" lon="6.1674">
        <ele>334</ele>
        <time>2015-10-04T14:22:56Z</time>
      </trkpt>
      <trkpt lat="47.09973" lon="6.16712">
        <ele>334</ele>
        <time>2015-10-04T14:23:01Z</time>
      </trkpt>
      <trkpt lat="47.09996" lon="6.16691">
        <ele>334</ele>
        <time>2015-10-04T14:23:05Z</time>
      </trkpt>
      <trkpt lat="47.1002" lon="6.16669">
        <ele>333</ele>
        <time>2015-10-04T14:23:09Z</time>
      </trkpt>
      <trkpt lat="47.1005" lon="6.16644">
        <ele>333</ele>
        <time>2015-10-04T14:23:14Z</time>
      </trkpt>
      <trkpt lat="47.10074" lon="6.16624">
        <ele>333</ele>
        <time>2015-10-04T14:23:18Z</time>
      </trkpt>
      <trkpt lat="47.10098" lon="6.16604">
        <ele>333</ele>
        <time>2015-10-04T14:23:22Z</time>
      </trkpt>
      <trkpt lat="47.10128" lon="6.1658">
        <ele>334</ele>
        <time>2015-10-04T14:23:27Z</time>
      </trkpt>
      <trkpt lat="47.10153" lon="6.16561">
        <ele>333</ele>
        <time>2015-10-04T14:23:31Z</time>
      </trkpt>
      <trkpt lat="47.1018" lon="6.16544">
        <ele>334</ele>
        <time>2015-10-04T14:23:35Z</time>
      </trkpt>
      <trkpt lat="47.10205" lon="6.16529">
        <ele>333</ele>
        <time>2015-10-04T14:23:39Z</time>
      </trkpt>
      <trkpt lat="47.10232" lon="6.16515">
        <ele>334</ele>
        <time>2015-10-04T14:23:43Z</time>
      </trkpt>
      <trkpt lat="47.10266" lon="6.16502">
        <ele>334</ele>
        <time>2015-10-04T14:23:48Z</time>
      </trkpt>
      <trkpt lat="47.10294" lon="6.16489">
        <ele>334</ele>
        <time>2015-10-04T14:23:52Z</time>
      </trkpt>
      <trkpt lat="47.10321" lon="6.16474">
        <ele>335</ele>
        <time>2015-10-04T14:23:56Z</time>
      </trkpt>
      <trkpt lat="47.10347" lon="6.16452">
        <ele>335</ele>
        <time>2015-10-04T14:24:00Z</time>
      </trkpt>
      <trkpt lat="47.10375" lon="6.1642">
        <ele>334</ele>
        <time>2015-10-04T14:24:05Z</time>
      </trkpt>
      <trkpt lat="47.10395" lon="6.16389">
        <ele>335</ele>
        <time>2015-10-04T14:24:10Z</time>
      </trkpt>
      <trkpt lat="47.10416" lon="6.16347">
        <ele>334</ele>
        <time>2015-10-04T14:24:14Z</time>
      </trkpt>
      <trkpt lat="47.1043" lon="6.16298">
        <ele>335</ele>
        <time>2015-10-04T14:24:19Z</time>
      </trkpt>
      <trkpt lat="47.1044" lon="6.16249">
        <ele>333</ele>
        <time>2015-10-04T14:24:24Z</time>
      </trkpt>
      <trkpt lat="47.10448" lon="6.1621">
        <ele>332</ele>
        <time>2015-10-04T14:24:28Z</time>
      </trkpt>
      <trkpt lat="47.10457" lon="6.1616">
        <ele>332</ele>
        <time>2015-10-04T14:24:33Z</time>
      </trkpt>
      <trkpt lat="47.10467" lon="6.16114">
        <ele>332</ele>
        <time>2015-10-04T14:24:38Z</time>
      </trkpt>
      <trkpt lat="47.10477" lon="6.16065">
        <ele>332</ele>
        <time>2015-10-04T14:24:43Z</time>
      </trkpt>
      <trkpt lat="47.10485" lon="6.16027">
        <ele>332</ele>
        <time>2015-10-04T14:24:47Z</time>
      </trkpt>
      <trkpt lat="47.10492" lon="6.1599">
        <ele>332</ele>
        <time>2015-10-04T14:24:51Z</time>
      </trkpt>
      <trkpt lat="47.10498" lon="6.15951">
        <ele>332</ele>
        <time>2015-10-04T14:24:55Z</time>
      </trkpt>
      <trkpt lat="47.105" lon="6.15912">
        <ele>333</ele>
        <time>2015-10-04T14:24:59Z</time>
      </trkpt>
      <trkpt lat="47.10499" lon="6.15864">
        <ele>333</ele>
        <time>2015-10-04T14:25:04Z</time>
      </trkpt>
      <trkpt lat="47.10493" lon="6.15826">
        <ele>332</ele>
        <time>2015-10-04T14:25:08Z</time>
      </trkpt>
      <trkpt lat="47.10479" lon="6.15792">
        <ele>332</ele>
        <time>2015-10-04T14:25:12Z</time>
      </trkpt>
      <trkpt lat="47.10461" lon="6.15761">
        <ele>332</ele>
        <time>2015-10-04T14:25:16Z</time>
      </trkpt>
      <trkpt lat="47.10457" lon="6.15718">
        <ele>335</ele>
        <time>2015-10-04T14:25:21Z</time>
      </trkpt>
      <trkpt lat="47.10455" lon="6.1569">
        <ele>337</ele>
        <time>2015-10-04T14:25:25Z</time>
      </trkpt>
      <trkpt lat="47.10445" lon="6.15661">
        <ele>338</ele>
        <time>2015-10-04T14:25:30Z</time>
      </trkpt>
      <trkpt lat="47.1043" lon="6.15645">
        <ele>338</ele>
        <time>2015-10-04T14:25:35Z</time>
      </trkpt>
      <trkpt lat="47.1042" lon="6.15661">
        <ele>339</ele>
        <time>2015-10-04T14:25:39Z</time>
      </trkpt>
      <trkpt lat="47.10415" lon="6.15677">
        <ele>338</ele>
        <time>2015-10-04T14:25:43Z</time>
      </trkpt>
      <trkpt lat="47.10411" lon="6.15697">
        <ele>338</ele>
        <time>2015-10-04T14:25:48Z</time>
      </trkpt>
      <trkpt lat="47.1041" lon="6.15714">
        <ele>339</ele>
        <time>2015-10-04T14:25:52Z</time>
      </trkpt>
      <trkpt lat="47.10408" lon="6.15732">
        <ele>339</ele>
        <time>2015-10-04T14:25:56Z</time>
      </trkpt>
      <trkpt lat="47.10404" lon="6.15759">
        <ele>339</ele>
        <time>2015-10-04T14:26:01Z</time>
      </trkpt>
      <trkpt lat="47.10401" lon="6.15787">
        <ele>339</ele>
        <time>2015-10-04T14:26:06Z</time>
      </trkpt>
      <trkpt lat="47.10398" lon="6.15809">
        <ele>340</ele>
        <time>2015-10-04T14:26:10Z</time>
      </trkpt>
      <trkpt lat="47.10394" lon="6.15834">
        <ele>340</ele>
        <time>2015-10-04T14:26:15Z</time>
      </trkpt>
      <trkpt lat="47.10387" lon="6.15858">
        <ele>340</ele>
        <time>2015-10-04T14:26:20Z</time>
      </trkpt>
      <trkpt lat="47.10381" lon="6.15878">
        <ele>339</ele>
        <time>2015-10-04T14:26:24Z</time>
      </trkpt>
      <trkpt lat="47.10376" lon="6.15898">
        <ele>339</ele>
        <time>2015-10-04T14:26:28Z</time>
      </trkpt>
      <trkpt lat="47.10368" lon="6.15922">
        <ele>339</ele>
        <time>2015-10-04T14:26:33Z</time>
      </trkpt>
      <trkpt lat="47.10355" lon="6.15954">
        <ele>339</ele>
        <time>2015-10-04T14:26:38Z</time>
      </trkpt>
      <trkpt lat="47.10344" lon="6.15978">
        <ele>339</ele>
        <time>2015-10-04T14:26:42Z</time>
      </trkpt>
      <trkpt lat="47.10326" lon="6.1601">
        <ele>338</ele>
        <time>2015-10-04T14:26:47Z</time>
      </trkpt>
      <trkpt lat="47.10309" lon="6.16034">
        <ele>339</ele>
        <time>2015-10-04T14:26:51Z</time>
      </trkpt>
      <trkpt lat="47.1029" lon="6.16054">
        <ele>339</ele>
        <time>2015-10-04T14:26:55Z</time>
      </trkpt>
      <trkpt lat="47.10271" lon="6.16071">
        <ele>339</ele>
        <time>2015-10-04T14:26:59Z</time>
      </trkpt>
      <trkpt lat="47.10256" lon="6.16088">
        <ele>338</ele>
        <time>2015-10-04T14:27:03Z</time>
      </trkpt>
      <trkpt lat="47.10237" lon="6.16097">
        <ele>339</ele>
        <time>2015-10-04T14:27:07Z</time>
      </trkpt>
      <trkpt lat="47.10213" lon="6.16093">
        <ele>339</ele>
        <time>2015-10-04T14:27:12Z</time>
      </trkpt>
      <trkpt lat="47.10195" lon="6.16088">
        <ele>339</ele>
        <time>2015-10-04T14:27:16Z</time>
      </trkpt>
      <trkpt lat="47.1018" lon="6.16083">
        <ele>339</ele>
        <time>2015-10-04T14:27:21Z</time>
      </trkpt>
      <trkpt lat="47.10171" lon="6.16083">
        <ele>339</ele>
        <time>2015-10-04T14:27:26Z</time>
      </trkpt>
      <trkpt lat="47.10164" lon="6.16079">
        <ele>339</ele>
        <time>2015-10-04T14:28:06Z</time>
      </trkpt>
      <trkpt lat="47.10152" lon="6.16074">
        <ele>338</ele>
        <time>2015-10-04T14:28:11Z</time>
      </trkpt>
      <trkpt lat="47.1014" lon="6.16075">
        <ele>338</ele>
        <time>2015-10-04T14:28:15Z</time>
      </trkpt>
      <trkpt lat="47.10129" lon="6.16079">
        <ele>339</ele>
        <time>2015-10-04T14:28:19Z</time>
      </trkpt>
      <trkpt lat="47.10116" lon="6.16086">
        <ele>338</ele>
        <time>2015-10-04T14:28:24Z</time>
      </trkpt>
      <trkpt lat="47.10107" lon="6.16099">
        <ele>337</ele>
        <time>2015-10-04T14:28:29Z</time>
      </trkpt>
      <trkpt lat="47.10114" lon="6.16113">
        <ele>339</ele>
        <time>2015-10-04T14:28:33Z</time>
      </trkpt>
      <trkpt lat="47.10122" lon="6.16119">
        <ele>343</ele>
        <time>2015-10-04T14:28:38Z</time>
      </trkpt>
      <trkpt lat="47.10119" lon="6.16107">
        <ele>342</ele>
        <time>2015-10-04T14:28:55Z</time>
      </trkpt>
      <trkpt lat="47.10116" lon="6.16094">
        <ele>341</ele>
        <time>2015-10-04T14:28:59Z</time>
      </trkpt>
      <trkpt lat="47.10115" lon="6.16106">
        <ele>336</ele>
        <time>2015-10-04T14:29:06Z</time>
      </trkpt>
      <trkpt lat="47.10119" lon="6.16116">
        <ele>336</ele>
        <time>2015-10-04T14:29:42Z</time>
      </trkpt>
      <trkpt lat="47.10119" lon="6.16116">
        <ele>336</ele>
        <time>2015-10-04T14:29:42Z</time>
      </trkpt>
    </trkseg>
  </trk>
</gpx>